<?xml version='1.0' encoding='UTF-8'?><gpx version="1.1" creator="JPX - https://github.com/jenetics/jpx" xmlns="http://www.topografix.com/GPX/1/1"><trk><trkseg><trkpt lat="42.53519747121482" lon="11.925163645751764"><ele>312.0</ele><time>2026-05-01T15:49:36Z</time></trkpt><trkpt lat="42.53515705503315" lon="11.925239316355768"><ele>312.0</ele><time>2026-05-01T15:49:37Z</time></trkpt><trkpt lat="42.53509298138694" lon="11.925323235414817"><ele>312.0</ele><time>2026-05-01T15:49:39Z</time></trkpt><trkpt lat="42.53504020844765" lon="11.925375179911336"><ele>312.0</ele><time>2026-05-01T15:49:41Z</time></trkpt><trkpt lat="42.53493392165606" lon="11.92535606994731"><ele>312.0</ele><time>2026-05-01T15:49:43Z</time></trkpt><trkpt lat="42.53481217474236" lon="11.925311066611046"><ele>312.0</ele><time>2026-05-01T15:49:45Z</time></trkpt><trkpt lat="42.53469304983533" lon="11.925251896005166"><ele>312.0</ele><time>2026-05-01T15:49:47Z</time></trkpt><trkpt lat="42.53462340630102" lon="11.925221857401691"><ele>312.0</ele><time>2026-05-01T15:49:48Z</time></trkpt><trkpt lat="42.53454968473625" lon="11.925197801716909"><ele>312.0</ele><time>2026-05-01T15:49:49Z</time></trkpt><trkpt lat="42.53446426077158" lon="11.925180383883399"><ele>312.0</ele><time>2026-05-01T15:49:50Z</time></trkpt><trkpt lat="42.53437354429432" lon="11.925145054264236"><ele>312.6666666666667</ele><time>2026-05-01T15:49:51Z</time></trkpt><trkpt lat="42.53429295753265" lon="11.925116962324429"><ele>313.3333333333333</ele><time>2026-05-01T15:49:52Z</time></trkpt><trkpt lat="42.53421630434691" lon="11.925091197128388"><ele>314.0</ele><time>2026-05-01T15:49:53Z</time></trkpt><trkpt lat="42.534147608984206" lon="11.925090326370134"><ele>314.66666666666663</ele><time>2026-05-01T15:49:54Z</time></trkpt><trkpt lat="42.534044791718465" lon="11.92505419801886"><ele>315.3333333333333</ele><time>2026-05-01T15:49:56Z</time></trkpt><trkpt lat="42.53396786466278" lon="11.925015025189428"><ele>316.0</ele><time>2026-05-01T15:49:58Z</time></trkpt><trkpt lat="42.53397087818522" lon="11.924870574510365"><ele>316.5</ele><time>2026-05-01T15:50:00Z</time></trkpt><trkpt lat="42.53402166028617" lon="11.924789173495823"><ele>317.0</ele><time>2026-05-01T15:50:01Z</time></trkpt><trkpt lat="42.53407804769322" lon="11.924712230386458"><ele>317.5</ele><time>2026-05-01T15:50:02Z</time></trkpt><trkpt lat="42.53414017810345" lon="11.924634286230496"><ele>318.0</ele><time>2026-05-01T15:50:03Z</time></trkpt><trkpt lat="42.534219295058364" lon="11.924563078984098"><ele>318.5</ele><time>2026-05-01T15:50:04Z</time></trkpt><trkpt lat="42.53429379547429" lon="11.92450100155033"><ele>319.0</ele><time>2026-05-01T15:50:05Z</time></trkpt><trkpt lat="42.534376397938544" lon="11.924428033180677"><ele>319.0</ele><time>2026-05-01T15:50:06Z</time></trkpt><trkpt lat="42.53447181543638" lon="11.924349859317855"><ele>319.0</ele><time>2026-05-01T15:50:07Z</time></trkpt><trkpt lat="42.534566718195585" lon="11.924267433266444"><ele>319.0</ele><time>2026-05-01T15:50:08Z</time></trkpt><trkpt lat="42.53467103648747" lon="11.924204619079045"><ele>319.0</ele><time>2026-05-01T15:50:09Z</time></trkpt><trkpt lat="42.53476721299776" lon="11.924122506127379"><ele>319.6</ele><time>2026-05-01T15:50:10Z</time></trkpt><trkpt lat="42.534856466269524" lon="11.924045854936175"><ele>320.2</ele><time>2026-05-01T15:50:11Z</time></trkpt><trkpt lat="42.53493478864346" lon="11.923971211026076"><ele>320.8</ele><time>2026-05-01T15:50:12Z</time></trkpt><trkpt lat="42.53500717404488" lon="11.92389700920746"><ele>321.40000000000003</ele><time>2026-05-01T15:50:13Z</time></trkpt><trkpt lat="42.53507819007086" lon="11.923821887253625"><ele>322.0</ele><time>2026-05-01T15:50:14Z</time></trkpt><trkpt lat="42.53514372210316" lon="11.923732272189612"><ele>322.0</ele><time>2026-05-01T15:50:15Z</time></trkpt><trkpt lat="42.53519740831482" lon="11.923642107910325"><ele>322.0</ele><time>2026-05-01T15:50:16Z</time></trkpt><trkpt lat="42.53523843207151" lon="11.923533595107475"><ele>322.0</ele><time>2026-05-01T15:50:17Z</time></trkpt><trkpt lat="42.53526815398055" lon="11.923394674942665"><ele>322.0</ele><time>2026-05-01T15:50:18Z</time></trkpt><trkpt lat="42.5352729532848" lon="11.923218547631231"><ele>322.0</ele><time>2026-05-01T15:50:19Z</time></trkpt><trkpt lat="42.53525843547838" lon="11.923067139053522"><ele>322.25</ele><time>2026-05-01T15:50:20Z</time></trkpt><trkpt lat="42.53528093977599" lon="11.922888463479522"><ele>322.5</ele><time>2026-05-01T15:50:21Z</time></trkpt><trkpt lat="42.535275536858734" lon="11.922735988371766"><ele>322.75</ele><time>2026-05-01T15:50:22Z</time></trkpt><trkpt lat="42.53527344538003" lon="11.922573594406373"><ele>323.0</ele><time>2026-05-01T15:50:23Z</time></trkpt><trkpt lat="42.53527010828309" lon="11.922409378122111"><ele>322.4</ele><time>2026-05-01T15:50:24Z</time></trkpt><trkpt lat="42.535263321998315" lon="11.922246817087956"><ele>321.79999999999995</ele><time>2026-05-01T15:50:25Z</time></trkpt><trkpt lat="42.53526119379563" lon="11.922096760127136"><ele>321.2</ele><time>2026-05-01T15:50:26Z</time></trkpt><trkpt lat="42.53527403372539" lon="11.921956529585435"><ele>320.6</ele><time>2026-05-01T15:50:27Z</time></trkpt><trkpt lat="42.53532456303134" lon="11.92183678098926"><ele>320.0</ele><time>2026-05-01T15:50:28Z</time></trkpt><trkpt lat="42.53537142453894" lon="11.92171011539372"><ele>319.0</ele><time>2026-05-01T15:50:29Z</time></trkpt><trkpt lat="42.53542503074998" lon="11.921589710233373"><ele>318.0</ele><time>2026-05-01T15:50:30Z</time></trkpt><trkpt lat="42.53548162398294" lon="11.921462256868397"><ele>317.0</ele><time>2026-05-01T15:50:31Z</time></trkpt><trkpt lat="42.53553793677659" lon="11.921339117202448"><ele>316.0</ele><time>2026-05-01T15:50:32Z</time></trkpt><trkpt lat="42.5355931016258" lon="11.921220797211841"><ele>315.0</ele><time>2026-05-01T15:50:33Z</time></trkpt><trkpt lat="42.53565045474653" lon="11.921097675313638"><ele>315.0</ele><time>2026-05-01T15:50:34Z</time></trkpt><trkpt lat="42.53570778424597" lon="11.920974604118333"><ele>315.0</ele><time>2026-05-01T15:50:35Z</time></trkpt><trkpt lat="42.53575650934654" lon="11.92084664239865"><ele>315.0</ele><time>2026-05-01T15:50:36Z</time></trkpt><trkpt lat="42.53581572597648" lon="11.920721026850009"><ele>315.0</ele><time>2026-05-01T15:50:37Z</time></trkpt><trkpt lat="42.535899228221226" lon="11.920618040585"><ele>315.0</ele><time>2026-05-01T15:50:38Z</time></trkpt><trkpt lat="42.53597236444887" lon="11.920511906613578"><ele>315.4</ele><time>2026-05-01T15:50:39Z</time></trkpt><trkpt lat="42.53605424091253" lon="11.920417804952317"><ele>315.8</ele><time>2026-05-01T15:50:40Z</time></trkpt><trkpt lat="42.53613906663005" lon="11.9203335293316"><ele>316.2</ele><time>2026-05-01T15:50:41Z</time></trkpt><trkpt lat="42.536224655080616" lon="11.92025122877646"><ele>316.6</ele><time>2026-05-01T15:50:42Z</time></trkpt><trkpt lat="42.53629926376008" lon="11.920159088356796"><ele>317.0</ele><time>2026-05-01T15:50:43Z</time></trkpt><trkpt lat="42.53638385952398" lon="11.9200885292195"><ele>317.4</ele><time>2026-05-01T15:50:44Z</time></trkpt><trkpt lat="42.5364692502616" lon="11.920020044093556"><ele>317.79999999999995</ele><time>2026-05-01T15:50:45Z</time></trkpt><trkpt lat="42.53654914952441" lon="11.919954718274719"><ele>318.2</ele><time>2026-05-01T15:50:46Z</time></trkpt><trkpt lat="42.53662196039123" lon="11.919889863572639"><ele>318.59999999999997</ele><time>2026-05-01T15:50:47Z</time></trkpt><trkpt lat="42.536696911306386" lon="11.919811769532604"><ele>319.0</ele><time>2026-05-01T15:50:48Z</time></trkpt><trkpt lat="42.53678270336226" lon="11.9197618970538"><ele>319.0</ele><time>2026-05-01T15:50:49Z</time></trkpt><trkpt lat="42.53687041300357" lon="11.919685713776714"><ele>319.0</ele><time>2026-05-01T15:50:50Z</time></trkpt><trkpt lat="42.53694850575242" lon="11.919618024470834"><ele>319.0</ele><time>2026-05-01T15:50:51Z</time></trkpt><trkpt lat="42.53702178891529" lon="11.9195298624567"><ele>319.0</ele><time>2026-05-01T15:50:52Z</time></trkpt><trkpt lat="42.53710114154531" lon="11.919458603288273"><ele>319.0</ele><time>2026-05-01T15:50:53Z</time></trkpt><trkpt lat="42.537187909321005" lon="11.91940861201535"><ele>319.6</ele><time>2026-05-01T15:50:54Z</time></trkpt><trkpt lat="42.537269118662316" lon="11.919338746331531"><ele>320.2</ele><time>2026-05-01T15:50:55Z</time></trkpt><trkpt lat="42.537352066704216" lon="11.919266536965852"><ele>320.8</ele><time>2026-05-01T15:50:56Z</time></trkpt><trkpt lat="42.53743334062697" lon="11.919194523333921"><ele>321.40000000000003</ele><time>2026-05-01T15:50:57Z</time></trkpt><trkpt lat="42.537515679475106" lon="11.919123103367731"><ele>322.0</ele><time>2026-05-01T15:50:58Z</time></trkpt><trkpt lat="42.53759991812588" lon="11.91905172599134"><ele>322.0</ele><time>2026-05-01T15:50:59Z</time></trkpt><trkpt lat="42.53768786942301" lon="11.91897489496171"><ele>322.0</ele><time>2026-05-01T15:51:00Z</time></trkpt><trkpt lat="42.53777390882768" lon="11.918899015200193"><ele>322.0</ele><time>2026-05-01T15:51:01Z</time></trkpt><trkpt lat="42.537862256612314" lon="11.918820880316666"><ele>322.0</ele><time>2026-05-01T15:51:02Z</time></trkpt><trkpt lat="42.537951000583526" lon="11.918740345294852"><ele>322.0</ele><time>2026-05-01T15:51:03Z</time></trkpt><trkpt lat="42.53803793850555" lon="11.91865159238683"><ele>322.0</ele><time>2026-05-01T15:51:04Z</time></trkpt><trkpt lat="42.53811623989243" lon="11.918556725172754"><ele>322.0</ele><time>2026-05-01T15:51:05Z</time></trkpt><trkpt lat="42.5381803967219" lon="11.918444663983108"><ele>322.0</ele><time>2026-05-01T15:51:06Z</time></trkpt><trkpt lat="42.53826504410033" lon="11.918333541672379"><ele>322.0</ele><time>2026-05-01T15:51:07Z</time></trkpt><trkpt lat="42.5383257861929" lon="11.918217142743144"><ele>322.0</ele><time>2026-05-01T15:51:08Z</time></trkpt><trkpt lat="42.53837896168249" lon="11.918092654289008"><ele>323.40000000000003</ele><time>2026-05-01T15:51:09Z</time></trkpt><trkpt lat="42.538423638849196" lon="11.917968822488445"><ele>324.8</ele><time>2026-05-01T15:51:10Z</time></trkpt><trkpt lat="42.53846733480154" lon="11.917837736489364"><ele>326.2</ele><time>2026-05-01T15:51:11Z</time></trkpt><trkpt lat="42.53850791333207" lon="11.91770666702452"><ele>327.6</ele><time>2026-05-01T15:51:12Z</time></trkpt><trkpt lat="42.53854678706221" lon="11.917572620572502"><ele>329.0</ele><time>2026-05-01T15:51:13Z</time></trkpt><trkpt lat="42.538585054968834" lon="11.917434716489614"><ele>328.2</ele><time>2026-05-01T15:51:14Z</time></trkpt><trkpt lat="42.538621799923426" lon="11.917300237120257"><ele>327.4</ele><time>2026-05-01T15:51:15Z</time></trkpt><trkpt lat="42.538657952455424" lon="11.917161570366778"><ele>326.6</ele><time>2026-05-01T15:51:16Z</time></trkpt><trkpt lat="42.538692331898915" lon="11.917029704432679"><ele>325.8</ele><time>2026-05-01T15:51:17Z</time></trkpt><trkpt lat="42.53871152436052" lon="11.916885053406535"><ele>325.0</ele><time>2026-05-01T15:51:18Z</time></trkpt><trkpt lat="42.53876237982662" lon="11.916751333282617"><ele>326.0</ele><time>2026-05-01T15:51:19Z</time></trkpt><trkpt lat="42.53879617430567" lon="11.916610761670876"><ele>327.0</ele><time>2026-05-01T15:51:20Z</time></trkpt><trkpt lat="42.5388310808643" lon="11.916462962436292"><ele>328.0</ele><time>2026-05-01T15:51:21Z</time></trkpt><trkpt lat="42.538847242620555" lon="11.916313945602978"><ele>329.0</ele><time>2026-05-01T15:51:22Z</time></trkpt><trkpt lat="42.53889184182551" lon="11.916186173422664"><ele>330.0</ele><time>2026-05-01T15:51:23Z</time></trkpt><trkpt lat="42.53891257098201" lon="11.916045290186354"><ele>330.0</ele><time>2026-05-01T15:51:24Z</time></trkpt><trkpt lat="42.53894209996537" lon="11.915907426435943"><ele>330.0</ele><time>2026-05-01T15:51:25Z</time></trkpt><trkpt lat="42.53897781592368" lon="11.915772772976293"><ele>330.0</ele><time>2026-05-01T15:51:26Z</time></trkpt><trkpt lat="42.539001174643616" lon="11.91562336247947"><ele>330.0</ele><time>2026-05-01T15:51:27Z</time></trkpt><trkpt lat="42.53903513874385" lon="11.915484550207074"><ele>330.0</ele><time>2026-05-01T15:51:28Z</time></trkpt><trkpt lat="42.539069190230535" lon="11.915331138726375"><ele>331.5</ele><time>2026-05-01T15:51:29Z</time></trkpt><trkpt lat="42.53910439755037" lon="11.915164635436374"><ele>333.0</ele><time>2026-05-01T15:51:30Z</time></trkpt><trkpt lat="42.53914189098389" lon="11.91499513680567"><ele>334.5</ele><time>2026-05-01T15:51:31Z</time></trkpt><trkpt lat="42.53917366905413" lon="11.914825499396061"><ele>336.0</ele><time>2026-05-01T15:51:32Z</time></trkpt><trkpt lat="42.53919371507553" lon="11.914627024054742"><ele>336.0</ele><time>2026-05-01T15:51:33Z</time></trkpt><trkpt lat="42.539172569227304" lon="11.91440377458964"><ele>336.0</ele><time>2026-05-01T15:51:34Z</time></trkpt><trkpt lat="42.539132352538914" lon="11.914155965510469"><ele>336.0</ele><time>2026-05-01T15:51:35Z</time></trkpt><trkpt lat="42.53911824440215" lon="11.913902085704159"><ele>336.0</ele><time>2026-05-01T15:51:36Z</time></trkpt><trkpt lat="42.53909061643479" lon="11.913703193190825"><ele>336.0</ele><time>2026-05-01T15:51:37Z</time></trkpt><trkpt lat="42.5390709694907" lon="11.913524158464769"><ele>336.0</ele><time>2026-05-01T15:51:38Z</time></trkpt><trkpt lat="42.539055731894614" lon="11.91334708632465"><ele>336.0</ele><time>2026-05-01T15:51:39Z</time></trkpt><trkpt lat="42.53904705669876" lon="11.91318373385849"><ele>336.1666666666667</ele><time>2026-05-01T15:51:40Z</time></trkpt><trkpt lat="42.5390410842493" lon="11.913027140765918"><ele>336.3333333333333</ele><time>2026-05-01T15:51:41Z</time></trkpt><trkpt lat="42.53903513758095" lon="11.912893673970098"><ele>336.5</ele><time>2026-05-01T15:51:42Z</time></trkpt><trkpt lat="42.53902447360033" lon="11.912788161805874"><ele>336.66666666666663</ele><time>2026-05-01T15:51:43Z</time></trkpt><trkpt lat="42.53903971887394" lon="11.912677790851674"><ele>336.8333333333333</ele><time>2026-05-01T15:51:44Z</time></trkpt><trkpt lat="42.539055370041595" lon="11.9125877485097"><ele>337.0</ele><time>2026-05-01T15:51:45Z</time></trkpt><trkpt lat="42.53907795705239" lon="11.912503981614327"><ele>337.0</ele><time>2026-05-01T15:51:46Z</time></trkpt><trkpt lat="42.53910293010828" lon="11.91233243920925"><ele>337.0</ele><time>2026-05-01T15:51:48Z</time></trkpt><trkpt lat="42.53917851364324" lon="11.912236725950864"><ele>337.0</ele><time>2026-05-01T15:51:49Z</time></trkpt><trkpt lat="42.53924412655553" lon="11.912106521304848"><ele>337.0</ele><time>2026-05-01T15:51:50Z</time></trkpt><trkpt lat="42.53932784994921" lon="11.91193775295628"><ele>337.0</ele><time>2026-05-01T15:51:51Z</time></trkpt><trkpt lat="42.53941819253488" lon="11.91174724304335"><ele>337.0</ele><time>2026-05-01T15:51:52Z</time></trkpt><trkpt lat="42.53951826243297" lon="11.911560485310893"><ele>337.0</ele><time>2026-05-01T15:51:53Z</time></trkpt><trkpt lat="42.5396273544505" lon="11.911368098710438"><ele>337.0</ele><time>2026-05-01T15:51:54Z</time></trkpt><trkpt lat="42.53974164379031" lon="11.911156799774515"><ele>337.0</ele><time>2026-05-01T15:51:55Z</time></trkpt><trkpt lat="42.53986589288676" lon="11.910931654929191"><ele>337.0</ele><time>2026-05-01T15:51:56Z</time></trkpt><trkpt lat="42.540013390077306" lon="11.910715290927923"><ele>337.0</ele><time>2026-05-01T15:51:57Z</time></trkpt><trkpt lat="42.54019193208541" lon="11.91051974578082"><ele>337.0</ele><time>2026-05-01T15:51:58Z</time></trkpt><trkpt lat="42.54038879578577" lon="11.910343017631224"><ele>337.0</ele><time>2026-05-01T15:51:58.999Z</time></trkpt><trkpt lat="42.54061352694172" lon="11.910214812612134"><ele>337.0</ele><time>2026-05-01T15:51:59.999Z</time></trkpt><trkpt lat="42.54085135747143" lon="11.910063351817191"><ele>336.5</ele><time>2026-05-01T15:52:00.999Z</time></trkpt><trkpt lat="42.54110157887443" lon="11.909932885762943"><ele>336.0</ele><time>2026-05-01T15:52:01.999Z</time></trkpt><trkpt lat="42.54133902791945" lon="11.90979840047249"><ele>334.5</ele><time>2026-05-01T15:52:02.999Z</time></trkpt><trkpt lat="42.54155321622618" lon="11.909674379263752"><ele>333.0</ele><time>2026-05-01T15:52:03.999Z</time></trkpt><trkpt lat="42.54175299254932" lon="11.909559153203999"><ele>333.0</ele><time>2026-05-01T15:52:04.999Z</time></trkpt><trkpt lat="42.54194644650448" lon="11.909458483911855"><ele>333.0</ele><time>2026-05-01T15:52:05.999Z</time></trkpt><trkpt lat="42.54213740105061" lon="11.909352687258126"><ele>333.0</ele><time>2026-05-01T15:52:06.999Z</time></trkpt><trkpt lat="42.54232727964626" lon="11.909248037436601"><ele>332.3333333333333</ele><time>2026-05-01T15:52:07.999Z</time></trkpt><trkpt lat="42.54251652739133" lon="11.9091449660713"><ele>331.66666666666663</ele><time>2026-05-01T15:52:08.999Z</time></trkpt><trkpt lat="42.54270014813639" lon="11.909049133105436"><ele>331.0</ele><time>2026-05-01T15:52:09.999Z</time></trkpt><trkpt lat="42.542877156034564" lon="11.908952036367378"><ele>330.0</ele><time>2026-05-01T15:52:10.999Z</time></trkpt><trkpt lat="42.54305158919104" lon="11.90885256832913"><ele>329.0</ele><time>2026-05-01T15:52:11.999Z</time></trkpt><trkpt lat="42.543225604679066" lon="11.908735785556926"><ele>328.0</ele><time>2026-05-01T15:52:12.999Z</time></trkpt><trkpt lat="42.54339813230673" lon="11.908617218386464"><ele>328.0</ele><time>2026-05-01T15:52:13.999Z</time></trkpt><trkpt lat="42.54357395825253" lon="11.908494379333598"><ele>328.0</ele><time>2026-05-01T15:52:14.999Z</time></trkpt><trkpt lat="42.5437367549946" lon="11.908346114141489"><ele>328.0</ele><time>2026-05-01T15:52:15.999Z</time></trkpt><trkpt lat="42.54389639299323" lon="11.908184348627202"><ele>327.0</ele><time>2026-05-01T15:52:16.999Z</time></trkpt><trkpt lat="42.54405640302516" lon="11.908013568944845"><ele>326.0</ele><time>2026-05-01T15:52:17.999Z</time></trkpt><trkpt lat="42.54421665479853" lon="11.907827299617583"><ele>325.0</ele><time>2026-05-01T15:52:18.999Z</time></trkpt><trkpt lat="42.54436993864789" lon="11.907634805138713"><ele>323.3333333333333</ele><time>2026-05-01T15:52:19.999Z</time></trkpt><trkpt lat="42.54451994572698" lon="11.907439154457103"><ele>321.6666666666667</ele><time>2026-05-01T15:52:20.999Z</time></trkpt><trkpt lat="42.544667203274344" lon="11.907234929948043"><ele>320.0</ele><time>2026-05-01T15:52:21.999Z</time></trkpt><trkpt lat="42.544800433295705" lon="11.90700875283043"><ele>319.6666666666667</ele><time>2026-05-01T15:52:22.999Z</time></trkpt><trkpt lat="42.54492409143247" lon="11.906773455384299"><ele>319.3333333333333</ele><time>2026-05-01T15:52:23.999Z</time></trkpt><trkpt lat="42.54504733890665" lon="11.906521264304972"><ele>319.0</ele><time>2026-05-01T15:52:24.999Z</time></trkpt><trkpt lat="42.5451631173869" lon="11.906258074892984"><ele>318.0</ele><time>2026-05-01T15:52:25.999Z</time></trkpt><trkpt lat="42.545270953689474" lon="11.905984041945509"><ele>317.0</ele><time>2026-05-01T15:52:26.999Z</time></trkpt><trkpt lat="42.545366293545236" lon="11.905704348042919"><ele>315.5</ele><time>2026-05-01T15:52:27.999Z</time></trkpt><trkpt lat="42.54545929338898" lon="11.905414964227676"><ele>314.0</ele><time>2026-05-01T15:52:28.999Z</time></trkpt><trkpt lat="42.54554996880545" lon="11.905124261458068"><ele>314.0</ele><time>2026-05-01T15:52:29.999Z</time></trkpt><trkpt lat="42.545641761841644" lon="11.904827284191448"><ele>314.0</ele><time>2026-05-01T15:52:30.999Z</time></trkpt><trkpt lat="42.545728826001834" lon="11.90453590316911"><ele>314.5</ele><time>2026-05-01T15:52:31.999Z</time></trkpt><trkpt lat="42.5458211812252" lon="11.904236789854135"><ele>315.0</ele><time>2026-05-01T15:52:32.999Z</time></trkpt><trkpt lat="42.545910926216415" lon="11.903944132064877"><ele>315.0</ele><time>2026-05-01T15:52:33.999Z</time></trkpt><trkpt lat="42.54600335538868" lon="11.903653215163185"><ele>315.0</ele><time>2026-05-01T15:52:34.999Z</time></trkpt><trkpt lat="42.546092936588394" lon="11.903360617840784"><ele>315.0</ele><time>2026-05-01T15:52:35.999Z</time></trkpt><trkpt lat="42.5461836406663" lon="11.903087605679204"><ele>315.0</ele><time>2026-05-01T15:52:36.999Z</time></trkpt><trkpt lat="42.54627165180019" lon="11.902817560168168"><ele>315.0</ele><time>2026-05-01T15:52:37.999Z</time></trkpt><trkpt lat="42.54636061488844" lon="11.90253814488011"><ele>314.5</ele><time>2026-05-01T15:52:38.999Z</time></trkpt><trkpt lat="42.54644297778925" lon="11.902256137877526"><ele>314.0</ele><time>2026-05-01T15:52:39.999Z</time></trkpt><trkpt lat="42.546532197151954" lon="11.901972590757032"><ele>313.5</ele><time>2026-05-01T15:52:40.999Z</time></trkpt><trkpt lat="42.54662308570939" lon="11.901689813846486"><ele>313.0</ele><time>2026-05-01T15:52:41.999Z</time></trkpt><trkpt lat="42.54671603672416" lon="11.901410937485052"><ele>313.0</ele><time>2026-05-01T15:52:42.999Z</time></trkpt><trkpt lat="42.54681201958698" lon="11.901133567285843"><ele>313.0</ele><time>2026-05-01T15:52:43.999Z</time></trkpt><trkpt lat="42.54690640842763" lon="11.900864370495869"><ele>313.0</ele><time>2026-05-01T15:52:44.999Z</time></trkpt><trkpt lat="42.54698755372773" lon="11.90061718300519"><ele>313.0</ele><time>2026-05-01T15:52:45.999Z</time></trkpt><trkpt lat="42.54705991123382" lon="11.900384845356056"><ele>313.0</ele><time>2026-05-01T15:52:46.999Z</time></trkpt><trkpt lat="42.5471257405051" lon="11.900176535060835"><ele>313.0</ele><time>2026-05-01T15:52:47.999Z</time></trkpt><trkpt lat="42.54718290558336" lon="11.899992263766139"><ele>313.4</ele><time>2026-05-01T15:52:48.999Z</time></trkpt><trkpt lat="42.54723485700621" lon="11.89983253241092"><ele>313.8</ele><time>2026-05-01T15:52:49.999Z</time></trkpt><trkpt lat="42.54729770478675" lon="11.899710972097369"><ele>314.2</ele><time>2026-05-01T15:52:50.999Z</time></trkpt><trkpt lat="42.5473695847491" lon="11.899612068043314"><ele>314.6</ele><time>2026-05-01T15:52:51.999Z</time></trkpt><trkpt lat="42.547438281701375" lon="11.899529561551638"><ele>315.0</ele><time>2026-05-01T15:52:52.999Z</time></trkpt><trkpt lat="42.547486017090925" lon="11.89942087679852"><ele>315.0</ele><time>2026-05-01T15:52:53.999Z</time></trkpt><trkpt lat="42.54750510004313" lon="11.899295013630114"><ele>315.0</ele><time>2026-05-01T15:52:54.999Z</time></trkpt><trkpt lat="42.54751277581681" lon="11.899146682327904"><ele>315.0</ele><time>2026-05-01T15:52:55.999Z</time></trkpt><trkpt lat="42.54753443211532" lon="11.898970469774543"><ele>315.0</ele><time>2026-05-01T15:52:56.999Z</time></trkpt><trkpt lat="42.547589983384185" lon="11.898769524640404"><ele>315.3333333333333</ele><time>2026-05-01T15:52:57.999Z</time></trkpt><trkpt lat="42.54768052114969" lon="11.89854266249525"><ele>315.66666666666663</ele><time>2026-05-01T15:52:58.999Z</time></trkpt><trkpt lat="42.54778447230732" lon="11.898297023494157"><ele>316.0</ele><time>2026-05-01T15:52:59.999Z</time></trkpt><trkpt lat="42.547883900279174" lon="11.898053994441007"><ele>318.0</ele><time>2026-05-01T15:53:00.999Z</time></trkpt><trkpt lat="42.547979654754535" lon="11.897817973847726"><ele>320.0</ele><time>2026-05-01T15:53:01.999Z</time></trkpt><trkpt lat="42.5480923955248" lon="11.897586136767885"><ele>322.0</ele><time>2026-05-01T15:53:02.999Z</time></trkpt><trkpt lat="42.54821289796747" lon="11.897335939376395"><ele>322.0</ele><time>2026-05-01T15:53:03.999Z</time></trkpt><trkpt lat="42.548335093285395" lon="11.89707672961574"><ele>322.0</ele><time>2026-05-01T15:53:04.999Z</time></trkpt><trkpt lat="42.548463715352746" lon="11.89680507129971"><ele>322.0</ele><time>2026-05-01T15:53:05.999Z</time></trkpt><trkpt lat="42.54859596047317" lon="11.896518921643988"><ele>322.0</ele><time>2026-05-01T15:53:06.999Z</time></trkpt><trkpt lat="42.54873353802818" lon="11.89621969806677"><ele>322.0</ele><time>2026-05-01T15:53:07.999Z</time></trkpt><trkpt lat="42.54886307145309" lon="11.89592485262083"><ele>322.0</ele><time>2026-05-01T15:53:08.999Z</time></trkpt><trkpt lat="42.548998194390265" lon="11.895611198387567"><ele>321.0</ele><time>2026-05-01T15:53:09.999Z</time></trkpt><trkpt lat="42.54914598777819" lon="11.895296499711195"><ele>320.0</ele><time>2026-05-01T15:53:10.999Z</time></trkpt><trkpt lat="42.54929389641546" lon="11.894973785238554"><ele>320.0</ele><time>2026-05-01T15:53:11.999Z</time></trkpt><trkpt lat="42.54944327293058" lon="11.894651644925636"><ele>320.0</ele><time>2026-05-01T15:53:12.999Z</time></trkpt><trkpt lat="42.54959054698807" lon="11.894329827872458"><ele>319.0</ele><time>2026-05-01T15:53:13.999Z</time></trkpt><trkpt lat="42.54974174924363" lon="11.893996393796584"><ele>318.0</ele><time>2026-05-01T15:53:14.999Z</time></trkpt><trkpt lat="42.54989682185945" lon="11.893657822105057"><ele>317.0</ele><time>2026-05-01T15:53:15.999Z</time></trkpt><trkpt lat="42.55005198758904" lon="11.893312680222834"><ele>316.0</ele><time>2026-05-01T15:53:16.999Z</time></trkpt><trkpt lat="42.55020178305876" lon="11.8929685197815"><ele>316.0</ele><time>2026-05-01T15:53:17.999Z</time></trkpt><trkpt lat="42.55034401890097" lon="11.892637004085957"><ele>316.0</ele><time>2026-05-01T15:53:18.999Z</time></trkpt><trkpt lat="42.55048765436179" lon="11.892309904901179"><ele>315.5</ele><time>2026-05-01T15:53:19.999Z</time></trkpt><trkpt lat="42.55063025663018" lon="11.891986045581083"><ele>315.0</ele><time>2026-05-01T15:53:20.999Z</time></trkpt><trkpt lat="42.55077703369801" lon="11.891657904435812"><ele>315.0</ele><time>2026-05-01T15:53:21.999Z</time></trkpt><trkpt lat="42.55092328547111" lon="11.891323094342644"><ele>315.0</ele><time>2026-05-01T15:53:22.999Z</time></trkpt><trkpt lat="42.551063758984384" lon="11.89098738696108"><ele>315.5</ele><time>2026-05-01T15:53:23.999Z</time></trkpt><trkpt lat="42.551202003429665" lon="11.890655109768401"><ele>316.0</ele><time>2026-05-01T15:53:24.999Z</time></trkpt><trkpt lat="42.551339152447845" lon="11.890334933616854"><ele>316.0</ele><time>2026-05-01T15:53:25.999Z</time></trkpt><trkpt lat="42.551474306790425" lon="11.890039268609337"><ele>316.0</ele><time>2026-05-01T15:53:26.999Z</time></trkpt><trkpt lat="42.55162226084923" lon="11.889756485037863"><ele>316.0</ele><time>2026-05-01T15:53:27.999Z</time></trkpt><trkpt lat="42.55178134313806" lon="11.889489510037711"><ele>316.0</ele><time>2026-05-01T15:53:28.999Z</time></trkpt><trkpt lat="42.55195798293528" lon="11.889239871031624"><ele>315.5</ele><time>2026-05-01T15:53:29.999Z</time></trkpt><trkpt lat="42.552149000848075" lon="11.889009211251107"><ele>315.0</ele><time>2026-05-01T15:53:30.999Z</time></trkpt><trkpt lat="42.55235754060506" lon="11.888801014795373"><ele>315.0</ele><time>2026-05-01T15:53:31.999Z</time></trkpt><trkpt lat="42.55257232060968" lon="11.888606864499202"><ele>315.0</ele><time>2026-05-01T15:53:32.999Z</time></trkpt><trkpt lat="42.552797240057615" lon="11.888443222499996"><ele>314.5</ele><time>2026-05-01T15:53:33.999Z</time></trkpt><trkpt lat="42.55303076801824" lon="11.888306193181332"><ele>314.0</ele><time>2026-05-01T15:53:34.999Z</time></trkpt><trkpt lat="42.553270595002836" lon="11.888197208437155"><ele>314.0</ele><time>2026-05-01T15:53:35.999Z</time></trkpt><trkpt lat="42.5535167680468" lon="11.888115774180728"><ele>314.0</ele><time>2026-05-01T15:53:36.999Z</time></trkpt><trkpt lat="42.553762125661414" lon="11.888051679531152"><ele>313.5</ele><time>2026-05-01T15:53:37.999Z</time></trkpt><trkpt lat="42.55400675279778" lon="11.887990508193742"><ele>313.0</ele><time>2026-05-01T15:53:38.999Z</time></trkpt><trkpt lat="42.554251254366925" lon="11.887906150253745"><ele>313.0</ele><time>2026-05-01T15:53:39.999Z</time></trkpt><trkpt lat="42.554489703170276" lon="11.887799968979465"><ele>313.0</ele><time>2026-05-01T15:53:40.999Z</time></trkpt><trkpt lat="42.55471971630167" lon="11.887673533962927"><ele>314.0</ele><time>2026-05-01T15:53:41.999Z</time></trkpt><trkpt lat="42.55494441422804" lon="11.887532709191266"><ele>315.0</ele><time>2026-05-01T15:53:42.999Z</time></trkpt><trkpt lat="42.55517158134835" lon="11.887388785079276"><ele>313.5</ele><time>2026-05-01T15:53:43.999Z</time></trkpt><trkpt lat="42.55539751686719" lon="11.887244909735424"><ele>312.0</ele><time>2026-05-01T15:53:44.999Z</time></trkpt><trkpt lat="42.555613458855404" lon="11.887103108306817"><ele>312.0</ele><time>2026-05-01T15:53:45.999Z</time></trkpt><trkpt lat="42.555813171085696" lon="11.88697198642024"><ele>312.0</ele><time>2026-05-01T15:53:46.999Z</time></trkpt><trkpt lat="42.5560017136126" lon="11.886840249673527"><ele>312.0</ele><time>2026-05-01T15:53:47.999Z</time></trkpt><trkpt lat="42.556180114269935" lon="11.886705637461382"><ele>312.0</ele><time>2026-05-01T15:53:48.999Z</time></trkpt><trkpt lat="42.55634690439689" lon="11.886567177556808"><ele>312.0</ele><time>2026-05-01T15:53:49.999Z</time></trkpt><trkpt lat="42.55650268247228" lon="11.886421426255582"><ele>312.0</ele><time>2026-05-01T15:53:50.999Z</time></trkpt><trkpt lat="42.55664665232549" lon="11.886283696534802"><ele>312.0</ele><time>2026-05-01T15:53:51.999Z</time></trkpt><trkpt lat="42.55677887387048" lon="11.886146663838831"><ele>312.0</ele><time>2026-05-01T15:53:52.999Z</time></trkpt><trkpt lat="42.556890753259395" lon="11.885995103939143"><ele>312.0</ele><time>2026-05-01T15:53:53.999Z</time></trkpt><trkpt lat="42.556996091126656" lon="11.885827441544471"><ele>310.6666666666667</ele><time>2026-05-01T15:53:54.999Z</time></trkpt><trkpt lat="42.557094142629815" lon="11.885656275849152"><ele>309.33333333333337</ele><time>2026-05-01T15:53:55.999Z</time></trkpt><trkpt lat="42.55718949469047" lon="11.885491549147128"><ele>308.0</ele><time>2026-05-01T15:53:56.999Z</time></trkpt><trkpt lat="42.55728087840035" lon="11.885331355957275"><ele>308.0</ele><time>2026-05-01T15:53:57.999Z</time></trkpt><trkpt lat="42.55737810968886" lon="11.885176378330398"><ele>308.0</ele><time>2026-05-01T15:53:58.999Z</time></trkpt><trkpt lat="42.557486822467816" lon="11.88503677486259"><ele>308.0</ele><time>2026-05-01T15:53:59.999Z</time></trkpt><trkpt lat="42.55759418648021" lon="11.884903594662209"><ele>308.0</ele><time>2026-05-01T15:54:00.999Z</time></trkpt><trkpt lat="42.557712339851044" lon="11.884769286832512"><ele>308.0</ele><time>2026-05-01T15:54:01.999Z</time></trkpt><trkpt lat="42.55783991847118" lon="11.884639607282594"><ele>308.0</ele><time>2026-05-01T15:54:02.999Z</time></trkpt><trkpt lat="42.55797297631018" lon="11.884503688505621"><ele>308.0</ele><time>2026-05-01T15:54:03.999Z</time></trkpt><trkpt lat="42.55811175032514" lon="11.884363599640796"><ele>308.33333333333337</ele><time>2026-05-01T15:54:04.999Z</time></trkpt><trkpt lat="42.55825876527146" lon="11.884237221761305"><ele>308.6666666666667</ele><time>2026-05-01T15:54:05.999Z</time></trkpt><trkpt lat="42.55840698280365" lon="11.884107629596729"><ele>309.0</ele><time>2026-05-01T15:54:06.999Z</time></trkpt><trkpt lat="42.558555486458225" lon="11.883966412278347"><ele>308.6666666666667</ele><time>2026-05-01T15:54:07.999Z</time></trkpt><trkpt lat="42.558703575763516" lon="11.883802595507666"><ele>308.33333333333337</ele><time>2026-05-01T15:54:08.999Z</time></trkpt><trkpt lat="42.55885725591285" lon="11.88364954869895"><ele>308.0</ele><time>2026-05-01T15:54:09.999Z</time></trkpt><trkpt lat="42.55901321268996" lon="11.88349732414981"><ele>308.6666666666667</ele><time>2026-05-01T15:54:10.999Z</time></trkpt><trkpt lat="42.559165594901884" lon="11.883352608158969"><ele>309.3333333333333</ele><time>2026-05-01T15:54:11.999Z</time></trkpt><trkpt lat="42.55931748338162" lon="11.88320708010472"><ele>310.0</ele><time>2026-05-01T15:54:12.999Z</time></trkpt><trkpt lat="42.55946626315021" lon="11.883065328698748"><ele>310.0</ele><time>2026-05-01T15:54:13.999Z</time></trkpt><trkpt lat="42.55961619250137" lon="11.882920991687977"><ele>310.0</ele><time>2026-05-01T15:54:14.999Z</time></trkpt><trkpt lat="42.55976986717059" lon="11.882777464675149"><ele>310.0</ele><time>2026-05-01T15:54:15.999Z</time></trkpt><trkpt lat="42.55992559674241" lon="11.882626166254795"><ele>310.3333333333333</ele><time>2026-05-01T15:54:16.999Z</time></trkpt><trkpt lat="42.56008850275399" lon="11.88248343476501"><ele>310.6666666666667</ele><time>2026-05-01T15:54:17.999Z</time></trkpt><trkpt lat="42.56024809443569" lon="11.882327328208964"><ele>311.0</ele><time>2026-05-01T15:54:18.999Z</time></trkpt><trkpt lat="42.56041079392168" lon="11.882173907601326"><ele>311.0</ele><time>2026-05-01T15:54:19.999Z</time></trkpt><trkpt lat="42.560576372322615" lon="11.882017936817839"><ele>311.0</ele><time>2026-05-01T15:54:20.999Z</time></trkpt><trkpt lat="42.5607476611193" lon="11.881861797923538"><ele>311.0</ele><time>2026-05-01T15:54:21.999Z</time></trkpt><trkpt lat="42.56092749576529" lon="11.881691410632449"><ele>311.0</ele><time>2026-05-01T15:54:22.999Z</time></trkpt><trkpt lat="42.56112437163611" lon="11.881507089639209"><ele>311.0</ele><time>2026-05-01T15:54:23.999Z</time></trkpt><trkpt lat="42.56132215294022" lon="11.881329494115743"><ele>311.0</ele><time>2026-05-01T15:54:24.999Z</time></trkpt><trkpt lat="42.561527374578986" lon="11.8811391380146"><ele>311.0</ele><time>2026-05-01T15:54:25.999Z</time></trkpt><trkpt lat="42.56173653148609" lon="11.88093959593854"><ele>313.0</ele><time>2026-05-01T15:54:26.999Z</time></trkpt><trkpt lat="42.5619722206347" lon="11.880739381093564"><ele>315.0</ele><time>2026-05-01T15:54:27.999Z</time></trkpt><trkpt lat="42.56220778657649" lon="11.880523442606776"><ele>316.0</ele><time>2026-05-01T15:54:28.999Z</time></trkpt><trkpt lat="42.562456805811664" lon="11.880294428927874"><ele>317.0</ele><time>2026-05-01T15:54:29.999Z</time></trkpt><trkpt lat="42.562719182889374" lon="11.880038288012145"><ele>319.0</ele><time>2026-05-01T15:54:30.999Z</time></trkpt><trkpt lat="42.5629929827825" lon="11.879779964247259"><ele>321.0</ele><time>2026-05-01T15:54:31.999Z</time></trkpt><trkpt lat="42.56326344943451" lon="11.879530618805667"><ele>321.0</ele><time>2026-05-01T15:54:32.999Z</time></trkpt><trkpt lat="42.563524237338214" lon="11.879302444684972"><ele>321.0</ele><time>2026-05-01T15:54:33.999Z</time></trkpt><trkpt lat="42.563784077326055" lon="11.879067348757932"><ele>324.0</ele><time>2026-05-01T15:54:34.999Z</time></trkpt><trkpt lat="42.564043579285205" lon="11.87883974512246"><ele>327.0</ele><time>2026-05-01T15:54:35.999Z</time></trkpt><trkpt lat="42.56428875694331" lon="11.878609617227738"><ele>327.5</ele><time>2026-05-01T15:54:36.999Z</time></trkpt><trkpt lat="42.56452001180542" lon="11.878368568820637"><ele>328.0</ele><time>2026-05-01T15:54:37.999Z</time></trkpt><trkpt lat="42.564727966538804" lon="11.87810103700598"><ele>328.5</ele><time>2026-05-01T15:54:38.999Z</time></trkpt><trkpt lat="42.56493455992895" lon="11.877806363297937"><ele>329.0</ele><time>2026-05-01T15:54:39.999Z</time></trkpt><trkpt lat="42.56512479494998" lon="11.87745660392391"><ele>330.0</ele><time>2026-05-01T15:54:40.999Z</time></trkpt><trkpt lat="42.56531247282052" lon="11.877094018422863"><ele>331.0</ele><time>2026-05-01T15:54:41.999Z</time></trkpt><trkpt lat="42.565490431379544" lon="11.876748361538516"><ele>331.5</ele><time>2026-05-01T15:54:42.999Z</time></trkpt><trkpt lat="42.5656596747942" lon="11.876409191839784"><ele>332.0</ele><time>2026-05-01T15:54:43.999Z</time></trkpt><trkpt lat="42.56583353375698" lon="11.876083671814055"><ele>331.5</ele><time>2026-05-01T15:54:44.999Z</time></trkpt><trkpt lat="42.56599720948487" lon="11.8757617360978"><ele>331.0</ele><time>2026-05-01T15:54:45.999Z</time></trkpt><trkpt lat="42.566158965587135" lon="11.875452792500903"><ele>330.0</ele><time>2026-05-01T15:54:46.999Z</time></trkpt><trkpt lat="42.566305510475416" lon="11.8751681209021"><ele>329.0</ele><time>2026-05-01T15:54:47.999Z</time></trkpt><trkpt lat="42.566442306082635" lon="11.874902647346183"><ele>329.0</ele><time>2026-05-01T15:54:48.999Z</time></trkpt><trkpt lat="42.56657051156185" lon="11.874652325250493"><ele>329.0</ele><time>2026-05-01T15:54:49.999Z</time></trkpt><trkpt lat="42.5666918250395" lon="11.874417828956611"><ele>329.0</ele><time>2026-05-01T15:54:50.999Z</time></trkpt><trkpt lat="42.566806686810466" lon="11.874196838101192"><ele>328.6666666666667</ele><time>2026-05-01T15:54:51.999Z</time></trkpt><trkpt lat="42.566907470607624" lon="11.873992583734047"><ele>328.3333333333333</ele><time>2026-05-01T15:54:52.999Z</time></trkpt><trkpt lat="42.5669961449257" lon="11.873810902408305"><ele>328.0</ele><time>2026-05-01T15:54:53.999Z</time></trkpt><trkpt lat="42.56708700765495" lon="11.873649357062694"><ele>328.0</ele><time>2026-05-01T15:54:54.999Z</time></trkpt><trkpt lat="42.56715944661719" lon="11.87348119638061"><ele>328.0</ele><time>2026-05-01T15:54:55.999Z</time></trkpt><trkpt lat="42.56721455205479" lon="11.873287399004385"><ele>328.0</ele><time>2026-05-01T15:54:56.999Z</time></trkpt><trkpt lat="42.56727431529349" lon="11.873100798106734"><ele>328.0</ele><time>2026-05-01T15:54:57.999Z</time></trkpt><trkpt lat="42.56766598413887" lon="11.873062749593094"><ele>328.5</ele><time>2026-05-01T15:54:58.999Z</time></trkpt><trkpt lat="42.56785069704996" lon="11.8728813116501"><ele>329.0</ele><time>2026-05-01T15:54:59.999Z</time></trkpt><trkpt lat="42.56805800417451" lon="11.872670509569216"><ele>330.5</ele><time>2026-05-01T15:55:00.999Z</time></trkpt><trkpt lat="42.56827633915694" lon="11.872459082864063"><ele>332.0</ele><time>2026-05-01T15:55:01.999Z</time></trkpt><trkpt lat="42.568480710085126" lon="11.872267227992097"><ele>332.0</ele><time>2026-05-01T15:55:02.999Z</time></trkpt><trkpt lat="42.56866780443462" lon="11.872084663092288"><ele>332.0</ele><time>2026-05-01T15:55:03.999Z</time></trkpt><trkpt lat="42.56884029907619" lon="11.871911750271668"><ele>332.0</ele><time>2026-05-01T15:55:04.999Z</time></trkpt><trkpt lat="42.56900100880879" lon="11.871744776279053"><ele>333.0</ele><time>2026-05-01T15:55:05.999Z</time></trkpt><trkpt lat="42.569159590978984" lon="11.871589259542876"><ele>334.0</ele><time>2026-05-01T15:55:06.999Z</time></trkpt><trkpt lat="42.569317096738274" lon="11.871436580186742"><ele>335.0</ele><time>2026-05-01T15:55:07.999Z</time></trkpt><trkpt lat="42.56947565524929" lon="11.87128318953828"><ele>336.33333333333337</ele><time>2026-05-01T15:55:08.999Z</time></trkpt><trkpt lat="42.56963021951915" lon="11.871125682992048"><ele>337.6666666666667</ele><time>2026-05-01T15:55:09.999Z</time></trkpt><trkpt lat="42.569786606120196" lon="11.87097612536843"><ele>339.0</ele><time>2026-05-01T15:55:10.999Z</time></trkpt><trkpt lat="42.56993641300253" lon="11.870829448282512"><ele>339.0</ele><time>2026-05-01T15:55:11.999Z</time></trkpt><trkpt lat="42.57009215356377" lon="11.870681716586002"><ele>339.0</ele><time>2026-05-01T15:55:12.999Z</time></trkpt><trkpt lat="42.570241039414036" lon="11.870557528754722"><ele>339.0</ele><time>2026-05-01T15:55:13.999Z</time></trkpt><trkpt lat="42.570382304877995" lon="11.870467630635703"><ele>341.3333333333333</ele><time>2026-05-01T15:55:14.999Z</time></trkpt><trkpt lat="42.57053275510357" lon="11.870404970823655"><ele>343.66666666666663</ele><time>2026-05-01T15:55:15.999Z</time></trkpt><trkpt lat="42.570684882085146" lon="11.870348357753725"><ele>346.0</ele><time>2026-05-01T15:55:16.999Z</time></trkpt><trkpt lat="42.57083762940108" lon="11.870299383610659"><ele>346.0</ele><time>2026-05-01T15:55:17.999Z</time></trkpt><trkpt lat="42.57100147864799" lon="11.870273506183048"><ele>346.0</ele><time>2026-05-01T15:55:18.999Z</time></trkpt><trkpt lat="42.57116942437535" lon="11.870249460709182"><ele>346.0</ele><time>2026-05-01T15:55:19.999Z</time></trkpt><trkpt lat="42.57132788247241" lon="11.870221575586124"><ele>347.66666666666663</ele><time>2026-05-01T15:55:20.999Z</time></trkpt><trkpt lat="42.57147897394832" lon="11.870174691029817"><ele>349.3333333333333</ele><time>2026-05-01T15:55:21.999Z</time></trkpt><trkpt lat="42.57162620536885" lon="11.870107927844698"><ele>351.0</ele><time>2026-05-01T15:55:22.999Z</time></trkpt><trkpt lat="42.57176314747975" lon="11.870022876079089"><ele>351.0</ele><time>2026-05-01T15:55:23.999Z</time></trkpt><trkpt lat="42.57191580740706" lon="11.86994875715664"><ele>351.0</ele><time>2026-05-01T15:55:24.999Z</time></trkpt><trkpt lat="42.57205738528022" lon="11.869880534180888"><ele>351.0</ele><time>2026-05-01T15:55:25.999Z</time></trkpt><trkpt lat="42.572185674956195" lon="11.869813754089538"><ele>351.0</ele><time>2026-05-01T15:55:26.999Z</time></trkpt><trkpt lat="42.572320807518935" lon="11.869735219006357"><ele>351.0</ele><time>2026-05-01T15:55:27.999Z</time></trkpt><trkpt lat="42.57245916307152" lon="11.86965393117135"><ele>351.0</ele><time>2026-05-01T15:55:28.999Z</time></trkpt><trkpt lat="42.57260917914642" lon="11.869564151256592"><ele>351.0</ele><time>2026-05-01T15:55:29.999Z</time></trkpt><trkpt lat="42.57276540806853" lon="11.869467992854648"><ele>351.0</ele><time>2026-05-01T15:55:30.999Z</time></trkpt><trkpt lat="42.572928673151814" lon="11.869366316665205"><ele>351.0</ele><time>2026-05-01T15:55:31.999Z</time></trkpt><trkpt lat="42.57310003507879" lon="11.869262863779756"><ele>345.6666666666667</ele><time>2026-05-01T15:55:32.999Z</time></trkpt><trkpt lat="42.573271661332605" lon="11.869160782530724"><ele>340.33333333333337</ele><time>2026-05-01T15:55:33.999Z</time></trkpt><trkpt lat="42.573453113348116" lon="11.869049841598077"><ele>335.0</ele><time>2026-05-01T15:55:34.999Z</time></trkpt><trkpt lat="42.57364466232359" lon="11.868928741435436"><ele>333.0</ele><time>2026-05-01T15:55:35.999Z</time></trkpt><trkpt lat="42.57383565967269" lon="11.868805228476717"><ele>331.0</ele><time>2026-05-01T15:55:36.999Z</time></trkpt><trkpt lat="42.574038375795546" lon="11.868681887134677"><ele>329.0</ele><time>2026-05-01T15:55:38Z</time></trkpt><trkpt lat="42.5742401848675" lon="11.868559925866297"><ele>326.33333333333337</ele><time>2026-05-01T15:55:39Z</time></trkpt><trkpt lat="42.57443923521979" lon="11.86843668383098"><ele>323.6666666666667</ele><time>2026-05-01T15:55:40Z</time></trkpt><trkpt lat="42.57463543075703" lon="11.868315965106241"><ele>321.0</ele><time>2026-05-01T15:55:41Z</time></trkpt><trkpt lat="42.574824026052816" lon="11.868197140470228"><ele>319.3333333333333</ele><time>2026-05-01T15:55:42Z</time></trkpt><trkpt lat="42.575010652870226" lon="11.868075993056406"><ele>317.66666666666663</ele><time>2026-05-01T15:55:43Z</time></trkpt><trkpt lat="42.57519934776628" lon="11.867952227816673"><ele>316.0</ele><time>2026-05-01T15:55:44Z</time></trkpt><trkpt lat="42.57538663809635" lon="11.867823326483485"><ele>314.3333333333333</ele><time>2026-05-01T15:55:45Z</time></trkpt><trkpt lat="42.57557197065891" lon="11.867700745099768"><ele>312.6666666666667</ele><time>2026-05-01T15:55:46Z</time></trkpt><trkpt lat="42.575757456714456" lon="11.86756904896653"><ele>311.0</ele><time>2026-05-01T15:55:47Z</time></trkpt><trkpt lat="42.575932835916234" lon="11.867435074357545"><ele>311.0</ele><time>2026-05-01T15:55:48Z</time></trkpt><trkpt lat="42.576089914516764" lon="11.867292732080811"><ele>311.0</ele><time>2026-05-01T15:55:49Z</time></trkpt><trkpt lat="42.57622435757366" lon="11.867154618739638"><ele>311.0</ele><time>2026-05-01T15:55:50Z</time></trkpt><trkpt lat="42.57635589621449" lon="11.867029486412521"><ele>310.5</ele><time>2026-05-01T15:55:51Z</time></trkpt><trkpt lat="42.57647101635266" lon="11.866901605413162"><ele>310.0</ele><time>2026-05-01T15:55:52Z</time></trkpt><trkpt lat="42.57657014702366" lon="11.866784024317269"><ele>309.5</ele><time>2026-05-01T15:55:53Z</time></trkpt><trkpt lat="42.576641793452666" lon="11.866637865857925"><ele>309.0</ele><time>2026-05-01T15:55:54Z</time></trkpt><trkpt lat="42.576989015435935" lon="11.866813870007379"><ele>308.59999999999997</ele><time>2026-05-01T15:55:55Z</time></trkpt><trkpt lat="42.5770923328935" lon="11.866745009846355"><ele>308.2</ele><time>2026-05-01T15:55:56Z</time></trkpt><trkpt lat="42.57717351086214" lon="11.866698186611202"><ele>307.79999999999995</ele><time>2026-05-01T15:55:57Z</time></trkpt><trkpt lat="42.5772435225946" lon="11.86666864372731"><ele>307.4</ele><time>2026-05-01T15:55:58Z</time></trkpt><trkpt lat="42.57735342905303" lon="11.866729889670362"><ele>307.0</ele><time>2026-05-01T15:56:00Z</time></trkpt><trkpt lat="42.577393289230244" lon="11.866805646295294"><ele>306.85714285714283</ele><time>2026-05-01T15:56:01Z</time></trkpt><trkpt lat="42.57742944406737" lon="11.866885766147421"><ele>306.7142857142857</ele><time>2026-05-01T15:56:02Z</time></trkpt><trkpt lat="42.57746209797663" lon="11.866966455839567"><ele>306.57142857142856</ele><time>2026-05-01T15:56:03Z</time></trkpt><trkpt lat="42.57749681078941" lon="11.867039962771681"><ele>306.42857142857144</ele><time>2026-05-01T15:56:04Z</time></trkpt><trkpt lat="42.5775299198131" lon="11.867118528798613"><ele>306.2857142857143</ele><time>2026-05-01T15:56:05Z</time></trkpt><trkpt lat="42.57757387620024" lon="11.867183303429032"><ele>306.1428571428571</ele><time>2026-05-01T15:56:06Z</time></trkpt><trkpt lat="42.577614297707406" lon="11.86725376632805"><ele>306.0</ele><time>2026-05-01T15:56:07Z</time></trkpt><trkpt lat="42.57767570255352" lon="11.867380435013507"><ele>306.0</ele><time>2026-05-01T15:56:09Z</time></trkpt><trkpt lat="42.577713542967174" lon="11.867448762424376"><ele>306.0</ele><time>2026-05-01T15:56:10Z</time></trkpt><trkpt lat="42.577760838435054" lon="11.867531000904467"><ele>306.0</ele><time>2026-05-01T15:56:11Z</time></trkpt><trkpt lat="42.57780660432484" lon="11.867603166953804"><ele>306.0</ele><time>2026-05-01T15:56:12Z</time></trkpt><trkpt lat="42.57785278951508" lon="11.867677173642832"><ele>306.0</ele><time>2026-05-01T15:56:13Z</time></trkpt><trkpt lat="42.577899760026654" lon="11.86775144218807"><ele>306.0</ele><time>2026-05-01T15:56:14Z</time></trkpt><trkpt lat="42.57794318346386" lon="11.867819078182832"><ele>306.0</ele><time>2026-05-01T15:56:15Z</time></trkpt><trkpt lat="42.57799759994767" lon="11.867873378752483"><ele>306.0</ele><time>2026-05-01T15:56:16Z</time></trkpt><trkpt lat="42.5780934980895" lon="11.867897804854355"><ele>306.0</ele><time>2026-05-01T15:56:18Z</time></trkpt><trkpt lat="42.57820829769724" lon="11.86784352138314"><ele>306.0</ele><time>2026-05-01T15:56:20Z</time></trkpt><trkpt lat="42.578293007850434" lon="11.867707970398126"><ele>306.0</ele><time>2026-05-01T15:56:22Z</time></trkpt><trkpt lat="42.578348898396506" lon="11.867607697302065"><ele>306.0</ele><time>2026-05-01T15:56:23Z</time></trkpt><trkpt lat="42.578407016969216" lon="11.867512640093594"><ele>306.0</ele><time>2026-05-01T15:56:24Z</time></trkpt><trkpt lat="42.57846112628725" lon="11.867396421899826"><ele>306.0</ele><time>2026-05-01T15:56:25Z</time></trkpt><trkpt lat="42.57852754243312" lon="11.86727800662128"><ele>306.0</ele><time>2026-05-01T15:56:26Z</time></trkpt><trkpt lat="42.57860095069425" lon="11.867149658105676"><ele>306.0</ele><time>2026-05-01T15:56:27Z</time></trkpt><trkpt lat="42.57867725646704" lon="11.867008845622156"><ele>305.5</ele><time>2026-05-01T15:56:28Z</time></trkpt><trkpt lat="42.57875504455917" lon="11.866865914400302"><ele>305.0</ele><time>2026-05-01T15:56:29Z</time></trkpt><trkpt lat="42.57883785537911" lon="11.866735516197009"><ele>304.5</ele><time>2026-05-01T15:56:30Z</time></trkpt><trkpt lat="42.57891617592154" lon="11.86660607540782"><ele>304.0</ele><time>2026-05-01T15:56:31Z</time></trkpt><trkpt lat="42.57899492892594" lon="11.866471344542228"><ele>304.0</ele><time>2026-05-01T15:56:32Z</time></trkpt><trkpt lat="42.57907348559536" lon="11.86633377620309"><ele>304.0</ele><time>2026-05-01T15:56:33Z</time></trkpt><trkpt lat="42.57914220065598" lon="11.86620759541136"><ele>304.0</ele><time>2026-05-01T15:56:34Z</time></trkpt><trkpt lat="42.57921517035113" lon="11.866076326198696"><ele>304.0</ele><time>2026-05-01T15:56:35Z</time></trkpt><trkpt lat="42.57929518413128" lon="11.865947242384939"><ele>304.0</ele><time>2026-05-01T15:56:36Z</time></trkpt><trkpt lat="42.57937344528508" lon="11.865818276758494"><ele>304.0</ele><time>2026-05-01T15:56:37Z</time></trkpt><trkpt lat="42.57945451699583" lon="11.865692021241776"><ele>304.0</ele><time>2026-05-01T15:56:38Z</time></trkpt><trkpt lat="42.57953016674229" lon="11.865561736811358"><ele>304.0</ele><time>2026-05-01T15:56:39Z</time></trkpt><trkpt lat="42.57959804670104" lon="11.865433558024844"><ele>304.0</ele><time>2026-05-01T15:56:40Z</time></trkpt><trkpt lat="42.57966890099533" lon="11.865304716754043"><ele>304.0</ele><time>2026-05-01T15:56:41Z</time></trkpt><trkpt lat="42.579742886160595" lon="11.865174070751012"><ele>304.0</ele><time>2026-05-01T15:56:42Z</time></trkpt><trkpt lat="42.57982195171333" lon="11.865040251839401"><ele>304.0</ele><time>2026-05-01T15:56:43Z</time></trkpt><trkpt lat="42.57989560226522" lon="11.864904482184748"><ele>304.0</ele><time>2026-05-01T15:56:44Z</time></trkpt><trkpt lat="42.57997330580955" lon="11.864769196612459"><ele>304.0</ele><time>2026-05-01T15:56:45Z</time></trkpt><trkpt lat="42.58005436142561" lon="11.864630013822529"><ele>304.0</ele><time>2026-05-01T15:56:46Z</time></trkpt><trkpt lat="42.58013282758726" lon="11.864493219752012"><ele>304.0</ele><time>2026-05-01T15:56:47Z</time></trkpt><trkpt lat="42.58020832149029" lon="11.864356016032271"><ele>304.0</ele><time>2026-05-01T15:56:48Z</time></trkpt><trkpt lat="42.58028983752315" lon="11.864204310380805"><ele>304.0</ele><time>2026-05-01T15:56:49Z</time></trkpt><trkpt lat="42.580369546638224" lon="11.864069285078859"><ele>304.0</ele><time>2026-05-01T15:56:50Z</time></trkpt><trkpt lat="42.58044775125551" lon="11.863933553351837"><ele>304.0</ele><time>2026-05-01T15:56:51Z</time></trkpt><trkpt lat="42.5805234351754" lon="11.863794235197354"><ele>304.0</ele><time>2026-05-01T15:56:52Z</time></trkpt><trkpt lat="42.58060715416283" lon="11.863663279785401"><ele>304.0</ele><time>2026-05-01T15:56:53Z</time></trkpt><trkpt lat="42.58069477805508" lon="11.863543049117766"><ele>304.0</ele><time>2026-05-01T15:56:54Z</time></trkpt><trkpt lat="42.580786595575574" lon="11.863419564677438"><ele>304.0</ele><time>2026-05-01T15:56:55Z</time></trkpt><trkpt lat="42.580873972999676" lon="11.863291979511523"><ele>304.0</ele><time>2026-05-01T15:56:56Z</time></trkpt><trkpt lat="42.58096600827749" lon="11.863171502018222"><ele>304.0</ele><time>2026-05-01T15:56:57Z</time></trkpt><trkpt lat="42.581061364041005" lon="11.863042999529814"><ele>304.0</ele><time>2026-05-01T15:56:58Z</time></trkpt><trkpt lat="42.58115156544905" lon="11.862922879707913"><ele>304.0</ele><time>2026-05-01T15:56:59Z</time></trkpt><trkpt lat="42.58123550402486" lon="11.862802789303611"><ele>304.0</ele><time>2026-05-01T15:57:00Z</time></trkpt><trkpt lat="42.58131800610338" lon="11.862690444999572"><ele>304.0</ele><time>2026-05-01T15:57:01Z</time></trkpt><trkpt lat="42.5813984577861" lon="11.862577586391522"><ele>304.0</ele><time>2026-05-01T15:57:02Z</time></trkpt><trkpt lat="42.58147541802246" lon="11.862481088562214"><ele>304.0</ele><time>2026-05-01T15:57:03Z</time></trkpt><trkpt lat="42.58156520071886" lon="11.86236234323297"><ele>304.25</ele><time>2026-05-01T15:57:04Z</time></trkpt><trkpt lat="42.58164134428084" lon="11.862252923192784"><ele>304.5</ele><time>2026-05-01T15:57:05Z</time></trkpt><trkpt lat="42.581733478814925" lon="11.862113946365595"><ele>304.75</ele><time>2026-05-01T15:57:06Z</time></trkpt><trkpt lat="42.58181956660047" lon="11.862002615256905"><ele>305.0</ele><time>2026-05-01T15:57:07Z</time></trkpt><trkpt lat="42.58189686023087" lon="11.861893954363216"><ele>305.0</ele><time>2026-05-01T15:57:08Z</time></trkpt><trkpt lat="42.58197330198826" lon="11.861793389742203"><ele>305.0</ele><time>2026-05-01T15:57:09Z</time></trkpt><trkpt lat="42.58204083879525" lon="11.861699773885245"><ele>305.0</ele><time>2026-05-01T15:57:10Z</time></trkpt><trkpt lat="42.582102273969" lon="11.861609797192262"><ele>305.0</ele><time>2026-05-01T15:57:11Z</time></trkpt><trkpt lat="42.582156754219554" lon="11.861523178626868"><ele>305.0</ele><time>2026-05-01T15:57:12Z</time></trkpt><trkpt lat="42.58220588541465" lon="11.861445745019244"><ele>305.0</ele><time>2026-05-01T15:57:13Z</time></trkpt><trkpt lat="42.58229973234287" lon="11.861321565946065"><ele>305.0</ele><time>2026-05-01T15:57:15Z</time></trkpt><trkpt lat="42.58235099244924" lon="11.86124943275953"><ele>305.0</ele><time>2026-05-01T15:57:16Z</time></trkpt><trkpt lat="42.582407543839096" lon="11.861178163083219"><ele>305.0</ele><time>2026-05-01T15:57:17Z</time></trkpt><trkpt lat="42.58245304770122" lon="11.861115629615151"><ele>305.0</ele><time>2026-05-01T15:57:18Z</time></trkpt><trkpt lat="42.582510224732225" lon="11.861044523702349"><ele>305.0</ele><time>2026-05-01T15:57:20Z</time></trkpt><trkpt lat="42.58256509870085" lon="11.86097959346004"><ele>305.0</ele><time>2026-05-01T15:57:22Z</time></trkpt><trkpt lat="42.58262979699454" lon="11.860893956379023"><ele>305.0</ele><time>2026-05-01T15:57:25Z</time></trkpt><trkpt lat="42.58268488982747" lon="11.860826299184083"><ele>305.0</ele><time>2026-05-01T15:57:28Z</time></trkpt><trkpt lat="42.58274531741343" lon="11.86074358061231"><ele>305.0</ele><time>2026-05-01T15:57:31Z</time></trkpt><trkpt lat="42.58281115880125" lon="11.860662436248012"><ele>305.0</ele><time>2026-05-01T15:57:34Z</time></trkpt><trkpt lat="42.58286195377352" lon="11.860599722398803"><ele>305.0</ele><time>2026-05-01T15:57:36Z</time></trkpt><trkpt lat="42.582923524129825" lon="11.86051657645495"><ele>305.0</ele><time>2026-05-01T15:57:38Z</time></trkpt><trkpt lat="42.58298707111821" lon="11.860444464305415"><ele>305.0</ele><time>2026-05-01T15:57:40Z</time></trkpt><trkpt lat="42.583085924705166" lon="11.860336564668112"><ele>305.0</ele><time>2026-05-01T15:57:42Z</time></trkpt><trkpt lat="42.58315336650359" lon="11.86027622334107"><ele>305.0</ele><time>2026-05-01T15:57:43Z</time></trkpt><trkpt lat="42.583241539959836" lon="11.860199792813209"><ele>305.0</ele><time>2026-05-01T15:57:44Z</time></trkpt><trkpt lat="42.5833293403414" lon="11.860112004867"><ele>304.8</ele><time>2026-05-01T15:57:45Z</time></trkpt><trkpt lat="42.583415777664904" lon="11.860014919260275"><ele>304.6</ele><time>2026-05-01T15:57:46Z</time></trkpt><trkpt lat="42.58350344075709" lon="11.85991746233875"><ele>304.4</ele><time>2026-05-01T15:57:47Z</time></trkpt><trkpt lat="42.58358450986642" lon="11.859830010438271"><ele>304.2</ele><time>2026-05-01T15:57:48Z</time></trkpt><trkpt lat="42.58365517828987" lon="11.859733715468035"><ele>304.0</ele><time>2026-05-01T15:57:49Z</time></trkpt><trkpt lat="42.583740476775205" lon="11.85962817485341"><ele>304.0</ele><time>2026-05-01T15:57:50Z</time></trkpt><trkpt lat="42.58382580127091" lon="11.859536659129075"><ele>304.0</ele><time>2026-05-01T15:57:51Z</time></trkpt><trkpt lat="42.583900539403366" lon="11.859458924214204"><ele>304.0</ele><time>2026-05-01T15:57:52Z</time></trkpt><trkpt lat="42.58396209625803" lon="11.859395514739933"><ele>304.0</ele><time>2026-05-01T15:57:53Z</time></trkpt><trkpt lat="42.58402658101536" lon="11.859334876981919"><ele>304.0</ele><time>2026-05-01T15:57:54Z</time></trkpt><trkpt lat="42.584088990582856" lon="11.859265986672888"><ele>304.0</ele><time>2026-05-01T15:57:55Z</time></trkpt><trkpt lat="42.58414376257109" lon="11.859180635794791"><ele>304.0</ele><time>2026-05-01T15:57:56Z</time></trkpt><trkpt lat="42.58421324830437" lon="11.859091385963769"><ele>304.0</ele><time>2026-05-01T15:57:57Z</time></trkpt><trkpt lat="42.584297620945286" lon="11.859002276638964"><ele>304.0</ele><time>2026-05-01T15:57:58Z</time></trkpt><trkpt lat="42.58439262310531" lon="11.858910644178458"><ele>304.0</ele><time>2026-05-01T15:57:59Z</time></trkpt><trkpt lat="42.58449088989284" lon="11.858813660668751"><ele>304.0</ele><time>2026-05-01T15:58:00Z</time></trkpt><trkpt lat="42.58459748135069" lon="11.85870545055782"><ele>304.0</ele><time>2026-05-01T15:58:01Z</time></trkpt><trkpt lat="42.58470403528905" lon="11.858598939614081"><ele>304.0</ele><time>2026-05-01T15:58:02Z</time></trkpt><trkpt lat="42.584819427078195" lon="11.858496006916038"><ele>304.0</ele><time>2026-05-01T15:58:03Z</time></trkpt><trkpt lat="42.58492938715412" lon="11.858396586808809"><ele>304.0</ele><time>2026-05-01T15:58:04Z</time></trkpt><trkpt lat="42.585057269583444" lon="11.858347205446615"><ele>304.0</ele><time>2026-05-01T15:58:05Z</time></trkpt><trkpt lat="42.58517559289149" lon="11.858256638810875"><ele>304.0</ele><time>2026-05-01T15:58:06Z</time></trkpt><trkpt lat="42.58529131580102" lon="11.858164956552086"><ele>304.0</ele><time>2026-05-01T15:58:07Z</time></trkpt><trkpt lat="42.58540400273084" lon="11.858072442285424"><ele>304.0</ele><time>2026-05-01T15:58:08Z</time></trkpt><trkpt lat="42.58551621565798" lon="11.857987032759462"><ele>304.0</ele><time>2026-05-01T15:58:09Z</time></trkpt><trkpt lat="42.58562586451555" lon="11.857912951732375"><ele>304.0</ele><time>2026-05-01T15:58:10Z</time></trkpt><trkpt lat="42.5857356490409" lon="11.857842803718466"><ele>304.0</ele><time>2026-05-01T15:58:11Z</time></trkpt><trkpt lat="42.58585099723682" lon="11.857772883484053"><ele>304.0</ele><time>2026-05-01T15:58:12Z</time></trkpt><trkpt lat="42.585957164634074" lon="11.857708528273044"><ele>304.0</ele><time>2026-05-01T15:58:13Z</time></trkpt><trkpt lat="42.58607507896325" lon="11.857629975634364"><ele>304.0</ele><time>2026-05-01T15:58:14Z</time></trkpt><trkpt lat="42.58618287286117" lon="11.857555571522989"><ele>304.0</ele><time>2026-05-01T15:58:15Z</time></trkpt><trkpt lat="42.58630587830223" lon="11.857493649609935"><ele>304.0</ele><time>2026-05-01T15:58:16Z</time></trkpt><trkpt lat="42.58642563681889" lon="11.85741971024805"><ele>304.25</ele><time>2026-05-01T15:58:17Z</time></trkpt><trkpt lat="42.58654759111724" lon="11.857356554219566"><ele>304.5</ele><time>2026-05-01T15:58:18Z</time></trkpt><trkpt lat="42.58667400968881" lon="11.857291565531753"><ele>304.75</ele><time>2026-05-01T15:58:19Z</time></trkpt><trkpt lat="42.58680355530971" lon="11.857233514594377"><ele>305.0</ele><time>2026-05-01T15:58:20Z</time></trkpt><trkpt lat="42.5869218612681" lon="11.857178700650701"><ele>306.0</ele><time>2026-05-01T15:58:21Z</time></trkpt><trkpt lat="42.58704440709225" lon="11.85713071930991"><ele>307.0</ele><time>2026-05-01T15:58:22Z</time></trkpt><trkpt lat="42.587171059753715" lon="11.857102135900153"><ele>308.0</ele><time>2026-05-01T15:58:23Z</time></trkpt><trkpt lat="42.587298543689315" lon="11.857074061395112"><ele>309.0</ele><time>2026-05-01T15:58:24Z</time></trkpt><trkpt lat="42.587420592027094" lon="11.857050073531532"><ele>309.0</ele><time>2026-05-01T15:58:25Z</time></trkpt><trkpt lat="42.58752518639915" lon="11.85704400574535"><ele>309.0</ele><time>2026-05-01T15:58:26Z</time></trkpt><trkpt lat="42.587615636522116" lon="11.857064549606271"><ele>309.0</ele><time>2026-05-01T15:58:27Z</time></trkpt><trkpt lat="42.587713186609726" lon="11.857108703796776"><ele>309.0</ele><time>2026-05-01T15:58:28Z</time></trkpt><trkpt lat="42.58780707492522" lon="11.857160404919195"><ele>309.0</ele><time>2026-05-01T15:58:29Z</time></trkpt><trkpt lat="42.58791859172433" lon="11.857201699469439"><ele>311.4</ele><time>2026-05-01T15:58:30Z</time></trkpt><trkpt lat="42.58804027011732" lon="11.85726177447416"><ele>313.79999999999995</ele><time>2026-05-01T15:58:31Z</time></trkpt><trkpt lat="42.5881536625597" lon="11.857295970040669"><ele>316.20000000000005</ele><time>2026-05-01T15:58:32Z</time></trkpt><trkpt lat="42.588252516380905" lon="11.857333984852634"><ele>318.6</ele><time>2026-05-01T15:58:33Z</time></trkpt><trkpt lat="42.58834929319655" lon="11.85736151628988"><ele>321.0</ele><time>2026-05-01T15:58:34Z</time></trkpt><trkpt lat="42.588432753882856" lon="11.857391190343904"><ele>321.0</ele><time>2026-05-01T15:58:35Z</time></trkpt><trkpt lat="42.58851152539711" lon="11.857417766030048"><ele>321.0</ele><time>2026-05-01T15:58:36Z</time></trkpt><trkpt lat="42.5885712729547" lon="11.857456273491342"><ele>321.0</ele><time>2026-05-01T15:58:37Z</time></trkpt><trkpt lat="42.58863321294116" lon="11.857485439573807"><ele>321.0</ele><time>2026-05-01T15:58:38Z</time></trkpt><trkpt lat="42.58873817907724" lon="11.857540954802085"><ele>321.0</ele><time>2026-05-01T15:58:40Z</time></trkpt><trkpt lat="42.588790648077534" lon="11.857596783696922"><ele>321.0</ele><time>2026-05-01T15:58:41Z</time></trkpt><trkpt lat="42.588890521010136" lon="11.857692773182483"><ele>318.6</ele><time>2026-05-01T15:58:43Z</time></trkpt><trkpt lat="42.58894770772664" lon="11.85775175838448"><ele>316.20000000000005</ele><time>2026-05-01T15:58:44Z</time></trkpt><trkpt lat="42.58901179796285" lon="11.857812481692207"><ele>313.79999999999995</ele><time>2026-05-01T15:58:45Z</time></trkpt><trkpt lat="42.589099660649126" lon="11.857895359548325"><ele>311.4</ele><time>2026-05-01T15:58:46Z</time></trkpt><trkpt lat="42.589195262492694" lon="11.857985073611989"><ele>309.0</ele><time>2026-05-01T15:58:47Z</time></trkpt><trkpt lat="42.58929188878638" lon="11.858083191504196"><ele>309.0</ele><time>2026-05-01T15:58:48Z</time></trkpt><trkpt lat="42.58939853267347" lon="11.858196450931283"><ele>309.0</ele><time>2026-05-01T15:58:49Z</time></trkpt><trkpt lat="42.58952203169759" lon="11.858304693124163"><ele>309.0</ele><time>2026-05-01T15:58:50Z</time></trkpt><trkpt lat="42.58965385981864" lon="11.858428559673017"><ele>309.0</ele><time>2026-05-01T15:58:51Z</time></trkpt><trkpt lat="42.58978435360731" lon="11.858527929233206"><ele>309.0</ele><time>2026-05-01T15:58:52Z</time></trkpt><trkpt lat="42.589905362358884" lon="11.85863030742388"><ele>309.0</ele><time>2026-05-01T15:58:53Z</time></trkpt><trkpt lat="42.590022613283736" lon="11.858717711794876"><ele>309.0</ele><time>2026-05-01T15:58:54Z</time></trkpt><trkpt lat="42.59013112797306" lon="11.85881957110782"><ele>309.0</ele><time>2026-05-01T15:58:55Z</time></trkpt><trkpt lat="42.590231106598665" lon="11.8589141709922"><ele>309.0</ele><time>2026-05-01T15:58:56Z</time></trkpt><trkpt lat="42.59032754204709" lon="11.85902194824574"><ele>309.0</ele><time>2026-05-01T15:58:57Z</time></trkpt><trkpt lat="42.59044151314274" lon="11.859118878483363"><ele>309.0</ele><time>2026-05-01T15:58:58Z</time></trkpt><trkpt lat="42.590536540318844" lon="11.859201222681044"><ele>309.0</ele><time>2026-05-01T15:58:59Z</time></trkpt><trkpt lat="42.59062755307684" lon="11.859305148604319"><ele>309.0</ele><time>2026-05-01T15:59:00Z</time></trkpt><trkpt lat="42.59073361937909" lon="11.859425808941465"><ele>309.0</ele><time>2026-05-01T15:59:01Z</time></trkpt><trkpt lat="42.59081209698439" lon="11.859556720530708"><ele>309.0</ele><time>2026-05-01T15:59:02Z</time></trkpt><trkpt lat="42.59088750981455" lon="11.859689038270572"><ele>309.0</ele><time>2026-05-01T15:59:03Z</time></trkpt><trkpt lat="42.590964070781624" lon="11.859822772224799"><ele>309.0</ele><time>2026-05-01T15:59:04Z</time></trkpt><trkpt lat="42.59104379966538" lon="11.859958480442216"><ele>309.0</ele><time>2026-05-01T15:59:05Z</time></trkpt><trkpt lat="42.5911228528007" lon="11.860094234955472"><ele>309.0</ele><time>2026-05-01T15:59:06Z</time></trkpt><trkpt lat="42.59121104055769" lon="11.860217171985322"><ele>309.0</ele><time>2026-05-01T15:59:07Z</time></trkpt><trkpt lat="42.59130571246156" lon="11.860320539492959"><ele>308.25</ele><time>2026-05-01T15:59:08Z</time></trkpt><trkpt lat="42.59141392141937" lon="11.860406674996133"><ele>307.5</ele><time>2026-05-01T15:59:09Z</time></trkpt><trkpt lat="42.59152117801515" lon="11.860479883364645"><ele>306.75</ele><time>2026-05-01T15:59:10Z</time></trkpt><trkpt lat="42.591633034649455" lon="11.860544653758348"><ele>306.0</ele><time>2026-05-01T15:59:11Z</time></trkpt><trkpt lat="42.591742134385" lon="11.860615705402672"><ele>306.0</ele><time>2026-05-01T15:59:12Z</time></trkpt><trkpt lat="42.59185700288498" lon="11.860666263184285"><ele>306.0</ele><time>2026-05-01T15:59:13Z</time></trkpt><trkpt lat="42.59196711411501" lon="11.86071892030439"><ele>306.0</ele><time>2026-05-01T15:59:14Z</time></trkpt><trkpt lat="42.59208714410485" lon="11.860776643388828"><ele>306.0</ele><time>2026-05-01T15:59:15Z</time></trkpt><trkpt lat="42.59220836372162" lon="11.860842762962529"><ele>306.25</ele><time>2026-05-01T15:59:16Z</time></trkpt><trkpt lat="42.592334668087844" lon="11.860906306529914"><ele>306.5</ele><time>2026-05-01T15:59:17Z</time></trkpt><trkpt lat="42.59246689227974" lon="11.860983094760366"><ele>306.75</ele><time>2026-05-01T15:59:18Z</time></trkpt><trkpt lat="42.59260183178745" lon="11.861068324737273"><ele>307.0</ele><time>2026-05-01T15:59:19Z</time></trkpt><trkpt lat="42.592739755978954" lon="11.861167230016928"><ele>307.3333333333333</ele><time>2026-05-01T15:59:20Z</time></trkpt><trkpt lat="42.59287759610862" lon="11.86127309844986"><ele>307.6666666666667</ele><time>2026-05-01T15:59:21Z</time></trkpt><trkpt lat="42.593018751738775" lon="11.861382152845936"><ele>308.0</ele><time>2026-05-01T15:59:22Z</time></trkpt><trkpt lat="42.593164110081325" lon="11.861498165704756"><ele>308.0</ele><time>2026-05-01T15:59:23Z</time></trkpt><trkpt lat="42.593311915081244" lon="11.861613860696528"><ele>308.0</ele><time>2026-05-01T15:59:24Z</time></trkpt><trkpt lat="42.59345643042846" lon="11.861726837051762"><ele>308.0</ele><time>2026-05-01T15:59:25Z</time></trkpt><trkpt lat="42.59359393838505" lon="11.861831785725037"><ele>309.0</ele><time>2026-05-01T15:59:26Z</time></trkpt><trkpt lat="42.59373269769898" lon="11.861936055693489"><ele>310.0</ele><time>2026-05-01T15:59:27Z</time></trkpt><trkpt lat="42.59386512161826" lon="11.862037278086477"><ele>311.0</ele><time>2026-05-01T15:59:28Z</time></trkpt><trkpt lat="42.59398670775739" lon="11.862129964331599"><ele>311.0</ele><time>2026-05-01T15:59:29Z</time></trkpt><trkpt lat="42.594111477836385" lon="11.862224495335052"><ele>311.0</ele><time>2026-05-01T15:59:30Z</time></trkpt><trkpt lat="42.59422171088158" lon="11.862317523910137"><ele>311.0</ele><time>2026-05-01T15:59:31Z</time></trkpt><trkpt lat="42.594331561236835" lon="11.862409578514498"><ele>311.0</ele><time>2026-05-01T15:59:32Z</time></trkpt><trkpt lat="42.594445921173566" lon="11.862505815629639"><ele>310.75</ele><time>2026-05-01T15:59:33Z</time></trkpt><trkpt lat="42.594564647053204" lon="11.862605708008868"><ele>310.5</ele><time>2026-05-01T15:59:34Z</time></trkpt><trkpt lat="42.59469000816072" lon="11.862719468483487"><ele>310.25</ele><time>2026-05-01T15:59:35Z</time></trkpt><trkpt lat="42.59479893818072" lon="11.862854126623008"><ele>310.0</ele><time>2026-05-01T15:59:36Z</time></trkpt><trkpt lat="42.59489637273087" lon="11.862987138360968"><ele>309.66666666666663</ele><time>2026-05-01T15:59:37Z</time></trkpt><trkpt lat="42.59500840573214" lon="11.863147748032764"><ele>309.3333333333333</ele><time>2026-05-01T15:59:38Z</time></trkpt><trkpt lat="42.595128471482575" lon="11.863267276998913"><ele>309.0</ele><time>2026-05-01T15:59:39Z</time></trkpt><trkpt lat="42.59524884743165" lon="11.86340630924115"><ele>310.0</ele><time>2026-05-01T15:59:40Z</time></trkpt><trkpt lat="42.59536290526514" lon="11.863543263318482"><ele>311.0</ele><time>2026-05-01T15:59:41Z</time></trkpt><trkpt lat="42.59546763073787" lon="11.863672924396697"><ele>312.0</ele><time>2026-05-01T15:59:42Z</time></trkpt><trkpt lat="42.59557063297498" lon="11.863787502213444"><ele>313.0</ele><time>2026-05-01T15:59:43Z</time></trkpt><trkpt lat="42.59567865129816" lon="11.86388303056752"><ele>313.0</ele><time>2026-05-01T15:59:44Z</time></trkpt><trkpt lat="42.59579004613033" lon="11.8639887779598"><ele>313.0</ele><time>2026-05-01T15:59:45Z</time></trkpt><trkpt lat="42.595919457098724" lon="11.864084419025804"><ele>313.0</ele><time>2026-05-01T15:59:46Z</time></trkpt><trkpt lat="42.59606807451416" lon="11.864197912363915"><ele>310.66666666666663</ele><time>2026-05-01T15:59:47Z</time></trkpt><trkpt lat="42.596201683374524" lon="11.864300787041948"><ele>308.3333333333333</ele><time>2026-05-01T15:59:48Z</time></trkpt><trkpt lat="42.59637469678088" lon="11.864418981186157"><ele>306.0</ele><time>2026-05-01T15:59:49Z</time></trkpt><trkpt lat="42.59655664068754" lon="11.864509999921461"><ele>306.0</ele><time>2026-05-01T15:59:50Z</time></trkpt><trkpt lat="42.59677889060996" lon="11.864596231691982"><ele>306.0</ele><time>2026-05-01T15:59:51Z</time></trkpt><trkpt lat="42.5969889652015" lon="11.864662613095017"><ele>306.0</ele><time>2026-05-01T15:59:52Z</time></trkpt><trkpt lat="42.597189140362445" lon="11.864722596826587"><ele>307.3333333333333</ele><time>2026-05-01T15:59:53Z</time></trkpt><trkpt lat="42.597381211265635" lon="11.86478260137801"><ele>308.66666666666663</ele><time>2026-05-01T15:59:54Z</time></trkpt><trkpt lat="42.5975650339033" lon="11.864823544754143"><ele>310.0</ele><time>2026-05-01T15:59:55Z</time></trkpt><trkpt lat="42.5977301078409" lon="11.86488691318272"><ele>310.66666666666663</ele><time>2026-05-01T15:59:56Z</time></trkpt><trkpt lat="42.59788916180519" lon="11.86498342874853"><ele>311.3333333333333</ele><time>2026-05-01T15:59:57Z</time></trkpt><trkpt lat="42.59801303569486" lon="11.865083016812601"><ele>312.0</ele><time>2026-05-01T15:59:58Z</time></trkpt><trkpt lat="42.59815307603896" lon="11.865194188610426"><ele>310.3333333333333</ele><time>2026-05-01T15:59:59Z</time></trkpt><trkpt lat="42.59830700258774" lon="11.865272002029494"><ele>308.66666666666663</ele><time>2026-05-01T16:00:00Z</time></trkpt><trkpt lat="42.59844677809461" lon="11.865349433459345"><ele>307.0</ele><time>2026-05-01T16:00:01Z</time></trkpt><trkpt lat="42.598585408524556" lon="11.86538232602704"><ele>307.0</ele><time>2026-05-01T16:00:02Z</time></trkpt><trkpt lat="42.598730447721884" lon="11.865406990015483"><ele>307.0</ele><time>2026-05-01T16:00:03Z</time></trkpt><trkpt lat="42.59886694247225" lon="11.865412309671518"><ele>307.0</ele><time>2026-05-01T16:00:04Z</time></trkpt><trkpt lat="42.598991605423905" lon="11.865428117409158"><ele>307.0</ele><time>2026-05-01T16:00:05Z</time></trkpt><trkpt lat="42.59910317298882" lon="11.865447243136659"><ele>307.0</ele><time>2026-05-01T16:00:06Z</time></trkpt><trkpt lat="42.59920132206763" lon="11.8654883108101"><ele>307.0</ele><time>2026-05-01T16:00:07Z</time></trkpt><trkpt lat="42.599298729275304" lon="11.865492774022771"><ele>307.0</ele><time>2026-05-01T16:00:08Z</time></trkpt><trkpt lat="42.5993842854736" lon="11.865545836997404"><ele>307.0</ele><time>2026-05-01T16:00:09Z</time></trkpt><trkpt lat="42.59947330395378" lon="11.865579484273553"><ele>307.0</ele><time>2026-05-01T16:00:10Z</time></trkpt><trkpt lat="42.59955956482991" lon="11.865616297860537"><ele>307.75</ele><time>2026-05-01T16:00:11Z</time></trkpt><trkpt lat="42.59965305642702" lon="11.865659715476967"><ele>308.5</ele><time>2026-05-01T16:00:12Z</time></trkpt><trkpt lat="42.59975509346115" lon="11.865703278123318"><ele>309.25</ele><time>2026-05-01T16:00:13Z</time></trkpt><trkpt lat="42.59986640683269" lon="11.86576747514098"><ele>310.0</ele><time>2026-05-01T16:00:14Z</time></trkpt><trkpt lat="42.59998481624903" lon="11.865827146073947"><ele>310.0</ele><time>2026-05-01T16:00:15Z</time></trkpt><trkpt lat="42.60009511826903" lon="11.865887389806606"><ele>310.0</ele><time>2026-05-01T16:00:16Z</time></trkpt><trkpt lat="42.600194959144446" lon="11.865939906654944"><ele>310.0</ele><time>2026-05-01T16:00:17Z</time></trkpt><trkpt lat="42.60028548354766" lon="11.865989641497523"><ele>310.0</ele><time>2026-05-01T16:00:18Z</time></trkpt><trkpt lat="42.60038428556846" lon="11.866035366690797"><ele>310.0</ele><time>2026-05-01T16:00:19Z</time></trkpt><trkpt lat="42.60047616749238" lon="11.866085074965135"><ele>309.2</ele><time>2026-05-01T16:00:20Z</time></trkpt><trkpt lat="42.60057256416476" lon="11.866135937828998"><ele>308.4</ele><time>2026-05-01T16:00:21Z</time></trkpt><trkpt lat="42.60067011535234" lon="11.866185692272436"><ele>307.6</ele><time>2026-05-01T16:00:22Z</time></trkpt><trkpt lat="42.600763738507375" lon="11.86624337057628"><ele>306.8</ele><time>2026-05-01T16:00:23Z</time></trkpt><trkpt lat="42.600848726199715" lon="11.866296347865896"><ele>306.0</ele><time>2026-05-01T16:00:24Z</time></trkpt><trkpt lat="42.60093244974152" lon="11.866338962445916"><ele>306.0</ele><time>2026-05-01T16:00:25Z</time></trkpt><trkpt lat="42.60102628241701" lon="11.866370259402146"><ele>306.0</ele><time>2026-05-01T16:00:26Z</time></trkpt><trkpt lat="42.60112738088631" lon="11.866390524102973"><ele>306.0</ele><time>2026-05-01T16:00:27Z</time></trkpt><trkpt lat="42.60123617517426" lon="11.866389582998892"><ele>306.0</ele><time>2026-05-01T16:00:28Z</time></trkpt><trkpt lat="42.60135143048783" lon="11.86636636965324"><ele>306.0</ele><time>2026-05-01T16:00:29Z</time></trkpt><trkpt lat="42.601454535990335" lon="11.866370642210821"><ele>306.3333333333333</ele><time>2026-05-01T16:00:30Z</time></trkpt><trkpt lat="42.601576005843704" lon="11.866378352389896"><ele>306.66666666666663</ele><time>2026-05-01T16:00:31Z</time></trkpt><trkpt lat="42.60174338591342" lon="11.866392910064093"><ele>307.0</ele><time>2026-05-01T16:00:32Z</time></trkpt><trkpt lat="42.60192747547812" lon="11.866417259205171"><ele>308.3333333333333</ele><time>2026-05-01T16:00:33Z</time></trkpt><trkpt lat="42.60212385433221" lon="11.866453135855354"><ele>309.6666666666667</ele><time>2026-05-01T16:00:34Z</time></trkpt><trkpt lat="42.602323259203" lon="11.86649304521256"><ele>311.0</ele><time>2026-05-01T16:00:35Z</time></trkpt><trkpt lat="42.60248949875124" lon="11.86652165091107"><ele>311.0</ele><time>2026-05-01T16:00:36Z</time></trkpt><trkpt lat="42.602641930130886" lon="11.866580109468803"><ele>311.0</ele><time>2026-05-01T16:00:37Z</time></trkpt><trkpt lat="42.60276519159588" lon="11.866658929070105"><ele>311.0</ele><time>2026-05-01T16:00:38Z</time></trkpt><trkpt lat="42.60286176280629" lon="11.866778042817092"><ele>311.0</ele><time>2026-05-01T16:00:39Z</time></trkpt><trkpt lat="42.60296054111605" lon="11.866850507014911"><ele>309.75</ele><time>2026-05-01T16:00:40Z</time></trkpt><trkpt lat="42.603069736018746" lon="11.866911674905987"><ele>308.5</ele><time>2026-05-01T16:00:41Z</time></trkpt><trkpt lat="42.603174263648825" lon="11.866878749854443"><ele>307.25</ele><time>2026-05-01T16:00:42Z</time></trkpt><trkpt lat="42.60329202810796" lon="11.86681719101733"><ele>306.0</ele><time>2026-05-01T16:00:43Z</time></trkpt><trkpt lat="42.60341544850919" lon="11.866741595426108"><ele>307.75</ele><time>2026-05-01T16:00:44Z</time></trkpt><trkpt lat="42.60355462071505" lon="11.86673465049534"><ele>309.5</ele><time>2026-05-01T16:00:45Z</time></trkpt><trkpt lat="42.60369028688618" lon="11.8667303694211"><ele>311.25</ele><time>2026-05-01T16:00:46Z</time></trkpt><trkpt lat="42.60382836446769" lon="11.866735727136867"><ele>313.0</ele><time>2026-05-01T16:00:47Z</time></trkpt><trkpt lat="42.60397757424969" lon="11.866777601501989"><ele>310.66666666666663</ele><time>2026-05-01T16:00:48Z</time></trkpt><trkpt lat="42.60413399305355" lon="11.86682035873047"><ele>308.3333333333333</ele><time>2026-05-01T16:00:49Z</time></trkpt><trkpt lat="42.60429269514667" lon="11.866874466212181"><ele>306.0</ele><time>2026-05-01T16:00:50Z</time></trkpt><trkpt lat="42.604446999351396" lon="11.866925650924717"><ele>306.6666666666667</ele><time>2026-05-01T16:00:51Z</time></trkpt><trkpt lat="42.604597676935484" lon="11.866977293358488"><ele>307.33333333333337</ele><time>2026-05-01T16:00:52Z</time></trkpt><trkpt lat="42.604754626508154" lon="11.86703533460767"><ele>308.0</ele><time>2026-05-01T16:00:53Z</time></trkpt><trkpt lat="42.60491864968784" lon="11.867094968827898"><ele>308.0</ele><time>2026-05-01T16:00:54Z</time></trkpt><trkpt lat="42.60508396835375" lon="11.867152933188494"><ele>308.0</ele><time>2026-05-01T16:00:55Z</time></trkpt><trkpt lat="42.60525399139015" lon="11.86721880774209"><ele>308.0</ele><time>2026-05-01T16:00:56Z</time></trkpt><trkpt lat="42.60541785412504" lon="11.86729716911472"><ele>308.0</ele><time>2026-05-01T16:00:57Z</time></trkpt><trkpt lat="42.605577908457214" lon="11.867380474126074"><ele>308.0</ele><time>2026-05-01T16:00:58Z</time></trkpt><trkpt lat="42.60573776453318" lon="11.867478575472076"><ele>308.0</ele><time>2026-05-01T16:00:59Z</time></trkpt><trkpt lat="42.60588655677819" lon="11.867569212093507"><ele>307.0</ele><time>2026-05-01T16:01:00Z</time></trkpt><trkpt lat="42.60601873723214" lon="11.867650301142554"><ele>306.0</ele><time>2026-05-01T16:01:01Z</time></trkpt><trkpt lat="42.60613720625584" lon="11.867713541174947"><ele>305.0</ele><time>2026-05-01T16:01:02Z</time></trkpt><trkpt lat="42.606256936490745" lon="11.867765126359254"><ele>304.0</ele><time>2026-05-01T16:01:03Z</time></trkpt><trkpt lat="42.60638620060986" lon="11.867793455781289"><ele>304.0</ele><time>2026-05-01T16:01:04Z</time></trkpt><trkpt lat="42.60652643237311" lon="11.867807631599767"><ele>304.0</ele><time>2026-05-01T16:01:05Z</time></trkpt><trkpt lat="42.60667850135635" lon="11.867785734081352"><ele>304.0</ele><time>2026-05-01T16:01:06Z</time></trkpt><trkpt lat="42.60682787787807" lon="11.86774166014908"><ele>304.0</ele><time>2026-05-01T16:01:07Z</time></trkpt><trkpt lat="42.60698129677713" lon="11.867675596848096"><ele>306.0</ele><time>2026-05-01T16:01:08Z</time></trkpt><trkpt lat="42.607134988529204" lon="11.867608623402296"><ele>308.0</ele><time>2026-05-01T16:01:09Z</time></trkpt><trkpt lat="42.60729483979214" lon="11.867561989703622"><ele>310.0</ele><time>2026-05-01T16:01:10Z</time></trkpt><trkpt lat="42.607450540249424" lon="11.867495698548796"><ele>310.0</ele><time>2026-05-01T16:01:11Z</time></trkpt><trkpt lat="42.607609767172114" lon="11.867432696221018"><ele>310.0</ele><time>2026-05-01T16:01:12Z</time></trkpt><trkpt lat="42.6077653768018" lon="11.867389810065719"><ele>310.0</ele><time>2026-05-01T16:01:13Z</time></trkpt><trkpt lat="42.6079214818855" lon="11.867361733930842"><ele>310.0</ele><time>2026-05-01T16:01:14Z</time></trkpt><trkpt lat="42.60808224975357" lon="11.86734472969142"><ele>310.0</ele><time>2026-05-01T16:01:15Z</time></trkpt><trkpt lat="42.60824150897102" lon="11.867326677663975"><ele>310.0</ele><time>2026-05-01T16:01:16Z</time></trkpt><trkpt lat="42.60839742079797" lon="11.867309005048245"><ele>310.0</ele><time>2026-05-01T16:01:17Z</time></trkpt><trkpt lat="42.60854062648276" lon="11.867289924950528"><ele>310.0</ele><time>2026-05-01T16:01:18Z</time></trkpt><trkpt lat="42.60866498493266" lon="11.867269785190015"><ele>310.0</ele><time>2026-05-01T16:01:19Z</time></trkpt><trkpt lat="42.608772254995614" lon="11.867209516225772"><ele>310.0</ele><time>2026-05-01T16:01:20Z</time></trkpt><trkpt lat="42.60887012181705" lon="11.8671431106698"><ele>310.5</ele><time>2026-05-01T16:01:21Z</time></trkpt><trkpt lat="42.608955397582406" lon="11.86703901431502"><ele>311.0</ele><time>2026-05-01T16:01:22Z</time></trkpt><trkpt lat="42.60903421185264" lon="11.866915892742153"><ele>311.5</ele><time>2026-05-01T16:01:23Z</time></trkpt><trkpt lat="42.60911405673369" lon="11.866773129267928"><ele>312.0</ele><time>2026-05-01T16:01:24Z</time></trkpt><trkpt lat="42.60922248576216" lon="11.86665477558596"><ele>312.0</ele><time>2026-05-01T16:01:25Z</time></trkpt><trkpt lat="42.609322637419766" lon="11.866497886553121"><ele>312.0</ele><time>2026-05-01T16:01:26Z</time></trkpt><trkpt lat="42.60942588357766" lon="11.866336278427184"><ele>312.0</ele><time>2026-05-01T16:01:27Z</time></trkpt><trkpt lat="42.60953103446648" lon="11.866171688663167"><ele>312.0</ele><time>2026-05-01T16:01:28Z</time></trkpt><trkpt lat="42.609639128702256" lon="11.866004701169237"><ele>312.0</ele><time>2026-05-01T16:01:29Z</time></trkpt><trkpt lat="42.60974951180234" lon="11.865835947177365"><ele>312.0</ele><time>2026-05-01T16:01:30Z</time></trkpt><trkpt lat="42.6098628189728" lon="11.86566512988693"><ele>312.0</ele><time>2026-05-01T16:01:31Z</time></trkpt><trkpt lat="42.60997124200294" lon="11.865499591806111"><ele>312.0</ele><time>2026-05-01T16:01:32Z</time></trkpt><trkpt lat="42.610063435836786" lon="11.865360807979464"><ele>312.0</ele><time>2026-05-01T16:01:33Z</time></trkpt><trkpt lat="42.61015677570915" lon="11.865249973857575"><ele>312.0</ele><time>2026-05-01T16:01:34Z</time></trkpt><trkpt lat="42.61025900527329" lon="11.865190254683693"><ele>311.5</ele><time>2026-05-01T16:01:35Z</time></trkpt><trkpt lat="42.61037695369894" lon="11.865167684398493"><ele>311.0</ele><time>2026-05-01T16:01:36Z</time></trkpt><trkpt lat="42.61050664283158" lon="11.865195057705664"><ele>310.5</ele><time>2026-05-01T16:01:37Z</time></trkpt><trkpt lat="42.61065874988106" lon="11.86525072764262"><ele>310.0</ele><time>2026-05-01T16:01:38Z</time></trkpt><trkpt lat="42.61083651318374" lon="11.86530131098588"><ele>310.0</ele><time>2026-05-01T16:01:39Z</time></trkpt><trkpt lat="42.61103476790497" lon="11.865378486950933"><ele>310.0</ele><time>2026-05-01T16:01:40Z</time></trkpt><trkpt lat="42.61122495843491" lon="11.865459659824742"><ele>310.0</ele><time>2026-05-01T16:01:41Z</time></trkpt><trkpt lat="42.61140375499051" lon="11.86551807120648"><ele>310.3333333333333</ele><time>2026-05-01T16:01:42Z</time></trkpt><trkpt lat="42.61157328844999" lon="11.865571163157501"><ele>310.6666666666667</ele><time>2026-05-01T16:01:43Z</time></trkpt><trkpt lat="42.611745544282435" lon="11.86560048521196"><ele>311.0</ele><time>2026-05-01T16:01:44Z</time></trkpt><trkpt lat="42.61190170716125" lon="11.865584327769689"><ele>311.33333333333337</ele><time>2026-05-01T16:01:45Z</time></trkpt><trkpt lat="42.612055843585324" lon="11.865523353434487"><ele>311.6666666666667</ele><time>2026-05-01T16:01:46Z</time></trkpt><trkpt lat="42.61220264373635" lon="11.865440776468706"><ele>312.0</ele><time>2026-05-01T16:01:47Z</time></trkpt><trkpt lat="42.61235110318659" lon="11.86536367205359"><ele>312.0</ele><time>2026-05-01T16:01:48Z</time></trkpt><trkpt lat="42.61249055023386" lon="11.865306645968277"><ele>312.0</ele><time>2026-05-01T16:01:49Z</time></trkpt><trkpt lat="42.6126186722091" lon="11.865270999004107"><ele>312.0</ele><time>2026-05-01T16:01:50Z</time></trkpt><trkpt lat="42.61274120118091" lon="11.865244593547656"><ele>312.0</ele><time>2026-05-01T16:01:51Z</time></trkpt><trkpt lat="42.61286808467408" lon="11.865250113271385"><ele>312.6666666666667</ele><time>2026-05-01T16:01:52Z</time></trkpt><trkpt lat="42.61300687204752" lon="11.865299203781055"><ele>313.33333333333337</ele><time>2026-05-01T16:01:53Z</time></trkpt><trkpt lat="42.613140147100516" lon="11.865400955791394"><ele>314.0</ele><time>2026-05-01T16:01:54Z</time></trkpt><trkpt lat="42.61327165976243" lon="11.865539410825983"><ele>314.0</ele><time>2026-05-01T16:01:55Z</time></trkpt><trkpt lat="42.61340990159058" lon="11.865679675392016"><ele>314.0</ele><time>2026-05-01T16:01:56Z</time></trkpt><trkpt lat="42.61354930037653" lon="11.865836784961255"><ele>314.0</ele><time>2026-05-01T16:01:57Z</time></trkpt><trkpt lat="42.613704392310474" lon="11.8659726394862"><ele>312.33333333333337</ele><time>2026-05-01T16:01:58Z</time></trkpt><trkpt lat="42.61387476685737" lon="11.866103118823228"><ele>310.6666666666667</ele><time>2026-05-01T16:01:59Z</time></trkpt><trkpt lat="42.614041084858975" lon="11.866216514138205"><ele>309.0</ele><time>2026-05-01T16:02:00Z</time></trkpt><trkpt lat="42.61420151898264" lon="11.866314744704537"><ele>309.0</ele><time>2026-05-01T16:02:01Z</time></trkpt><trkpt lat="42.61434108649445" lon="11.866417814401636"><ele>309.0</ele><time>2026-05-01T16:02:02Z</time></trkpt><trkpt lat="42.61447426714515" lon="11.866509812967884"><ele>309.0</ele><time>2026-05-01T16:02:03Z</time></trkpt><trkpt lat="42.61459561484448" lon="11.866615099267424"><ele>311.0</ele><time>2026-05-01T16:02:04Z</time></trkpt><trkpt lat="42.61471434549037" lon="11.866746862231311"><ele>313.0</ele><time>2026-05-01T16:02:05Z</time></trkpt><trkpt lat="42.614816756325894" lon="11.866919650106032"><ele>315.0</ele><time>2026-05-01T16:02:06Z</time></trkpt><trkpt lat="42.614906996299254" lon="11.867105932369286"><ele>315.0</ele><time>2026-05-01T16:02:07Z</time></trkpt><trkpt lat="42.6149977805626" lon="11.867287827618634"><ele>315.0</ele><time>2026-05-01T16:02:08Z</time></trkpt><trkpt lat="42.61509618979872" lon="11.867435356567062"><ele>315.0</ele><time>2026-05-01T16:02:09Z</time></trkpt><trkpt lat="42.61520255717315" lon="11.86754778025729"><ele>315.0</ele><time>2026-05-01T16:02:10Z</time></trkpt><trkpt lat="42.61533089279256" lon="11.867629622736336"><ele>313.5</ele><time>2026-05-01T16:02:11Z</time></trkpt><trkpt lat="42.61547723178836" lon="11.867668314943902"><ele>312.0</ele><time>2026-05-01T16:02:12Z</time></trkpt><trkpt lat="42.615628074910575" lon="11.86765908968448"><ele>310.5</ele><time>2026-05-01T16:02:13Z</time></trkpt><trkpt lat="42.61577319505869" lon="11.867641335453154"><ele>309.0</ele><time>2026-05-01T16:02:14Z</time></trkpt><trkpt lat="42.61591374057831" lon="11.867653996442636"><ele>309.0</ele><time>2026-05-01T16:02:15Z</time></trkpt><trkpt lat="42.616022220143115" lon="11.867701450984551"><ele>309.0</ele><time>2026-05-01T16:02:16Z</time></trkpt><trkpt lat="42.6161009801386" lon="11.867748462399264"><ele>309.0</ele><time>2026-05-01T16:02:17Z</time></trkpt><trkpt lat="42.6161409122253" lon="11.867815778757475"><ele>309.0</ele><time>2026-05-01T16:02:20Z</time></trkpt><trkpt lat="42.616122491415794" lon="11.868000062460194"><ele>309.0</ele><time>2026-05-01T16:02:25Z</time></trkpt><trkpt lat="42.616120041386004" lon="11.868099351155365"><ele>309.0</ele><time>2026-05-01T16:02:26Z</time></trkpt><trkpt lat="42.61612832665518" lon="11.86821212738481"><ele>309.0</ele><time>2026-05-01T16:02:27Z</time></trkpt><trkpt lat="42.616126833434386" lon="11.868324886758593"><ele>309.0</ele><time>2026-05-01T16:02:28Z</time></trkpt><trkpt lat="42.61613018943562" lon="11.868441833147326"><ele>309.0</ele><time>2026-05-01T16:02:29Z</time></trkpt><trkpt lat="42.61611495427285" lon="11.868553715145195"><ele>309.0</ele><time>2026-05-01T16:02:30Z</time></trkpt><trkpt lat="42.61612804965203" lon="11.868664330801497"><ele>309.0</ele><time>2026-05-01T16:02:31Z</time></trkpt><trkpt lat="42.61611650024523" lon="11.868754758355115"><ele>309.2</ele><time>2026-05-01T16:02:32Z</time></trkpt><trkpt lat="42.61611831116581" lon="11.868990257252728"><ele>309.4</ele><time>2026-05-01T16:02:34Z</time></trkpt><trkpt lat="42.61611826196119" lon="11.869113240458878"><ele>309.6</ele><time>2026-05-01T16:02:35Z</time></trkpt><trkpt lat="42.61613361883439" lon="11.869228897304318"><ele>309.8</ele><time>2026-05-01T16:02:36Z</time></trkpt><trkpt lat="42.61613058505313" lon="11.869349432530893"><ele>310.0</ele><time>2026-05-01T16:02:37Z</time></trkpt><trkpt lat="42.61612680343378" lon="11.869454275823218"><ele>309.2</ele><time>2026-05-01T16:02:38Z</time></trkpt><trkpt lat="42.616126563377925" lon="11.869562830710532"><ele>308.4</ele><time>2026-05-01T16:02:39Z</time></trkpt><trkpt lat="42.61611730814241" lon="11.869718136712567"><ele>307.6</ele><time>2026-05-01T16:02:41Z</time></trkpt><trkpt lat="42.61612706856017" lon="11.869834968604236"><ele>306.8</ele><time>2026-05-01T16:02:43Z</time></trkpt><trkpt lat="42.616123112266116" lon="11.869925543465023"><ele>306.0</ele><time>2026-05-01T16:02:47Z</time></trkpt><trkpt lat="42.61613343494305" lon="11.869783526081903"><ele>306.0</ele><time>2026-05-01T16:02:59Z</time></trkpt><trkpt lat="42.616036250820436" lon="11.869774470472185"><ele>306.0</ele><time>2026-05-01T16:03:01Z</time></trkpt><trkpt lat="42.61596712465778" lon="11.869708137482153"><ele>306.0</ele><time>2026-05-01T16:03:02Z</time></trkpt><trkpt lat="42.61613619028241" lon="11.86927092572712"><ele>306.8</ele><time>2026-05-01T16:03:03Z</time></trkpt><trkpt lat="42.61613153126992" lon="11.869148665215919"><ele>307.6</ele><time>2026-05-01T16:03:04Z</time></trkpt><trkpt lat="42.61612879104807" lon="11.869015184527278"><ele>308.4</ele><time>2026-05-01T16:03:05Z</time></trkpt><trkpt lat="42.61612749746964" lon="11.868881027145825"><ele>309.2</ele><time>2026-05-01T16:03:06Z</time></trkpt><trkpt lat="42.61612485654773" lon="11.86875232064671"><ele>310.0</ele><time>2026-05-01T16:03:07Z</time></trkpt><trkpt lat="42.616124551913735" lon="11.868630837613102"><ele>310.0</ele><time>2026-05-01T16:03:08Z</time></trkpt><trkpt lat="42.61612353295709" lon="11.868491006392057"><ele>310.0</ele><time>2026-05-01T16:03:09Z</time></trkpt><trkpt lat="42.616127444343874" lon="11.868336181640725"><ele>310.0</ele><time>2026-05-01T16:03:10Z</time></trkpt><trkpt lat="42.6161246121091" lon="11.868185809581917"><ele>310.0</ele><time>2026-05-01T16:03:11Z</time></trkpt><trkpt lat="42.616121889370284" lon="11.868076904445905"><ele>310.0</ele><time>2026-05-01T16:03:12Z</time></trkpt><trkpt lat="42.61611809717474" lon="11.867975886193353"><ele>309.8</ele><time>2026-05-01T16:03:13Z</time></trkpt><trkpt lat="42.61611952275825" lon="11.867866018112734"><ele>309.6</ele><time>2026-05-01T16:03:15Z</time></trkpt><trkpt lat="42.61617267795871" lon="11.867796094651167"><ele>309.4</ele><time>2026-05-01T16:03:20Z</time></trkpt><trkpt lat="42.61630712283207" lon="11.86784904778017"><ele>309.2</ele><time>2026-05-01T16:03:22Z</time></trkpt><trkpt lat="42.6164467784962" lon="11.867930795546329"><ele>309.0</ele><time>2026-05-01T16:03:23Z</time></trkpt><trkpt lat="42.61661026026626" lon="11.868007925404076"><ele>310.6666666666667</ele><time>2026-05-01T16:03:24Z</time></trkpt><trkpt lat="42.61682665250849" lon="11.868122706560904"><ele>312.33333333333337</ele><time>2026-05-01T16:03:25Z</time></trkpt><trkpt lat="42.61700680027376" lon="11.868212091445866"><ele>314.0</ele><time>2026-05-01T16:03:26Z</time></trkpt><trkpt lat="42.617162535300636" lon="11.868268403020757"><ele>312.33333333333337</ele><time>2026-05-01T16:03:27Z</time></trkpt><trkpt lat="42.617301276166074" lon="11.868358203152994"><ele>310.6666666666667</ele><time>2026-05-01T16:03:28Z</time></trkpt><trkpt lat="42.61745907354773" lon="11.868435014596082"><ele>309.0</ele><time>2026-05-01T16:03:29Z</time></trkpt><trkpt lat="42.61762592020673" lon="11.868513543544582"><ele>309.0</ele><time>2026-05-01T16:03:30Z</time></trkpt><trkpt lat="42.61778717415645" lon="11.868611131811466"><ele>309.0</ele><time>2026-05-01T16:03:31Z</time></trkpt><trkpt lat="42.6179522982686" lon="11.86875068240777"><ele>309.0</ele><time>2026-05-01T16:03:32Z</time></trkpt><trkpt lat="42.61813533041561" lon="11.868928707207541"><ele>309.0</ele><time>2026-05-01T16:03:33Z</time></trkpt><trkpt lat="42.61831868577871" lon="11.869078635641838"><ele>309.0</ele><time>2026-05-01T16:03:34Z</time></trkpt><trkpt lat="42.6184683691642" lon="11.869221873231002"><ele>309.0</ele><time>2026-05-01T16:03:35Z</time></trkpt><trkpt lat="42.61859230737984" lon="11.869332638779767"><ele>310.0</ele><time>2026-05-01T16:03:36Z</time></trkpt><trkpt lat="42.61869040526982" lon="11.869386015782865"><ele>311.0</ele><time>2026-05-01T16:03:37Z</time></trkpt><trkpt lat="42.61881137196235" lon="11.869399493040692"><ele>312.0</ele><time>2026-05-01T16:03:38Z</time></trkpt><trkpt lat="42.618960437786626" lon="11.869348140153203"><ele>313.0</ele><time>2026-05-01T16:03:39Z</time></trkpt><trkpt lat="42.61913455452532" lon="11.869283458349548"><ele>314.0</ele><time>2026-05-01T16:03:40Z</time></trkpt><trkpt lat="42.61928290274465" lon="11.869248133435779"><ele>315.0</ele><time>2026-05-01T16:03:41Z</time></trkpt><trkpt lat="42.619396466253995" lon="11.869212887543299"><ele>316.0</ele><time>2026-05-01T16:03:42Z</time></trkpt><trkpt lat="42.61950602784219" lon="11.869246181164689"><ele>317.0</ele><time>2026-05-01T16:03:43Z</time></trkpt><trkpt lat="42.619609311926645" lon="11.86933409300382"><ele>317.0</ele><time>2026-05-01T16:03:44Z</time></trkpt><trkpt lat="42.61970970296506" lon="11.869457496994034"><ele>317.0</ele><time>2026-05-01T16:03:45Z</time></trkpt><trkpt lat="42.619828296908544" lon="11.869611391433336"><ele>317.0</ele><time>2026-05-01T16:03:46Z</time></trkpt><trkpt lat="42.61995344990042" lon="11.869778799774014"><ele>317.0</ele><time>2026-05-01T16:03:47Z</time></trkpt><trkpt lat="42.620076064086085" lon="11.869941850010301"><ele>317.0</ele><time>2026-05-01T16:03:48Z</time></trkpt><trkpt lat="42.62021311667818" lon="11.870126417167283"><ele>317.0</ele><time>2026-05-01T16:03:49Z</time></trkpt><trkpt lat="42.62038100220339" lon="11.870346223415156"><ele>318.33333333333337</ele><time>2026-05-01T16:03:50Z</time></trkpt><trkpt lat="42.6205375432629" lon="11.870559000186397"><ele>319.6666666666667</ele><time>2026-05-01T16:03:51Z</time></trkpt><trkpt lat="42.62068134182766" lon="11.870748678753618"><ele>321.0</ele><time>2026-05-01T16:03:52Z</time></trkpt><trkpt lat="42.62081634510379" lon="11.87092399749951"><ele>320.6666666666667</ele><time>2026-05-01T16:03:53Z</time></trkpt><trkpt lat="42.62093983448218" lon="11.871095418303138"><ele>320.33333333333337</ele><time>2026-05-01T16:03:54Z</time></trkpt><trkpt lat="42.62106319760891" lon="11.87125527995625"><ele>320.0</ele><time>2026-05-01T16:03:55Z</time></trkpt><trkpt lat="42.621187248198304" lon="11.871410271260665"><ele>320.0</ele><time>2026-05-01T16:03:56Z</time></trkpt><trkpt lat="42.62131350309394" lon="11.871545272434213"><ele>320.0</ele><time>2026-05-01T16:03:57Z</time></trkpt><trkpt lat="42.621445874523076" lon="11.871642910939451"><ele>320.0</ele><time>2026-05-01T16:03:58Z</time></trkpt><trkpt lat="42.6215809401511" lon="11.871691103191976"><ele>320.0</ele><time>2026-05-01T16:03:59Z</time></trkpt><trkpt lat="42.62172021322503" lon="11.871706590458102"><ele>320.0</ele><time>2026-05-01T16:04:00Z</time></trkpt><trkpt lat="42.6218731990608" lon="11.87167510554804"><ele>320.0</ele><time>2026-05-01T16:04:01Z</time></trkpt><trkpt lat="42.62203577215315" lon="11.871628258923149"><ele>319.25</ele><time>2026-05-01T16:04:02Z</time></trkpt><trkpt lat="42.6221828113475" lon="11.871584607098804"><ele>318.5</ele><time>2026-05-01T16:04:03Z</time></trkpt><trkpt lat="42.62231365262676" lon="11.871537128175897"><ele>317.75</ele><time>2026-05-01T16:04:04Z</time></trkpt><trkpt lat="42.62246195675716" lon="11.871485778438746"><ele>317.0</ele><time>2026-05-01T16:04:05Z</time></trkpt><trkpt lat="42.62259997481141" lon="11.871435151393444"><ele>317.0</ele><time>2026-05-01T16:04:06Z</time></trkpt><trkpt lat="42.62273444828827" lon="11.871391585991747"><ele>317.0</ele><time>2026-05-01T16:04:07Z</time></trkpt><trkpt lat="42.6228528055141" lon="11.87135507675364"><ele>317.0</ele><time>2026-05-01T16:04:08Z</time></trkpt><trkpt lat="42.62296931388034" lon="11.87130558244624"><ele>317.0</ele><time>2026-05-01T16:04:09Z</time></trkpt><trkpt lat="42.62308608556274" lon="11.87125007902605"><ele>316.25</ele><time>2026-05-01T16:04:10Z</time></trkpt><trkpt lat="42.623196117890444" lon="11.871195964957911"><ele>315.5</ele><time>2026-05-01T16:04:11Z</time></trkpt><trkpt lat="42.623312378842726" lon="11.871139791811476"><ele>314.75</ele><time>2026-05-01T16:04:12Z</time></trkpt><trkpt lat="42.62342770295209" lon="11.871089638541848"><ele>314.0</ele><time>2026-05-01T16:04:13Z</time></trkpt><trkpt lat="42.6235549809639" lon="11.871054646747307"><ele>314.0</ele><time>2026-05-01T16:04:14Z</time></trkpt><trkpt lat="42.62367966315497" lon="11.871041154367107"><ele>314.0</ele><time>2026-05-01T16:04:15Z</time></trkpt><trkpt lat="42.62379929110582" lon="11.871027432633424"><ele>314.0</ele><time>2026-05-01T16:04:16Z</time></trkpt><trkpt lat="42.62391815954415" lon="11.87103948997741"><ele>314.0</ele><time>2026-05-01T16:04:17Z</time></trkpt><trkpt lat="42.624018761096345" lon="11.87106357728158"><ele>314.0</ele><time>2026-05-01T16:04:18Z</time></trkpt><trkpt lat="42.624131822933066" lon="11.871110697582392"><ele>314.0</ele><time>2026-05-01T16:04:19Z</time></trkpt><trkpt lat="42.62424820422938" lon="11.871191788500981"><ele>314.0</ele><time>2026-05-01T16:04:20Z</time></trkpt><trkpt lat="42.624411521720106" lon="11.87128289926635"><ele>314.0</ele><time>2026-05-01T16:04:21Z</time></trkpt><trkpt lat="42.62459746432791" lon="11.871391818117639"><ele>315.6666666666667</ele><time>2026-05-01T16:04:22Z</time></trkpt><trkpt lat="42.624803992243834" lon="11.871495262193587"><ele>317.3333333333333</ele><time>2026-05-01T16:04:23Z</time></trkpt><trkpt lat="42.62498984166344" lon="11.871618514651761"><ele>319.0</ele><time>2026-05-01T16:04:24Z</time></trkpt><trkpt lat="42.625188615999576" lon="11.871743682873271"><ele>317.3333333333333</ele><time>2026-05-01T16:04:25Z</time></trkpt><trkpt lat="42.62538462936274" lon="11.8718540707971"><ele>315.6666666666667</ele><time>2026-05-01T16:04:26Z</time></trkpt><trkpt lat="42.62555478554068" lon="11.871944124535082"><ele>314.0</ele><time>2026-05-01T16:04:27Z</time></trkpt><trkpt lat="42.62573301328381" lon="11.872039910174752"><ele>314.0</ele><time>2026-05-01T16:04:28Z</time></trkpt><trkpt lat="42.625902218618904" lon="11.872125409262448"><ele>314.0</ele><time>2026-05-01T16:04:29Z</time></trkpt><trkpt lat="42.62605997916841" lon="11.872199976886519"><ele>314.0</ele><time>2026-05-01T16:04:30Z</time></trkpt><trkpt lat="42.626219288306935" lon="11.872254628355638"><ele>314.33333333333337</ele><time>2026-05-01T16:04:31Z</time></trkpt><trkpt lat="42.6263797969456" lon="11.872273502848085"><ele>314.6666666666667</ele><time>2026-05-01T16:04:32Z</time></trkpt><trkpt lat="42.62652740834948" lon="11.872256625549934"><ele>315.0</ele><time>2026-05-01T16:04:33Z</time></trkpt><trkpt lat="42.62666791234481" lon="11.872209259622196"><ele>315.0</ele><time>2026-05-01T16:04:34Z</time></trkpt><trkpt lat="42.62680867068673" lon="11.87213356440267"><ele>315.0</ele><time>2026-05-01T16:04:35Z</time></trkpt><trkpt lat="42.62694585296477" lon="11.87206607888055"><ele>315.0</ele><time>2026-05-01T16:04:36Z</time></trkpt><trkpt lat="42.62708944579507" lon="11.87203542728725"><ele>315.0</ele><time>2026-05-01T16:04:37Z</time></trkpt><trkpt lat="42.62724166978567" lon="11.872050666606679"><ele>314.6666666666667</ele><time>2026-05-01T16:04:38Z</time></trkpt><trkpt lat="42.62740648147452" lon="11.872079435676278"><ele>314.33333333333337</ele><time>2026-05-01T16:04:39Z</time></trkpt><trkpt lat="42.62757916985395" lon="11.872103244086858"><ele>314.0</ele><time>2026-05-01T16:04:40Z</time></trkpt><trkpt lat="42.62775770467307" lon="11.872125964434181"><ele>315.33333333333337</ele><time>2026-05-01T16:04:41Z</time></trkpt><trkpt lat="42.627943606489474" lon="11.872150978602258"><ele>316.6666666666667</ele><time>2026-05-01T16:04:42Z</time></trkpt><trkpt lat="42.62813738467496" lon="11.872184430641708"><ele>318.0</ele><time>2026-05-01T16:04:43Z</time></trkpt><trkpt lat="42.62833141641865" lon="11.872213506354326"><ele>318.0</ele><time>2026-05-01T16:04:44Z</time></trkpt><trkpt lat="42.628508758798645" lon="11.87223993758324"><ele>318.0</ele><time>2026-05-01T16:04:45Z</time></trkpt><trkpt lat="42.628670042416715" lon="11.87226405204343"><ele>318.0</ele><time>2026-05-01T16:04:46Z</time></trkpt><trkpt lat="42.628812939827704" lon="11.872292324043377"><ele>318.75</ele><time>2026-05-01T16:04:47Z</time></trkpt><trkpt lat="42.62894068838626" lon="11.872354839580423"><ele>319.5</ele><time>2026-05-01T16:04:48Z</time></trkpt><trkpt lat="42.62906372740991" lon="11.872466820257888"><ele>320.25</ele><time>2026-05-01T16:04:49Z</time></trkpt><trkpt lat="42.62918322852331" lon="11.872615046153724"><ele>321.0</ele><time>2026-05-01T16:04:50Z</time></trkpt><trkpt lat="42.629311727827606" lon="11.872794965940107"><ele>318.6666666666667</ele><time>2026-05-01T16:04:51Z</time></trkpt><trkpt lat="42.62944926003561" lon="11.872974247858211"><ele>316.33333333333337</ele><time>2026-05-01T16:04:52Z</time></trkpt><trkpt lat="42.62959583749968" lon="11.873168680775835"><ele>314.0</ele><time>2026-05-01T16:04:53Z</time></trkpt><trkpt lat="42.6297090021801" lon="11.873326274054342"><ele>313.0</ele><time>2026-05-01T16:04:54Z</time></trkpt><trkpt lat="42.629830668476394" lon="11.873485727680283"><ele>312.0</ele><time>2026-05-01T16:04:55Z</time></trkpt><trkpt lat="42.629954046109184" lon="11.873637494146376"><ele>311.0</ele><time>2026-05-01T16:04:56Z</time></trkpt><trkpt lat="42.63010011583442" lon="11.873766553627256"><ele>311.0</ele><time>2026-05-01T16:04:57Z</time></trkpt><trkpt lat="42.630267827985826" lon="11.873909469056802"><ele>311.0</ele><time>2026-05-01T16:04:58Z</time></trkpt><trkpt lat="42.63045222975227" lon="11.87401986736825"><ele>311.0</ele><time>2026-05-01T16:04:59Z</time></trkpt><trkpt lat="42.630654270897374" lon="11.874122759439244"><ele>311.0</ele><time>2026-05-01T16:05:00Z</time></trkpt><trkpt lat="42.63085308494749" lon="11.874244687331883"><ele>311.0</ele><time>2026-05-01T16:05:01Z</time></trkpt><trkpt lat="42.63105458691154" lon="11.87437512294774"><ele>311.0</ele><time>2026-05-01T16:05:02Z</time></trkpt><trkpt lat="42.63125051504249" lon="11.874492902591218"><ele>312.0</ele><time>2026-05-01T16:05:03Z</time></trkpt><trkpt lat="42.631444032040335" lon="11.874617588373974"><ele>313.0</ele><time>2026-05-01T16:05:04Z</time></trkpt><trkpt lat="42.63162784553649" lon="11.874757130474158"><ele>314.0</ele><time>2026-05-01T16:05:05Z</time></trkpt><trkpt lat="42.63180419816088" lon="11.874911082265237"><ele>315.0</ele><time>2026-05-01T16:05:06Z</time></trkpt><trkpt lat="42.63198139591394" lon="11.87507542054332"><ele>316.0</ele><time>2026-05-01T16:05:07Z</time></trkpt><trkpt lat="42.632161186000324" lon="11.875245702864929"><ele>317.0</ele><time>2026-05-01T16:05:08Z</time></trkpt><trkpt lat="42.63234635521312" lon="11.875411413182347"><ele>317.0</ele><time>2026-05-01T16:05:09Z</time></trkpt><trkpt lat="42.63253278531441" lon="11.875577667878416"><ele>317.0</ele><time>2026-05-01T16:05:10Z</time></trkpt><trkpt lat="42.63271550125022" lon="11.875741205467357"><ele>317.0</ele><time>2026-05-01T16:05:11Z</time></trkpt><trkpt lat="42.63287697980698" lon="11.875896067265202"><ele>316.6666666666667</ele><time>2026-05-01T16:05:12Z</time></trkpt><trkpt lat="42.63302991827451" lon="11.876040052751797"><ele>316.3333333333333</ele><time>2026-05-01T16:05:13Z</time></trkpt><trkpt lat="42.633174486911216" lon="11.87617533058935"><ele>316.0</ele><time>2026-05-01T16:05:14Z</time></trkpt><trkpt lat="42.6333161911079" lon="11.876284682553845"><ele>316.0</ele><time>2026-05-01T16:05:15Z</time></trkpt><trkpt lat="42.63346754628824" lon="11.876363127580987"><ele>316.0</ele><time>2026-05-01T16:05:16Z</time></trkpt><trkpt lat="42.63362891906226" lon="11.876410959705536"><ele>316.0</ele><time>2026-05-01T16:05:17Z</time></trkpt><trkpt lat="42.63379679695313" lon="11.876444375607491"><ele>316.0</ele><time>2026-05-01T16:05:18Z</time></trkpt><trkpt lat="42.633964644065685" lon="11.8764649659321"><ele>316.0</ele><time>2026-05-01T16:05:19Z</time></trkpt><trkpt lat="42.634107334677026" lon="11.87649846146751"><ele>316.0</ele><time>2026-05-01T16:05:20Z</time></trkpt><trkpt lat="42.634239751858786" lon="11.876563135701891"><ele>316.0</ele><time>2026-05-01T16:05:21Z</time></trkpt><trkpt lat="42.63436739731859" lon="11.876662271641036"><ele>316.0</ele><time>2026-05-01T16:05:22Z</time></trkpt><trkpt lat="42.634486990612565" lon="11.876800887296048"><ele>316.0</ele><time>2026-05-01T16:05:23Z</time></trkpt><trkpt lat="42.63458038352271" lon="11.87699521884292"><ele>316.0</ele><time>2026-05-01T16:05:24Z</time></trkpt><trkpt lat="42.63469570545891" lon="11.877218326081758"><ele>316.0</ele><time>2026-05-01T16:05:25Z</time></trkpt><trkpt lat="42.63482326469943" lon="11.877439470526427"><ele>316.0</ele><time>2026-05-01T16:05:26Z</time></trkpt><trkpt lat="42.6349381158126" lon="11.877666741812426"><ele>315.0</ele><time>2026-05-01T16:05:27Z</time></trkpt><trkpt lat="42.63504202611568" lon="11.877873349935298"><ele>314.0</ele><time>2026-05-01T16:05:28Z</time></trkpt><trkpt lat="42.63514580491192" lon="11.878062774760574"><ele>313.0</ele><time>2026-05-01T16:05:29Z</time></trkpt><trkpt lat="42.63523856536874" lon="11.878257661266861"><ele>315.66666666666663</ele><time>2026-05-01T16:05:30Z</time></trkpt><trkpt lat="42.63535235844785" lon="11.87842740243174"><ele>318.3333333333333</ele><time>2026-05-01T16:05:31Z</time></trkpt><trkpt lat="42.63547688015666" lon="11.878585616914341"><ele>321.0</ele><time>2026-05-01T16:05:32Z</time></trkpt><trkpt lat="42.63559522731736" lon="11.878724539033081"><ele>321.0</ele><time>2026-05-01T16:05:33Z</time></trkpt><trkpt lat="42.635685947476304" lon="11.878895428791791"><ele>321.0</ele><time>2026-05-01T16:05:34Z</time></trkpt><trkpt lat="42.63576371123516" lon="11.879093675943702"><ele>321.0</ele><time>2026-05-01T16:05:35Z</time></trkpt><trkpt lat="42.635846330875964" lon="11.879290638218214"><ele>319.75</ele><time>2026-05-01T16:05:36Z</time></trkpt><trkpt lat="42.63593162909727" lon="11.879470868673303"><ele>318.5</ele><time>2026-05-01T16:05:37Z</time></trkpt><trkpt lat="42.63600091901688" lon="11.879647015528054"><ele>317.25</ele><time>2026-05-01T16:05:38Z</time></trkpt><trkpt lat="42.63609926699779" lon="11.879776865463453"><ele>316.0</ele><time>2026-05-01T16:05:39Z</time></trkpt><trkpt lat="42.636218825966054" lon="11.879864076694117"><ele>316.0</ele><time>2026-05-01T16:05:40Z</time></trkpt><trkpt lat="42.63635269190797" lon="11.879913452046788"><ele>316.0</ele><time>2026-05-01T16:05:41Z</time></trkpt><trkpt lat="42.63648795555587" lon="11.879970820180262"><ele>316.0</ele><time>2026-05-01T16:05:42Z</time></trkpt><trkpt lat="42.636625439597" lon="11.880045030194513"><ele>316.0</ele><time>2026-05-01T16:05:43Z</time></trkpt><trkpt lat="42.636774918064894" lon="11.880116055985885"><ele>315.3333333333333</ele><time>2026-05-01T16:05:44Z</time></trkpt><trkpt lat="42.63692028515098" lon="11.880185792905712"><ele>314.6666666666667</ele><time>2026-05-01T16:05:45Z</time></trkpt><trkpt lat="42.637070867319586" lon="11.880261933069088"><ele>314.0</ele><time>2026-05-01T16:05:46Z</time></trkpt><trkpt lat="42.637224496592104" lon="11.880347071347831"><ele>314.0</ele><time>2026-05-01T16:05:47Z</time></trkpt><trkpt lat="42.63737666571706" lon="11.880445337268588"><ele>314.0</ele><time>2026-05-01T16:05:48Z</time></trkpt><trkpt lat="42.63753100923694" lon="11.8805435242647"><ele>314.0</ele><time>2026-05-01T16:05:49Z</time></trkpt><trkpt lat="42.637680782062326" lon="11.88063223451581"><ele>314.6666666666667</ele><time>2026-05-01T16:05:50Z</time></trkpt><trkpt lat="42.63782679810509" lon="11.880716949564244"><ele>315.3333333333333</ele><time>2026-05-01T16:05:51Z</time></trkpt><trkpt lat="42.637975260655075" lon="11.880801636721468"><ele>316.0</ele><time>2026-05-01T16:05:52Z</time></trkpt><trkpt lat="42.63813170558094" lon="11.880864333314786"><ele>316.0</ele><time>2026-05-01T16:05:53Z</time></trkpt><trkpt lat="42.638282239329094" lon="11.880931564191485"><ele>316.0</ele><time>2026-05-01T16:05:54Z</time></trkpt><trkpt lat="42.63841458298567" lon="11.880989557185917"><ele>316.0</ele><time>2026-05-01T16:05:55Z</time></trkpt><trkpt lat="42.63850952213311" lon="11.881037600980598"><ele>316.0</ele><time>2026-05-01T16:05:56Z</time></trkpt><trkpt lat="42.63858419275856" lon="11.881066165530646"><ele>316.0</ele><time>2026-05-01T16:05:57Z</time></trkpt><trkpt lat="42.63869188576149" lon="11.881119334907202"><ele>316.0</ele><time>2026-05-01T16:05:59Z</time></trkpt><trkpt lat="42.6387843416403" lon="11.881216107460846"><ele>316.0</ele><time>2026-05-01T16:06:01Z</time></trkpt><trkpt lat="42.638837496668216" lon="11.881266887476485"><ele>316.0</ele><time>2026-05-01T16:06:02Z</time></trkpt><trkpt lat="42.63888623950783" lon="11.881332895694282"><ele>316.0</ele><time>2026-05-01T16:06:03Z</time></trkpt><trkpt lat="42.63892922586622" lon="11.881424202649654"><ele>316.0</ele><time>2026-05-01T16:06:04Z</time></trkpt><trkpt lat="42.638988043378475" lon="11.881512297951678"><ele>316.0</ele><time>2026-05-01T16:06:05Z</time></trkpt><trkpt lat="42.63905732180535" lon="11.881596558462203"><ele>316.0</ele><time>2026-05-01T16:06:06Z</time></trkpt><trkpt lat="42.63914635313549" lon="11.88166631603782"><ele>316.0</ele><time>2026-05-01T16:06:07Z</time></trkpt><trkpt lat="42.63924025419692" lon="11.881739997651277"><ele>316.0</ele><time>2026-05-01T16:06:08Z</time></trkpt><trkpt lat="42.63934366145147" lon="11.881807469406558"><ele>316.0</ele><time>2026-05-01T16:06:09Z</time></trkpt><trkpt lat="42.639459313792884" lon="11.881877084743577"><ele>315.75</ele><time>2026-05-01T16:06:10Z</time></trkpt><trkpt lat="42.639569841105505" lon="11.88195541649169"><ele>315.5</ele><time>2026-05-01T16:06:11Z</time></trkpt><trkpt lat="42.63966916632517" lon="11.882050027894719"><ele>315.25</ele><time>2026-05-01T16:06:12Z</time></trkpt><trkpt lat="42.639766329036625" lon="11.882165842496233"><ele>315.0</ele><time>2026-05-01T16:06:13Z</time></trkpt><trkpt lat="42.639858484542216" lon="11.882299254429782"><ele>315.0</ele><time>2026-05-01T16:06:14Z</time></trkpt><trkpt lat="42.63995056322037" lon="11.882435591746386"><ele>315.0</ele><time>2026-05-01T16:06:15Z</time></trkpt><trkpt lat="42.64005735211469" lon="11.882561897759283"><ele>315.0</ele><time>2026-05-01T16:06:16Z</time></trkpt><trkpt lat="42.64017798730447" lon="11.882679710340106"><ele>315.0</ele><time>2026-05-01T16:06:17Z</time></trkpt><trkpt lat="42.64030986320747" lon="11.88279166203849"><ele>315.0</ele><time>2026-05-01T16:06:18Z</time></trkpt><trkpt lat="42.64044340443008" lon="11.882907484193337"><ele>315.0</ele><time>2026-05-01T16:06:19Z</time></trkpt><trkpt lat="42.64057096298891" lon="11.883020444029524"><ele>315.0</ele><time>2026-05-01T16:06:20Z</time></trkpt><trkpt lat="42.640687267761166" lon="11.883134185742005"><ele>315.0</ele><time>2026-05-01T16:06:21Z</time></trkpt><trkpt lat="42.64078883312599" lon="11.883260212516465"><ele>315.0</ele><time>2026-05-01T16:06:22Z</time></trkpt><trkpt lat="42.64087175196335" lon="11.883402427377547"><ele>315.0</ele><time>2026-05-01T16:06:23Z</time></trkpt><trkpt lat="42.640965998963665" lon="11.883567752054983"><ele>315.0</ele><time>2026-05-01T16:06:24Z</time></trkpt><trkpt lat="42.64107106477019" lon="11.883785455937215"><ele>315.0</ele><time>2026-05-01T16:06:25Z</time></trkpt><trkpt lat="42.64118950153953" lon="11.884012189101362"><ele>315.0</ele><time>2026-05-01T16:06:26Z</time></trkpt><trkpt lat="42.64132222994801" lon="11.884225228189202"><ele>315.0</ele><time>2026-05-01T16:06:27Z</time></trkpt><trkpt lat="42.64142317709172" lon="11.884455419601457"><ele>314.0</ele><time>2026-05-01T16:06:28Z</time></trkpt><trkpt lat="42.641543436547515" lon="11.884679894421074"><ele>313.0</ele><time>2026-05-01T16:06:29Z</time></trkpt><trkpt lat="42.64166826637025" lon="11.884900392212652"><ele>312.0</ele><time>2026-05-01T16:06:30Z</time></trkpt><trkpt lat="42.64179240999919" lon="11.885105296375071"><ele>312.0</ele><time>2026-05-01T16:06:31Z</time></trkpt><trkpt lat="42.641921342201556" lon="11.885276959799373"><ele>312.0</ele><time>2026-05-01T16:06:32Z</time></trkpt><trkpt lat="42.64205800191659" lon="11.885410889714164"><ele>312.0</ele><time>2026-05-01T16:06:33Z</time></trkpt><trkpt lat="42.642206742312325" lon="11.885514273341261"><ele>312.0</ele><time>2026-05-01T16:06:34Z</time></trkpt><trkpt lat="42.64236731154509" lon="11.885594559916852"><ele>312.0</ele><time>2026-05-01T16:06:35Z</time></trkpt><trkpt lat="42.642522987909615" lon="11.885650181124724"><ele>312.0</ele><time>2026-05-01T16:06:36Z</time></trkpt><trkpt lat="42.642676939942916" lon="11.885701461711477"><ele>312.0</ele><time>2026-05-01T16:06:37Z</time></trkpt><trkpt lat="42.64281868003836" lon="11.885764018994639"><ele>312.0</ele><time>2026-05-01T16:06:38Z</time></trkpt><trkpt lat="42.64295655779328" lon="11.88585559109547"><ele>312.0</ele><time>2026-05-01T16:06:39Z</time></trkpt><trkpt lat="42.643084255177506" lon="11.885989146240364"><ele>312.0</ele><time>2026-05-01T16:06:40Z</time></trkpt><trkpt lat="42.64320221438297" lon="11.88614243389406"><ele>312.0</ele><time>2026-05-01T16:06:41Z</time></trkpt><trkpt lat="42.64332138811456" lon="11.886306117998533"><ele>312.0</ele><time>2026-05-01T16:06:42Z</time></trkpt><trkpt lat="42.64345609158809" lon="11.886453785380164"><ele>312.0</ele><time>2026-05-01T16:06:43Z</time></trkpt><trkpt lat="42.64362037563603" lon="11.886544850740941"><ele>312.0</ele><time>2026-05-01T16:06:44Z</time></trkpt><trkpt lat="42.64380358670116" lon="11.886595191831406"><ele>312.0</ele><time>2026-05-01T16:06:45Z</time></trkpt><trkpt lat="42.64397617523653" lon="11.886676049658192"><ele>312.0</ele><time>2026-05-01T16:06:46Z</time></trkpt><trkpt lat="42.644165935811415" lon="11.886727344741251"><ele>312.0</ele><time>2026-05-01T16:06:47Z</time></trkpt><trkpt lat="42.64435453127552" lon="11.886804007003933"><ele>312.0</ele><time>2026-05-01T16:06:48Z</time></trkpt><trkpt lat="42.64454462241474" lon="11.88688266698213"><ele>312.0</ele><time>2026-05-01T16:06:49Z</time></trkpt><trkpt lat="42.64473415447062" lon="11.886952951693301"><ele>312.0</ele><time>2026-05-01T16:06:50Z</time></trkpt><trkpt lat="42.644924861721016" lon="11.887026164534605"><ele>312.0</ele><time>2026-05-01T16:06:51Z</time></trkpt><trkpt lat="42.64511287427075" lon="11.887095962897256"><ele>312.0</ele><time>2026-05-01T16:06:52Z</time></trkpt><trkpt lat="42.64529532170176" lon="11.887160563415987"><ele>312.0</ele><time>2026-05-01T16:06:53Z</time></trkpt><trkpt lat="42.64546445998956" lon="11.887226818936599"><ele>312.0</ele><time>2026-05-01T16:06:54Z</time></trkpt><trkpt lat="42.64561649711781" lon="11.887308627810466"><ele>312.5</ele><time>2026-05-01T16:06:55Z</time></trkpt><trkpt lat="42.645747405920254" lon="11.887415112464522"><ele>313.0</ele><time>2026-05-01T16:06:56Z</time></trkpt><trkpt lat="42.64586210860456" lon="11.887529427629481"><ele>313.5</ele><time>2026-05-01T16:06:57Z</time></trkpt><trkpt lat="42.64597635772025" lon="11.88763342817211"><ele>314.0</ele><time>2026-05-01T16:06:58Z</time></trkpt><trkpt lat="42.64608494980333" lon="11.88772898870788"><ele>314.2</ele><time>2026-05-01T16:06:59Z</time></trkpt><trkpt lat="42.6461878109907" lon="11.887812523796029"><ele>314.4</ele><time>2026-05-01T16:07:00Z</time></trkpt><trkpt lat="42.646285351286906" lon="11.887846466695533"><ele>314.6</ele><time>2026-05-01T16:07:01Z</time></trkpt><trkpt lat="42.64638718929338" lon="11.887848523231781"><ele>314.8</ele><time>2026-05-01T16:07:02Z</time></trkpt><trkpt lat="42.64648075482297" lon="11.887756585378309"><ele>315.0</ele><time>2026-05-01T16:07:03Z</time></trkpt><trkpt lat="42.64652444103455" lon="11.887582236458295"><ele>315.0</ele><time>2026-05-01T16:07:04Z</time></trkpt><trkpt lat="42.64656196713967" lon="11.887373783481529"><ele>315.0</ele><time>2026-05-01T16:07:05Z</time></trkpt><trkpt lat="42.64661241059049" lon="11.887136381335887"><ele>315.0</ele><time>2026-05-01T16:07:06Z</time></trkpt><trkpt lat="42.646646051003394" lon="11.886920633651576"><ele>316.3333333333333</ele><time>2026-05-01T16:07:07Z</time></trkpt><trkpt lat="42.64674228973133" lon="11.886693191012542"><ele>317.66666666666663</ele><time>2026-05-01T16:07:08Z</time></trkpt><trkpt lat="42.646822337078774" lon="11.886493123315104"><ele>319.0</ele><time>2026-05-01T16:07:09Z</time></trkpt><trkpt lat="42.646887481531266" lon="11.886331608250543"><ele>319.0</ele><time>2026-05-01T16:07:10Z</time></trkpt><trkpt lat="42.646929628399405" lon="11.8862000827469"><ele>319.0</ele><time>2026-05-01T16:07:11Z</time></trkpt><trkpt lat="42.64698932062654" lon="11.886130041280627"><ele>319.0</ele><time>2026-05-01T16:07:12Z</time></trkpt><trkpt lat="42.64706223512571" lon="11.886106922473441"><ele>319.0</ele><time>2026-05-01T16:07:14Z</time></trkpt><trkpt lat="42.647139898792155" lon="11.886344616330012"><ele>319.25</ele><time>2026-05-01T16:07:17Z</time></trkpt><trkpt lat="42.64718524800398" lon="11.886538024744297"><ele>319.5</ele><time>2026-05-01T16:07:18Z</time></trkpt><trkpt lat="42.64722095893392" lon="11.886705810196279"><ele>319.75</ele><time>2026-05-01T16:07:19Z</time></trkpt><trkpt lat="42.64726282232694" lon="11.886892630147475"><ele>320.0</ele><time>2026-05-01T16:07:20Z</time></trkpt><trkpt lat="42.64730731405534" lon="11.887087468558894"><ele>320.0</ele><time>2026-05-01T16:07:21Z</time></trkpt><trkpt lat="42.64737997229254" lon="11.887279474931834"><ele>320.0</ele><time>2026-05-01T16:07:22Z</time></trkpt><trkpt lat="42.64744901423882" lon="11.887473004846271"><ele>320.0</ele><time>2026-05-01T16:07:23Z</time></trkpt><trkpt lat="42.64753146722751" lon="11.887674068683467"><ele>318.0</ele><time>2026-05-01T16:07:24Z</time></trkpt><trkpt lat="42.647616302085055" lon="11.88788768179995"><ele>316.0</ele><time>2026-05-01T16:07:25Z</time></trkpt><trkpt lat="42.647700275968106" lon="11.88811075602807"><ele>314.0</ele><time>2026-05-01T16:07:26Z</time></trkpt><trkpt lat="42.64778519274363" lon="11.888339259309237"><ele>314.0</ele><time>2026-05-01T16:07:27Z</time></trkpt><trkpt lat="42.64786744593264" lon="11.888561725165337"><ele>314.0</ele><time>2026-05-01T16:07:28Z</time></trkpt><trkpt lat="42.64794673131902" lon="11.888780130473323"><ele>314.0</ele><time>2026-05-01T16:07:29Z</time></trkpt><trkpt lat="42.64802371489816" lon="11.888994247109581"><ele>314.0</ele><time>2026-05-01T16:07:30Z</time></trkpt><trkpt lat="42.64809549481042" lon="11.889210763608443"><ele>314.0</ele><time>2026-05-01T16:07:31Z</time></trkpt><trkpt lat="42.64815789072084" lon="11.889443239252262"><ele>314.0</ele><time>2026-05-01T16:07:32Z</time></trkpt><trkpt lat="42.64821409367662" lon="11.889663199102868"><ele>313.75</ele><time>2026-05-01T16:07:33Z</time></trkpt><trkpt lat="42.648281974510965" lon="11.88984483929032"><ele>313.5</ele><time>2026-05-01T16:07:34Z</time></trkpt><trkpt lat="42.648338034488575" lon="11.889999023291606"><ele>313.25</ele><time>2026-05-01T16:07:35Z</time></trkpt><trkpt lat="42.64839870265611" lon="11.890165881192814"><ele>313.0</ele><time>2026-05-01T16:07:36Z</time></trkpt><trkpt lat="42.648457128858965" lon="11.890326573065972"><ele>313.0</ele><time>2026-05-01T16:07:37Z</time></trkpt><trkpt lat="42.648523351516836" lon="11.89050512106018"><ele>313.0</ele><time>2026-05-01T16:07:38Z</time></trkpt><trkpt lat="42.64859175362694" lon="11.890688333735962"><ele>313.0</ele><time>2026-05-01T16:07:39Z</time></trkpt><trkpt lat="42.64869045241894" lon="11.8908532775463"><ele>312.5</ele><time>2026-05-01T16:07:40Z</time></trkpt><trkpt lat="42.648756742456115" lon="11.891019057158058"><ele>312.0</ele><time>2026-05-01T16:07:41Z</time></trkpt><trkpt lat="42.64881849640762" lon="11.891175977520737"><ele>311.5</ele><time>2026-05-01T16:07:42Z</time></trkpt><trkpt lat="42.64887958202034" lon="11.891330004956657"><ele>311.0</ele><time>2026-05-01T16:07:43Z</time></trkpt><trkpt lat="42.64894326015678" lon="11.891484569050961"><ele>311.0</ele><time>2026-05-01T16:07:44Z</time></trkpt><trkpt lat="42.64901355638005" lon="11.891640958134069"><ele>311.0</ele><time>2026-05-01T16:07:45Z</time></trkpt><trkpt lat="42.64905873354078" lon="11.891805769409794"><ele>311.0</ele><time>2026-05-01T16:07:46Z</time></trkpt><trkpt lat="42.6491137582323" lon="11.891950957275448"><ele>311.0</ele><time>2026-05-01T16:07:47Z</time></trkpt><trkpt lat="42.649164462742334" lon="11.892084746086967"><ele>310.5</ele><time>2026-05-01T16:07:48Z</time></trkpt><trkpt lat="42.649219949689126" lon="11.892227990305546"><ele>310.0</ele><time>2026-05-01T16:07:49Z</time></trkpt><trkpt lat="42.649280366682476" lon="11.89237956788964"><ele>309.5</ele><time>2026-05-01T16:07:50Z</time></trkpt><trkpt lat="42.649346495192844" lon="11.892538129007812"><ele>309.0</ele><time>2026-05-01T16:07:51Z</time></trkpt><trkpt lat="42.6494167942761" lon="11.892691018007067"><ele>309.25</ele><time>2026-05-01T16:07:52Z</time></trkpt><trkpt lat="42.64949780902289" lon="11.89284199686564"><ele>309.5</ele><time>2026-05-01T16:07:53Z</time></trkpt><trkpt lat="42.64958472534062" lon="11.89297764634058"><ele>309.75</ele><time>2026-05-01T16:07:54Z</time></trkpt><trkpt lat="42.64968167100059" lon="11.893105771535332"><ele>310.0</ele><time>2026-05-01T16:07:55Z</time></trkpt><trkpt lat="42.649763889251226" lon="11.893200563403607"><ele>310.0</ele><time>2026-05-01T16:07:56Z</time></trkpt><trkpt lat="42.64985403865887" lon="11.893296980840953"><ele>310.0</ele><time>2026-05-01T16:07:57Z</time></trkpt><trkpt lat="42.64994144618769" lon="11.893388011158372"><ele>310.0</ele><time>2026-05-01T16:07:58Z</time></trkpt><trkpt lat="42.65002794875337" lon="11.893475521971345"><ele>310.0</ele><time>2026-05-01T16:07:59Z</time></trkpt><trkpt lat="42.65014236377273" lon="11.893553194980745"><ele>309.75</ele><time>2026-05-01T16:08:00Z</time></trkpt><trkpt lat="42.650264411563334" lon="11.893607029026441"><ele>309.5</ele><time>2026-05-01T16:08:01Z</time></trkpt><trkpt lat="42.65039974233673" lon="11.893659254578935"><ele>309.25</ele><time>2026-05-01T16:08:02Z</time></trkpt><trkpt lat="42.65055769724587" lon="11.893707800164739"><ele>309.0</ele><time>2026-05-01T16:08:03Z</time></trkpt><trkpt lat="42.65074083364843" lon="11.893756344506532"><ele>309.0</ele><time>2026-05-01T16:08:04Z</time></trkpt><trkpt lat="42.65096186455692" lon="11.893812607437257"><ele>309.0</ele><time>2026-05-01T16:08:05Z</time></trkpt><trkpt lat="42.651177988413295" lon="11.893867621320094"><ele>309.0</ele><time>2026-05-01T16:08:06Z</time></trkpt><trkpt lat="42.65140180887998" lon="11.893924594330535"><ele>309.6666666666667</ele><time>2026-05-01T16:08:07Z</time></trkpt><trkpt lat="42.65161397655902" lon="11.893979508966693"><ele>310.33333333333337</ele><time>2026-05-01T16:08:08Z</time></trkpt><trkpt lat="42.65180365689741" lon="11.894031883063947"><ele>311.0</ele><time>2026-05-01T16:08:09Z</time></trkpt><trkpt lat="42.651986826804055" lon="11.894087096244956"><ele>311.0</ele><time>2026-05-01T16:08:10Z</time></trkpt><trkpt lat="42.652148487287214" lon="11.89422471782614"><ele>311.0</ele><time>2026-05-01T16:08:11Z</time></trkpt><trkpt lat="42.65229882278806" lon="11.894420899056852"><ele>311.0</ele><time>2026-05-01T16:08:12Z</time></trkpt><trkpt lat="42.65244975206323" lon="11.894673536649877"><ele>311.0</ele><time>2026-05-01T16:08:13Z</time></trkpt><trkpt lat="42.652611094960946" lon="11.894955234118019"><ele>311.0</ele><time>2026-05-01T16:08:14Z</time></trkpt><trkpt lat="42.65274956030124" lon="11.895222367163884"><ele>312.0</ele><time>2026-05-01T16:08:15Z</time></trkpt><trkpt lat="42.652892293716945" lon="11.895476518761466"><ele>313.0</ele><time>2026-05-01T16:08:16Z</time></trkpt><trkpt lat="42.65302771776558" lon="11.895723009128076"><ele>313.0</ele><time>2026-05-01T16:08:17Z</time></trkpt><trkpt lat="42.6531554574914" lon="11.895955512966877"><ele>313.0</ele><time>2026-05-01T16:08:18Z</time></trkpt><trkpt lat="42.65328768373378" lon="11.896169467317327"><ele>313.0</ele><time>2026-05-01T16:08:19Z</time></trkpt><trkpt lat="42.65340660392821" lon="11.896378776202639"><ele>313.0</ele><time>2026-05-01T16:08:20Z</time></trkpt><trkpt lat="42.65350825247725" lon="11.896603324014306"><ele>313.0</ele><time>2026-05-01T16:08:21Z</time></trkpt><trkpt lat="42.6536411333692" lon="11.896814456380463"><ele>313.0</ele><time>2026-05-01T16:08:22Z</time></trkpt><trkpt lat="42.65375292832296" lon="11.897034018064282"><ele>315.0</ele><time>2026-05-01T16:08:23Z</time></trkpt><trkpt lat="42.653868020208265" lon="11.897244298223848"><ele>317.0</ele><time>2026-05-01T16:08:24Z</time></trkpt><trkpt lat="42.65397920095003" lon="11.897452829496071"><ele>319.0</ele><time>2026-05-01T16:08:25Z</time></trkpt><trkpt lat="42.654088484530035" lon="11.897658109255788"><ele>319.0</ele><time>2026-05-01T16:08:26Z</time></trkpt><trkpt lat="42.6541970930063" lon="11.897855241185905"><ele>319.0</ele><time>2026-05-01T16:08:27Z</time></trkpt><trkpt lat="42.654304378758" lon="11.898043110872674"><ele>319.0</ele><time>2026-05-01T16:08:28Z</time></trkpt><trkpt lat="42.65441454216544" lon="11.898216032911813"><ele>321.0</ele><time>2026-05-01T16:08:29Z</time></trkpt><trkpt lat="42.6545369102054" lon="11.898370391697863"><ele>323.0</ele><time>2026-05-01T16:08:30Z</time></trkpt><trkpt lat="42.65467283440793" lon="11.898496246599974"><ele>325.0</ele><time>2026-05-01T16:08:31Z</time></trkpt><trkpt lat="42.65481960156241" lon="11.898602304471247"><ele>325.0</ele><time>2026-05-01T16:08:32Z</time></trkpt><trkpt lat="42.65496790168556" lon="11.898699796892128"><ele>325.0</ele><time>2026-05-01T16:08:33Z</time></trkpt><trkpt lat="42.655126780638504" lon="11.898800258246078"><ele>325.0</ele><time>2026-05-01T16:08:34Z</time></trkpt><trkpt lat="42.65528512920248" lon="11.898903257150886"><ele>326.3333333333333</ele><time>2026-05-01T16:08:35Z</time></trkpt><trkpt lat="42.655443121678665" lon="11.899002562787203"><ele>327.6666666666667</ele><time>2026-05-01T16:08:36Z</time></trkpt><trkpt lat="42.65559319732834" lon="11.89910028589748"><ele>329.0</ele><time>2026-05-01T16:08:37Z</time></trkpt><trkpt lat="42.65572963056621" lon="11.89919029751975"><ele>329.0</ele><time>2026-05-01T16:08:38Z</time></trkpt><trkpt lat="42.6558632199126" lon="11.899291476814147"><ele>329.0</ele><time>2026-05-01T16:08:39Z</time></trkpt><trkpt lat="42.656004165635714" lon="11.899384603423389"><ele>329.0</ele><time>2026-05-01T16:08:40Z</time></trkpt><trkpt lat="42.65613098200016" lon="11.899457982251176"><ele>329.0</ele><time>2026-05-01T16:08:41Z</time></trkpt><trkpt lat="42.656245398071135" lon="11.899568183349789"><ele>329.0</ele><time>2026-05-01T16:08:42Z</time></trkpt><trkpt lat="42.65634777699482" lon="11.89970750955932"><ele>329.0</ele><time>2026-05-01T16:08:43Z</time></trkpt><trkpt lat="42.65643464900834" lon="11.899871776573248"><ele>329.0</ele><time>2026-05-01T16:08:44Z</time></trkpt><trkpt lat="42.656525379474296" lon="11.900044152214697"><ele>328.6666666666667</ele><time>2026-05-01T16:08:45Z</time></trkpt><trkpt lat="42.65661965961475" lon="11.900221375980806"><ele>328.3333333333333</ele><time>2026-05-01T16:08:46Z</time></trkpt><trkpt lat="42.656716668904146" lon="11.900410709905428"><ele>328.0</ele><time>2026-05-01T16:08:47Z</time></trkpt><trkpt lat="42.656810221551424" lon="11.900605683247846"><ele>328.0</ele><time>2026-05-01T16:08:48Z</time></trkpt><trkpt lat="42.65691188479788" lon="11.900795483093077"><ele>328.0</ele><time>2026-05-01T16:08:49Z</time></trkpt><trkpt lat="42.65700861981541" lon="11.900972423124498"><ele>328.0</ele><time>2026-05-01T16:08:50Z</time></trkpt><trkpt lat="42.657099668934755" lon="11.901139225823554"><ele>327.3333333333333</ele><time>2026-05-01T16:08:51Z</time></trkpt><trkpt lat="42.6571930954074" lon="11.901310795312478"><ele>326.6666666666667</ele><time>2026-05-01T16:08:52Z</time></trkpt><trkpt lat="42.657284468891184" lon="11.901479059552447"><ele>326.0</ele><time>2026-05-01T16:08:53Z</time></trkpt><trkpt lat="42.65737201501719" lon="11.901646598678099"><ele>325.5</ele><time>2026-05-01T16:08:54Z</time></trkpt><trkpt lat="42.657456448967054" lon="11.901809015766405"><ele>325.0</ele><time>2026-05-01T16:08:55Z</time></trkpt><trkpt lat="42.657537224846244" lon="11.901972189180716"><ele>324.5</ele><time>2026-05-01T16:08:56Z</time></trkpt><trkpt lat="42.6576216460503" lon="11.902138591475136"><ele>324.0</ele><time>2026-05-01T16:08:57Z</time></trkpt><trkpt lat="42.65770983936592" lon="11.902309952172203"><ele>325.0</ele><time>2026-05-01T16:08:58Z</time></trkpt><trkpt lat="42.65780211671291" lon="11.902478721715688"><ele>326.0</ele><time>2026-05-01T16:08:59Z</time></trkpt><trkpt lat="42.65788933287746" lon="11.90264835786615"><ele>327.0</ele><time>2026-05-01T16:09:00Z</time></trkpt><trkpt lat="42.65797617877323" lon="11.902812290750372"><ele>327.25</ele><time>2026-05-01T16:09:01Z</time></trkpt><trkpt lat="42.65806075113775" lon="11.902966941832418"><ele>327.5</ele><time>2026-05-01T16:09:02Z</time></trkpt><trkpt lat="42.65814310030256" lon="11.903111948509006"><ele>327.75</ele><time>2026-05-01T16:09:03Z</time></trkpt><trkpt lat="42.658218251434" lon="11.903252050542772"><ele>328.0</ele><time>2026-05-01T16:09:04Z</time></trkpt><trkpt lat="42.65829914997703" lon="11.903395859920465"><ele>328.5</ele><time>2026-05-01T16:09:05Z</time></trkpt><trkpt lat="42.658379574295154" lon="11.903536105036896"><ele>329.0</ele><time>2026-05-01T16:09:06Z</time></trkpt><trkpt lat="42.658472783867936" lon="11.90365948423127"><ele>329.5</ele><time>2026-05-01T16:09:07Z</time></trkpt><trkpt lat="42.658579918973" lon="11.903770474338865"><ele>330.0</ele><time>2026-05-01T16:09:08Z</time></trkpt><trkpt lat="42.658704090514796" lon="11.90385524090428"><ele>330.5</ele><time>2026-05-01T16:09:09Z</time></trkpt><trkpt lat="42.65882913019572" lon="11.903934718592525"><ele>331.0</ele><time>2026-05-01T16:09:10Z</time></trkpt><trkpt lat="42.65895424511144" lon="11.903992381912902"><ele>331.5</ele><time>2026-05-01T16:09:11Z</time></trkpt><trkpt lat="42.65905440842794" lon="11.90406405778397"><ele>332.0</ele><time>2026-05-01T16:09:12Z</time></trkpt><trkpt lat="42.65915510629343" lon="11.904122786165296"><ele>332.0</ele><time>2026-05-01T16:09:13Z</time></trkpt><trkpt lat="42.65923870266783" lon="11.90417751276434"><ele>332.0</ele><time>2026-05-01T16:09:14Z</time></trkpt><trkpt lat="42.659306905355564" lon="11.904233263538963"><ele>332.0</ele><time>2026-05-01T16:09:15Z</time></trkpt><trkpt lat="42.65940482074955" lon="11.904261332938885"><ele>332.0</ele><time>2026-05-01T16:09:16Z</time></trkpt><trkpt lat="42.659457380430055" lon="11.90440631282531"><ele>332.0</ele><time>2026-05-01T16:09:17Z</time></trkpt><trkpt lat="42.65951388396271" lon="11.904541966221098"><ele>330.5</ele><time>2026-05-01T16:09:18Z</time></trkpt><trkpt lat="42.659566475009875" lon="11.90468422706318"><ele>329.0</ele><time>2026-05-01T16:09:19Z</time></trkpt><trkpt lat="42.65958721408745" lon="11.904842726778819"><ele>327.5</ele><time>2026-05-01T16:09:20Z</time></trkpt><trkpt lat="42.65962477203239" lon="11.904986862084218"><ele>326.0</ele><time>2026-05-01T16:09:21Z</time></trkpt><trkpt lat="42.65965553732426" lon="11.905139826142326"><ele>324.75</ele><time>2026-05-01T16:09:22Z</time></trkpt><trkpt lat="42.65964680413051" lon="11.90531125535709"><ele>323.5</ele><time>2026-05-01T16:09:23Z</time></trkpt><trkpt lat="42.65961683666526" lon="11.905495949427689"><ele>322.25</ele><time>2026-05-01T16:09:24Z</time></trkpt><trkpt lat="42.65958006969649" lon="11.905681840251075"><ele>321.0</ele><time>2026-05-01T16:09:25Z</time></trkpt><trkpt lat="42.659534283460346" lon="11.905860622769994"><ele>320.6666666666667</ele><time>2026-05-01T16:09:26Z</time></trkpt><trkpt lat="42.65949473092607" lon="11.906064989936299"><ele>320.33333333333337</ele><time>2026-05-01T16:09:27Z</time></trkpt><trkpt lat="42.65944134989448" lon="11.906287259957985"><ele>320.0</ele><time>2026-05-01T16:09:28Z</time></trkpt><trkpt lat="42.659403181819314" lon="11.906557168327318"><ele>317.0</ele><time>2026-05-01T16:09:29Z</time></trkpt><trkpt lat="42.65936605016663" lon="11.906872130377629"><ele>314.0</ele><time>2026-05-01T16:09:30Z</time></trkpt><trkpt lat="42.65932908767374" lon="11.907188554283382"><ele>314.0</ele><time>2026-05-01T16:09:31Z</time></trkpt><trkpt lat="42.6592929379974" lon="11.907498019900268"><ele>314.0</ele><time>2026-05-01T16:09:32Z</time></trkpt><trkpt lat="42.65925947776174" lon="11.907784462322152"><ele>314.0</ele><time>2026-05-01T16:09:33Z</time></trkpt><trkpt lat="42.65922750425066" lon="11.908051937129837"><ele>313.33333333333337</ele><time>2026-05-01T16:09:34Z</time></trkpt><trkpt lat="42.659197667759955" lon="11.908303012924"><ele>312.6666666666667</ele><time>2026-05-01T16:09:35Z</time></trkpt><trkpt lat="42.65917005067761" lon="11.908535412256573"><ele>312.0</ele><time>2026-05-01T16:09:36Z</time></trkpt><trkpt lat="42.65915960451184" lon="11.908748497294619"><ele>312.0</ele><time>2026-05-01T16:09:37Z</time></trkpt><trkpt lat="42.65913385041513" lon="11.908931055612278"><ele>312.0</ele><time>2026-05-01T16:09:38Z</time></trkpt><trkpt lat="42.65911122881967" lon="11.909093277001615"><ele>312.0</ele><time>2026-05-01T16:09:39Z</time></trkpt><trkpt lat="42.65909496820654" lon="11.909225795184122"><ele>312.0</ele><time>2026-05-01T16:09:40Z</time></trkpt><trkpt lat="42.6590755861739" lon="11.90933442010573"><ele>312.0</ele><time>2026-05-01T16:09:41Z</time></trkpt><trkpt lat="42.65903385124673" lon="11.909477831226038"><ele>312.5</ele><time>2026-05-01T16:09:43Z</time></trkpt><trkpt lat="42.65897373644892" lon="11.909568213861792"><ele>313.0</ele><time>2026-05-01T16:09:44Z</time></trkpt><trkpt lat="42.65887519246076" lon="11.909683583184304"><ele>313.5</ele><time>2026-05-01T16:09:45Z</time></trkpt><trkpt lat="42.6587812774207" lon="11.909817639997023"><ele>314.0</ele><time>2026-05-01T16:09:46Z</time></trkpt><trkpt lat="42.65870599864031" lon="11.90996353238386"><ele>313.75</ele><time>2026-05-01T16:09:47Z</time></trkpt><trkpt lat="42.658627043950915" lon="11.910118139814026"><ele>313.5</ele><time>2026-05-01T16:09:48Z</time></trkpt><trkpt lat="42.658537482302826" lon="11.910276805259008"><ele>313.25</ele><time>2026-05-01T16:09:49Z</time></trkpt><trkpt lat="42.658436567770345" lon="11.91043178766605"><ele>313.0</ele><time>2026-05-01T16:09:50Z</time></trkpt><trkpt lat="42.65833403461056" lon="11.910570889796146"><ele>313.0</ele><time>2026-05-01T16:09:51Z</time></trkpt><trkpt lat="42.65823701915873" lon="11.91070100605254"><ele>313.0</ele><time>2026-05-01T16:09:52Z</time></trkpt><trkpt lat="42.65814413867714" lon="11.910834257387714"><ele>313.0</ele><time>2026-05-01T16:09:53Z</time></trkpt><trkpt lat="42.658055810451366" lon="11.910988324932552"><ele>313.0</ele><time>2026-05-01T16:09:54Z</time></trkpt><trkpt lat="42.657981233607856" lon="11.911207735317234"><ele>314.0</ele><time>2026-05-01T16:09:55Z</time></trkpt><trkpt lat="42.6578706199485" lon="11.911449267329369"><ele>315.0</ele><time>2026-05-01T16:09:56Z</time></trkpt><trkpt lat="42.65775994896204" lon="11.911789856009966"><ele>315.0</ele><time>2026-05-01T16:09:57Z</time></trkpt><trkpt lat="42.65759323058304" lon="11.912144939897226"><ele>315.0</ele><time>2026-05-01T16:09:58Z</time></trkpt><trkpt lat="42.657414335206276" lon="11.912495785684257"><ele>316.0</ele><time>2026-05-01T16:09:59Z</time></trkpt><trkpt lat="42.65722209871576" lon="11.912817806877134"><ele>317.0</ele><time>2026-05-01T16:10:00Z</time></trkpt><trkpt lat="42.6570218298965" lon="11.913183622036565"><ele>315.5</ele><time>2026-05-01T16:10:01Z</time></trkpt><trkpt lat="42.65683292717161" lon="11.913583855229529"><ele>314.0</ele><time>2026-05-01T16:10:02Z</time></trkpt><trkpt lat="42.656664943254064" lon="11.913939397988258"><ele>314.0</ele><time>2026-05-01T16:10:03Z</time></trkpt><trkpt lat="42.656513005016095" lon="11.91427700448891"><ele>314.0</ele><time>2026-05-01T16:10:04Z</time></trkpt><trkpt lat="42.65638383598008" lon="11.914571811325374"><ele>314.0</ele><time>2026-05-01T16:10:05Z</time></trkpt><trkpt lat="42.6562691519575" lon="11.91487101816782"><ele>314.0</ele><time>2026-05-01T16:10:06Z</time></trkpt><trkpt lat="42.65617769019317" lon="11.915152449823266"><ele>312.5</ele><time>2026-05-01T16:10:07Z</time></trkpt><trkpt lat="42.65608299279062" lon="11.915468314652575"><ele>311.0</ele><time>2026-05-01T16:10:08Z</time></trkpt><trkpt lat="42.656011684705454" lon="11.91580420902956"><ele>310.5</ele><time>2026-05-01T16:10:09Z</time></trkpt><trkpt lat="42.655917140292644" lon="11.916134246287369"><ele>310.0</ele><time>2026-05-01T16:10:10Z</time></trkpt><trkpt lat="42.65582603621091" lon="11.916468317543718"><ele>310.0</ele><time>2026-05-01T16:10:11Z</time></trkpt><trkpt lat="42.655747279753484" lon="11.916805360208498"><ele>310.0</ele><time>2026-05-01T16:10:12Z</time></trkpt><trkpt lat="42.6556758804951" lon="11.917142722717285"><ele>310.0</ele><time>2026-05-01T16:10:13Z</time></trkpt><trkpt lat="42.65560954912396" lon="11.917478068745211"><ele>310.0</ele><time>2026-05-01T16:10:14Z</time></trkpt><trkpt lat="42.655549608534265" lon="11.917804883053465"><ele>310.0</ele><time>2026-05-01T16:10:15Z</time></trkpt><trkpt lat="42.65550521575961" lon="11.918113540266342"><ele>310.0</ele><time>2026-05-01T16:10:16Z</time></trkpt><trkpt lat="42.65547731531077" lon="11.918408327214674"><ele>310.0</ele><time>2026-05-01T16:10:17Z</time></trkpt><trkpt lat="42.65546231769843" lon="11.918710908830255"><ele>310.0</ele><time>2026-05-01T16:10:18Z</time></trkpt><trkpt lat="42.655472113053136" lon="11.919022005003754"><ele>309.5</ele><time>2026-05-01T16:10:19Z</time></trkpt><trkpt lat="42.65550945346852" lon="11.919331701482301"><ele>309.0</ele><time>2026-05-01T16:10:20Z</time></trkpt><trkpt lat="42.65555301402249" lon="11.919645963749302"><ele>309.0</ele><time>2026-05-01T16:10:21Z</time></trkpt><trkpt lat="42.65558943352949" lon="11.91995920037535"><ele>309.0</ele><time>2026-05-01T16:10:22Z</time></trkpt><trkpt lat="42.65563309038389" lon="11.92026966617833"><ele>308.5</ele><time>2026-05-01T16:10:23Z</time></trkpt><trkpt lat="42.65568292864046" lon="11.920579096439068"><ele>308.0</ele><time>2026-05-01T16:10:24Z</time></trkpt><trkpt lat="42.655733124930414" lon="11.920888776511704"><ele>309.0</ele><time>2026-05-01T16:10:25Z</time></trkpt><trkpt lat="42.65578037350543" lon="11.921199196038089"><ele>310.0</ele><time>2026-05-01T16:10:26Z</time></trkpt><trkpt lat="42.65583247868263" lon="11.921516836575666"><ele>310.0</ele><time>2026-05-01T16:10:27Z</time></trkpt><trkpt lat="42.655890855920326" lon="11.921823854127267"><ele>310.0</ele><time>2026-05-01T16:10:28Z</time></trkpt><trkpt lat="42.65595739722361" lon="11.922128101955046"><ele>310.0</ele><time>2026-05-01T16:10:29Z</time></trkpt><trkpt lat="42.656037789705934" lon="11.922433140646774"><ele>310.0</ele><time>2026-05-01T16:10:30Z</time></trkpt><trkpt lat="42.65610818819924" lon="11.922733754973859"><ele>310.5</ele><time>2026-05-01T16:10:31Z</time></trkpt><trkpt lat="42.656171390617885" lon="11.92304808255179"><ele>311.0</ele><time>2026-05-01T16:10:32Z</time></trkpt><trkpt lat="42.65622714492736" lon="11.923353899377044"><ele>311.5</ele><time>2026-05-01T16:10:33Z</time></trkpt><trkpt lat="42.65626903556224" lon="11.923649987030863"><ele>312.0</ele><time>2026-05-01T16:10:34Z</time></trkpt><trkpt lat="42.656294076095264" lon="11.92396098379579"><ele>311.5</ele><time>2026-05-01T16:10:35Z</time></trkpt><trkpt lat="42.65629378652576" lon="11.924269232326749"><ele>311.0</ele><time>2026-05-01T16:10:36Z</time></trkpt><trkpt lat="42.65628337981452" lon="11.924580430727396"><ele>311.0</ele><time>2026-05-01T16:10:37Z</time></trkpt><trkpt lat="42.65627329435488" lon="11.924890205594943"><ele>311.0</ele><time>2026-05-01T16:10:38Z</time></trkpt><trkpt lat="42.65627134322236" lon="11.9251993823761"><ele>311.0</ele><time>2026-05-01T16:10:39Z</time></trkpt><trkpt lat="42.6562777557209" lon="11.925503758231937"><ele>311.0</ele><time>2026-05-01T16:10:40Z</time></trkpt><trkpt lat="42.65628603570325" lon="11.9258169943758"><ele>311.0</ele><time>2026-05-01T16:10:41Z</time></trkpt><trkpt lat="42.65629776195717" lon="11.926126476500723"><ele>311.0</ele><time>2026-05-01T16:10:42Z</time></trkpt><trkpt lat="42.65631336414328" lon="11.926439320380945"><ele>311.33333333333337</ele><time>2026-05-01T16:10:43Z</time></trkpt><trkpt lat="42.65632934062956" lon="11.926745158126657"><ele>311.6666666666667</ele><time>2026-05-01T16:10:44Z</time></trkpt><trkpt lat="42.65634479920664" lon="11.927038898681996"><ele>312.0</ele><time>2026-05-01T16:10:45Z</time></trkpt><trkpt lat="42.65636650802546" lon="11.927326057788816"><ele>311.6666666666667</ele><time>2026-05-01T16:10:46Z</time></trkpt><trkpt lat="42.656388414852756" lon="11.927621314718982"><ele>311.33333333333337</ele><time>2026-05-01T16:10:47Z</time></trkpt><trkpt lat="42.65641074552165" lon="11.927919121391346"><ele>311.0</ele><time>2026-05-01T16:10:48Z</time></trkpt><trkpt lat="42.6564340223631" lon="11.928212698430766"><ele>311.33333333333337</ele><time>2026-05-01T16:10:49Z</time></trkpt><trkpt lat="42.656455850562054" lon="11.928509280356776"><ele>311.6666666666667</ele><time>2026-05-01T16:10:50Z</time></trkpt><trkpt lat="42.656476845650516" lon="11.928806901572612"><ele>312.0</ele><time>2026-05-01T16:10:51Z</time></trkpt><trkpt lat="42.65649243333098" lon="11.929099012497966"><ele>311.3333333333333</ele><time>2026-05-01T16:10:52Z</time></trkpt><trkpt lat="42.65649490305057" lon="11.929398202923124"><ele>310.66666666666663</ele><time>2026-05-01T16:10:53Z</time></trkpt><trkpt lat="42.656494858517476" lon="11.929697316569817"><ele>310.0</ele><time>2026-05-01T16:10:54Z</time></trkpt><trkpt lat="42.656492562232394" lon="11.92999733705054"><ele>310.0</ele><time>2026-05-01T16:10:55Z</time></trkpt><trkpt lat="42.65648907214244" lon="11.93029848240837"><ele>310.0</ele><time>2026-05-01T16:10:56Z</time></trkpt><trkpt lat="42.656489253597115" lon="11.930598553580673"><ele>310.0</ele><time>2026-05-01T16:10:57Z</time></trkpt><trkpt lat="42.65649476187985" lon="11.930895365529114"><ele>310.0</ele><time>2026-05-01T16:10:58Z</time></trkpt><trkpt lat="42.656508318610626" lon="11.9311912141687"><ele>310.0</ele><time>2026-05-01T16:10:59Z</time></trkpt><trkpt lat="42.65652937378075" lon="11.931487903776128"><ele>310.0</ele><time>2026-05-01T16:11:00Z</time></trkpt><trkpt lat="42.656553773338835" lon="11.931782885070275"><ele>310.66666666666663</ele><time>2026-05-01T16:11:01Z</time></trkpt><trkpt lat="42.6565773384947" lon="11.932082430851642"><ele>311.3333333333333</ele><time>2026-05-01T16:11:02Z</time></trkpt><trkpt lat="42.6565949574949" lon="11.932379866351207"><ele>312.0</ele><time>2026-05-01T16:11:03Z</time></trkpt><trkpt lat="42.656611311010636" lon="11.932679514510017"><ele>312.0</ele><time>2026-05-01T16:11:04Z</time></trkpt><trkpt lat="42.65662208406177" lon="11.93297882183654"><ele>312.0</ele><time>2026-05-01T16:11:05Z</time></trkpt><trkpt lat="42.65662128496095" lon="11.933274826828358"><ele>312.0</ele><time>2026-05-01T16:11:06Z</time></trkpt><trkpt lat="42.656610484211534" lon="11.933570888077371"><ele>311.6666666666667</ele><time>2026-05-01T16:11:07Z</time></trkpt><trkpt lat="42.65659755243994" lon="11.933864379658582"><ele>311.33333333333337</ele><time>2026-05-01T16:11:08Z</time></trkpt><trkpt lat="42.65658101158836" lon="11.934160945182219"><ele>311.0</ele><time>2026-05-01T16:11:09Z</time></trkpt><trkpt lat="42.656563520490224" lon="11.93445502667712"><ele>311.0</ele><time>2026-05-01T16:11:10Z</time></trkpt><trkpt lat="42.65654849936902" lon="11.934754242950525"><ele>311.0</ele><time>2026-05-01T16:11:11Z</time></trkpt><trkpt lat="42.65653156697986" lon="11.93505073408495"><ele>311.0</ele><time>2026-05-01T16:11:12Z</time></trkpt><trkpt lat="42.65651222584278" lon="11.935340441979987"><ele>311.0</ele><time>2026-05-01T16:11:13Z</time></trkpt><trkpt lat="42.65648983463971" lon="11.935628358782832"><ele>311.0</ele><time>2026-05-01T16:11:14Z</time></trkpt><trkpt lat="42.65646389445888" lon="11.935904222081613"><ele>311.0</ele><time>2026-05-01T16:11:15Z</time></trkpt><trkpt lat="42.65642945632076" lon="11.936177241254562"><ele>311.0</ele><time>2026-05-01T16:11:16Z</time></trkpt><trkpt lat="42.656372933861356" lon="11.936449313931265"><ele>311.0</ele><time>2026-05-01T16:11:17Z</time></trkpt><trkpt lat="42.656289596659114" lon="11.936708899195374"><ele>311.0</ele><time>2026-05-01T16:11:18Z</time></trkpt><trkpt lat="42.65619081165211" lon="11.936960787064553"><ele>311.0</ele><time>2026-05-01T16:11:19Z</time></trkpt><trkpt lat="42.656082860983595" lon="11.937219202630637"><ele>311.0</ele><time>2026-05-01T16:11:20Z</time></trkpt><trkpt lat="42.655972816756176" lon="11.93748267390266"><ele>311.0</ele><time>2026-05-01T16:11:21Z</time></trkpt><trkpt lat="42.65586671832273" lon="11.937749891464795"><ele>310.6666666666667</ele><time>2026-05-01T16:11:22Z</time></trkpt><trkpt lat="42.655754387553415" lon="11.938016273478109"><ele>310.3333333333333</ele><time>2026-05-01T16:11:23Z</time></trkpt><trkpt lat="42.655654673507726" lon="11.938280533494655"><ele>310.0</ele><time>2026-05-01T16:11:24Z</time></trkpt><trkpt lat="42.6555438749672" lon="11.93855036138937"><ele>310.0</ele><time>2026-05-01T16:11:25Z</time></trkpt><trkpt lat="42.655434977551806" lon="11.938820935446232"><ele>310.0</ele><time>2026-05-01T16:11:26Z</time></trkpt><trkpt lat="42.65532725885249" lon="11.939093609363761"><ele>309.5</ele><time>2026-05-01T16:11:27Z</time></trkpt><trkpt lat="42.65521834429171" lon="11.939363810732852"><ele>309.0</ele><time>2026-05-01T16:11:28Z</time></trkpt><trkpt lat="42.65510797291684" lon="11.939631238470843"><ele>309.0</ele><time>2026-05-01T16:11:29Z</time></trkpt><trkpt lat="42.654997915906165" lon="11.939899815543438"><ele>309.0</ele><time>2026-05-01T16:11:30Z</time></trkpt><trkpt lat="42.654889940111815" lon="11.940172004397848"><ele>308.3333333333333</ele><time>2026-05-01T16:11:31Z</time></trkpt><trkpt lat="42.65478799016656" lon="11.940443987981794"><ele>307.66666666666663</ele><time>2026-05-01T16:11:32Z</time></trkpt><trkpt lat="42.654685155939916" lon="11.9407136504851"><ele>307.0</ele><time>2026-05-01T16:11:33Z</time></trkpt><trkpt lat="42.65458283714744" lon="11.940985177969074"><ele>307.0</ele><time>2026-05-01T16:11:34Z</time></trkpt><trkpt lat="42.65447914924869" lon="11.9412556168211"><ele>307.0</ele><time>2026-05-01T16:11:35Z</time></trkpt><trkpt lat="42.654376204229926" lon="11.941524213129432"><ele>307.0</ele><time>2026-05-01T16:11:36Z</time></trkpt><trkpt lat="42.65427191805812" lon="11.941797873056561"><ele>306.0</ele><time>2026-05-01T16:11:37Z</time></trkpt><trkpt lat="42.654167972552784" lon="11.942071484243758"><ele>305.0</ele><time>2026-05-01T16:11:38Z</time></trkpt><trkpt lat="42.65406255676335" lon="11.942346412010536"><ele>306.0</ele><time>2026-05-01T16:11:39Z</time></trkpt><trkpt lat="42.653959773613096" lon="11.942623824265779"><ele>307.0</ele><time>2026-05-01T16:11:40Z</time></trkpt><trkpt lat="42.653855397263015" lon="11.942901196076912"><ele>307.0</ele><time>2026-05-01T16:11:41Z</time></trkpt><trkpt lat="42.65374568326459" lon="11.943177018589601"><ele>307.0</ele><time>2026-05-01T16:11:42Z</time></trkpt><trkpt lat="42.653616488679795" lon="11.943463202010005"><ele>307.5</ele><time>2026-05-01T16:11:43Z</time></trkpt><trkpt lat="42.653485091023484" lon="11.94378356673765"><ele>308.0</ele><time>2026-05-01T16:11:44Z</time></trkpt><trkpt lat="42.653343244375684" lon="11.94412824988753"><ele>307.5</ele><time>2026-05-01T16:11:45Z</time></trkpt><trkpt lat="42.65321763418371" lon="11.94445979370115"><ele>307.0</ele><time>2026-05-01T16:11:46Z</time></trkpt><trkpt lat="42.653083528620165" lon="11.944748883256128"><ele>307.0</ele><time>2026-05-01T16:11:47Z</time></trkpt><trkpt lat="42.65296401219259" lon="11.945029887555112"><ele>307.0</ele><time>2026-05-01T16:11:48Z</time></trkpt><trkpt lat="42.65285126188637" lon="11.945307203334295"><ele>307.0</ele><time>2026-05-01T16:11:49Z</time></trkpt><trkpt lat="42.6527354752012" lon="11.9456176384584"><ele>307.0</ele><time>2026-05-01T16:11:50Z</time></trkpt><trkpt lat="42.65264521933861" lon="11.945924907196252"><ele>306.5</ele><time>2026-05-01T16:11:51Z</time></trkpt><trkpt lat="42.65259547231922" lon="11.946245685517455"><ele>306.0</ele><time>2026-05-01T16:11:52Z</time></trkpt><trkpt lat="42.652570898205816" lon="11.946583123456772"><ele>305.5</ele><time>2026-05-01T16:11:53Z</time></trkpt><trkpt lat="42.65254393127778" lon="11.946955020360823"><ele>305.0</ele><time>2026-05-01T16:11:54Z</time></trkpt><trkpt lat="42.65253943077586" lon="11.947299318282875"><ele>305.0</ele><time>2026-05-01T16:11:55Z</time></trkpt><trkpt lat="42.65251994192741" lon="11.94761398737621"><ele>305.0</ele><time>2026-05-01T16:11:56Z</time></trkpt><trkpt lat="42.65249692930611" lon="11.947936497716437"><ele>305.0</ele><time>2026-05-01T16:11:57Z</time></trkpt><trkpt lat="42.65246679563814" lon="11.94826662178882"><ele>305.0</ele><time>2026-05-01T16:11:58Z</time></trkpt><trkpt lat="42.652438238996595" lon="11.94860035632013"><ele>305.5</ele><time>2026-05-01T16:11:59Z</time></trkpt><trkpt lat="42.652413719693676" lon="11.948940199681795"><ele>306.0</ele><time>2026-05-01T16:12:00Z</time></trkpt><trkpt lat="42.652390394502284" lon="11.9492793747862"><ele>306.0</ele><time>2026-05-01T16:12:01Z</time></trkpt><trkpt lat="42.65236360858136" lon="11.949616876264678"><ele>306.0</ele><time>2026-05-01T16:12:02Z</time></trkpt><trkpt lat="42.65233241541888" lon="11.949954022816533"><ele>306.5</ele><time>2026-05-01T16:12:03Z</time></trkpt><trkpt lat="42.65230197681751" lon="11.950291479496872"><ele>307.0</ele><time>2026-05-01T16:12:04Z</time></trkpt><trkpt lat="42.652276036156685" lon="11.950632101851692"><ele>306.5</ele><time>2026-05-01T16:12:05Z</time></trkpt><trkpt lat="42.65224739078592" lon="11.950968918546787"><ele>306.0</ele><time>2026-05-01T16:12:06Z</time></trkpt><trkpt lat="42.652217505449805" lon="11.951306456867165"><ele>306.0</ele><time>2026-05-01T16:12:07Z</time></trkpt><trkpt lat="42.65218884829743" lon="11.951638474015454"><ele>306.0</ele><time>2026-05-01T16:12:08Z</time></trkpt><trkpt lat="42.65216000273703" lon="11.951972045662243"><ele>306.5</ele><time>2026-05-01T16:12:09Z</time></trkpt><trkpt lat="42.65213094578025" lon="11.95230454766358"><ele>307.0</ele><time>2026-05-01T16:12:10Z</time></trkpt><trkpt lat="42.65209618408314" lon="11.952638075814706"><ele>307.0</ele><time>2026-05-01T16:12:11Z</time></trkpt><trkpt lat="42.65205632010586" lon="11.95296994267298"><ele>307.0</ele><time>2026-05-01T16:12:12Z</time></trkpt><trkpt lat="42.65201024985084" lon="11.953300886097619"><ele>307.0</ele><time>2026-05-01T16:12:13Z</time></trkpt><trkpt lat="42.651965835739574" lon="11.953626940456958"><ele>307.0</ele><time>2026-05-01T16:12:14Z</time></trkpt><trkpt lat="42.651927184790225" lon="11.953937815700696"><ele>307.0</ele><time>2026-05-01T16:12:15Z</time></trkpt><trkpt lat="42.65189061554491" lon="11.9542457816278"><ele>307.0</ele><time>2026-05-01T16:12:16Z</time></trkpt><trkpt lat="42.65185428817506" lon="11.95454337993689"><ele>307.0</ele><time>2026-05-01T16:12:17Z</time></trkpt><trkpt lat="42.65181883970837" lon="11.954836605424404"><ele>307.0</ele><time>2026-05-01T16:12:18Z</time></trkpt><trkpt lat="42.651782764325496" lon="11.95512811390607"><ele>307.0</ele><time>2026-05-01T16:12:19Z</time></trkpt><trkpt lat="42.651744830734735" lon="11.95542015219751"><ele>307.3333333333333</ele><time>2026-05-01T16:12:20Z</time></trkpt><trkpt lat="42.65170664225831" lon="11.955710356863586"><ele>307.6666666666667</ele><time>2026-05-01T16:12:21Z</time></trkpt><trkpt lat="42.65166737254241" lon="11.955997338390253"><ele>308.0</ele><time>2026-05-01T16:12:22Z</time></trkpt><trkpt lat="42.65162797209299" lon="11.956284703190764"><ele>308.0</ele><time>2026-05-01T16:12:23Z</time></trkpt><trkpt lat="42.6515883477999" lon="11.956563220341385"><ele>308.0</ele><time>2026-05-01T16:12:24Z</time></trkpt><trkpt lat="42.65154957169893" lon="11.956836259746773"><ele>308.0</ele><time>2026-05-01T16:12:25Z</time></trkpt><trkpt lat="42.65151086082353" lon="11.957108731805878"><ele>307.6666666666667</ele><time>2026-05-01T16:12:26Z</time></trkpt><trkpt lat="42.65147394846477" lon="11.957365686385767"><ele>307.3333333333333</ele><time>2026-05-01T16:12:27Z</time></trkpt><trkpt lat="42.651438919727234" lon="11.957613480414345"><ele>307.0</ele><time>2026-05-01T16:12:28Z</time></trkpt><trkpt lat="42.65140406251076" lon="11.957859432911109"><ele>306.66666666666663</ele><time>2026-05-01T16:12:29Z</time></trkpt><trkpt lat="42.651374896156085" lon="11.958092013516026"><ele>306.3333333333333</ele><time>2026-05-01T16:12:30Z</time></trkpt><trkpt lat="42.65134409472987" lon="11.958311916682304"><ele>306.0</ele><time>2026-05-01T16:12:31Z</time></trkpt><trkpt lat="42.651311767090206" lon="11.958539028588309"><ele>306.0</ele><time>2026-05-01T16:12:32Z</time></trkpt><trkpt lat="42.65127749883206" lon="11.958778848679971"><ele>306.0</ele><time>2026-05-01T16:12:33Z</time></trkpt><trkpt lat="42.65124961941828" lon="11.959034977134827"><ele>306.0</ele><time>2026-05-01T16:12:34Z</time></trkpt><trkpt lat="42.651221292248415" lon="11.959312965959251"><ele>306.0</ele><time>2026-05-01T16:12:35Z</time></trkpt><trkpt lat="42.651182961008935" lon="11.959598642982513"><ele>306.0</ele><time>2026-05-01T16:12:36Z</time></trkpt><trkpt lat="42.651129352013214" lon="11.959894135946408"><ele>306.0</ele><time>2026-05-01T16:12:37Z</time></trkpt><trkpt lat="42.65107708753824" lon="11.960197264786864"><ele>306.0</ele><time>2026-05-01T16:12:38Z</time></trkpt><trkpt lat="42.651037013249486" lon="11.96048671817924"><ele>306.0</ele><time>2026-05-01T16:12:39Z</time></trkpt><trkpt lat="42.651010494762055" lon="11.960770869473043"><ele>306.0</ele><time>2026-05-01T16:12:40Z</time></trkpt><trkpt lat="42.650980124073484" lon="11.96106110757982"><ele>306.3333333333333</ele><time>2026-05-01T16:12:41Z</time></trkpt><trkpt lat="42.650948854607535" lon="11.961350309244947"><ele>306.66666666666663</ele><time>2026-05-01T16:12:42Z</time></trkpt><trkpt lat="42.650917282586484" lon="11.96163797145677"><ele>307.0</ele><time>2026-05-01T16:12:43Z</time></trkpt><trkpt lat="42.65088496968269" lon="11.961922007929592"><ele>307.0</ele><time>2026-05-01T16:12:44Z</time></trkpt><trkpt lat="42.650852395484044" lon="11.962200758504384"><ele>307.0</ele><time>2026-05-01T16:12:45Z</time></trkpt><trkpt lat="42.650818439648596" lon="11.962479151982834"><ele>307.0</ele><time>2026-05-01T16:12:46Z</time></trkpt><trkpt lat="42.6507853190612" lon="11.96276112908727"><ele>307.0</ele><time>2026-05-01T16:12:47Z</time></trkpt><trkpt lat="42.650755280410586" lon="11.963042907071202"><ele>307.0</ele><time>2026-05-01T16:12:48Z</time></trkpt><trkpt lat="42.650724912248116" lon="11.963325169712492"><ele>307.0</ele><time>2026-05-01T16:12:49Z</time></trkpt><trkpt lat="42.65069197533697" lon="11.963606546314464"><ele>307.0</ele><time>2026-05-01T16:12:50Z</time></trkpt><trkpt lat="42.65065427039015" lon="11.963882989174902"><ele>307.0</ele><time>2026-05-01T16:12:51Z</time></trkpt><trkpt lat="42.65060921700141" lon="11.964159033514644"><ele>307.0</ele><time>2026-05-01T16:12:52Z</time></trkpt><trkpt lat="42.65056627296359" lon="11.964436916087953"><ele>307.0</ele><time>2026-05-01T16:12:53Z</time></trkpt><trkpt lat="42.650533265318785" lon="11.96471747368327"><ele>307.0</ele><time>2026-05-01T16:12:54Z</time></trkpt><trkpt lat="42.6504941998607" lon="11.96500184640684"><ele>307.0</ele><time>2026-05-01T16:12:55Z</time></trkpt><trkpt lat="42.650453692961975" lon="11.965285959034402"><ele>307.0</ele><time>2026-05-01T16:12:56Z</time></trkpt><trkpt lat="42.65041230772726" lon="11.965568653663546"><ele>307.0</ele><time>2026-05-01T16:12:57Z</time></trkpt><trkpt lat="42.65037289201487" lon="11.965855839528858"><ele>307.0</ele><time>2026-05-01T16:12:58Z</time></trkpt><trkpt lat="42.65033023247678" lon="11.966141438407245"><ele>307.0</ele><time>2026-05-01T16:12:59Z</time></trkpt><trkpt lat="42.65028711263942" lon="11.96643045616835"><ele>307.0</ele><time>2026-05-01T16:13:00Z</time></trkpt><trkpt lat="42.65024370824792" lon="11.966712497235005"><ele>307.0</ele><time>2026-05-01T16:13:01Z</time></trkpt><trkpt lat="42.650199549751164" lon="11.966988993608975"><ele>307.0</ele><time>2026-05-01T16:13:02Z</time></trkpt><trkpt lat="42.65015181302575" lon="11.967271153195888"><ele>307.0</ele><time>2026-05-01T16:13:03Z</time></trkpt><trkpt lat="42.6501022721301" lon="11.967555040895816"><ele>307.0</ele><time>2026-05-01T16:13:04Z</time></trkpt><trkpt lat="42.6500510750345" lon="11.967830328530283"><ele>307.0</ele><time>2026-05-01T16:13:05Z</time></trkpt><trkpt lat="42.64999942456614" lon="11.968110656969857"><ele>307.0</ele><time>2026-05-01T16:13:06Z</time></trkpt><trkpt lat="42.64994823205394" lon="11.968402664685094"><ele>307.0</ele><time>2026-05-01T16:13:07Z</time></trkpt><trkpt lat="42.649886895938245" lon="11.968699010889909"><ele>307.0</ele><time>2026-05-01T16:13:08Z</time></trkpt><trkpt lat="42.64981449747259" lon="11.96899040095057"><ele>307.0</ele><time>2026-05-01T16:13:09Z</time></trkpt><trkpt lat="42.649736272458135" lon="11.969281295596614"><ele>306.5</ele><time>2026-05-01T16:13:10Z</time></trkpt><trkpt lat="42.64965117096956" lon="11.969577953005935"><ele>306.0</ele><time>2026-05-01T16:13:11Z</time></trkpt><trkpt lat="42.6495782351584" lon="11.96987691777479"><ele>306.5</ele><time>2026-05-01T16:13:12Z</time></trkpt><trkpt lat="42.64950011943354" lon="11.970183230878403"><ele>307.0</ele><time>2026-05-01T16:13:13Z</time></trkpt><trkpt lat="42.64942308708276" lon="11.970482682418949"><ele>307.0</ele><time>2026-05-01T16:13:14Z</time></trkpt><trkpt lat="42.64934109161195" lon="11.970786902363463"><ele>307.0</ele><time>2026-05-01T16:13:15Z</time></trkpt><trkpt lat="42.649261583683526" lon="11.971094221915871"><ele>306.5</ele><time>2026-05-01T16:13:16Z</time></trkpt><trkpt lat="42.649182970214056" lon="11.971399452360451"><ele>306.0</ele><time>2026-05-01T16:13:17Z</time></trkpt><trkpt lat="42.649107621177905" lon="11.971701475228917"><ele>306.0</ele><time>2026-05-01T16:13:18Z</time></trkpt><trkpt lat="42.64903274801084" lon="11.972005094472877"><ele>306.0</ele><time>2026-05-01T16:13:19Z</time></trkpt><trkpt lat="42.6489684686669" lon="11.972308398915578"><ele>306.5</ele><time>2026-05-01T16:13:20Z</time></trkpt><trkpt lat="42.64891232181295" lon="11.972612944579415"><ele>307.0</ele><time>2026-05-01T16:13:21Z</time></trkpt><trkpt lat="42.64887703802189" lon="11.972909066237158"><ele>307.0</ele><time>2026-05-01T16:13:22Z</time></trkpt><trkpt lat="42.648844484631084" lon="11.973205143867817"><ele>307.0</ele><time>2026-05-01T16:13:23Z</time></trkpt><trkpt lat="42.64880573375632" lon="11.973496358678448"><ele>307.0</ele><time>2026-05-01T16:13:24Z</time></trkpt><trkpt lat="42.64875764009328" lon="11.973791547571778"><ele>307.5</ele><time>2026-05-01T16:13:25Z</time></trkpt><trkpt lat="42.64869800393555" lon="11.974090801080644"><ele>308.0</ele><time>2026-05-01T16:13:26Z</time></trkpt><trkpt lat="42.64861831099429" lon="11.974397337457725"><ele>308.0</ele><time>2026-05-01T16:13:27Z</time></trkpt><trkpt lat="42.648503418073865" lon="11.974715057554176"><ele>308.0</ele><time>2026-05-01T16:13:28Z</time></trkpt><trkpt lat="42.6483971751934" lon="11.975021335885003"><ele>308.5</ele><time>2026-05-01T16:13:29Z</time></trkpt><trkpt lat="42.64831602840073" lon="11.975320100826066"><ele>309.0</ele><time>2026-05-01T16:13:30Z</time></trkpt><trkpt lat="42.64823622749189" lon="11.9756168054335"><ele>310.0</ele><time>2026-05-01T16:13:31Z</time></trkpt><trkpt lat="42.648156558245994" lon="11.975912972817097"><ele>311.0</ele><time>2026-05-01T16:13:32Z</time></trkpt><trkpt lat="42.648078166245575" lon="11.976207807294484"><ele>311.0</ele><time>2026-05-01T16:13:33Z</time></trkpt><trkpt lat="42.64799924858332" lon="11.97649992711823"><ele>311.0</ele><time>2026-05-01T16:13:34Z</time></trkpt><trkpt lat="42.64792658967373" lon="11.976788818472187"><ele>311.0</ele><time>2026-05-01T16:13:35Z</time></trkpt><trkpt lat="42.647855324198666" lon="11.97708139234985"><ele>311.0</ele><time>2026-05-01T16:13:36Z</time></trkpt><trkpt lat="42.6477849651344" lon="11.977368476690552"><ele>311.0</ele><time>2026-05-01T16:13:37Z</time></trkpt><trkpt lat="42.64771345136325" lon="11.977652780357522"><ele>311.6666666666667</ele><time>2026-05-01T16:13:38Z</time></trkpt><trkpt lat="42.64764141909811" lon="11.977931524536661"><ele>312.3333333333333</ele><time>2026-05-01T16:13:39Z</time></trkpt><trkpt lat="42.647577427996076" lon="11.978200436629695"><ele>313.0</ele><time>2026-05-01T16:13:40Z</time></trkpt><trkpt lat="42.64750568139233" lon="11.978473293197398"><ele>313.3333333333333</ele><time>2026-05-01T16:13:41Z</time></trkpt><trkpt lat="42.64743268562173" lon="11.978747729131046"><ele>313.6666666666667</ele><time>2026-05-01T16:13:42Z</time></trkpt><trkpt lat="42.64736484744158" lon="11.979017496190725"><ele>314.0</ele><time>2026-05-01T16:13:43Z</time></trkpt><trkpt lat="42.64729359217057" lon="11.979283406415963"><ele>315.6666666666667</ele><time>2026-05-01T16:13:44Z</time></trkpt><trkpt lat="42.647229440068216" lon="11.9795409756335"><ele>317.3333333333333</ele><time>2026-05-01T16:13:45Z</time></trkpt><trkpt lat="42.64717140234002" lon="11.979775857343093"><ele>319.0</ele><time>2026-05-01T16:13:46Z</time></trkpt><trkpt lat="42.64711585008166" lon="11.97999782874259"><ele>319.66666666666663</ele><time>2026-05-01T16:13:47Z</time></trkpt><trkpt lat="42.64706271569688" lon="11.980210519600998"><ele>320.3333333333333</ele><time>2026-05-01T16:13:48Z</time></trkpt><trkpt lat="42.64700946679483" lon="11.980407402142871"><ele>321.0</ele><time>2026-05-01T16:13:49Z</time></trkpt><trkpt lat="42.64695624045538" lon="11.980598845906853"><ele>320.0</ele><time>2026-05-01T16:13:50Z</time></trkpt><trkpt lat="42.646905393230945" lon="11.98078042981168"><ele>319.0</ele><time>2026-05-01T16:13:51Z</time></trkpt><trkpt lat="42.64685552023214" lon="11.980955616549316"><ele>318.0</ele><time>2026-05-01T16:13:52Z</time></trkpt><trkpt lat="42.64681296838922" lon="11.981122621199864"><ele>317.0</ele><time>2026-05-01T16:13:53Z</time></trkpt><trkpt lat="42.6467731575873" lon="11.981275744877298"><ele>317.0</ele><time>2026-05-01T16:13:54Z</time></trkpt><trkpt lat="42.6467342084116" lon="11.98141524258427"><ele>317.0</ele><time>2026-05-01T16:13:55Z</time></trkpt><trkpt lat="42.64670546920465" lon="11.981540026720548"><ele>317.0</ele><time>2026-05-01T16:13:56Z</time></trkpt><trkpt lat="42.64667462605325" lon="11.981656719670376"><ele>317.0</ele><time>2026-05-01T16:13:57Z</time></trkpt><trkpt lat="42.64664921170949" lon="11.981777316257423"><ele>317.0</ele><time>2026-05-01T16:13:58Z</time></trkpt><trkpt lat="42.64663655678592" lon="11.98189533734798"><ele>317.5</ele><time>2026-05-01T16:13:59Z</time></trkpt><trkpt lat="42.64660711453881" lon="11.98200433673394"><ele>318.0</ele><time>2026-05-01T16:14:00Z</time></trkpt><trkpt lat="42.64655998604539" lon="11.982107807044805"><ele>318.5</ele><time>2026-05-01T16:14:01Z</time></trkpt><trkpt lat="42.64652749447104" lon="11.982223057954831"><ele>319.0</ele><time>2026-05-01T16:14:02Z</time></trkpt><trkpt lat="42.646495435235856" lon="11.982324859431428"><ele>319.5</ele><time>2026-05-01T16:14:03Z</time></trkpt><trkpt lat="42.64646639691242" lon="11.982415789741461"><ele>320.0</ele><time>2026-05-01T16:14:04Z</time></trkpt><trkpt lat="42.64643866059392" lon="11.982495119493507"><ele>320.2</ele><time>2026-05-01T16:14:05Z</time></trkpt><trkpt lat="42.64638090078008" lon="11.982626264391694"><ele>320.4</ele><time>2026-05-01T16:14:07Z</time></trkpt><trkpt lat="42.64633378467602" lon="11.982723684909002"><ele>320.6</ele><time>2026-05-01T16:14:09Z</time></trkpt><trkpt lat="42.64630125336343" lon="11.982840462980775"><ele>320.8</ele><time>2026-05-01T16:14:11Z</time></trkpt><trkpt lat="42.646225935283304" lon="11.982956384487613"><ele>321.0</ele><time>2026-05-01T16:14:13Z</time></trkpt><trkpt lat="42.64617205034757" lon="11.983034937816665"><ele>320.8</ele><time>2026-05-01T16:14:14Z</time></trkpt><trkpt lat="42.646087368043126" lon="11.983094422928716"><ele>320.6</ele><time>2026-05-01T16:14:15Z</time></trkpt><trkpt lat="42.64601875849562" lon="11.983192086019352"><ele>320.4</ele><time>2026-05-01T16:14:16Z</time></trkpt><trkpt lat="42.64595207122265" lon="11.983287208811706"><ele>320.2</ele><time>2026-05-01T16:14:17Z</time></trkpt><trkpt lat="42.645889551274244" lon="11.983376387328176"><ele>320.0</ele><time>2026-05-01T16:14:18Z</time></trkpt><trkpt lat="42.6458275463933" lon="11.983464831151736"><ele>320.0</ele><time>2026-05-01T16:14:19Z</time></trkpt><trkpt lat="42.64576629577827" lon="11.98355219908912"><ele>320.0</ele><time>2026-05-01T16:14:20Z</time></trkpt><trkpt lat="42.64570880189509" lon="11.983634208421154"><ele>320.0</ele><time>2026-05-01T16:14:21Z</time></trkpt><trkpt lat="42.64565724507001" lon="11.983707749125475"><ele>320.0</ele><time>2026-05-01T16:14:22Z</time></trkpt><trkpt lat="42.64558672050229" lon="11.983808318257424"><ele>320.0</ele><time>2026-05-01T16:14:24Z</time></trkpt><trkpt lat="42.645552379335086" lon="11.983885258999495"><ele>320.0</ele><time>2026-05-01T16:14:27Z</time></trkpt><trkpt lat="42.64549907753568" lon="11.98393309087844"><ele>320.0</ele><time>2026-05-01T16:14:29Z</time></trkpt><trkpt lat="42.64541205939848" lon="11.984056827864707"><ele>320.0</ele><time>2026-05-01T16:14:31Z</time></trkpt><trkpt lat="42.64533255459052" lon="11.984169881137168"><ele>320.0</ele><time>2026-05-01T16:14:33Z</time></trkpt><trkpt lat="42.645288515232465" lon="11.984235858822702"><ele>320.0</ele><time>2026-05-01T16:14:34Z</time></trkpt><trkpt lat="42.64523823349767" lon="11.984315878522086"><ele>320.0</ele><time>2026-05-01T16:14:35Z</time></trkpt><trkpt lat="42.645176759524645" lon="11.984426697890193"><ele>319.5</ele><time>2026-05-01T16:14:36Z</time></trkpt><trkpt lat="42.64513796732117" lon="11.984547984089492"><ele>319.0</ele><time>2026-05-01T16:14:37Z</time></trkpt><trkpt lat="42.64509184956795" lon="11.98465361564213"><ele>318.5</ele><time>2026-05-01T16:14:38Z</time></trkpt><trkpt lat="42.64504921405938" lon="11.984747127039514"><ele>318.0</ele><time>2026-05-01T16:14:39Z</time></trkpt><trkpt lat="42.64500589000312" lon="11.984828141205854"><ele>317.5</ele><time>2026-05-01T16:14:40Z</time></trkpt><trkpt lat="42.64496337087168" lon="11.984906919878942"><ele>317.0</ele><time>2026-05-01T16:14:41Z</time></trkpt><trkpt lat="42.64489082274056" lon="11.985005896373393"><ele>318.5</ele><time>2026-05-01T16:14:43Z</time></trkpt><trkpt lat="42.644804291134854" lon="11.985109651451332"><ele>320.0</ele><time>2026-05-01T16:14:45Z</time></trkpt><trkpt lat="42.64475072560959" lon="11.985170912558573"><ele>321.5</ele><time>2026-05-01T16:14:46Z</time></trkpt><trkpt lat="42.64469007601911" lon="11.985237621842465"><ele>323.0</ele><time>2026-05-01T16:14:47Z</time></trkpt><trkpt lat="42.64463220170258" lon="11.98531394815839"><ele>324.5</ele><time>2026-05-01T16:14:48Z</time></trkpt><trkpt lat="42.64457296468221" lon="11.985377414874591"><ele>326.0</ele><time>2026-05-01T16:14:49Z</time></trkpt><trkpt lat="42.64451700929722" lon="11.985444908666976"><ele>326.0</ele><time>2026-05-01T16:14:50Z</time></trkpt><trkpt lat="42.64446390431646" lon="11.985516456005922"><ele>326.0</ele><time>2026-05-01T16:14:51Z</time></trkpt><trkpt lat="42.64441483068529" lon="11.985601335413865"><ele>326.0</ele><time>2026-05-01T16:14:52Z</time></trkpt><trkpt lat="42.64436852421608" lon="11.98568882300947"><ele>326.0</ele><time>2026-05-01T16:14:53Z</time></trkpt><trkpt lat="42.644326811321754" lon="11.985780237706209"><ele>326.0</ele><time>2026-05-01T16:14:54Z</time></trkpt><trkpt lat="42.644290292902305" lon="11.985874185238739"><ele>326.0</ele><time>2026-05-01T16:14:55Z</time></trkpt><trkpt lat="42.644260742358625" lon="11.985966872949225"><ele>325.0</ele><time>2026-05-01T16:14:56Z</time></trkpt><trkpt lat="42.644235312680784" lon="11.98606189433278"><ele>324.0</ele><time>2026-05-01T16:14:57Z</time></trkpt><trkpt lat="42.64421106389461" lon="11.98615450112039"><ele>323.0</ele><time>2026-05-01T16:14:58Z</time></trkpt><trkpt lat="42.64418744577916" lon="11.986241479127864"><ele>322.0</ele><time>2026-05-01T16:14:59Z</time></trkpt><trkpt lat="42.64415492015789" lon="11.986316551805327"><ele>321.0</ele><time>2026-05-01T16:15:00Z</time></trkpt><trkpt lat="42.64407124004285" lon="11.986399358105155"><ele>320.0</ele><time>2026-05-01T16:15:02Z</time></trkpt><trkpt lat="42.64396974290835" lon="11.98630816506503"><ele>320.0</ele><time>2026-05-01T16:15:05Z</time></trkpt><trkpt lat="42.64392876232965" lon="11.986242223510285"><ele>320.0</ele><time>2026-05-01T16:15:06Z</time></trkpt><trkpt lat="42.64387380262154" lon="11.986163953752168"><ele>320.0</ele><time>2026-05-01T16:15:07Z</time></trkpt><trkpt lat="42.64380940067627" lon="11.98608247019353"><ele>320.0</ele><time>2026-05-01T16:15:08Z</time></trkpt><trkpt lat="42.64374141765044" lon="11.98600203512432"><ele>320.0</ele><time>2026-05-01T16:15:09Z</time></trkpt><trkpt lat="42.643671105791135" lon="11.985922116278688"><ele>320.0</ele><time>2026-05-01T16:15:10Z</time></trkpt><trkpt lat="42.643602396264846" lon="11.985844925959427"><ele>319.2</ele><time>2026-05-01T16:15:11Z</time></trkpt><trkpt lat="42.64353192320129" lon="11.985765655285354"><ele>318.4</ele><time>2026-05-01T16:15:12Z</time></trkpt><trkpt lat="42.643462156398606" lon="11.98566906547041"><ele>317.6</ele><time>2026-05-01T16:15:13Z</time></trkpt><trkpt lat="42.643380256397364" lon="11.985570336776552"><ele>316.8</ele><time>2026-05-01T16:15:14Z</time></trkpt><trkpt lat="42.643304310608215" lon="11.985474647914423"><ele>316.0</ele><time>2026-05-01T16:15:15Z</time></trkpt><trkpt lat="42.643240923095945" lon="11.985380822550553"><ele>316.0</ele><time>2026-05-01T16:15:16Z</time></trkpt><trkpt lat="42.64317575773389" lon="11.985289656461434"><ele>316.0</ele><time>2026-05-01T16:15:17Z</time></trkpt><trkpt lat="42.64310772909169" lon="11.985197906963057"><ele>316.0</ele><time>2026-05-01T16:15:18Z</time></trkpt><trkpt lat="42.643037670519234" lon="11.985110444173772"><ele>316.0</ele><time>2026-05-01T16:15:19Z</time></trkpt><trkpt lat="42.64298460051804" lon="11.985040481049653"><ele>316.0</ele><time>2026-05-01T16:15:20Z</time></trkpt><trkpt lat="42.64293742657704" lon="11.984974635017847"><ele>316.0</ele><time>2026-05-01T16:15:21Z</time></trkpt><trkpt lat="42.642889439049625" lon="11.984901031360709"><ele>316.00000000000006</ele><time>2026-05-01T16:15:22Z</time></trkpt><trkpt lat="42.642836811696654" lon="11.984833336577475"><ele>316.0</ele><time>2026-05-01T16:15:23Z</time></trkpt><trkpt lat="42.642783002263435" lon="11.984764197580809"><ele>316.0</ele><time>2026-05-01T16:15:24Z</time></trkpt><trkpt lat="42.642732828098865" lon="11.984696712168766"><ele>316.0</ele><time>2026-05-01T16:15:25Z</time></trkpt><trkpt lat="42.64268136225134" lon="11.984628136997491"><ele>316.0</ele><time>2026-05-01T16:15:26Z</time></trkpt><trkpt lat="42.64262769794304" lon="11.984563919173048"><ele>316.00000000000006</ele><time>2026-05-01T16:15:27Z</time></trkpt><trkpt lat="42.64257831928867" lon="11.984493315396605"><ele>316.0</ele><time>2026-05-01T16:15:28Z</time></trkpt><trkpt lat="42.64252864973234" lon="11.984423104699534"><ele>315.42857142857144</ele><time>2026-05-01T16:15:29Z</time></trkpt><trkpt lat="42.64246523033419" lon="11.984339942022915"><ele>314.8571428571429</ele><time>2026-05-01T16:15:30Z</time></trkpt><trkpt lat="42.64241378186884" lon="11.984272522588746"><ele>314.28571428571433</ele><time>2026-05-01T16:15:31Z</time></trkpt><trkpt lat="42.64236303937103" lon="11.984206028273368"><ele>313.7142857142857</ele><time>2026-05-01T16:15:32Z</time></trkpt><trkpt lat="42.64231115506628" lon="11.984138037702905"><ele>313.1428571428571</ele><time>2026-05-01T16:15:33Z</time></trkpt><trkpt lat="42.642259632828036" lon="11.98407052159437"><ele>312.5714285714286</ele><time>2026-05-01T16:15:34Z</time></trkpt><trkpt lat="42.64221041281594" lon="11.984006234791522"><ele>312.0</ele><time>2026-05-01T16:15:35Z</time></trkpt><trkpt lat="42.64215910849355" lon="11.983939215836067"><ele>312.0</ele><time>2026-05-01T16:15:36Z</time></trkpt><trkpt lat="42.64209447246552" lon="11.98388425381639"><ele>312.0</ele><time>2026-05-01T16:15:37Z</time></trkpt><trkpt lat="42.64203633069246" lon="11.983805652124733"><ele>312.0</ele><time>2026-05-01T16:15:38Z</time></trkpt><trkpt lat="42.641974877092764" lon="11.983724421962188"><ele>312.0</ele><time>2026-05-01T16:15:39Z</time></trkpt><trkpt lat="42.64191865896711" lon="11.983644211950995"><ele>312.0</ele><time>2026-05-01T16:15:40Z</time></trkpt><trkpt lat="42.64186280064788" lon="11.983565717397086"><ele>312.0</ele><time>2026-05-01T16:15:41Z</time></trkpt><trkpt lat="42.64180363582647" lon="11.983489739806291"><ele>311.5</ele><time>2026-05-01T16:15:42Z</time></trkpt><trkpt lat="42.641740639730195" lon="11.983412314443195"><ele>311.0</ele><time>2026-05-01T16:15:43Z</time></trkpt><trkpt lat="42.641682515582204" lon="11.983337878064042"><ele>310.5</ele><time>2026-05-01T16:15:44Z</time></trkpt><trkpt lat="42.641628642713215" lon="11.98326920506761"><ele>310.0</ele><time>2026-05-01T16:15:45Z</time></trkpt><trkpt lat="42.64157672030966" lon="11.983203935565689"><ele>309.5</ele><time>2026-05-01T16:15:46Z</time></trkpt><trkpt lat="42.64152570498432" lon="11.983137174846313"><ele>309.0</ele><time>2026-05-01T16:15:47Z</time></trkpt><trkpt lat="42.64148155316909" lon="11.983056170626984"><ele>309.0</ele><time>2026-05-01T16:15:48Z</time></trkpt><trkpt lat="42.6414022256989" lon="11.982973997797872"><ele>309.0</ele><time>2026-05-01T16:15:50Z</time></trkpt><trkpt lat="42.641351278994684" lon="11.982909525800892"><ele>309.0</ele><time>2026-05-01T16:15:53Z</time></trkpt><trkpt lat="42.64129953159963" lon="11.982836760912864"><ele>309.0</ele><time>2026-05-01T16:15:57Z</time></trkpt><trkpt lat="42.641281943201065" lon="11.982736224593825"><ele>309.0</ele><time>2026-05-01T16:16:00Z</time></trkpt><trkpt lat="42.64130474350208" lon="11.98265351857087"><ele>309.0</ele><time>2026-05-01T16:16:02Z</time></trkpt><trkpt lat="42.641316171544645" lon="11.982565210216755"><ele>308.8333333333333</ele><time>2026-05-01T16:16:04Z</time></trkpt><trkpt lat="42.64133530457256" lon="11.982464203823303"><ele>308.6666666666667</ele><time>2026-05-01T16:16:07Z</time></trkpt><trkpt lat="42.641319568156504" lon="11.982372014303039"><ele>308.5</ele><time>2026-05-01T16:16:10Z</time></trkpt><trkpt lat="42.64128598029759" lon="11.982288415255768"><ele>308.33333333333337</ele><time>2026-05-01T16:16:13Z</time></trkpt><trkpt lat="42.64125127369551" lon="11.98220347128645"><ele>308.1666666666667</ele><time>2026-05-01T16:16:19Z</time></trkpt><trkpt lat="42.64133048923366" lon="11.98208467794327"><ele>308.0</ele><time>2026-05-01T16:16:23Z</time></trkpt><trkpt lat="42.64140883599558" lon="11.982004780963047"><ele>308.0</ele><time>2026-05-01T16:16:25Z</time></trkpt><trkpt lat="42.641490216445185" lon="11.981938879937417"><ele>308.0</ele><time>2026-05-01T16:16:27Z</time></trkpt><trkpt lat="42.64157529432358" lon="11.981869394746795"><ele>308.0</ele><time>2026-05-01T16:16:29Z</time></trkpt><trkpt lat="42.641666581440276" lon="11.98179353245162"><ele>308.0</ele><time>2026-05-01T16:16:31Z</time></trkpt><trkpt lat="42.641769018998275" lon="11.98170424926526"><ele>308.0</ele><time>2026-05-01T16:16:33Z</time></trkpt><trkpt lat="42.6418222689371" lon="11.981656824056582"><ele>307.85714285714283</ele><time>2026-05-01T16:16:34Z</time></trkpt><trkpt lat="42.64187828585765" lon="11.981611038290357"><ele>307.7142857142857</ele><time>2026-05-01T16:16:35Z</time></trkpt><trkpt lat="42.641934490420496" lon="11.981558769372942"><ele>307.57142857142856</ele><time>2026-05-01T16:16:36Z</time></trkpt><trkpt lat="42.6419923182315" lon="11.981509237539568"><ele>307.42857142857144</ele><time>2026-05-01T16:16:37Z</time></trkpt><trkpt lat="42.64204622331996" lon="11.98146209258046"><ele>307.2857142857143</ele><time>2026-05-01T16:16:38Z</time></trkpt><trkpt lat="42.64209873232845" lon="11.981409087285783"><ele>307.1428571428571</ele><time>2026-05-01T16:16:39Z</time></trkpt><trkpt lat="42.64214808287345" lon="11.981354356333664"><ele>307.0</ele><time>2026-05-01T16:16:40Z</time></trkpt><trkpt lat="42.64223170659998" lon="11.981224365687126"><ele>307.0</ele><time>2026-05-01T16:16:42Z</time></trkpt><trkpt lat="42.642268790563946" lon="11.981153624059635"><ele>307.0</ele><time>2026-05-01T16:16:43Z</time></trkpt><trkpt lat="42.642303203434615" lon="11.981081367852553"><ele>307.0</ele><time>2026-05-01T16:16:44Z</time></trkpt><trkpt lat="42.64236501160551" lon="11.980948730545345"><ele>307.0</ele><time>2026-05-01T16:16:46Z</time></trkpt><trkpt lat="42.642427219503354" lon="11.980824546860562"><ele>307.0</ele><time>2026-05-01T16:16:48Z</time></trkpt><trkpt lat="42.64248380465097" lon="11.98071711933928"><ele>307.0</ele><time>2026-05-01T16:16:50Z</time></trkpt><trkpt lat="42.6425284184442" lon="11.980620995069305"><ele>307.0</ele><time>2026-05-01T16:16:53Z</time></trkpt><trkpt lat="42.642562419904245" lon="11.980537627486045"><ele>307.0</ele><time>2026-05-01T16:16:55Z</time></trkpt><trkpt lat="42.64260336617842" lon="11.98044422366498"><ele>307.0</ele><time>2026-05-01T16:16:57Z</time></trkpt><trkpt lat="42.6426482975626" lon="11.980340234558833"><ele>307.0</ele><time>2026-05-01T16:16:59Z</time></trkpt><trkpt lat="42.642699195620054" lon="11.98021609561305"><ele>307.0</ele><time>2026-05-01T16:17:01Z</time></trkpt><trkpt lat="42.642754742559575" lon="11.980094309944832"><ele>307.5</ele><time>2026-05-01T16:17:03Z</time></trkpt><trkpt lat="42.642805659776755" lon="11.979972130461638"><ele>308.0</ele><time>2026-05-01T16:17:05Z</time></trkpt><trkpt lat="42.6428597468893" lon="11.97983228940217"><ele>308.5</ele><time>2026-05-01T16:17:07Z</time></trkpt><trkpt lat="42.64289325933902" lon="11.979752519615802"><ele>309.0</ele><time>2026-05-01T16:17:08Z</time></trkpt><trkpt lat="42.64292928924806" lon="11.979672455575717"><ele>309.5</ele><time>2026-05-01T16:17:09Z</time></trkpt><trkpt lat="42.64296421091198" lon="11.979598073348932"><ele>310.0</ele><time>2026-05-01T16:17:10Z</time></trkpt><trkpt lat="42.64300051355755" lon="11.979512832271913"><ele>310.0</ele><time>2026-05-01T16:17:11Z</time></trkpt><trkpt lat="42.64303865301527" lon="11.979430376489995"><ele>310.0</ele><time>2026-05-01T16:17:12Z</time></trkpt><trkpt lat="42.64307549611839" lon="11.979349768394878"><ele>310.0</ele><time>2026-05-01T16:17:13Z</time></trkpt><trkpt lat="42.64310667201426" lon="11.979275256401626"><ele>310.0</ele><time>2026-05-01T16:17:14Z</time></trkpt><trkpt lat="42.6431587307574" lon="11.979154755860051"><ele>310.0</ele><time>2026-05-01T16:17:16Z</time></trkpt><trkpt lat="42.64320006009624" lon="11.979067160033823"><ele>310.0</ele><time>2026-05-01T16:17:18Z</time></trkpt><trkpt lat="42.64331467285875" lon="11.979147154522845"><ele>310.0</ele><time>2026-05-01T16:17:20Z</time></trkpt><trkpt lat="42.64341098237478" lon="11.979246506746213"><ele>310.0</ele><time>2026-05-01T16:17:22Z</time></trkpt><trkpt lat="42.6434727935404" lon="11.979295536631879"><ele>310.0</ele><time>2026-05-01T16:17:23Z</time></trkpt><trkpt lat="42.64353194709444" lon="11.979341665589102"><ele>310.0</ele><time>2026-05-01T16:17:24Z</time></trkpt><trkpt lat="42.64358855951031" lon="11.979383495198226"><ele>310.0</ele><time>2026-05-01T16:17:25Z</time></trkpt><trkpt lat="42.64364550124811" lon="11.979425074069116"><ele>310.0</ele><time>2026-05-01T16:17:26Z</time></trkpt><trkpt lat="42.643704712827734" lon="11.979469080907359"><ele>310.0</ele><time>2026-05-01T16:17:27Z</time></trkpt><trkpt lat="42.643764382476164" lon="11.979511985678936"><ele>310.0</ele><time>2026-05-01T16:17:28Z</time></trkpt><trkpt lat="42.64382229704937" lon="11.97955586939822"><ele>310.0</ele><time>2026-05-01T16:17:29Z</time></trkpt><trkpt lat="42.64388222429015" lon="11.979602010480857"><ele>310.0</ele><time>2026-05-01T16:17:30Z</time></trkpt><trkpt lat="42.64394146006999" lon="11.979648680429582"><ele>310.0</ele><time>2026-05-01T16:17:31Z</time></trkpt><trkpt lat="42.64400250018716" lon="11.979694419638122"><ele>310.0</ele><time>2026-05-01T16:17:32Z</time></trkpt><trkpt lat="42.644061220168325" lon="11.979741593970124"><ele>310.0</ele><time>2026-05-01T16:17:33Z</time></trkpt><trkpt lat="42.6441197394433" lon="11.979788988828014"><ele>310.0</ele><time>2026-05-01T16:17:34Z</time></trkpt><trkpt lat="42.64417717787516" lon="11.979837630869527"><ele>310.0</ele><time>2026-05-01T16:17:35Z</time></trkpt><trkpt lat="42.6442344738066" lon="11.979883235057363"><ele>310.0</ele><time>2026-05-01T16:17:36Z</time></trkpt><trkpt lat="42.6442922392544" lon="11.979931887846934"><ele>310.0</ele><time>2026-05-01T16:17:37Z</time></trkpt><trkpt lat="42.64435035038298" lon="11.979976418009224"><ele>310.0</ele><time>2026-05-01T16:17:38Z</time></trkpt><trkpt lat="42.64440635125004" lon="11.980017862192868"><ele>310.0</ele><time>2026-05-01T16:17:39Z</time></trkpt><trkpt lat="42.64446286274808" lon="11.98006103063394"><ele>310.0</ele><time>2026-05-01T16:17:40Z</time></trkpt><trkpt lat="42.64452579816017" lon="11.980102789248413"><ele>310.2857142857143</ele><time>2026-05-01T16:17:41Z</time></trkpt><trkpt lat="42.644583598091984" lon="11.980153196581831"><ele>310.57142857142856</ele><time>2026-05-01T16:17:42Z</time></trkpt><trkpt lat="42.64464105855646" lon="11.980200735589086"><ele>310.8571428571429</ele><time>2026-05-01T16:17:43Z</time></trkpt><trkpt lat="42.64469850721064" lon="11.980249867502511"><ele>311.1428571428571</ele><time>2026-05-01T16:17:44Z</time></trkpt><trkpt lat="42.64475707270907" lon="11.980299309762657"><ele>311.4285714285714</ele><time>2026-05-01T16:17:45Z</time></trkpt><trkpt lat="42.644817016626355" lon="11.980348029085894"><ele>311.7142857142857</ele><time>2026-05-01T16:17:46Z</time></trkpt><trkpt lat="42.64488018881714" lon="11.98039359134686"><ele>312.0</ele><time>2026-05-01T16:17:47Z</time></trkpt><trkpt lat="42.64494350142739" lon="11.980439927094961"><ele>312.0</ele><time>2026-05-01T16:17:48Z</time></trkpt><trkpt lat="42.645008618790634" lon="11.980484488313344"><ele>312.0</ele><time>2026-05-01T16:17:49Z</time></trkpt><trkpt lat="42.645075332853786" lon="11.980535752236172"><ele>312.0</ele><time>2026-05-01T16:17:50Z</time></trkpt><trkpt lat="42.645142036341845" lon="11.980587499171921"><ele>312.0</ele><time>2026-05-01T16:17:51Z</time></trkpt><trkpt lat="42.64520836181884" lon="11.980642109038406"><ele>312.0</ele><time>2026-05-01T16:17:52Z</time></trkpt><trkpt lat="42.64527426054205" lon="11.980697984489511"><ele>312.0</ele><time>2026-05-01T16:17:53Z</time></trkpt><trkpt lat="42.645344700506385" lon="11.980757447981638"><ele>312.4</ele><time>2026-05-01T16:17:54Z</time></trkpt><trkpt lat="42.645410612418466" lon="11.98081194160636"><ele>312.79999999999995</ele><time>2026-05-01T16:17:55Z</time></trkpt><trkpt lat="42.64549134742892" lon="11.980870647478962"><ele>313.2</ele><time>2026-05-01T16:17:56Z</time></trkpt><trkpt lat="42.64557360369759" lon="11.980932935801519"><ele>313.59999999999997</ele><time>2026-05-01T16:17:57Z</time></trkpt><trkpt lat="42.6456594194317" lon="11.981000857117573"><ele>314.0</ele><time>2026-05-01T16:17:58Z</time></trkpt><trkpt lat="42.64574814123215" lon="11.981071732198568"><ele>314.2</ele><time>2026-05-01T16:17:59Z</time></trkpt><trkpt lat="42.64584076193318" lon="11.981147732115534"><ele>314.4</ele><time>2026-05-01T16:18:00Z</time></trkpt><trkpt lat="42.645925669926434" lon="11.981235038713171"><ele>314.6</ele><time>2026-05-01T16:18:01Z</time></trkpt><trkpt lat="42.6460092220222" lon="11.981301552633566"><ele>314.8</ele><time>2026-05-01T16:18:02Z</time></trkpt><trkpt lat="42.646088967802875" lon="11.98134798087185"><ele>315.0</ele><time>2026-05-01T16:18:03Z</time></trkpt><trkpt lat="42.646151666658895" lon="11.98140548855354"><ele>315.3333333333333</ele><time>2026-05-01T16:18:04Z</time></trkpt><trkpt lat="42.64625178339316" lon="11.981474144006965"><ele>315.6666666666667</ele><time>2026-05-01T16:18:06Z</time></trkpt><trkpt lat="42.64631284142542" lon="11.981543258947333"><ele>316.0</ele><time>2026-05-01T16:18:08Z</time></trkpt><trkpt lat="42.64637230333492" lon="11.981590157345732"><ele>316.33333333333337</ele><time>2026-05-01T16:18:10.999Z</time></trkpt><trkpt lat="42.64642708452555" lon="11.981652354476097"><ele>316.6666666666667</ele><time>2026-05-01T16:18:13.999Z</time></trkpt><trkpt lat="42.64651111675603" lon="11.981714492201668"><ele>317.0</ele><time>2026-05-01T16:18:16.999Z</time></trkpt><trkpt lat="42.64655824955055" lon="11.981778768515664"><ele>317.6</ele><time>2026-05-01T16:18:25.999Z</time></trkpt><trkpt lat="42.64662817366443" lon="11.981824125335006"><ele>318.2</ele><time>2026-05-01T16:18:27.999Z</time></trkpt><trkpt lat="42.646583497678066" lon="11.982042294310268"><ele>318.8</ele><time>2026-05-01T16:18:29.999Z</time></trkpt><trkpt lat="42.64656383224386" lon="11.982144835021614"><ele>319.4</ele><time>2026-05-01T16:18:30.999Z</time></trkpt><trkpt lat="42.64652159024972" lon="11.982244000861714"><ele>320.0</ele><time>2026-05-01T16:18:31.999Z</time></trkpt><trkpt lat="42.64648966440151" lon="11.98234309847857"><ele>320.0</ele><time>2026-05-01T16:18:32.999Z</time></trkpt><trkpt lat="42.64647543499624" lon="11.982436866986237"><ele>320.0</ele><time>2026-05-01T16:18:33.999Z</time></trkpt><trkpt lat="42.64643463476055" lon="11.98253343435603"><ele>320.0</ele><time>2026-05-01T16:18:36Z</time></trkpt><trkpt lat="42.64637094303749" lon="11.982646853692481"><ele>320.0</ele><time>2026-05-01T16:18:40Z</time></trkpt><trkpt lat="42.646307002057426" lon="11.982790900619907"><ele>320.0</ele><time>2026-05-01T16:18:42Z</time></trkpt><trkpt lat="42.646215716971824" lon="11.982935177874397"><ele>320.0</ele><time>2026-05-01T16:18:44Z</time></trkpt><trkpt lat="42.64615797689716" lon="11.983028425698379"><ele>320.0</ele><time>2026-05-01T16:18:45Z</time></trkpt><trkpt lat="42.64610851991137" lon="11.983116742118634"><ele>320.0</ele><time>2026-05-01T16:18:46Z</time></trkpt><trkpt lat="42.646037258441865" lon="11.983165697660759"><ele>320.0</ele><time>2026-05-01T16:18:47Z</time></trkpt><trkpt lat="42.645991795811" lon="11.983230545599177"><ele>320.0</ele><time>2026-05-01T16:18:48Z</time></trkpt><trkpt lat="42.64592993719965" lon="11.98331878078732"><ele>320.0</ele><time>2026-05-01T16:18:50Z</time></trkpt><trkpt lat="42.64585242946033" lon="11.983429337910486"><ele>320.0</ele><time>2026-05-01T16:18:52Z</time></trkpt><trkpt lat="42.64579679705673" lon="11.983508692018896"><ele>320.0</ele><time>2026-05-01T16:18:53Z</time></trkpt><trkpt lat="42.645732925886435" lon="11.98359979792"><ele>320.0</ele><time>2026-05-01T16:18:54Z</time></trkpt><trkpt lat="42.64566989266" lon="11.983689708592006"><ele>320.0</ele><time>2026-05-01T16:18:55Z</time></trkpt><trkpt lat="42.645616707023244" lon="11.983797632414719"><ele>320.0</ele><time>2026-05-01T16:18:56Z</time></trkpt><trkpt lat="42.64554943671842" lon="11.98389072320654"><ele>320.0</ele><time>2026-05-01T16:18:57Z</time></trkpt><trkpt lat="42.64548674513118" lon="11.983983065081212"><ele>320.0</ele><time>2026-05-01T16:18:58Z</time></trkpt><trkpt lat="42.645413514519475" lon="11.984054758711872"><ele>320.0</ele><time>2026-05-01T16:18:59Z</time></trkpt><trkpt lat="42.64536596328715" lon="11.984153787733396"><ele>320.0</ele><time>2026-05-01T16:19:00Z</time></trkpt><trkpt lat="42.64530784862403" lon="11.984234450453867"><ele>320.0</ele><time>2026-05-01T16:19:01Z</time></trkpt><trkpt lat="42.645250639870255" lon="11.98432331498843"><ele>320.0</ele><time>2026-05-01T16:19:02Z</time></trkpt><trkpt lat="42.645197742973544" lon="11.984421525106843"><ele>319.5</ele><time>2026-05-01T16:19:03Z</time></trkpt><trkpt lat="42.64514704505842" lon="11.984522858993186"><ele>319.0</ele><time>2026-05-01T16:19:04Z</time></trkpt><trkpt lat="42.64509990665519" lon="11.984624343710879"><ele>318.5</ele><time>2026-05-01T16:19:05Z</time></trkpt><trkpt lat="42.64505807559169" lon="11.984720061777157"><ele>318.0</ele><time>2026-05-01T16:19:06Z</time></trkpt><trkpt lat="42.64502089834938" lon="11.984800270736432"><ele>317.5</ele><time>2026-05-01T16:19:07Z</time></trkpt><trkpt lat="42.644955377556" lon="11.984918626113963"><ele>317.0</ele><time>2026-05-01T16:19:09Z</time></trkpt><trkpt lat="42.64488972701566" lon="11.984984122888893"><ele>318.5</ele><time>2026-05-01T16:19:11Z</time></trkpt><trkpt lat="42.64484503714986" lon="11.985050586842437"><ele>320.0</ele><time>2026-05-01T16:19:13Z</time></trkpt><trkpt lat="42.64476965464139" lon="11.985142909215659"><ele>321.5</ele><time>2026-05-01T16:19:17Z</time></trkpt><trkpt lat="42.64469507927484" lon="11.9852423501089"><ele>323.0</ele><time>2026-05-01T16:19:19Z</time></trkpt><trkpt lat="42.64464119317125" lon="11.985298632264271"><ele>324.5</ele><time>2026-05-01T16:19:22Z</time></trkpt><trkpt lat="42.64458051620757" lon="11.985365101038594"><ele>326.0</ele><time>2026-05-01T16:19:24Z</time></trkpt><trkpt lat="42.64450685442994" lon="11.985475429918262"><ele>325.0</ele><time>2026-05-01T16:19:26Z</time></trkpt><trkpt lat="42.64445431685392" lon="11.985524941701273"><ele>324.0</ele><time>2026-05-01T16:19:27Z</time></trkpt><trkpt lat="42.64440812295919" lon="11.985604031069176"><ele>323.0</ele><time>2026-05-01T16:19:28Z</time></trkpt><trkpt lat="42.644364579367824" lon="11.985697335851745"><ele>322.0</ele><time>2026-05-01T16:19:29Z</time></trkpt><trkpt lat="42.64432776330957" lon="11.985790903619566"><ele>321.0</ele><time>2026-05-01T16:19:30Z</time></trkpt><trkpt lat="42.64428549638356" lon="11.985926439412609"><ele>320.0</ele><time>2026-05-01T16:19:32Z</time></trkpt><trkpt lat="42.64426194784421" lon="11.986071863980435"><ele>320.0</ele><time>2026-05-01T16:19:34Z</time></trkpt><trkpt lat="42.64424126291755" lon="11.986155935015265"><ele>320.0</ele><time>2026-05-01T16:19:35Z</time></trkpt><trkpt lat="42.64420318000748" lon="11.986236571633675"><ele>320.0</ele><time>2026-05-01T16:19:36Z</time></trkpt><trkpt lat="42.64419228116232" lon="11.986327620375633"><ele>320.0</ele><time>2026-05-01T16:19:37Z</time></trkpt><trkpt lat="42.644152313504875" lon="11.986412420317999"><ele>320.0</ele><time>2026-05-01T16:19:38Z</time></trkpt><trkpt lat="42.644104748808445" lon="11.986488691159451"><ele>320.0</ele><time>2026-05-01T16:19:39Z</time></trkpt><trkpt lat="42.6440411667904" lon="11.98654069704776"><ele>320.0</ele><time>2026-05-01T16:19:40Z</time></trkpt><trkpt lat="42.643977272422255" lon="11.986614540591365"><ele>319.6666666666667</ele><time>2026-05-01T16:19:41Z</time></trkpt><trkpt lat="42.643901199140096" lon="11.986703120579824"><ele>319.33333333333337</ele><time>2026-05-01T16:19:42Z</time></trkpt><trkpt lat="42.64382903735315" lon="11.986787146071284"><ele>319.0</ele><time>2026-05-01T16:19:43Z</time></trkpt><trkpt lat="42.64378013493283" lon="11.986866208973005"><ele>318.6666666666667</ele><time>2026-05-01T16:19:44Z</time></trkpt><trkpt lat="42.64372917342423" lon="11.986922416243388"><ele>318.3333333333333</ele><time>2026-05-01T16:19:45Z</time></trkpt><trkpt lat="42.64364784050342" lon="11.986984506731627"><ele>318.0</ele><time>2026-05-01T16:19:47Z</time></trkpt><trkpt lat="42.64360057153757" lon="11.987055089074563"><ele>318.0</ele><time>2026-05-01T16:19:53Z</time></trkpt><trkpt lat="42.64353184606439" lon="11.987128045390739"><ele>318.0</ele><time>2026-05-01T16:19:59Z</time></trkpt><trkpt lat="42.643442567410396" lon="11.98721640241843"><ele>318.0</ele><time>2026-05-01T16:20:02Z</time></trkpt><trkpt lat="42.64335693158364" lon="11.987310092211255"><ele>318.0</ele><time>2026-05-01T16:20:04Z</time></trkpt><trkpt lat="42.643262067671316" lon="11.987406145176962"><ele>318.0</ele><time>2026-05-01T16:20:06Z</time></trkpt><trkpt lat="42.643194158816534" lon="11.987474444599599"><ele>318.6</ele><time>2026-05-01T16:20:07Z</time></trkpt><trkpt lat="42.643121738264234" lon="11.987548097814779"><ele>319.20000000000005</ele><time>2026-05-01T16:20:08Z</time></trkpt><trkpt lat="42.64305676046598" lon="11.987622059680332"><ele>319.8</ele><time>2026-05-01T16:20:09Z</time></trkpt><trkpt lat="42.64298111181342" lon="11.987706590536952"><ele>320.40000000000003</ele><time>2026-05-01T16:20:10Z</time></trkpt><trkpt lat="42.64288783666455" lon="11.98778646414954"><ele>321.0</ele><time>2026-05-01T16:20:11Z</time></trkpt><trkpt lat="42.64279382762316" lon="11.987885019786912"><ele>319.5</ele><time>2026-05-01T16:20:12Z</time></trkpt><trkpt lat="42.642695199658206" lon="11.988006578670287"><ele>318.0</ele><time>2026-05-01T16:20:13Z</time></trkpt><trkpt lat="42.642579895439574" lon="11.988105765854632"><ele>316.5</ele><time>2026-05-01T16:20:14Z</time></trkpt><trkpt lat="42.64247018506408" lon="11.988207009426437"><ele>315.0</ele><time>2026-05-01T16:20:15Z</time></trkpt><trkpt lat="42.6423542994086" lon="11.988327326829106"><ele>316.3333333333333</ele><time>2026-05-01T16:20:15.999Z</time></trkpt><trkpt lat="42.64223710968717" lon="11.988462545830421"><ele>317.66666666666663</ele><time>2026-05-01T16:20:16.999Z</time></trkpt><trkpt lat="42.64213111231828" lon="11.988612822457027"><ele>319.0</ele><time>2026-05-01T16:20:17.999Z</time></trkpt><trkpt lat="42.64203949475827" lon="11.988768394760715"><ele>319.25</ele><time>2026-05-01T16:20:18.999Z</time></trkpt><trkpt lat="42.64195484888075" lon="11.98892091236424"><ele>319.5</ele><time>2026-05-01T16:20:19.999Z</time></trkpt><trkpt lat="42.64187160128388" lon="11.9890709398474"><ele>319.75</ele><time>2026-05-01T16:20:20.999Z</time></trkpt><trkpt lat="42.641792557986" lon="11.989216022190208"><ele>320.0</ele><time>2026-05-01T16:20:21.999Z</time></trkpt><trkpt lat="42.64171130978071" lon="11.989364805124795"><ele>320.0</ele><time>2026-05-01T16:20:22.999Z</time></trkpt><trkpt lat="42.64161327886446" lon="11.989502858610294"><ele>320.0</ele><time>2026-05-01T16:20:23.999Z</time></trkpt><trkpt lat="42.641528611789155" lon="11.989650567215577"><ele>320.0</ele><time>2026-05-01T16:20:24.999Z</time></trkpt><trkpt lat="42.641458114674265" lon="11.989805213839944"><ele>320.0</ele><time>2026-05-01T16:20:25.999Z</time></trkpt><trkpt lat="42.64137253859504" lon="11.989947848644306"><ele>320.0</ele><time>2026-05-01T16:20:26.999Z</time></trkpt><trkpt lat="42.64127952444357" lon="11.990095483154112"><ele>320.0</ele><time>2026-05-01T16:20:27.999Z</time></trkpt><trkpt lat="42.64117678662664" lon="11.990237768847317"><ele>320.0</ele><time>2026-05-01T16:20:28.999Z</time></trkpt><trkpt lat="42.64106201891795" lon="11.990365868216305"><ele>320.0</ele><time>2026-05-01T16:20:29.999Z</time></trkpt><trkpt lat="42.64093209886534" lon="11.990482152236925"><ele>320.0</ele><time>2026-05-01T16:20:30.999Z</time></trkpt><trkpt lat="42.64079059315269" lon="11.990594638970425"><ele>320.0</ele><time>2026-05-01T16:20:31.999Z</time></trkpt><trkpt lat="42.6406426406519" lon="11.990715249933041"><ele>320.0</ele><time>2026-05-01T16:20:32.999Z</time></trkpt><trkpt lat="42.640501607990856" lon="11.990829100447918"><ele>320.0</ele><time>2026-05-01T16:20:33.999Z</time></trkpt><trkpt lat="42.64035879851183" lon="11.990945906020603"><ele>320.0</ele><time>2026-05-01T16:20:34.999Z</time></trkpt><trkpt lat="42.64020922951546" lon="11.991068505512796"><ele>320.0</ele><time>2026-05-01T16:20:35.999Z</time></trkpt><trkpt lat="42.64005845830323" lon="11.991189956763451"><ele>320.0</ele><time>2026-05-01T16:20:36.999Z</time></trkpt><trkpt lat="42.639906341829494" lon="11.991318735141418"><ele>320.0</ele><time>2026-05-01T16:20:37.999Z</time></trkpt><trkpt lat="42.63975002682905" lon="11.991452429084807"><ele>320.0</ele><time>2026-05-01T16:20:38.999Z</time></trkpt><trkpt lat="42.63959490777892" lon="11.991602728366829"><ele>321.0</ele><time>2026-05-01T16:20:39.999Z</time></trkpt><trkpt lat="42.63943766550923" lon="11.991779415099883"><ele>322.0</ele><time>2026-05-01T16:20:40.999Z</time></trkpt><trkpt lat="42.63927600423539" lon="11.991980431151209"><ele>323.0</ele><time>2026-05-01T16:20:41.999Z</time></trkpt><trkpt lat="42.63909707326728" lon="11.99217751362645"><ele>323.0</ele><time>2026-05-01T16:20:42.999Z</time></trkpt><trkpt lat="42.63892996195712" lon="11.992388426731303"><ele>323.0</ele><time>2026-05-01T16:20:43.999Z</time></trkpt><trkpt lat="42.63877264673665" lon="11.992615006793233"><ele>321.0</ele><time>2026-05-01T16:20:45Z</time></trkpt><trkpt lat="42.63859781498554" lon="11.99281845237264"><ele>319.0</ele><time>2026-05-01T16:20:46Z</time></trkpt><trkpt lat="42.638406190235266" lon="11.993007149157476"><ele>319.0</ele><time>2026-05-01T16:20:47Z</time></trkpt><trkpt lat="42.63818683507076" lon="11.993189361792028"><ele>319.0</ele><time>2026-05-01T16:20:48Z</time></trkpt><trkpt lat="42.63794798123205" lon="11.993371404534086"><ele>318.0</ele><time>2026-05-01T16:20:49Z</time></trkpt><trkpt lat="42.63771301613657" lon="11.993572511925583"><ele>317.0</ele><time>2026-05-01T16:20:50Z</time></trkpt><trkpt lat="42.63748835567992" lon="11.993784110971736"><ele>317.0</ele><time>2026-05-01T16:20:51Z</time></trkpt><trkpt lat="42.637263137396424" lon="11.993973735846291"><ele>317.0</ele><time>2026-05-01T16:20:52Z</time></trkpt><trkpt lat="42.63704273450512" lon="11.99416349368144"><ele>318.0</ele><time>2026-05-01T16:20:53Z</time></trkpt><trkpt lat="42.63682883642732" lon="11.994336822563078"><ele>319.0</ele><time>2026-05-01T16:20:54Z</time></trkpt><trkpt lat="42.63661609795345" lon="11.994498135214124"><ele>319.0</ele><time>2026-05-01T16:20:55Z</time></trkpt><trkpt lat="42.636391093574744" lon="11.99463042227098"><ele>319.0</ele><time>2026-05-01T16:20:56Z</time></trkpt><trkpt lat="42.63616751144412" lon="11.994729176866105"><ele>317.3333333333333</ele><time>2026-05-01T16:20:57Z</time></trkpt><trkpt lat="42.635950710927744" lon="11.994799707423107"><ele>315.6666666666667</ele><time>2026-05-01T16:20:58Z</time></trkpt><trkpt lat="42.63574568340474" lon="11.994865752514713"><ele>314.0</ele><time>2026-05-01T16:20:59Z</time></trkpt><trkpt lat="42.63556120229009" lon="11.994921451756898"><ele>314.0</ele><time>2026-05-01T16:21:00Z</time></trkpt><trkpt lat="42.63539958652645" lon="11.994970443595998"><ele>314.0</ele><time>2026-05-01T16:21:01Z</time></trkpt><trkpt lat="42.63524221122769" lon="11.995017105351755"><ele>314.0</ele><time>2026-05-01T16:21:02Z</time></trkpt><trkpt lat="42.63510177483" lon="11.99506074646634"><ele>315.75</ele><time>2026-05-01T16:21:03Z</time></trkpt><trkpt lat="42.63496748582175" lon="11.995083515227542"><ele>317.5</ele><time>2026-05-01T16:21:04Z</time></trkpt><trkpt lat="42.63483388673914" lon="11.99512770864439"><ele>319.25</ele><time>2026-05-01T16:21:05Z</time></trkpt><trkpt lat="42.63469159620704" lon="11.995186807107062"><ele>321.0</ele><time>2026-05-01T16:21:06Z</time></trkpt><trkpt lat="42.63455393731629" lon="11.995254150367618"><ele>320.0</ele><time>2026-05-01T16:21:07Z</time></trkpt><trkpt lat="42.634409975643344" lon="11.995351195912288"><ele>319.0</ele><time>2026-05-01T16:21:08Z</time></trkpt><trkpt lat="42.634265418389845" lon="11.995463980925242"><ele>318.0</ele><time>2026-05-01T16:21:09Z</time></trkpt><trkpt lat="42.63408746528453" lon="11.995610363347575"><ele>318.0</ele><time>2026-05-01T16:21:10Z</time></trkpt><trkpt lat="42.63389861036296" lon="11.99577061687432"><ele>318.0</ele><time>2026-05-01T16:21:11Z</time></trkpt><trkpt lat="42.63373952736688" lon="11.9959129863828"><ele>318.0</ele><time>2026-05-01T16:21:12Z</time></trkpt><trkpt lat="42.63356022458335" lon="11.996079536514062"><ele>322.0</ele><time>2026-05-01T16:21:13Z</time></trkpt><trkpt lat="42.63337323461825" lon="11.996254081146432"><ele>326.0</ele><time>2026-05-01T16:21:14Z</time></trkpt><trkpt lat="42.633202076389765" lon="11.9964116001994"><ele>330.0</ele><time>2026-05-01T16:21:15Z</time></trkpt><trkpt lat="42.63300744979812" lon="11.996579173024537"><ele>335.0</ele><time>2026-05-01T16:21:16Z</time></trkpt><trkpt lat="42.632805872840876" lon="11.996731763506341"><ele>340.0</ele><time>2026-05-01T16:21:17Z</time></trkpt><trkpt lat="42.63259818031334" lon="11.996875665919257"><ele>340.0</ele><time>2026-05-01T16:21:18Z</time></trkpt><trkpt lat="42.63237764878961" lon="11.997019367008768"><ele>340.0</ele><time>2026-05-01T16:21:19Z</time></trkpt><trkpt lat="42.63214587248171" lon="11.997166598079486"><ele>333.5</ele><time>2026-05-01T16:21:20Z</time></trkpt><trkpt lat="42.631914158306174" lon="11.997307842357424"><ele>327.0</ele><time>2026-05-01T16:21:21Z</time></trkpt><trkpt lat="42.63168190408902" lon="11.997449149451663"><ele>339.5</ele><time>2026-05-01T16:21:22Z</time></trkpt><trkpt lat="42.631439378009986" lon="11.997596706011262"><ele>352.0</ele><time>2026-05-01T16:21:23Z</time></trkpt><trkpt lat="42.63119543508911" lon="11.997737245620211"><ele>345.5</ele><time>2026-05-01T16:21:24Z</time></trkpt><trkpt lat="42.63094788121581" lon="11.997865869200963"><ele>339.0</ele><time>2026-05-01T16:21:25Z</time></trkpt><trkpt lat="42.630702958878814" lon="11.99798074527629"><ele>339.0</ele><time>2026-05-01T16:21:26Z</time></trkpt><trkpt lat="42.63045083438871" lon="11.998079218020536"><ele>339.0</ele><time>2026-05-01T16:21:27Z</time></trkpt><trkpt lat="42.63019457748398" lon="11.99818512813391"><ele>332.5</ele><time>2026-05-01T16:21:28Z</time></trkpt><trkpt lat="42.62993058492227" lon="11.99825173825921"><ele>326.0</ele><time>2026-05-01T16:21:29Z</time></trkpt><trkpt lat="42.62966500203411" lon="11.998270514404965"><ele>322.0</ele><time>2026-05-01T16:21:30Z</time></trkpt><trkpt lat="42.62939415044159" lon="11.998284601668939"><ele>318.0</ele><time>2026-05-01T16:21:31Z</time></trkpt><trkpt lat="42.62912548897906" lon="11.998325624805911"><ele>325.5</ele><time>2026-05-01T16:21:32Z</time></trkpt><trkpt lat="42.628861446588196" lon="11.998388954731453"><ele>333.0</ele><time>2026-05-01T16:21:33Z</time></trkpt><trkpt lat="42.628592325035896" lon="11.99845942794062"><ele>333.0</ele><time>2026-05-01T16:21:34Z</time></trkpt><trkpt lat="42.62832747903255" lon="11.998545119864216"><ele>333.0</ele><time>2026-05-01T16:21:35Z</time></trkpt><trkpt lat="42.628070354574966" lon="11.998660170787764"><ele>333.0</ele><time>2026-05-01T16:21:36Z</time></trkpt><trkpt lat="42.62781609160046" lon="11.998782632370975"><ele>333.0</ele><time>2026-05-01T16:21:37Z</time></trkpt><trkpt lat="42.627563048286994" lon="11.998894026468976"><ele>330.0</ele><time>2026-05-01T16:21:38Z</time></trkpt><trkpt lat="42.62731738071054" lon="11.998987975781278"><ele>327.0</ele><time>2026-05-01T16:21:39Z</time></trkpt><trkpt lat="42.6270873676037" lon="11.99907753270443"><ele>325.0</ele><time>2026-05-01T16:21:40Z</time></trkpt><trkpt lat="42.62685480562802" lon="11.999163186150561"><ele>323.0</ele><time>2026-05-01T16:21:41Z</time></trkpt><trkpt lat="42.62663365353561" lon="11.999252319503885"><ele>329.6666666666667</ele><time>2026-05-01T16:21:42Z</time></trkpt><trkpt lat="42.62642334476355" lon="11.999289792395604"><ele>336.3333333333333</ele><time>2026-05-01T16:21:43Z</time></trkpt><trkpt lat="42.626237352805035" lon="11.999302897497147"><ele>343.0</ele><time>2026-05-01T16:21:44Z</time></trkpt><trkpt lat="42.62604907290811" lon="11.999318534499702"><ele>343.0</ele><time>2026-05-01T16:21:45Z</time></trkpt><trkpt lat="42.62587478927666" lon="11.999331667228942"><ele>343.0</ele><time>2026-05-01T16:21:46Z</time></trkpt><trkpt lat="42.62571190819989" lon="11.999339330047116"><ele>343.0</ele><time>2026-05-01T16:21:47Z</time></trkpt><trkpt lat="42.62554600646387" lon="11.999348041967492"><ele>343.0</ele><time>2026-05-01T16:21:48Z</time></trkpt><trkpt lat="42.625361972347726" lon="11.999366392384212"><ele>343.0</ele><time>2026-05-01T16:21:49Z</time></trkpt><trkpt lat="42.6251526811661" lon="11.999388225240741"><ele>343.0</ele><time>2026-05-01T16:21:50Z</time></trkpt><trkpt lat="42.624918172555375" lon="11.999389823947718"><ele>337.0</ele><time>2026-05-01T16:21:51Z</time></trkpt><trkpt lat="42.62466869401382" lon="11.999386608053811"><ele>331.0</ele><time>2026-05-01T16:21:52Z</time></trkpt><trkpt lat="42.62443066435491" lon="11.999389348144511"><ele>328.0</ele><time>2026-05-01T16:21:53Z</time></trkpt><trkpt lat="42.624188061624096" lon="11.999396654721274"><ele>325.0</ele><time>2026-05-01T16:21:54Z</time></trkpt><trkpt lat="42.623949374461475" lon="11.999394081040759"><ele>325.0</ele><time>2026-05-01T16:21:55Z</time></trkpt><trkpt lat="42.62372646063876" lon="11.99935862873229"><ele>325.0</ele><time>2026-05-01T16:21:56Z</time></trkpt><trkpt lat="42.62351597785949" lon="11.999296488769703"><ele>325.0</ele><time>2026-05-01T16:21:57Z</time></trkpt><trkpt lat="42.62331759833992" lon="11.999197973228238"><ele>323.0</ele><time>2026-05-01T16:21:58Z</time></trkpt><trkpt lat="42.6231368136538" lon="11.999042935307672"><ele>321.0</ele><time>2026-05-01T16:21:59Z</time></trkpt><trkpt lat="42.62297238896205" lon="11.998856767469192"><ele>319.0</ele><time>2026-05-01T16:22:00Z</time></trkpt><trkpt lat="42.62282630084414" lon="11.998654433479123"><ele>319.66666666666663</ele><time>2026-05-01T16:22:01Z</time></trkpt><trkpt lat="42.62268352819954" lon="11.998475823708446"><ele>320.3333333333333</ele><time>2026-05-01T16:22:02Z</time></trkpt><trkpt lat="42.62252313223597" lon="11.998337010719005"><ele>321.0</ele><time>2026-05-01T16:22:03Z</time></trkpt><trkpt lat="42.622333649785496" lon="11.998232047212563"><ele>320.0</ele><time>2026-05-01T16:22:04Z</time></trkpt><trkpt lat="42.62212887432323" lon="11.998187476362725"><ele>319.0</ele><time>2026-05-01T16:22:05Z</time></trkpt><trkpt lat="42.62193576311809" lon="11.998178418432573"><ele>318.0</ele><time>2026-05-01T16:22:06Z</time></trkpt><trkpt lat="42.621754390440245" lon="11.99818414219253"><ele>318.0</ele><time>2026-05-01T16:22:07Z</time></trkpt><trkpt lat="42.62160625434405" lon="11.99817310889971"><ele>318.0</ele><time>2026-05-01T16:22:08Z</time></trkpt><trkpt lat="42.62147371575679" lon="11.998156201250387"><ele>318.0</ele><time>2026-05-01T16:22:09Z</time></trkpt><trkpt lat="42.62134291900486" lon="11.998143774940129"><ele>318.0</ele><time>2026-05-01T16:22:10Z</time></trkpt><trkpt lat="42.62120814597845" lon="11.998135620956331"><ele>318.25</ele><time>2026-05-01T16:22:11Z</time></trkpt><trkpt lat="42.6210675638497" lon="11.998120508662435"><ele>318.5</ele><time>2026-05-01T16:22:12Z</time></trkpt><trkpt lat="42.62092303044733" lon="11.998110133398107"><ele>318.75</ele><time>2026-05-01T16:22:13Z</time></trkpt><trkpt lat="42.62077974218561" lon="11.998099162361717"><ele>319.0</ele><time>2026-05-01T16:22:14Z</time></trkpt><trkpt lat="42.620639707364695" lon="11.998085751385851"><ele>319.0</ele><time>2026-05-01T16:22:15Z</time></trkpt><trkpt lat="42.62049658570541" lon="11.998072658874666"><ele>319.0</ele><time>2026-05-01T16:22:16.001Z</time></trkpt><trkpt lat="42.62035057198538" lon="11.998061497655927"><ele>319.0</ele><time>2026-05-01T16:22:17.001Z</time></trkpt><trkpt lat="42.62019779483464" lon="11.998045481765434"><ele>319.0</ele><time>2026-05-01T16:22:18.001Z</time></trkpt><trkpt lat="42.62003578255937" lon="11.998010603878184"><ele>320.3333333333333</ele><time>2026-05-01T16:22:19.001Z</time></trkpt><trkpt lat="42.619862173488514" lon="11.997932562252544"><ele>321.6666666666667</ele><time>2026-05-01T16:22:20.001Z</time></trkpt><trkpt lat="42.61969759385528" lon="11.99781666497536"><ele>323.0</ele><time>2026-05-01T16:22:21.001Z</time></trkpt><trkpt lat="42.61954937762344" lon="11.997661305642485"><ele>324.33333333333337</ele><time>2026-05-01T16:22:21.999Z</time></trkpt><trkpt lat="42.619397799846325" lon="11.997523276902093"><ele>325.6666666666667</ele><time>2026-05-01T16:22:22.999Z</time></trkpt><trkpt lat="42.61922460755748" lon="11.997388875171087"><ele>327.0</ele><time>2026-05-01T16:22:23.999Z</time></trkpt><trkpt lat="42.61904445984641" lon="11.997264425898088"><ele>323.3333333333333</ele><time>2026-05-01T16:22:24.999Z</time></trkpt><trkpt lat="42.618850137670016" lon="11.99717385366542"><ele>319.66666666666663</ele><time>2026-05-01T16:22:25.999Z</time></trkpt><trkpt lat="42.61864681744902" lon="11.997113765861755"><ele>316.0</ele><time>2026-05-01T16:22:26.999Z</time></trkpt><trkpt lat="42.61844110937551" lon="11.997054646681878"><ele>316.0</ele><time>2026-05-01T16:22:27.999Z</time></trkpt><trkpt lat="42.61822772542781" lon="11.99700257752467"><ele>316.0</ele><time>2026-05-01T16:22:28.999Z</time></trkpt><trkpt lat="42.617964795293226" lon="11.996957650364553"><ele>316.5</ele><time>2026-05-01T16:22:29.999Z</time></trkpt><trkpt lat="42.61768446599293" lon="11.996883343579562"><ele>317.0</ele><time>2026-05-01T16:22:30.999Z</time></trkpt><trkpt lat="42.6174177574449" lon="11.996781392319317"><ele>317.0</ele><time>2026-05-01T16:22:31.999Z</time></trkpt><trkpt lat="42.617164676363466" lon="11.996705963680128"><ele>317.0</ele><time>2026-05-01T16:22:32.999Z</time></trkpt><trkpt lat="42.616924763291784" lon="11.996640960250435"><ele>315.6666666666667</ele><time>2026-05-01T16:22:33.999Z</time></trkpt><trkpt lat="42.61671754465391" lon="11.996561740192133"><ele>314.3333333333333</ele><time>2026-05-01T16:22:34.999Z</time></trkpt><trkpt lat="42.61653433059138" lon="11.996461602916844"><ele>313.0</ele><time>2026-05-01T16:22:35.999Z</time></trkpt><trkpt lat="42.61638937575766" lon="11.996351572492765"><ele>313.0</ele><time>2026-05-01T16:22:36.999Z</time></trkpt><trkpt lat="42.616269985887456" lon="11.996256206183961"><ele>313.0</ele><time>2026-05-01T16:22:37.999Z</time></trkpt><trkpt lat="42.61616104433948" lon="11.996174029638862"><ele>313.0</ele><time>2026-05-01T16:22:38.999Z</time></trkpt><trkpt lat="42.616056719174864" lon="11.996093111755142"><ele>313.0</ele><time>2026-05-01T16:22:39.999Z</time></trkpt><trkpt lat="42.61595726225799" lon="11.996015397625994"><ele>314.6</ele><time>2026-05-01T16:22:40.999Z</time></trkpt><trkpt lat="42.61586210158886" lon="11.995946608087376"><ele>316.20000000000005</ele><time>2026-05-01T16:22:41.999Z</time></trkpt><trkpt lat="42.615768788983516" lon="11.995901816696763"><ele>317.8</ele><time>2026-05-01T16:22:42.999Z</time></trkpt><trkpt lat="42.61567772309865" lon="11.99588513332837"><ele>319.40000000000003</ele><time>2026-05-01T16:22:43.999Z</time></trkpt><trkpt lat="42.61557705337878" lon="11.995908361563114"><ele>321.0</ele><time>2026-05-01T16:22:45Z</time></trkpt><trkpt lat="42.61548219160964" lon="11.995958988953648"><ele>321.0</ele><time>2026-05-01T16:22:46Z</time></trkpt><trkpt lat="42.6153896362342" lon="11.996031674186748"><ele>321.0</ele><time>2026-05-01T16:22:47Z</time></trkpt><trkpt lat="42.615312769905216" lon="11.996130407425047"><ele>321.0</ele><time>2026-05-01T16:22:48Z</time></trkpt><trkpt lat="42.61517064278421" lon="11.99616924895172"><ele>321.0</ele><time>2026-05-01T16:22:49Z</time></trkpt><trkpt lat="42.61508504014547" lon="11.996274314320033"><ele>319.5</ele><time>2026-05-01T16:22:50Z</time></trkpt><trkpt lat="42.61498326110538" lon="11.996332766140446"><ele>318.0</ele><time>2026-05-01T16:22:51Z</time></trkpt><trkpt lat="42.61489719689761" lon="11.996437791357158"><ele>316.5</ele><time>2026-05-01T16:22:52Z</time></trkpt><trkpt lat="42.6148046861232" lon="11.996539267342767"><ele>315.0</ele><time>2026-05-01T16:22:53Z</time></trkpt><trkpt lat="42.614702727301186" lon="11.996635156974982"><ele>317.0</ele><time>2026-05-01T16:22:54Z</time></trkpt><trkpt lat="42.61459079055027" lon="11.99671955280143"><ele>319.0</ele><time>2026-05-01T16:22:55Z</time></trkpt><trkpt lat="42.614470794616885" lon="11.996807356064307"><ele>321.0</ele><time>2026-05-01T16:22:56Z</time></trkpt><trkpt lat="42.61434473537777" lon="11.996891382899676"><ele>323.0</ele><time>2026-05-01T16:22:57Z</time></trkpt><trkpt lat="42.61421363637005" lon="11.99698080268533"><ele>323.0</ele><time>2026-05-01T16:22:58Z</time></trkpt><trkpt lat="42.61408402132837" lon="11.997073456741607"><ele>323.0</ele><time>2026-05-01T16:22:59Z</time></trkpt><trkpt lat="42.613957272523244" lon="11.997159947928258"><ele>323.0</ele><time>2026-05-01T16:23:00Z</time></trkpt><trkpt lat="42.61382551952628" lon="11.997236849984963"><ele>323.0</ele><time>2026-05-01T16:23:01Z</time></trkpt><trkpt lat="42.613693697821695" lon="11.997305104074783"><ele>320.75</ele><time>2026-05-01T16:23:02Z</time></trkpt><trkpt lat="42.61355535893053" lon="11.997368321883867"><ele>318.5</ele><time>2026-05-01T16:23:03Z</time></trkpt><trkpt lat="42.613408301156554" lon="11.997426527810575"><ele>316.25</ele><time>2026-05-01T16:23:04Z</time></trkpt><trkpt lat="42.61326453631048" lon="11.997450213538134"><ele>314.0</ele><time>2026-05-01T16:23:05Z</time></trkpt><trkpt lat="42.613120636293836" lon="11.997489258954523"><ele>320.5</ele><time>2026-05-01T16:23:06Z</time></trkpt><trkpt lat="42.612982627228384" lon="11.99751700459262"><ele>327.0</ele><time>2026-05-01T16:23:07Z</time></trkpt><trkpt lat="42.612843063568704" lon="11.997532764271103"><ele>333.5</ele><time>2026-05-01T16:23:08Z</time></trkpt><trkpt lat="42.61269763065832" lon="11.997536354086531"><ele>340.0</ele><time>2026-05-01T16:23:09Z</time></trkpt><trkpt lat="42.612546425368635" lon="11.99752424284992"><ele>335.75</ele><time>2026-05-01T16:23:10Z</time></trkpt><trkpt lat="42.612405277447024" lon="11.997494928489575"><ele>331.5</ele><time>2026-05-01T16:23:11Z</time></trkpt><trkpt lat="42.612263983624516" lon="11.997450555420293"><ele>327.25</ele><time>2026-05-01T16:23:12Z</time></trkpt><trkpt lat="42.61212539033151" lon="11.997390676201062"><ele>323.0</ele><time>2026-05-01T16:23:13Z</time></trkpt><trkpt lat="42.61198541581408" lon="11.997321719842141"><ele>323.0</ele><time>2026-05-01T16:23:14Z</time></trkpt><trkpt lat="42.611842493738614" lon="11.997269141630726"><ele>323.0</ele><time>2026-05-01T16:23:15Z</time></trkpt><trkpt lat="42.61171503102764" lon="11.997193531188197"><ele>323.0</ele><time>2026-05-01T16:23:16Z</time></trkpt><trkpt lat="42.61159618812456" lon="11.997126417199759"><ele>323.0</ele><time>2026-05-01T16:23:17Z</time></trkpt><trkpt lat="42.611485183764145" lon="11.997067924752512"><ele>323.0</ele><time>2026-05-01T16:23:18Z</time></trkpt><trkpt lat="42.611362795397625" lon="11.997007647586983"><ele>323.0</ele><time>2026-05-01T16:23:19Z</time></trkpt><trkpt lat="42.61123019043453" lon="11.99695037248095"><ele>323.0</ele><time>2026-05-01T16:23:20Z</time></trkpt><trkpt lat="42.61109784002763" lon="11.996874278110967"><ele>323.0</ele><time>2026-05-01T16:23:21Z</time></trkpt><trkpt lat="42.610967268845634" lon="11.996812329882017"><ele>325.6666666666667</ele><time>2026-05-01T16:23:22Z</time></trkpt><trkpt lat="42.61083407549129" lon="11.99676698568444"><ele>328.3333333333333</ele><time>2026-05-01T16:23:23Z</time></trkpt><trkpt lat="42.610669201397485" lon="11.996751981717484"><ele>331.0</ele><time>2026-05-01T16:23:24Z</time></trkpt><trkpt lat="42.61045257876461" lon="11.996751091950777"><ele>332.5</ele><time>2026-05-01T16:23:25Z</time></trkpt><trkpt lat="42.61020035820976" lon="11.996759260132013"><ele>334.0</ele><time>2026-05-01T16:23:26Z</time></trkpt><trkpt lat="42.609930749728655" lon="11.996769428222885"><ele>334.0</ele><time>2026-05-01T16:23:27Z</time></trkpt><trkpt lat="42.60968803472627" lon="11.996788126508658"><ele>334.0</ele><time>2026-05-01T16:23:28Z</time></trkpt><trkpt lat="42.60944786434457" lon="11.996793913434082"><ele>327.5</ele><time>2026-05-01T16:23:29Z</time></trkpt><trkpt lat="42.60920564701159" lon="11.99679088997883"><ele>321.0</ele><time>2026-05-01T16:23:30Z</time></trkpt><trkpt lat="42.6089641792143" lon="11.996769814233156"><ele>321.0</ele><time>2026-05-01T16:23:31Z</time></trkpt><trkpt lat="42.60872199529572" lon="11.996742295707904"><ele>321.0</ele><time>2026-05-01T16:23:32Z</time></trkpt><trkpt lat="42.60848009973849" lon="11.996714657656474"><ele>318.5</ele><time>2026-05-01T16:23:33Z</time></trkpt><trkpt lat="42.60823332801307" lon="11.996688859576892"><ele>316.0</ele><time>2026-05-01T16:23:34Z</time></trkpt><trkpt lat="42.60799408046664" lon="11.996655784566876"><ele>314.0</ele><time>2026-05-01T16:23:35Z</time></trkpt><trkpt lat="42.607755802317065" lon="11.996632656899822"><ele>312.0</ele><time>2026-05-01T16:23:36Z</time></trkpt><trkpt lat="42.607517214349464" lon="11.996615354357287"><ele>312.0</ele><time>2026-05-01T16:23:37Z</time></trkpt><trkpt lat="42.607274527970425" lon="11.996597075378036"><ele>312.0</ele><time>2026-05-01T16:23:38Z</time></trkpt><trkpt lat="42.60702754474165" lon="11.996579162121886"><ele>312.0</ele><time>2026-05-01T16:23:39Z</time></trkpt><trkpt lat="42.60678377805846" lon="11.996559748632109"><ele>312.0</ele><time>2026-05-01T16:23:40Z</time></trkpt><trkpt lat="42.606538387158416" lon="11.996536567970278"><ele>312.0</ele><time>2026-05-01T16:23:41Z</time></trkpt><trkpt lat="42.60629260011372" lon="11.996512341006301"><ele>312.0</ele><time>2026-05-01T16:23:42Z</time></trkpt><trkpt lat="42.60604588169187" lon="11.99648920506014"><ele>312.5</ele><time>2026-05-01T16:23:43Z</time></trkpt><trkpt lat="42.60580093447727" lon="11.99646760064238"><ele>313.0</ele><time>2026-05-01T16:23:44Z</time></trkpt><trkpt lat="42.605565848585634" lon="11.99644605571413"><ele>313.0</ele><time>2026-05-01T16:23:45Z</time></trkpt><trkpt lat="42.60533879455317" lon="11.996425394299436"><ele>313.0</ele><time>2026-05-01T16:23:46Z</time></trkpt><trkpt lat="42.60512746170895" lon="11.996405590176645"><ele>313.0</ele><time>2026-05-01T16:23:47Z</time></trkpt><trkpt lat="42.6049290457366" lon="11.996384769672067"><ele>313.3333333333333</ele><time>2026-05-01T16:23:48.001Z</time></trkpt><trkpt lat="42.60473728641924" lon="11.996387375426417"><ele>313.6666666666667</ele><time>2026-05-01T16:23:49.001Z</time></trkpt><trkpt lat="42.60455416147055" lon="11.996440098676564"><ele>314.0</ele><time>2026-05-01T16:23:50.001Z</time></trkpt><trkpt lat="42.604379622115815" lon="11.996557819110793"><ele>315.33333333333337</ele><time>2026-05-01T16:23:51.001Z</time></trkpt><trkpt lat="42.60420865015791" lon="11.996731013236586"><ele>316.6666666666667</ele><time>2026-05-01T16:23:52.001Z</time></trkpt><trkpt lat="42.604047165540635" lon="11.996905638908789"><ele>318.0</ele><time>2026-05-01T16:23:53.001Z</time></trkpt><trkpt lat="42.60387115815804" lon="11.997066559410309"><ele>318.0</ele><time>2026-05-01T16:23:54.001Z</time></trkpt><trkpt lat="42.603706734467046" lon="11.997208323139391"><ele>318.0</ele><time>2026-05-01T16:23:55.001Z</time></trkpt><trkpt lat="42.60355061680813" lon="11.997344432322055"><ele>318.0</ele><time>2026-05-01T16:23:56.001Z</time></trkpt><trkpt lat="42.60340891820221" lon="11.997471119434458"><ele>322.3333333333333</ele><time>2026-05-01T16:23:57.001Z</time></trkpt><trkpt lat="42.60327237467468" lon="11.997592956803059"><ele>326.66666666666663</ele><time>2026-05-01T16:23:58.001Z</time></trkpt><trkpt lat="42.6031465085493" lon="11.997705596081836"><ele>331.0</ele><time>2026-05-01T16:23:59.001Z</time></trkpt><trkpt lat="42.603028121139715" lon="11.9978104539655"><ele>331.0</ele><time>2026-05-01T16:24:00.001Z</time></trkpt><trkpt lat="42.60291330805962" lon="11.99790624289495"><ele>331.0</ele><time>2026-05-01T16:24:01.001Z</time></trkpt><trkpt lat="42.60279760471619" lon="11.997978163468884"><ele>331.0</ele><time>2026-05-01T16:24:02.001Z</time></trkpt><trkpt lat="42.60266671815202" lon="11.998036388663067"><ele>331.0</ele><time>2026-05-01T16:24:03.001Z</time></trkpt><trkpt lat="42.60252802682992" lon="11.998047037521605"><ele>330.0</ele><time>2026-05-01T16:24:04.001Z</time></trkpt><trkpt lat="42.60238792884029" lon="11.998093637124873"><ele>329.0</ele><time>2026-05-01T16:24:05.001Z</time></trkpt><trkpt lat="42.60222922525713" lon="11.998101361481504"><ele>328.0</ele><time>2026-05-01T16:24:06.001Z</time></trkpt><trkpt lat="42.60204079211339" lon="11.998135600695802"><ele>328.3333333333333</ele><time>2026-05-01T16:24:07.001Z</time></trkpt><trkpt lat="42.60183240288802" lon="11.998173401931117"><ele>328.6666666666667</ele><time>2026-05-01T16:24:08.001Z</time></trkpt><trkpt lat="42.60162314346857" lon="11.99821117181957"><ele>329.0</ele><time>2026-05-01T16:24:09.001Z</time></trkpt><trkpt lat="42.60140595205723" lon="11.9982503745405"><ele>329.0</ele><time>2026-05-01T16:24:10.001Z</time></trkpt><trkpt lat="42.60119365142303" lon="11.998288694478727"><ele>329.0</ele><time>2026-05-01T16:24:11.001Z</time></trkpt><trkpt lat="42.60098753553806" lon="11.998348659147256"><ele>329.0</ele><time>2026-05-01T16:24:12.001Z</time></trkpt><trkpt lat="42.60078226335441" lon="11.998385569530495"><ele>332.0</ele><time>2026-05-01T16:24:13.001Z</time></trkpt><trkpt lat="42.600578851713806" lon="11.998438127521466"><ele>335.0</ele><time>2026-05-01T16:24:14.001Z</time></trkpt><trkpt lat="42.600367109079706" lon="11.998477009707596"><ele>338.0</ele><time>2026-05-01T16:24:15.001Z</time></trkpt><trkpt lat="42.60018047367395" lon="11.998504349416702"><ele>338.0</ele><time>2026-05-01T16:24:16.001Z</time></trkpt><trkpt lat="42.599998138877304" lon="11.998530685828028"><ele>338.0</ele><time>2026-05-01T16:24:17.001Z</time></trkpt><trkpt lat="42.59982548444831" lon="11.99856780562635"><ele>338.0</ele><time>2026-05-01T16:24:18.001Z</time></trkpt><trkpt lat="42.59966660004954" lon="11.998637192807164"><ele>337.6666666666667</ele><time>2026-05-01T16:24:19.001Z</time></trkpt><trkpt lat="42.599498234902626" lon="11.998760262006439"><ele>337.3333333333333</ele><time>2026-05-01T16:24:20.001Z</time></trkpt><trkpt lat="42.59930167736976" lon="11.9989048253817"><ele>337.0</ele><time>2026-05-01T16:24:21.001Z</time></trkpt><trkpt lat="42.59912893425169" lon="11.999006571901473"><ele>337.0</ele><time>2026-05-01T16:24:22.001Z</time></trkpt><trkpt lat="42.59897735909589" lon="11.99908614308347"><ele>337.0</ele><time>2026-05-01T16:24:23.001Z</time></trkpt><trkpt lat="42.59884595373105" lon="11.99916207807504"><ele>337.0</ele><time>2026-05-01T16:24:24.001Z</time></trkpt><trkpt lat="42.59872951193596" lon="11.999236112042471"><ele>337.0</ele><time>2026-05-01T16:24:25.001Z</time></trkpt><trkpt lat="42.59861525142894" lon="11.99930933851911"><ele>339.75</ele><time>2026-05-01T16:24:26.001Z</time></trkpt><trkpt lat="42.59850815967306" lon="11.999374936347113"><ele>342.5</ele><time>2026-05-01T16:24:27.001Z</time></trkpt><trkpt lat="42.59839675273501" lon="11.999437095233368"><ele>345.25</ele><time>2026-05-01T16:24:28Z</time></trkpt><trkpt lat="42.5982615579043" lon="11.999484961397199"><ele>348.0</ele><time>2026-05-01T16:24:29Z</time></trkpt><trkpt lat="42.598131392979944" lon="11.999508557728177"><ele>348.0</ele><time>2026-05-01T16:24:30Z</time></trkpt><trkpt lat="42.59799115781478" lon="11.999524801670443"><ele>348.0</ele><time>2026-05-01T16:24:31Z</time></trkpt><trkpt lat="42.59783256438976" lon="11.999529128293618"><ele>348.0</ele><time>2026-05-01T16:24:32Z</time></trkpt><trkpt lat="42.59766724685408" lon="11.999538875789163"><ele>348.3333333333333</ele><time>2026-05-01T16:24:33Z</time></trkpt><trkpt lat="42.59746833172131" lon="11.999515643230469"><ele>348.66666666666663</ele><time>2026-05-01T16:24:34Z</time></trkpt><trkpt lat="42.597277063906205" lon="11.999484454174208"><ele>349.0</ele><time>2026-05-01T16:24:35Z</time></trkpt><trkpt lat="42.59711434236803" lon="11.999443819809509"><ele>349.5</ele><time>2026-05-01T16:24:36Z</time></trkpt><trkpt lat="42.59696928322524" lon="11.999419666223801"><ele>350.0</ele><time>2026-05-01T16:24:37Z</time></trkpt><trkpt lat="42.59683305507846" lon="11.999398507875014"><ele>350.5</ele><time>2026-05-01T16:24:38Z</time></trkpt><trkpt lat="42.596689218933214" lon="11.99941113904101"><ele>351.0</ele><time>2026-05-01T16:24:39Z</time></trkpt><trkpt lat="42.59654529031188" lon="11.999457083975647"><ele>351.0</ele><time>2026-05-01T16:24:40Z</time></trkpt><trkpt lat="42.596414866562114" lon="11.999508836787983"><ele>351.0</ele><time>2026-05-01T16:24:41Z</time></trkpt><trkpt lat="42.59626950368158" lon="11.999586772910963"><ele>351.0</ele><time>2026-05-01T16:24:42Z</time></trkpt><trkpt lat="42.59609936819161" lon="11.999702921443856"><ele>351.0</ele><time>2026-05-01T16:24:43Z</time></trkpt><trkpt lat="42.595896514250796" lon="11.999824894904483"><ele>351.0</ele><time>2026-05-01T16:24:44Z</time></trkpt><trkpt lat="42.59567922237042" lon="11.999958004336715"><ele>351.0</ele><time>2026-05-01T16:24:45Z</time></trkpt><trkpt lat="42.59546088419643" lon="12.000101957561647"><ele>351.0</ele><time>2026-05-01T16:24:46Z</time></trkpt><trkpt lat="42.595239815321335" lon="12.000249363526798"><ele>351.5</ele><time>2026-05-01T16:24:47Z</time></trkpt><trkpt lat="42.59501999268436" lon="12.000378304725517"><ele>352.0</ele><time>2026-05-01T16:24:48Z</time></trkpt><trkpt lat="42.594790435494915" lon="12.00046131848831"><ele>352.0</ele><time>2026-05-01T16:24:49Z</time></trkpt><trkpt lat="42.59453514951748" lon="12.00048610807194"><ele>352.0</ele><time>2026-05-01T16:24:50Z</time></trkpt><trkpt lat="42.594265627642756" lon="12.000492086195909"><ele>353.0</ele><time>2026-05-01T16:24:51Z</time></trkpt><trkpt lat="42.59399853675213" lon="12.000506937866676"><ele>354.0</ele><time>2026-05-01T16:24:52Z</time></trkpt><trkpt lat="42.59373228501666" lon="12.000527557802394"><ele>355.0</ele><time>2026-05-01T16:24:53Z</time></trkpt><trkpt lat="42.59345204144225" lon="12.000547072830576"><ele>356.0</ele><time>2026-05-01T16:24:54Z</time></trkpt><trkpt lat="42.5931942942267" lon="12.000572528792993"><ele>356.0</ele><time>2026-05-01T16:24:55Z</time></trkpt><trkpt lat="42.59291165058607" lon="12.000588042384184"><ele>356.0</ele><time>2026-05-01T16:24:56Z</time></trkpt><trkpt lat="42.592655154606966" lon="12.000699832827745"><ele>357.5</ele><time>2026-05-01T16:24:57Z</time></trkpt><trkpt lat="42.592388972150154" lon="12.000766941356096"><ele>359.0</ele><time>2026-05-01T16:24:58Z</time></trkpt><trkpt lat="42.59213944635238" lon="12.000811533446184"><ele>363.0</ele><time>2026-05-01T16:24:59Z</time></trkpt><trkpt lat="42.59190582465101" lon="12.000833146445032"><ele>367.0</ele><time>2026-05-01T16:25:00Z</time></trkpt><trkpt lat="42.59167048918995" lon="12.000806755891505"><ele>367.0</ele><time>2026-05-01T16:25:01Z</time></trkpt><trkpt lat="42.59140990557414" lon="12.00076097848281"><ele>367.0</ele><time>2026-05-01T16:25:02Z</time></trkpt><trkpt lat="42.591127921037064" lon="12.000702172750927"><ele>370.0</ele><time>2026-05-01T16:25:03Z</time></trkpt><trkpt lat="42.59085775137023" lon="12.000646789677603"><ele>373.0</ele><time>2026-05-01T16:25:04Z</time></trkpt><trkpt lat="42.59062132497826" lon="12.000604132850915"><ele>373.0</ele><time>2026-05-01T16:25:05Z</time></trkpt><trkpt lat="42.590405681522874" lon="12.000600395716676"><ele>373.0</ele><time>2026-05-01T16:25:06Z</time></trkpt><trkpt lat="42.59019080957474" lon="12.0006731133623"><ele>373.0</ele><time>2026-05-01T16:25:07Z</time></trkpt><trkpt lat="42.58997811031302" lon="12.00079369902695"><ele>376.5</ele><time>2026-05-01T16:25:08Z</time></trkpt><trkpt lat="42.589757890350555" lon="12.00095333809255"><ele>380.0</ele><time>2026-05-01T16:25:09Z</time></trkpt><trkpt lat="42.589536038466974" lon="12.00113858355456"><ele>379.0</ele><time>2026-05-01T16:25:10Z</time></trkpt><trkpt lat="42.58929657217483" lon="12.001280126502811"><ele>378.0</ele><time>2026-05-01T16:25:11Z</time></trkpt><trkpt lat="42.58904781880223" lon="12.001379762976573"><ele>378.0</ele><time>2026-05-01T16:25:12Z</time></trkpt><trkpt lat="42.58878192918073" lon="12.001470699650199"><ele>378.0</ele><time>2026-05-01T16:25:13Z</time></trkpt><trkpt lat="42.58849701572082" lon="12.001591636552373"><ele>382.0</ele><time>2026-05-01T16:25:14Z</time></trkpt><trkpt lat="42.58822587702644" lon="12.001683593411382"><ele>386.0</ele><time>2026-05-01T16:25:15Z</time></trkpt><trkpt lat="42.5879833898033" lon="12.001772225453918"><ele>386.0</ele><time>2026-05-01T16:25:16Z</time></trkpt><trkpt lat="42.58775524608685" lon="12.0018418023786"><ele>386.0</ele><time>2026-05-01T16:25:17Z</time></trkpt><trkpt lat="42.5875203153912" lon="12.001838762608887"><ele>386.0</ele><time>2026-05-01T16:25:18Z</time></trkpt><trkpt lat="42.5872790323802" lon="12.001814589842507"><ele>386.0</ele><time>2026-05-01T16:25:19Z</time></trkpt><trkpt lat="42.587026572312055" lon="12.001807387828077"><ele>387.5</ele><time>2026-05-01T16:25:20Z</time></trkpt><trkpt lat="42.58678638431734" lon="12.001798738767533"><ele>389.0</ele><time>2026-05-01T16:25:21Z</time></trkpt><trkpt lat="42.58655256387982" lon="12.001832703739359"><ele>389.0</ele><time>2026-05-01T16:25:22Z</time></trkpt><trkpt lat="42.586306936278504" lon="12.001906168023726"><ele>389.0</ele><time>2026-05-01T16:25:23Z</time></trkpt><trkpt lat="42.586052268667366" lon="12.002014345990474"><ele>387.5</ele><time>2026-05-01T16:25:24Z</time></trkpt><trkpt lat="42.58581806568468" lon="12.002103344722725"><ele>386.0</ele><time>2026-05-01T16:25:25Z</time></trkpt><trkpt lat="42.585604485284854" lon="12.00216936687417"><ele>386.0</ele><time>2026-05-01T16:25:26Z</time></trkpt><trkpt lat="42.58542285934779" lon="12.002232183428074"><ele>386.0</ele><time>2026-05-01T16:25:27Z</time></trkpt><trkpt lat="42.585280477075074" lon="12.002295592816829"><ele>386.0</ele><time>2026-05-01T16:25:28Z</time></trkpt><trkpt lat="42.58516625511388" lon="12.002395116901319"><ele>387.0</ele><time>2026-05-01T16:25:29Z</time></trkpt><trkpt lat="42.58507652761976" lon="12.00253483247554"><ele>388.0</ele><time>2026-05-01T16:25:30Z</time></trkpt><trkpt lat="42.58504042874883" lon="12.002721992596442"><ele>389.0</ele><time>2026-05-01T16:25:31Z</time></trkpt><trkpt lat="42.58508271976443" lon="12.002925316676514"><ele>390.0</ele><time>2026-05-01T16:25:32Z</time></trkpt><trkpt lat="42.58516141448359" lon="12.00309827290143"><ele>390.0</ele><time>2026-05-01T16:25:33.001Z</time></trkpt><trkpt lat="42.58527802992872" lon="12.003284654959023"><ele>390.0</ele><time>2026-05-01T16:25:34.001Z</time></trkpt><trkpt lat="42.58540978784138" lon="12.003508476709088"><ele>390.0</ele><time>2026-05-01T16:25:35.001Z</time></trkpt><trkpt lat="42.58552002133058" lon="12.003686804504195"><ele>392.75</ele><time>2026-05-01T16:25:36.001Z</time></trkpt><trkpt lat="42.585601750123836" lon="12.003847650212995"><ele>395.5</ele><time>2026-05-01T16:25:37.001Z</time></trkpt><trkpt lat="42.58565124131551" lon="12.004018603119174"><ele>398.25</ele><time>2026-05-01T16:25:38.001Z</time></trkpt><trkpt lat="42.585676772730544" lon="12.00419714055599"><ele>401.0</ele><time>2026-05-01T16:25:39.001Z</time></trkpt><trkpt lat="42.58565145943033" lon="12.00437413509165"><ele>401.0</ele><time>2026-05-01T16:25:40.001Z</time></trkpt><trkpt lat="42.58557378302706" lon="12.00452295794494"><ele>401.0</ele><time>2026-05-01T16:25:41.001Z</time></trkpt><trkpt lat="42.58547784514265" lon="12.004659047502617"><ele>401.0</ele><time>2026-05-01T16:25:42.001Z</time></trkpt><trkpt lat="42.585363278939624" lon="12.004794152851117"><ele>401.0</ele><time>2026-05-01T16:25:43.001Z</time></trkpt><trkpt lat="42.585214300295064" lon="12.004883968922103"><ele>400.3333333333333</ele><time>2026-05-01T16:25:44.001Z</time></trkpt><trkpt lat="42.585038131824284" lon="12.00501474744898"><ele>399.66666666666663</ele><time>2026-05-01T16:25:45.001Z</time></trkpt><trkpt lat="42.58483901649451" lon="12.005162560504564"><ele>399.0</ele><time>2026-05-01T16:25:46.001Z</time></trkpt><trkpt lat="42.58464156785484" lon="12.005322701592792"><ele>395.66666666666663</ele><time>2026-05-01T16:25:47.001Z</time></trkpt><trkpt lat="42.584444847543814" lon="12.00546154990111"><ele>392.3333333333333</ele><time>2026-05-01T16:25:48.001Z</time></trkpt><trkpt lat="42.584276296804106" lon="12.00558288195968"><ele>389.0</ele><time>2026-05-01T16:25:49.001Z</time></trkpt><trkpt lat="42.58411562813957" lon="12.005702340423278"><ele>389.0</ele><time>2026-05-01T16:25:50.001Z</time></trkpt><trkpt lat="42.58396891023558" lon="12.005813169000653"><ele>389.0</ele><time>2026-05-01T16:25:51.001Z</time></trkpt><trkpt lat="42.583835157498974" lon="12.005924963683418"><ele>389.0</ele><time>2026-05-01T16:25:52.001Z</time></trkpt><trkpt lat="42.583721223216266" lon="12.006057163404199"><ele>390.25</ele><time>2026-05-01T16:25:53.001Z</time></trkpt><trkpt lat="42.58363018478085" lon="12.006207159908977"><ele>391.5</ele><time>2026-05-01T16:25:54.001Z</time></trkpt><trkpt lat="42.58355687071169" lon="12.006371933307927"><ele>392.75</ele><time>2026-05-01T16:25:55.001Z</time></trkpt><trkpt lat="42.58348377140504" lon="12.006527934638443"><ele>394.0</ele><time>2026-05-01T16:25:56.001Z</time></trkpt><trkpt lat="42.583397350983404" lon="12.006674189798236"><ele>396.33333333333337</ele><time>2026-05-01T16:25:57.001Z</time></trkpt><trkpt lat="42.58329253683127" lon="12.006825640758523"><ele>398.66666666666663</ele><time>2026-05-01T16:25:58.001Z</time></trkpt><trkpt lat="42.583155963252736" lon="12.006967768362399"><ele>401.0</ele><time>2026-05-01T16:25:59.001Z</time></trkpt><trkpt lat="42.583000236953964" lon="12.007139187270399"><ele>402.0</ele><time>2026-05-01T16:26:00.001Z</time></trkpt><trkpt lat="42.5828256369517" lon="12.007328773694395"><ele>403.0</ele><time>2026-05-01T16:26:01.001Z</time></trkpt><trkpt lat="42.582646439981616" lon="12.007519478197962"><ele>403.0</ele><time>2026-05-01T16:26:02.001Z</time></trkpt><trkpt lat="42.582476789655" lon="12.007720978303055"><ele>403.0</ele><time>2026-05-01T16:26:03.001Z</time></trkpt><trkpt lat="42.58228540561859" lon="12.00790369720397"><ele>403.0</ele><time>2026-05-01T16:26:04.001Z</time></trkpt><trkpt lat="42.58212889992573" lon="12.008067308329194"><ele>403.0</ele><time>2026-05-01T16:26:05.001Z</time></trkpt><trkpt lat="42.58198827701017" lon="12.00818487568143"><ele>403.0</ele><time>2026-05-01T16:26:06.001Z</time></trkpt><trkpt lat="42.58182148517068" lon="12.008267432197444"><ele>401.33333333333337</ele><time>2026-05-01T16:26:07.001Z</time></trkpt><trkpt lat="42.58164374355568" lon="12.008257706388422"><ele>399.66666666666663</ele><time>2026-05-01T16:26:08.001Z</time></trkpt><trkpt lat="42.58143905027617" lon="12.008260697205081"><ele>398.0</ele><time>2026-05-01T16:26:09.001Z</time></trkpt><trkpt lat="42.581236704107866" lon="12.008279272945531"><ele>401.3333333333333</ele><time>2026-05-01T16:26:10.001Z</time></trkpt><trkpt lat="42.58103956147627" lon="12.008340031240134"><ele>404.66666666666663</ele><time>2026-05-01T16:26:11.001Z</time></trkpt><trkpt lat="42.58087135934956" lon="12.008466925202141"><ele>408.0</ele><time>2026-05-01T16:26:12.001Z</time></trkpt><trkpt lat="42.5807147506948" lon="12.008652570567415"><ele>408.0</ele><time>2026-05-01T16:26:13.001Z</time></trkpt><trkpt lat="42.58056472390773" lon="12.008870289974311"><ele>408.0</ele><time>2026-05-01T16:26:14.001Z</time></trkpt><trkpt lat="42.580406908235325" lon="12.009095638399296"><ele>408.0</ele><time>2026-05-01T16:26:15.001Z</time></trkpt><trkpt lat="42.58024794215562" lon="12.009325700649176"><ele>409.5</ele><time>2026-05-01T16:26:16.001Z</time></trkpt><trkpt lat="42.58008079993914" lon="12.009559281683435"><ele>411.0</ele><time>2026-05-01T16:26:17.001Z</time></trkpt><trkpt lat="42.579916484926336" lon="12.009791771349512"><ele>411.0</ele><time>2026-05-01T16:26:18.001Z</time></trkpt><trkpt lat="42.57975775561824" lon="12.009979248921502"><ele>411.0</ele><time>2026-05-01T16:26:19.001Z</time></trkpt><trkpt lat="42.57962148910408" lon="12.01015799404501"><ele>411.0</ele><time>2026-05-01T16:26:20.001Z</time></trkpt><trkpt lat="42.57948444308573" lon="12.010294837279949"><ele>412.33333333333337</ele><time>2026-05-01T16:26:21.001Z</time></trkpt><trkpt lat="42.57931951631813" lon="12.010394257868565"><ele>413.6666666666667</ele><time>2026-05-01T16:26:22.001Z</time></trkpt><trkpt lat="42.57912972938664" lon="12.010400964980173"><ele>415.0</ele><time>2026-05-01T16:26:23.001Z</time></trkpt><trkpt lat="42.57890800143484" lon="12.010383804705166"><ele>419.5</ele><time>2026-05-01T16:26:24.001Z</time></trkpt><trkpt lat="42.57864479942815" lon="12.010352319829655"><ele>424.0</ele><time>2026-05-01T16:26:25.001Z</time></trkpt><trkpt lat="42.578332151622234" lon="12.010331482767867"><ele>424.0</ele><time>2026-05-01T16:26:26.001Z</time></trkpt><trkpt lat="42.57800228127962" lon="12.010300407858393"><ele>424.0</ele><time>2026-05-01T16:26:27.001Z</time></trkpt><trkpt lat="42.57771128502767" lon="12.010285210287291"><ele>424.0</ele><time>2026-05-01T16:26:28.001Z</time></trkpt><trkpt lat="42.57743783686264" lon="12.010264007284423"><ele>424.0</ele><time>2026-05-01T16:26:29.001Z</time></trkpt><trkpt lat="42.57717504204094" lon="12.010232721950768"><ele>423.0</ele><time>2026-05-01T16:26:30.001Z</time></trkpt><trkpt lat="42.576923929981476" lon="12.010207556053764"><ele>422.0</ele><time>2026-05-01T16:26:31.001Z</time></trkpt><trkpt lat="42.57668620481436" lon="12.010178286592863"><ele>422.0</ele><time>2026-05-01T16:26:32.001Z</time></trkpt><trkpt lat="42.57644769846144" lon="12.010162960791375"><ele>422.0</ele><time>2026-05-01T16:26:33.001Z</time></trkpt><trkpt lat="42.576218197462296" lon="12.010142463123307"><ele>422.5</ele><time>2026-05-01T16:26:34Z</time></trkpt><trkpt lat="42.575978655377185" lon="12.010109241218403"><ele>423.0</ele><time>2026-05-01T16:26:35Z</time></trkpt><trkpt lat="42.575730698465584" lon="12.010087393658814"><ele>423.0</ele><time>2026-05-01T16:26:36Z</time></trkpt><trkpt lat="42.57548951601818" lon="12.01007875352261"><ele>423.0</ele><time>2026-05-01T16:26:37Z</time></trkpt><trkpt lat="42.57524014924275" lon="12.010035418124838"><ele>423.5</ele><time>2026-05-01T16:26:38Z</time></trkpt><trkpt lat="42.57499182544951" lon="12.010015006719522"><ele>424.0</ele><time>2026-05-01T16:26:39Z</time></trkpt><trkpt lat="42.57474397325578" lon="12.009988060863837"><ele>426.0</ele><time>2026-05-01T16:26:40Z</time></trkpt><trkpt lat="42.57449279272797" lon="12.0099689928014"><ele>428.0</ele><time>2026-05-01T16:26:41Z</time></trkpt><trkpt lat="42.574240195569544" lon="12.009946260523082"><ele>428.0</ele><time>2026-05-01T16:26:42Z</time></trkpt><trkpt lat="42.57398923886179" lon="12.009917169466283"><ele>428.0</ele><time>2026-05-01T16:26:43Z</time></trkpt><trkpt lat="42.573738433363665" lon="12.009887038049758"><ele>427.0</ele><time>2026-05-01T16:26:44Z</time></trkpt><trkpt lat="42.573484533846184" lon="12.009855921969631"><ele>426.0</ele><time>2026-05-01T16:26:45Z</time></trkpt><trkpt lat="42.573232243801186" lon="12.009816019438077"><ele>426.0</ele><time>2026-05-01T16:26:46Z</time></trkpt><trkpt lat="42.57298377937024" lon="12.009764649187124"><ele>426.0</ele><time>2026-05-01T16:26:47Z</time></trkpt><trkpt lat="42.57273716982105" lon="12.009701542171815"><ele>424.5</ele><time>2026-05-01T16:26:48Z</time></trkpt><trkpt lat="42.5724856832039" lon="12.009644194385583"><ele>423.0</ele><time>2026-05-01T16:26:49Z</time></trkpt><trkpt lat="42.57223676332737" lon="12.00959138923139"><ele>423.0</ele><time>2026-05-01T16:26:50Z</time></trkpt><trkpt lat="42.57198705787282" lon="12.00953278954235"><ele>423.0</ele><time>2026-05-01T16:26:51Z</time></trkpt><trkpt lat="42.571736966644885" lon="12.009474872975986"><ele>423.0</ele><time>2026-05-01T16:26:52Z</time></trkpt><trkpt lat="42.571487843239716" lon="12.009414580668698"><ele>423.0</ele><time>2026-05-01T16:26:53Z</time></trkpt><trkpt lat="42.57124135550093" lon="12.009359927013373"><ele>423.0</ele><time>2026-05-01T16:26:54Z</time></trkpt><trkpt lat="42.570994835336776" lon="12.009312771733606"><ele>423.0</ele><time>2026-05-01T16:26:55Z</time></trkpt><trkpt lat="42.57074974761908" lon="12.009256855861816"><ele>423.0</ele><time>2026-05-01T16:26:56Z</time></trkpt><trkpt lat="42.57050160646436" lon="12.009201541974575"><ele>423.0</ele><time>2026-05-01T16:26:57Z</time></trkpt><trkpt lat="42.5702486370813" lon="12.009161330560845"><ele>422.5</ele><time>2026-05-01T16:26:58Z</time></trkpt><trkpt lat="42.569999195600815" lon="12.009168344674604"><ele>422.0</ele><time>2026-05-01T16:26:59Z</time></trkpt><trkpt lat="42.56975248410478" lon="12.009206290200392"><ele>422.5</ele><time>2026-05-01T16:27:00Z</time></trkpt><trkpt lat="42.5695063003669" lon="12.009242255977124"><ele>423.0</ele><time>2026-05-01T16:27:01Z</time></trkpt><trkpt lat="42.56925529834956" lon="12.009266174122478"><ele>423.0</ele><time>2026-05-01T16:27:02Z</time></trkpt><trkpt lat="42.56900334912848" lon="12.009292169055698"><ele>423.0</ele><time>2026-05-01T16:27:03Z</time></trkpt><trkpt lat="42.5687552542933" lon="12.009325474422416"><ele>428.5</ele><time>2026-05-01T16:27:04Z</time></trkpt><trkpt lat="42.56851164476087" lon="12.009357277493447"><ele>434.0</ele><time>2026-05-01T16:27:05Z</time></trkpt><trkpt lat="42.56827225918567" lon="12.009385856375747"><ele>434.0</ele><time>2026-05-01T16:27:06Z</time></trkpt><trkpt lat="42.56803654916388" lon="12.00941209106096"><ele>434.0</ele><time>2026-05-01T16:27:07Z</time></trkpt><trkpt lat="42.56781181257807" lon="12.00943802795645"><ele>435.0</ele><time>2026-05-01T16:27:08Z</time></trkpt><trkpt lat="42.56760979056245" lon="12.009455015495059"><ele>436.0</ele><time>2026-05-01T16:27:09Z</time></trkpt><trkpt lat="42.567426944142056" lon="12.009449034200985"><ele>437.0</ele><time>2026-05-01T16:27:10Z</time></trkpt><trkpt lat="42.56724248677598" lon="12.009371173719932"><ele>437.0</ele><time>2026-05-01T16:27:11Z</time></trkpt><trkpt lat="42.567064762214976" lon="12.009261343288781"><ele>437.0</ele><time>2026-05-01T16:27:12Z</time></trkpt><trkpt lat="42.56689954255835" lon="12.009112758017684"><ele>437.0</ele><time>2026-05-01T16:27:13Z</time></trkpt><trkpt lat="42.5667445958113" lon="12.008892351285551"><ele>439.5</ele><time>2026-05-01T16:27:14Z</time></trkpt><trkpt lat="42.5665950619654" lon="12.008637051298681"><ele>442.0</ele><time>2026-05-01T16:27:15Z</time></trkpt><trkpt lat="42.56643466361377" lon="12.00837779801878"><ele>442.0</ele><time>2026-05-01T16:27:16Z</time></trkpt><trkpt lat="42.56627653239929" lon="12.008123883344089"><ele>442.0</ele><time>2026-05-01T16:27:17Z</time></trkpt><trkpt lat="42.566131777664374" lon="12.007896984608392"><ele>444.33333333333337</ele><time>2026-05-01T16:27:18Z</time></trkpt><trkpt lat="42.5659938546999" lon="12.007692999109079"><ele>446.66666666666663</ele><time>2026-05-01T16:27:19Z</time></trkpt><trkpt lat="42.565846653823556" lon="12.007520214175234"><ele>449.0</ele><time>2026-05-01T16:27:20.001Z</time></trkpt><trkpt lat="42.565669897308" lon="12.007385187127701"><ele>453.5</ele><time>2026-05-01T16:27:21.001Z</time></trkpt><trkpt lat="42.56544680065639" lon="12.007296474262562"><ele>458.0</ele><time>2026-05-01T16:27:22.001Z</time></trkpt><trkpt lat="42.565198992982836" lon="12.007239390150646"><ele>458.0</ele><time>2026-05-01T16:27:23.001Z</time></trkpt><trkpt lat="42.56490784264105" lon="12.007201978783714"><ele>458.0</ele><time>2026-05-01T16:27:24.001Z</time></trkpt><trkpt lat="42.56464559965199" lon="12.007140340065328"><ele>458.0</ele><time>2026-05-01T16:27:25.001Z</time></trkpt><trkpt lat="42.564387021084045" lon="12.00707599439801"><ele>458.0</ele><time>2026-05-01T16:27:26.001Z</time></trkpt><trkpt lat="42.56412179938664" lon="12.007016055615033"><ele>458.0</ele><time>2026-05-01T16:27:27.001Z</time></trkpt><trkpt lat="42.563859497107316" lon="12.00694614139688"><ele>458.0</ele><time>2026-05-01T16:27:28.001Z</time></trkpt><trkpt lat="42.56359485197654" lon="12.00687651701884"><ele>461.0</ele><time>2026-05-01T16:27:29.001Z</time></trkpt><trkpt lat="42.56332526057634" lon="12.006812373127508"><ele>464.0</ele><time>2026-05-01T16:27:30.001Z</time></trkpt><trkpt lat="42.563053504535645" lon="12.006743679721724"><ele>465.0</ele><time>2026-05-01T16:27:31.001Z</time></trkpt><trkpt lat="42.562781573941876" lon="12.006677271106547"><ele>466.0</ele><time>2026-05-01T16:27:32.001Z</time></trkpt><trkpt lat="42.56251152530976" lon="12.006617360521426"><ele>465.5</ele><time>2026-05-01T16:27:33.001Z</time></trkpt><trkpt lat="42.56224496155341" lon="12.006548837079835"><ele>465.0</ele><time>2026-05-01T16:27:34.001Z</time></trkpt><trkpt lat="42.56199139323092" lon="12.006487066304151"><ele>465.0</ele><time>2026-05-01T16:27:35.001Z</time></trkpt><trkpt lat="42.56174979531441" lon="12.00642706979342"><ele>465.0</ele><time>2026-05-01T16:27:36.001Z</time></trkpt><trkpt lat="42.561519995091835" lon="12.0063743890803"><ele>465.0</ele><time>2026-05-01T16:27:37.001Z</time></trkpt><trkpt lat="42.56129978358512" lon="12.006320016616337"><ele>465.0</ele><time>2026-05-01T16:27:38.001Z</time></trkpt><trkpt lat="42.561083548134405" lon="12.006269103802696"><ele>465.0</ele><time>2026-05-01T16:27:39.001Z</time></trkpt><trkpt lat="42.56086430118644" lon="12.006209824101719"><ele>466.66666666666663</ele><time>2026-05-01T16:27:40.001Z</time></trkpt><trkpt lat="42.56066004644315" lon="12.006159957564341"><ele>468.3333333333333</ele><time>2026-05-01T16:27:41.001Z</time></trkpt><trkpt lat="42.560471271028135" lon="12.006110089382547"><ele>470.0</ele><time>2026-05-01T16:27:42.001Z</time></trkpt><trkpt lat="42.56029604765775" lon="12.006067053575583"><ele>470.66666666666663</ele><time>2026-05-01T16:27:43.001Z</time></trkpt><trkpt lat="42.56013242793638" lon="12.006051398776272"><ele>471.33333333333337</ele><time>2026-05-01T16:27:44.001Z</time></trkpt><trkpt lat="42.55998325450516" lon="12.006086582196229"><ele>472.0</ele><time>2026-05-01T16:27:45.001Z</time></trkpt><trkpt lat="42.55984614746141" lon="12.006181271644067"><ele>472.0</ele><time>2026-05-01T16:27:46.001Z</time></trkpt><trkpt lat="42.55971608208702" lon="12.006304464108474"><ele>472.0</ele><time>2026-05-01T16:27:47.001Z</time></trkpt><trkpt lat="42.55959893350112" lon="12.006435749258602"><ele>472.0</ele><time>2026-05-01T16:27:48.001Z</time></trkpt><trkpt lat="42.55948659384071" lon="12.006551801920542"><ele>473.5</ele><time>2026-05-01T16:27:49.001Z</time></trkpt><trkpt lat="42.55937550113354" lon="12.006632077898372"><ele>475.0</ele><time>2026-05-01T16:27:50.001Z</time></trkpt><trkpt lat="42.55924878599209" lon="12.006669729035382"><ele>476.5</ele><time>2026-05-01T16:27:51.001Z</time></trkpt><trkpt lat="42.559126973975175" lon="12.006662275572022"><ele>478.0</ele><time>2026-05-01T16:27:52.001Z</time></trkpt><trkpt lat="42.55900870693377" lon="12.006604408014864"><ele>478.0</ele><time>2026-05-01T16:27:53.001Z</time></trkpt><trkpt lat="42.55891498013857" lon="12.006513883429767"><ele>478.0</ele><time>2026-05-01T16:27:54.001Z</time></trkpt><trkpt lat="42.55884245182392" lon="12.006394734736535"><ele>478.0</ele><time>2026-05-01T16:27:55.001Z</time></trkpt><trkpt lat="42.55878715848525" lon="12.006252634728893"><ele>478.0</ele><time>2026-05-01T16:27:56.001Z</time></trkpt><trkpt lat="42.55873837220038" lon="12.006103628428937"><ele>479.0</ele><time>2026-05-01T16:27:57.001Z</time></trkpt><trkpt lat="42.5586818559507" lon="12.005953429912132"><ele>480.0</ele><time>2026-05-01T16:27:58.001Z</time></trkpt><trkpt lat="42.558612854467924" lon="12.005810753684413"><ele>481.0</ele><time>2026-05-01T16:27:59.001Z</time></trkpt><trkpt lat="42.55853171723307" lon="12.005671325494632"><ele>482.0</ele><time>2026-05-01T16:28:00.001Z</time></trkpt><trkpt lat="42.55841804744548" lon="12.005545178299833"><ele>482.0</ele><time>2026-05-01T16:28:01.001Z</time></trkpt><trkpt lat="42.55826070317997" lon="12.005412335098539"><ele>482.0</ele><time>2026-05-01T16:28:02.001Z</time></trkpt><trkpt lat="42.55810455673532" lon="12.005289406318434"><ele>482.0</ele><time>2026-05-01T16:28:03.001Z</time></trkpt><trkpt lat="42.557958946739255" lon="12.005170089381298"><ele>480.66666666666663</ele><time>2026-05-01T16:28:04.001Z</time></trkpt><trkpt lat="42.55781354140557" lon="12.005058916668748"><ele>479.33333333333337</ele><time>2026-05-01T16:28:05.001Z</time></trkpt><trkpt lat="42.557646599112466" lon="12.004961372843404"><ele>478.0</ele><time>2026-05-01T16:28:06.001Z</time></trkpt><trkpt lat="42.557477047735546" lon="12.004871737199807"><ele>478.0</ele><time>2026-05-01T16:28:07.001Z</time></trkpt><trkpt lat="42.55731862537745" lon="12.004807445104161"><ele>478.0</ele><time>2026-05-01T16:28:08.001Z</time></trkpt><trkpt lat="42.55717001906591" lon="12.004765516258887"><ele>478.0</ele><time>2026-05-01T16:28:09.001Z</time></trkpt><trkpt lat="42.557035035422196" lon="12.004732029524607"><ele>479.6666666666667</ele><time>2026-05-01T16:28:10.001Z</time></trkpt><trkpt lat="42.55689101838251" lon="12.004724614329962"><ele>481.33333333333337</ele><time>2026-05-01T16:28:11.001Z</time></trkpt><trkpt lat="42.55673935294686" lon="12.004758206224308"><ele>483.0</ele><time>2026-05-01T16:28:12.001Z</time></trkpt><trkpt lat="42.556579586928706" lon="12.004844875091745"><ele>483.0</ele><time>2026-05-01T16:28:13.001Z</time></trkpt><trkpt lat="42.556427526856815" lon="12.004984972891195"><ele>483.0</ele><time>2026-05-01T16:28:14.001Z</time></trkpt><trkpt lat="42.556242402245" lon="12.005109596697697"><ele>483.0</ele><time>2026-05-01T16:28:15.001Z</time></trkpt><trkpt lat="42.55606655553136" lon="12.005252660316033"><ele>484.66666666666663</ele><time>2026-05-01T16:28:16.001Z</time></trkpt><trkpt lat="42.55591724564981" lon="12.00536808948488"><ele>486.3333333333333</ele><time>2026-05-01T16:28:17.001Z</time></trkpt><trkpt lat="42.555781989870006" lon="12.005485041443333"><ele>488.0</ele><time>2026-05-01T16:28:18.001Z</time></trkpt><trkpt lat="42.55565371847898" lon="12.005574533514755"><ele>488.0</ele><time>2026-05-01T16:28:19.001Z</time></trkpt><trkpt lat="42.55552383778305" lon="12.005652508294672"><ele>488.0</ele><time>2026-05-01T16:28:20.001Z</time></trkpt><trkpt lat="42.555393671543726" lon="12.005692086926729"><ele>488.0</ele><time>2026-05-01T16:28:21.001Z</time></trkpt><trkpt lat="42.55525268235375" lon="12.005713498845592"><ele>488.0</ele><time>2026-05-01T16:28:22.001Z</time></trkpt><trkpt lat="42.55511295640844" lon="12.005716533135525"><ele>488.25</ele><time>2026-05-01T16:28:23.001Z</time></trkpt><trkpt lat="42.55497154730675" lon="12.005709002655312"><ele>488.5</ele><time>2026-05-01T16:28:24.001Z</time></trkpt><trkpt lat="42.55482848136111" lon="12.00568665975287"><ele>488.75</ele><time>2026-05-01T16:28:25.001Z</time></trkpt><trkpt lat="42.55469449754389" lon="12.00564484955897"><ele>489.0</ele><time>2026-05-01T16:28:26.001Z</time></trkpt><trkpt lat="42.55457237887538" lon="12.00558305254741"><ele>493.0</ele><time>2026-05-01T16:28:27.001Z</time></trkpt><trkpt lat="42.55444862775031" lon="12.005509597221147"><ele>497.0</ele><time>2026-05-01T16:28:28.001Z</time></trkpt><trkpt lat="42.55432749518163" lon="12.005413437547132"><ele>501.0</ele><time>2026-05-01T16:28:29.001Z</time></trkpt><trkpt lat="42.554211035200126" lon="12.005323554633238"><ele>505.0</ele><time>2026-05-01T16:28:30.001Z</time></trkpt><trkpt lat="42.55409978131244" lon="12.005240533906882"><ele>505.0</ele><time>2026-05-01T16:28:31.001Z</time></trkpt><trkpt lat="42.55398933484812" lon="12.005171325538203"><ele>505.0</ele><time>2026-05-01T16:28:32.001Z</time></trkpt><trkpt lat="42.55387674874431" lon="12.005129316070406"><ele>505.0</ele><time>2026-05-01T16:28:33.001Z</time></trkpt><trkpt lat="42.55376934864197" lon="12.00514513912154"><ele>505.0</ele><time>2026-05-01T16:28:34.001Z</time></trkpt><trkpt lat="42.553667511246005" lon="12.005201288801905"><ele>503.25</ele><time>2026-05-01T16:28:35.001Z</time></trkpt><trkpt lat="42.55358657727396" lon="12.005311274886763"><ele>501.5</ele><time>2026-05-01T16:28:36.001Z</time></trkpt><trkpt lat="42.55353919714491" lon="12.005448131671129"><ele>499.75</ele><time>2026-05-01T16:28:37.001Z</time></trkpt><trkpt lat="42.553543787920866" lon="12.005603136901676"><ele>498.0</ele><time>2026-05-01T16:28:38.001Z</time></trkpt><trkpt lat="42.553585315021174" lon="12.005767939633968"><ele>498.33333333333337</ele><time>2026-05-01T16:28:39.001Z</time></trkpt><trkpt lat="42.55365206096377" lon="12.005948387325356"><ele>498.6666666666667</ele><time>2026-05-01T16:28:40.001Z</time></trkpt><trkpt lat="42.55372088567091" lon="12.00612231221535"><ele>499.0</ele><time>2026-05-01T16:28:41.001Z</time></trkpt><trkpt lat="42.55378295040725" lon="12.006316685350487"><ele>505.33333333333337</ele><time>2026-05-01T16:28:42.001Z</time></trkpt><trkpt lat="42.55386685447098" lon="12.006535683100099"><ele>511.66666666666663</ele><time>2026-05-01T16:28:43.001Z</time></trkpt><trkpt lat="42.553962331399816" lon="12.00678488715105"><ele>518.0</ele><time>2026-05-01T16:28:44.001Z</time></trkpt><trkpt lat="42.55404680950761" lon="12.007005383213313"><ele>518.0</ele><time>2026-05-01T16:28:45.001Z</time></trkpt><trkpt lat="42.55413353995406" lon="12.00720299414512"><ele>518.0</ele><time>2026-05-01T16:28:46.001Z</time></trkpt><trkpt lat="42.55418891067376" lon="12.007397468853783"><ele>518.0</ele><time>2026-05-01T16:28:47.001Z</time></trkpt><trkpt lat="42.55422721868862" lon="12.007603225897052"><ele>516.6666666666666</ele><time>2026-05-01T16:28:48.001Z</time></trkpt><trkpt lat="42.55425010274443" lon="12.007823676753924"><ele>515.3333333333334</ele><time>2026-05-01T16:28:49.001Z</time></trkpt><trkpt lat="42.554238338904646" lon="12.00804144524221"><ele>514.0</ele><time>2026-05-01T16:28:50.001Z</time></trkpt><trkpt lat="42.55423886873918" lon="12.008249396132904"><ele>514.5</ele><time>2026-05-01T16:28:51Z</time></trkpt><trkpt lat="42.55423932570042" lon="12.008458409981085"><ele>515.0</ele><time>2026-05-01T16:28:52Z</time></trkpt><trkpt lat="42.55425513293187" lon="12.008655379728696"><ele>515.5</ele><time>2026-05-01T16:28:53Z</time></trkpt><trkpt lat="42.554250833432754" lon="12.00884408830837"><ele>516.0</ele><time>2026-05-01T16:28:54Z</time></trkpt><trkpt lat="42.55424021632308" lon="12.009023381899425"><ele>516.0</ele><time>2026-05-01T16:28:55Z</time></trkpt><trkpt lat="42.55419793533555" lon="12.00921422893295"><ele>516.0</ele><time>2026-05-01T16:28:56Z</time></trkpt><trkpt lat="42.55415739395305" lon="12.009445610476067"><ele>516.0</ele><time>2026-05-01T16:28:57Z</time></trkpt><trkpt lat="42.554110807007575" lon="12.009693259869467"><ele>516.0</ele><time>2026-05-01T16:28:58Z</time></trkpt><trkpt lat="42.55405896762252" lon="12.009976461217699"><ele>516.0</ele><time>2026-05-01T16:28:59Z</time></trkpt><trkpt lat="42.55397914549204" lon="12.010208531040846"><ele>516.0</ele><time>2026-05-01T16:29:00Z</time></trkpt><trkpt lat="42.553875742003854" lon="12.010434016204302"><ele>516.6666666666666</ele><time>2026-05-01T16:29:01Z</time></trkpt><trkpt lat="42.553751382705215" lon="12.010627224065129"><ele>517.3333333333333</ele><time>2026-05-01T16:29:02Z</time></trkpt><trkpt lat="42.55359554263047" lon="12.010808902280349"><ele>518.0</ele><time>2026-05-01T16:29:03Z</time></trkpt><trkpt lat="42.553466311912196" lon="12.011016142683006"><ele>518.0</ele><time>2026-05-01T16:29:04Z</time></trkpt><trkpt lat="42.55338377477712" lon="12.01127890762344"><ele>518.0</ele><time>2026-05-01T16:29:05Z</time></trkpt><trkpt lat="42.553313176583465" lon="12.011602382663343"><ele>520.5</ele><time>2026-05-01T16:29:06Z</time></trkpt><trkpt lat="42.55325983106069" lon="12.01195402318894"><ele>523.0</ele><time>2026-05-01T16:29:07Z</time></trkpt><trkpt lat="42.55318457943606" lon="12.012275825948642"><ele>525.0</ele><time>2026-05-01T16:29:08Z</time></trkpt><trkpt lat="42.55308450510273" lon="12.01256234967868"><ele>527.0</ele><time>2026-05-01T16:29:09Z</time></trkpt><trkpt lat="42.55297440951875" lon="12.012827512205384"><ele>519.6666666666666</ele><time>2026-05-01T16:29:10Z</time></trkpt><trkpt lat="42.5528703608398" lon="12.013053930065244"><ele>512.3333333333334</ele><time>2026-05-01T16:29:11Z</time></trkpt><trkpt lat="42.55280676130325" lon="12.013271728961595"><ele>505.0</ele><time>2026-05-01T16:29:12Z</time></trkpt><trkpt lat="42.55278430446125" lon="12.013505071673436"><ele>505.0</ele><time>2026-05-01T16:29:13Z</time></trkpt><trkpt lat="42.55281442628651" lon="12.013760086791882"><ele>505.0</ele><time>2026-05-01T16:29:14Z</time></trkpt><trkpt lat="42.55288638711893" lon="12.014030117759823"><ele>505.0</ele><time>2026-05-01T16:29:15.001Z</time></trkpt><trkpt lat="42.55296348391283" lon="12.01425609936117"><ele>517.0</ele><time>2026-05-01T16:29:16.001Z</time></trkpt><trkpt lat="42.55301837045811" lon="12.014474980795894"><ele>529.0</ele><time>2026-05-01T16:29:17.001Z</time></trkpt><trkpt lat="42.5530300186204" lon="12.014708178388164"><ele>541.0</ele><time>2026-05-01T16:29:18.001Z</time></trkpt><trkpt lat="42.55300174549721" lon="12.014933243653559"><ele>540.75</ele><time>2026-05-01T16:29:19.001Z</time></trkpt><trkpt lat="42.5529544506421" lon="12.015132759077808"><ele>540.5</ele><time>2026-05-01T16:29:20.001Z</time></trkpt><trkpt lat="42.552909484378105" lon="12.015308286896108"><ele>540.25</ele><time>2026-05-01T16:29:21.001Z</time></trkpt><trkpt lat="42.5528771483534" lon="12.015474314214968"><ele>540.0</ele><time>2026-05-01T16:29:22.001Z</time></trkpt><trkpt lat="42.55284530670716" lon="12.015632531137996"><ele>533.5</ele><time>2026-05-01T16:29:23.001Z</time></trkpt><trkpt lat="42.55280913846407" lon="12.015779943180124"><ele>527.0</ele><time>2026-05-01T16:29:24.001Z</time></trkpt><trkpt lat="42.5527712950835" lon="12.015933282570394"><ele>520.5</ele><time>2026-05-01T16:29:25.001Z</time></trkpt><trkpt lat="42.55273126446582" lon="12.016078748232928"><ele>514.0</ele><time>2026-05-01T16:29:26.001Z</time></trkpt><trkpt lat="42.55268431965292" lon="12.016228943176394"><ele>514.0</ele><time>2026-05-01T16:29:27.001Z</time></trkpt><trkpt lat="42.55261660670343" lon="12.016363467234697"><ele>514.0</ele><time>2026-05-01T16:29:28.001Z</time></trkpt><trkpt lat="42.552536911251956" lon="12.016489897438133"><ele>514.0</ele><time>2026-05-01T16:29:29.001Z</time></trkpt><trkpt lat="42.552460811557516" lon="12.016630077361803"><ele>514.0</ele><time>2026-05-01T16:29:30.001Z</time></trkpt><trkpt lat="42.55240440327997" lon="12.016787599249563"><ele>516.75</ele><time>2026-05-01T16:29:31.001Z</time></trkpt><trkpt lat="42.55237973979049" lon="12.0169563826739"><ele>519.5</ele><time>2026-05-01T16:29:32.001Z</time></trkpt><trkpt lat="42.55239720206276" lon="12.017138923588075"><ele>522.25</ele><time>2026-05-01T16:29:33.001Z</time></trkpt><trkpt lat="42.55242856587278" lon="12.017344129562208"><ele>525.0</ele><time>2026-05-01T16:29:34.001Z</time></trkpt><trkpt lat="42.55248964743015" lon="12.017594526787748"><ele>525.0</ele><time>2026-05-01T16:29:35.001Z</time></trkpt><trkpt lat="42.55256629351911" lon="12.017842518710998"><ele>525.0</ele><time>2026-05-01T16:29:36.001Z</time></trkpt><trkpt lat="42.55262074251611" lon="12.01809277029825"><ele>525.0</ele><time>2026-05-01T16:29:37.001Z</time></trkpt><trkpt lat="42.55264869930807" lon="12.018320651919911"><ele>524.3333333333334</ele><time>2026-05-01T16:29:38.001Z</time></trkpt><trkpt lat="42.55265754732399" lon="12.018529196873313"><ele>523.6666666666667</ele><time>2026-05-01T16:29:39.001Z</time></trkpt><trkpt lat="42.55264834030091" lon="12.018735665332208"><ele>523.0</ele><time>2026-05-01T16:29:40.001Z</time></trkpt><trkpt lat="42.5525876897892" lon="12.018919256356698"><ele>523.0</ele><time>2026-05-01T16:29:41.001Z</time></trkpt><trkpt lat="42.55250320473489" lon="12.019083615192617"><ele>523.0</ele><time>2026-05-01T16:29:42.001Z</time></trkpt><trkpt lat="42.55239009927253" lon="12.019213834604374"><ele>523.0</ele><time>2026-05-01T16:29:43.001Z</time></trkpt><trkpt lat="42.55224425634015" lon="12.019308301686587"><ele>525.25</ele><time>2026-05-01T16:29:44.001Z</time></trkpt><trkpt lat="42.552101526675635" lon="12.019399376863484"><ele>527.5</ele><time>2026-05-01T16:29:45.001Z</time></trkpt><trkpt lat="42.551995114378" lon="12.019527497670351"><ele>529.75</ele><time>2026-05-01T16:29:46.001Z</time></trkpt><trkpt lat="42.55191710127372" lon="12.019686503343642"><ele>532.0</ele><time>2026-05-01T16:29:47.001Z</time></trkpt><trkpt lat="42.55188175795291" lon="12.019888032933164"><ele>536.0</ele><time>2026-05-01T16:29:48.001Z</time></trkpt><trkpt lat="42.55189603891828" lon="12.020121323185332"><ele>540.0</ele><time>2026-05-01T16:29:49.001Z</time></trkpt><trkpt lat="42.551973447776824" lon="12.020384044522457"><ele>544.0</ele><time>2026-05-01T16:29:50.001Z</time></trkpt><trkpt lat="42.55205947961626" lon="12.02066411211084"><ele>544.6666666666667</ele><time>2026-05-01T16:29:51.001Z</time></trkpt><trkpt lat="42.55212366541981" lon="12.020934167901745"><ele>545.3333333333334</ele><time>2026-05-01T16:29:52.001Z</time></trkpt><trkpt lat="42.55216314002312" lon="12.021212113860711"><ele>546.0</ele><time>2026-05-01T16:29:53.001Z</time></trkpt><trkpt lat="42.5521687106519" lon="12.021509499233774"><ele>544.3333333333334</ele><time>2026-05-01T16:29:54.001Z</time></trkpt><trkpt lat="42.552168679962726" lon="12.021801225656775"><ele>542.6666666666667</ele><time>2026-05-01T16:29:55.001Z</time></trkpt><trkpt lat="42.55216961310822" lon="12.022066239404698"><ele>541.0</ele><time>2026-05-01T16:29:56.001Z</time></trkpt><trkpt lat="42.55216158335442" lon="12.02231740168619"><ele>541.0</ele><time>2026-05-01T16:29:57.001Z</time></trkpt><trkpt lat="42.552124111772265" lon="12.0225595847716"><ele>541.0</ele><time>2026-05-01T16:29:58.001Z</time></trkpt><trkpt lat="42.552049513889294" lon="12.02279130893232"><ele>541.0</ele><time>2026-05-01T16:29:59.001Z</time></trkpt><trkpt lat="42.551949142901954" lon="12.023013116827695"><ele>537.3333333333334</ele><time>2026-05-01T16:30:00.001Z</time></trkpt><trkpt lat="42.551833935769906" lon="12.023228941068293"><ele>533.6666666666666</ele><time>2026-05-01T16:30:01.001Z</time></trkpt><trkpt lat="42.55172131378361" lon="12.023451122780546"><ele>530.0</ele><time>2026-05-01T16:30:02.001Z</time></trkpt><trkpt lat="42.55160838931922" lon="12.023674479540192"><ele>530.0</ele><time>2026-05-01T16:30:03.001Z</time></trkpt><trkpt lat="42.55149270753007" lon="12.023892739042916"><ele>530.0</ele><time>2026-05-01T16:30:04.001Z</time></trkpt><trkpt lat="42.55138679841591" lon="12.024092233317859"><ele>530.0</ele><time>2026-05-01T16:30:05.001Z</time></trkpt><trkpt lat="42.55126974882269" lon="12.024275904928095"><ele>528.3333333333333</ele><time>2026-05-01T16:30:06.001Z</time></trkpt><trkpt lat="42.55112817066463" lon="12.024434337884795"><ele>526.6666666666666</ele><time>2026-05-01T16:30:07.001Z</time></trkpt><trkpt lat="42.55096855186105" lon="12.02456301194278"><ele>525.0</ele><time>2026-05-01T16:30:08.001Z</time></trkpt><trkpt lat="42.55081578325978" lon="12.024671529978914"><ele>525.0</ele><time>2026-05-01T16:30:09.001Z</time></trkpt><trkpt lat="42.550676744996395" lon="12.024773270631874"><ele>525.0</ele><time>2026-05-01T16:30:10.001Z</time></trkpt><trkpt lat="42.55054561404063" lon="12.024900707388746"><ele>525.0</ele><time>2026-05-01T16:30:11.001Z</time></trkpt><trkpt lat="42.55044750296809" lon="12.025041069942976"><ele>524.3333333333334</ele><time>2026-05-01T16:30:12.001Z</time></trkpt><trkpt lat="42.55039604414156" lon="12.025228683820098"><ele>523.6666666666667</ele><time>2026-05-01T16:30:13.001Z</time></trkpt><trkpt lat="42.55036871201606" lon="12.025436559784215"><ele>523.0</ele><time>2026-05-01T16:30:14.001Z</time></trkpt><trkpt lat="42.55036318656838" lon="12.025642190091947"><ele>525.0</ele><time>2026-05-01T16:30:15.001Z</time></trkpt><trkpt lat="42.55035896309459" lon="12.025850274842103"><ele>527.0</ele><time>2026-05-01T16:30:16.001Z</time></trkpt><trkpt lat="42.55035060498481" lon="12.026056220361511"><ele>529.0</ele><time>2026-05-01T16:30:17.001Z</time></trkpt><trkpt lat="42.55033969345259" lon="12.026258871436124"><ele>529.0</ele><time>2026-05-01T16:30:18.001Z</time></trkpt><trkpt lat="42.55032661497312" lon="12.026459845734216"><ele>529.0</ele><time>2026-05-01T16:30:19.001Z</time></trkpt><trkpt lat="42.55031966530095" lon="12.02665809219669"><ele>529.0</ele><time>2026-05-01T16:30:20.001Z</time></trkpt><trkpt lat="42.55032087090324" lon="12.026853009514646"><ele>529.0</ele><time>2026-05-01T16:30:21.001Z</time></trkpt><trkpt lat="42.55034105380356" lon="12.027032648658476"><ele>530.25</ele><time>2026-05-01T16:30:22.001Z</time></trkpt><trkpt lat="42.55037666287467" lon="12.027199641400234"><ele>531.5</ele><time>2026-05-01T16:30:23.001Z</time></trkpt><trkpt lat="42.5504239616027" lon="12.027348158782052"><ele>532.75</ele><time>2026-05-01T16:30:24.001Z</time></trkpt><trkpt lat="42.55047706879458" lon="12.027491451191354"><ele>534.0</ele><time>2026-05-01T16:30:25.001Z</time></trkpt><trkpt lat="42.55053745366422" lon="12.027616145257156"><ele>534.0</ele><time>2026-05-01T16:30:26.001Z</time></trkpt><trkpt lat="42.55059116683306" lon="12.027729525132285"><ele>534.0</ele><time>2026-05-01T16:30:27.001Z</time></trkpt><trkpt lat="42.55063772548774" lon="12.027835791912885"><ele>534.0</ele><time>2026-05-01T16:30:28.001Z</time></trkpt><trkpt lat="42.55067507520529" lon="12.027942304959396"><ele>534.0</ele><time>2026-05-01T16:30:29.001Z</time></trkpt><trkpt lat="42.550695373057884" lon="12.028065293089696"><ele>534.0</ele><time>2026-05-01T16:30:30.001Z</time></trkpt><trkpt lat="42.55068358888586" lon="12.028199673769478"><ele>533.4</ele><time>2026-05-01T16:30:31.001Z</time></trkpt><trkpt lat="42.55063823498768" lon="12.028315293650055"><ele>532.8</ele><time>2026-05-01T16:30:32.001Z</time></trkpt><trkpt lat="42.55057121013647" lon="12.028403696114271"><ele>532.2</ele><time>2026-05-01T16:30:33.001Z</time></trkpt><trkpt lat="42.55048709315584" lon="12.02848567054419"><ele>531.6</ele><time>2026-05-01T16:30:34.001Z</time></trkpt><trkpt lat="42.55039770287371" lon="12.028555959817645"><ele>531.0</ele><time>2026-05-01T16:30:35.001Z</time></trkpt><trkpt lat="42.55031456670474" lon="12.02861880280556"><ele>531.0</ele><time>2026-05-01T16:30:36.001Z</time></trkpt><trkpt lat="42.55022768067408" lon="12.028682002149196"><ele>531.0</ele><time>2026-05-01T16:30:37.001Z</time></trkpt><trkpt lat="42.5501392287432" lon="12.02874493815856"><ele>531.0</ele><time>2026-05-01T16:30:38.001Z</time></trkpt><trkpt lat="42.55005759280625" lon="12.028804092172312"><ele>531.0</ele><time>2026-05-01T16:30:39.001Z</time></trkpt><trkpt lat="42.549974703168466" lon="12.028864221796125"><ele>531.0</ele><time>2026-05-01T16:30:40.001Z</time></trkpt><trkpt lat="42.549894325775924" lon="12.028925370129778"><ele>531.0</ele><time>2026-05-01T16:30:41.001Z</time></trkpt><trkpt lat="42.549827779479614" lon="12.028978712052602"><ele>531.0</ele><time>2026-05-01T16:30:42.001Z</time></trkpt><trkpt lat="42.54973904126191" lon="12.029045527139612"><ele>531.0</ele><time>2026-05-01T16:30:44.001Z</time></trkpt><trkpt lat="42.54965452905624" lon="12.029107368188857"><ele>531.0</ele><time>2026-05-01T16:30:46.001Z</time></trkpt><trkpt lat="42.5495390299571" lon="12.02919474679495"><ele>531.0</ele><time>2026-05-01T16:30:48.001Z</time></trkpt><trkpt lat="42.54947096886286" lon="12.029246711608163"><ele>531.0</ele><time>2026-05-01T16:30:49.001Z</time></trkpt><trkpt lat="42.5493994590814" lon="12.029309256495015"><ele>531.0</ele><time>2026-05-01T16:30:50.001Z</time></trkpt><trkpt lat="42.54933582763289" lon="12.029366858494042"><ele>531.0</ele><time>2026-05-01T16:30:51.001Z</time></trkpt><trkpt lat="42.54927046840332" lon="12.029429576127827"><ele>531.0</ele><time>2026-05-01T16:30:52.001Z</time></trkpt><trkpt lat="42.54920477122434" lon="12.029492546394069"><ele>531.0</ele><time>2026-05-01T16:30:53.001Z</time></trkpt><trkpt lat="42.549140998788225" lon="12.029549873762742"><ele>531.0</ele><time>2026-05-01T16:30:54.001Z</time></trkpt><trkpt lat="42.54907533402706" lon="12.029616437415115"><ele>531.0</ele><time>2026-05-01T16:30:55Z</time></trkpt><trkpt lat="42.549005745608326" lon="12.029686137643996"><ele>531.0</ele><time>2026-05-01T16:30:56Z</time></trkpt><trkpt lat="42.548934850089" lon="12.029751259892754"><ele>531.0</ele><time>2026-05-01T16:30:57Z</time></trkpt><trkpt lat="42.54886603229642" lon="12.029819230395923"><ele>531.0</ele><time>2026-05-01T16:30:58Z</time></trkpt><trkpt lat="42.54879469052741" lon="12.029895737582677"><ele>531.0</ele><time>2026-05-01T16:30:59Z</time></trkpt><trkpt lat="42.548730936366965" lon="12.029975099531134"><ele>531.0</ele><time>2026-05-01T16:31:00Z</time></trkpt><trkpt lat="42.548689015241045" lon="12.030058494887726"><ele>531.5</ele><time>2026-05-01T16:31:01Z</time></trkpt><trkpt lat="42.548678417193" lon="12.030252105733721"><ele>532.0</ele><time>2026-05-01T16:31:03Z</time></trkpt><trkpt lat="42.548716620869214" lon="12.030372218155586"><ele>532.5</ele><time>2026-05-01T16:31:04Z</time></trkpt><trkpt lat="42.54877737064549" lon="12.030491005797646"><ele>533.0</ele><time>2026-05-01T16:31:05Z</time></trkpt><trkpt lat="42.5488345438991" lon="12.030628096150613"><ele>533.0</ele><time>2026-05-01T16:31:06Z</time></trkpt><trkpt lat="42.54887726296887" lon="12.030785097211247"><ele>533.0</ele><time>2026-05-01T16:31:07Z</time></trkpt><trkpt lat="42.54890373587806" lon="12.030978474484119"><ele>533.0</ele><time>2026-05-01T16:31:08Z</time></trkpt><trkpt lat="42.54892640617267" lon="12.031185559169604"><ele>533.0</ele><time>2026-05-01T16:31:09Z</time></trkpt><trkpt lat="42.548890123032855" lon="12.031411216837272"><ele>534.3333333333333</ele><time>2026-05-01T16:31:10Z</time></trkpt><trkpt lat="42.54884658300395" lon="12.031624420040483"><ele>535.6666666666666</ele><time>2026-05-01T16:31:11Z</time></trkpt><trkpt lat="42.548782642917445" lon="12.031843269368556"><ele>537.0</ele><time>2026-05-01T16:31:12Z</time></trkpt><trkpt lat="42.54870208649799" lon="12.032061840109524"><ele>542.6666666666666</ele><time>2026-05-01T16:31:13Z</time></trkpt><trkpt lat="42.54860791879029" lon="12.03227563165424"><ele>548.3333333333333</ele><time>2026-05-01T16:31:14Z</time></trkpt><trkpt lat="42.54850800722457" lon="12.032476362486113"><ele>554.0</ele><time>2026-05-01T16:31:15Z</time></trkpt><trkpt lat="42.548409610776595" lon="12.032665447125579"><ele>554.5</ele><time>2026-05-01T16:31:16Z</time></trkpt><trkpt lat="42.54831995368482" lon="12.032832335561356"><ele>555.0</ele><time>2026-05-01T16:31:17Z</time></trkpt><trkpt lat="42.54823273663578" lon="12.03297759210645"><ele>555.5</ele><time>2026-05-01T16:31:18Z</time></trkpt><trkpt lat="42.548153256009265" lon="12.033102081875873"><ele>556.0</ele><time>2026-05-01T16:31:19Z</time></trkpt><trkpt lat="42.548084252898136" lon="12.033205468276403"><ele>556.0</ele><time>2026-05-01T16:31:20Z</time></trkpt><trkpt lat="42.548009043670916" lon="12.033292860614678"><ele>556.0</ele><time>2026-05-01T16:31:21Z</time></trkpt><trkpt lat="42.54792369606085" lon="12.033372342929367"><ele>556.0</ele><time>2026-05-01T16:31:22.001Z</time></trkpt><trkpt lat="42.54783608618185" lon="12.033453208552823"><ele>556.0</ele><time>2026-05-01T16:31:23.001Z</time></trkpt><trkpt lat="42.54774976686605" lon="12.033530508130632"><ele>556.0</ele><time>2026-05-01T16:31:24.001Z</time></trkpt><trkpt lat="42.54765953677534" lon="12.033607199039729"><ele>556.25</ele><time>2026-05-01T16:31:25.001Z</time></trkpt><trkpt lat="42.54755894337189" lon="12.033692643382514"><ele>556.5</ele><time>2026-05-01T16:31:26.001Z</time></trkpt><trkpt lat="42.54745061619049" lon="12.033780775155785"><ele>556.75</ele><time>2026-05-01T16:31:27.001Z</time></trkpt><trkpt lat="42.547335276689125" lon="12.033868640378447"><ele>557.0</ele><time>2026-05-01T16:31:28.001Z</time></trkpt><trkpt lat="42.54721234310661" lon="12.033962177221435"><ele>557.0</ele><time>2026-05-01T16:31:29.001Z</time></trkpt><trkpt lat="42.5470866808393" lon="12.034054366169373"><ele>557.0</ele><time>2026-05-01T16:31:30.001Z</time></trkpt><trkpt lat="42.5469622517119" lon="12.034141251089448"><ele>557.0</ele><time>2026-05-01T16:31:31.001Z</time></trkpt><trkpt lat="42.54683671228001" lon="12.034223690158798"><ele>557.0</ele><time>2026-05-01T16:31:32.001Z</time></trkpt><trkpt lat="42.546710874318435" lon="12.034296262855941"><ele>557.25</ele><time>2026-05-01T16:31:33.001Z</time></trkpt><trkpt lat="42.54658326428466" lon="12.034368164991465"><ele>557.5</ele><time>2026-05-01T16:31:34.001Z</time></trkpt><trkpt lat="42.5464561727981" lon="12.034438248723157"><ele>557.75</ele><time>2026-05-01T16:31:35.001Z</time></trkpt><trkpt lat="42.5463249933134" lon="12.034499309679417"><ele>558.0</ele><time>2026-05-01T16:31:36.001Z</time></trkpt><trkpt lat="42.546189496035474" lon="12.03455932239453"><ele>558.0</ele><time>2026-05-01T16:31:37.001Z</time></trkpt><trkpt lat="42.546052737056804" lon="12.034618754850724"><ele>558.0</ele><time>2026-05-01T16:31:38.001Z</time></trkpt><trkpt lat="42.54591255751852" lon="12.034678961674652"><ele>558.0</ele><time>2026-05-01T16:31:39.001Z</time></trkpt><trkpt lat="42.54577161086977" lon="12.034739835688674"><ele>558.0</ele><time>2026-05-01T16:31:40.001Z</time></trkpt><trkpt lat="42.545635498810505" lon="12.034802728794363"><ele>558.0</ele><time>2026-05-01T16:31:41.001Z</time></trkpt><trkpt lat="42.54550231051974" lon="12.03485976615307"><ele>558.0</ele><time>2026-05-01T16:31:42.001Z</time></trkpt><trkpt lat="42.54537737782328" lon="12.034907304247639"><ele>558.0</ele><time>2026-05-01T16:31:43.001Z</time></trkpt><trkpt lat="42.545253837107694" lon="12.03494881761509"><ele>558.0</ele><time>2026-05-01T16:31:44.001Z</time></trkpt><trkpt lat="42.54512651917013" lon="12.034988819778478"><ele>555.8</ele><time>2026-05-01T16:31:45.001Z</time></trkpt><trkpt lat="42.545010493945846" lon="12.035026274146832"><ele>553.5999999999999</ele><time>2026-05-01T16:31:46.001Z</time></trkpt><trkpt lat="42.54490804526035" lon="12.035066073622174"><ele>551.4000000000001</ele><time>2026-05-01T16:31:47.001Z</time></trkpt><trkpt lat="42.544820009730124" lon="12.035112545368445"><ele>549.2</ele><time>2026-05-01T16:31:48.001Z</time></trkpt><trkpt lat="42.544743797153735" lon="12.035174604357623"><ele>547.0</ele><time>2026-05-01T16:31:49.001Z</time></trkpt><trkpt lat="42.54469458444398" lon="12.035284213458631"><ele>547.0</ele><time>2026-05-01T16:31:50.001Z</time></trkpt><trkpt lat="42.54467797480626" lon="12.035421975560368"><ele>547.0</ele><time>2026-05-01T16:31:51.001Z</time></trkpt><trkpt lat="42.54467561142427" lon="12.035588703683114"><ele>547.0</ele><time>2026-05-01T16:31:52.001Z</time></trkpt><trkpt lat="42.54467767391625" lon="12.035770937919425"><ele>547.0</ele><time>2026-05-01T16:31:53.001Z</time></trkpt><trkpt lat="42.54467509150471" lon="12.035951788539656"><ele>546.0</ele><time>2026-05-01T16:31:54.001Z</time></trkpt><trkpt lat="42.54466122260262" lon="12.036143683225465"><ele>545.0</ele><time>2026-05-01T16:31:55.001Z</time></trkpt><trkpt lat="42.54462990840429" lon="12.036345205326631"><ele>544.0</ele><time>2026-05-01T16:31:56.001Z</time></trkpt><trkpt lat="42.54457508134437" lon="12.03654884632436"><ele>541.75</ele><time>2026-05-01T16:31:57.001Z</time></trkpt><trkpt lat="42.54452247727223" lon="12.036733023440691"><ele>539.5</ele><time>2026-05-01T16:31:58.001Z</time></trkpt><trkpt lat="42.54446544009114" lon="12.036915763975092"><ele>537.25</ele><time>2026-05-01T16:31:59.001Z</time></trkpt><trkpt lat="42.544412676130214" lon="12.037080888567314"><ele>535.0</ele><time>2026-05-01T16:32:00.001Z</time></trkpt><trkpt lat="42.544359260650175" lon="12.037242832253371"><ele>535.0</ele><time>2026-05-01T16:32:01.001Z</time></trkpt><trkpt lat="42.54430281941865" lon="12.037394217631814"><ele>535.0</ele><time>2026-05-01T16:32:02.001Z</time></trkpt><trkpt lat="42.54424202296361" lon="12.03753857555976"><ele>535.0</ele><time>2026-05-01T16:32:03.001Z</time></trkpt><trkpt lat="42.544176026663415" lon="12.037664420811556"><ele>535.0</ele><time>2026-05-01T16:32:04.001Z</time></trkpt><trkpt lat="42.5441053473773" lon="12.037769989026712"><ele>534.8</ele><time>2026-05-01T16:32:05.001Z</time></trkpt><trkpt lat="42.54402105323778" lon="12.037851246798944"><ele>534.6</ele><time>2026-05-01T16:32:06.001Z</time></trkpt><trkpt lat="42.54392904344217" lon="12.037910938097703"><ele>534.4</ele><time>2026-05-01T16:32:07.001Z</time></trkpt><trkpt lat="42.54383233054807" lon="12.037944041893601"><ele>534.2</ele><time>2026-05-01T16:32:08.001Z</time></trkpt><trkpt lat="42.54372362197185" lon="12.037962062744098"><ele>534.0</ele><time>2026-05-01T16:32:09.001Z</time></trkpt><trkpt lat="42.54361529506302" lon="12.038018115145732"><ele>534.0</ele><time>2026-05-01T16:32:10.001Z</time></trkpt><trkpt lat="42.543487870676465" lon="12.037956833845287"><ele>534.0</ele><time>2026-05-01T16:32:11.001Z</time></trkpt><trkpt lat="42.54336195669684" lon="12.037909514744685"><ele>534.0</ele><time>2026-05-01T16:32:12.001Z</time></trkpt><trkpt lat="42.54324120676671" lon="12.037836046727412"><ele>534.0</ele><time>2026-05-01T16:32:13.001Z</time></trkpt><trkpt lat="42.54313743284647" lon="12.03770964767804"><ele>534.0</ele><time>2026-05-01T16:32:14.001Z</time></trkpt><trkpt lat="42.54305907624668" lon="12.037545966430677"><ele>534.0</ele><time>2026-05-01T16:32:15.001Z</time></trkpt><trkpt lat="42.542998994116196" lon="12.037368433049606"><ele>534.0</ele><time>2026-05-01T16:32:16.001Z</time></trkpt><trkpt lat="42.54294290678477" lon="12.037196779562288"><ele>534.0</ele><time>2026-05-01T16:32:17.001Z</time></trkpt><trkpt lat="42.542881206987914" lon="12.03703936701514"><ele>534.0</ele><time>2026-05-01T16:32:18.001Z</time></trkpt><trkpt lat="42.5428128557264" lon="12.03689950225421"><ele>534.0</ele><time>2026-05-01T16:32:19.001Z</time></trkpt><trkpt lat="42.54273392745389" lon="12.03677965099751"><ele>534.0</ele><time>2026-05-01T16:32:20.001Z</time></trkpt><trkpt lat="42.5426495975473" lon="12.036651245055241"><ele>534.0</ele><time>2026-05-01T16:32:21.001Z</time></trkpt><trkpt lat="42.54253341065882" lon="12.036573732382314"><ele>534.75</ele><time>2026-05-01T16:32:22.001Z</time></trkpt><trkpt lat="42.542412823593516" lon="12.036497857678052"><ele>535.5</ele><time>2026-05-01T16:32:23.001Z</time></trkpt><trkpt lat="42.542299402224266" lon="12.03641832423645"><ele>536.25</ele><time>2026-05-01T16:32:24.001Z</time></trkpt><trkpt lat="42.54217327144519" lon="12.036351244698096"><ele>537.0</ele><time>2026-05-01T16:32:25.001Z</time></trkpt><trkpt lat="42.54204749005358" lon="12.036277159928375"><ele>538.25</ele><time>2026-05-01T16:32:26.001Z</time></trkpt><trkpt lat="42.54192473619449" lon="12.036204719345902"><ele>539.5</ele><time>2026-05-01T16:32:27.001Z</time></trkpt><trkpt lat="42.5418094030636" lon="12.036153332406412"><ele>540.75</ele><time>2026-05-01T16:32:28.001Z</time></trkpt><trkpt lat="42.54170306608322" lon="12.036106087977293"><ele>542.0</ele><time>2026-05-01T16:32:29.001Z</time></trkpt><trkpt lat="42.54160426654518" lon="12.036073743343929"><ele>542.0</ele><time>2026-05-01T16:32:30.001Z</time></trkpt><trkpt lat="42.54150569355863" lon="12.036032183247677"><ele>542.0</ele><time>2026-05-01T16:32:31.001Z</time></trkpt><trkpt lat="42.54140648575974" lon="12.03599531492038"><ele>542.0</ele><time>2026-05-01T16:32:32.001Z</time></trkpt><trkpt lat="42.541301656086084" lon="12.035967404438685"><ele>542.0</ele><time>2026-05-01T16:32:33.001Z</time></trkpt><trkpt lat="42.54118956224991" lon="12.035938932155384"><ele>542.0</ele><time>2026-05-01T16:32:34.001Z</time></trkpt><trkpt lat="42.541080324239815" lon="12.03590877469533"><ele>545.0</ele><time>2026-05-01T16:32:35.001Z</time></trkpt><trkpt lat="42.54096930250873" lon="12.035888854348519"><ele>548.0</ele><time>2026-05-01T16:32:36.001Z</time></trkpt><trkpt lat="42.540855985928324" lon="12.035868125663296"><ele>551.0</ele><time>2026-05-01T16:32:37.001Z</time></trkpt><trkpt lat="42.54074592997801" lon="12.035852631214011"><ele>554.0</ele><time>2026-05-01T16:32:38.001Z</time></trkpt><trkpt lat="42.54063208134729" lon="12.035846542752918"><ele>554.0</ele><time>2026-05-01T16:32:39.001Z</time></trkpt><trkpt lat="42.54051717291568" lon="12.03583494752142"><ele>554.0</ele><time>2026-05-01T16:32:40.001Z</time></trkpt><trkpt lat="42.54040420879418" lon="12.035818855558686"><ele>554.0</ele><time>2026-05-01T16:32:41.001Z</time></trkpt><trkpt lat="42.54028864063859" lon="12.035800098071721"><ele>554.0</ele><time>2026-05-01T16:32:42.001Z</time></trkpt><trkpt lat="42.54017338359593" lon="12.035782295896169"><ele>555.75</ele><time>2026-05-01T16:32:43.001Z</time></trkpt><trkpt lat="42.540053388113385" lon="12.035759518901026"><ele>557.5</ele><time>2026-05-01T16:32:44.001Z</time></trkpt><trkpt lat="42.53993196187215" lon="12.035734829192947"><ele>559.25</ele><time>2026-05-01T16:32:45.001Z</time></trkpt><trkpt lat="42.53981472915293" lon="12.035706126343667"><ele>561.0</ele><time>2026-05-01T16:32:46.001Z</time></trkpt><trkpt lat="42.539679592240255" lon="12.035671919051214"><ele>560.25</ele><time>2026-05-01T16:32:47.001Z</time></trkpt><trkpt lat="42.53954667598606" lon="12.03563559654759"><ele>559.5</ele><time>2026-05-01T16:32:48.001Z</time></trkpt><trkpt lat="42.53940331754212" lon="12.03558697093575"><ele>558.75</ele><time>2026-05-01T16:32:49.001Z</time></trkpt><trkpt lat="42.539257801804965" lon="12.035537003417664"><ele>558.0</ele><time>2026-05-01T16:32:50.001Z</time></trkpt><trkpt lat="42.53913961577798" lon="12.035483770222488"><ele>558.0</ele><time>2026-05-01T16:32:51.001Z</time></trkpt><trkpt lat="42.53904245184142" lon="12.035423735432136"><ele>558.0</ele><time>2026-05-01T16:32:52Z</time></trkpt><trkpt lat="42.538962393789795" lon="12.035371500295607"><ele>558.0</ele><time>2026-05-01T16:32:53Z</time></trkpt><trkpt lat="42.53887389800217" lon="12.035358643723757"><ele>558.0</ele><time>2026-05-01T16:32:54.001Z</time></trkpt><trkpt lat="42.53878358742046" lon="12.03536067656179"><ele>558.0</ele><time>2026-05-01T16:32:55Z</time></trkpt><trkpt lat="42.53870283589736" lon="12.035382950303122"><ele>556.6</ele><time>2026-05-01T16:32:56Z</time></trkpt><trkpt lat="42.538627551517116" lon="12.035438354336064"><ele>555.1999999999999</ele><time>2026-05-01T16:32:57Z</time></trkpt><trkpt lat="42.53855508555284" lon="12.035520164189611"><ele>553.8</ele><time>2026-05-01T16:32:58Z</time></trkpt><trkpt lat="42.53849428716794" lon="12.03561239587144"><ele>552.4</ele><time>2026-05-01T16:32:59Z</time></trkpt><trkpt lat="42.538435606949534" lon="12.035705524510485"><ele>551.0</ele><time>2026-05-01T16:33:00Z</time></trkpt><trkpt lat="42.5383770606469" lon="12.035796346600808"><ele>550.2</ele><time>2026-05-01T16:33:01Z</time></trkpt><trkpt lat="42.53831492990826" lon="12.035890302805797"><ele>549.4000000000001</ele><time>2026-05-01T16:33:02Z</time></trkpt><trkpt lat="42.538253556477905" lon="12.035984502589628"><ele>548.6</ele><time>2026-05-01T16:33:03Z</time></trkpt><trkpt lat="42.53818270740453" lon="12.036083912568419"><ele>547.8000000000001</ele><time>2026-05-01T16:33:04Z</time></trkpt><trkpt lat="42.5381078008156" lon="12.036187640603032"><ele>547.0</ele><time>2026-05-01T16:33:05Z</time></trkpt><trkpt lat="42.53802776362526" lon="12.03629719790578"><ele>547.0</ele><time>2026-05-01T16:33:06Z</time></trkpt><trkpt lat="42.5379471766069" lon="12.036409151212789"><ele>547.0</ele><time>2026-05-01T16:33:07Z</time></trkpt><trkpt lat="42.53786170754798" lon="12.03652883993492"><ele>547.0</ele><time>2026-05-01T16:33:08Z</time></trkpt><trkpt lat="42.537779126534794" lon="12.036644734826734"><ele>547.0</ele><time>2026-05-01T16:33:09Z</time></trkpt><trkpt lat="42.53770255254283" lon="12.036752907448475"><ele>546.25</ele><time>2026-05-01T16:33:10Z</time></trkpt><trkpt lat="42.53762740766037" lon="12.036854060245647"><ele>545.5</ele><time>2026-05-01T16:33:11Z</time></trkpt><trkpt lat="42.53754900153001" lon="12.036969153797523"><ele>544.75</ele><time>2026-05-01T16:33:12Z</time></trkpt><trkpt lat="42.53746205741162" lon="12.037102931359758"><ele>544.0</ele><time>2026-05-01T16:33:13Z</time></trkpt><trkpt lat="42.53736007583554" lon="12.037255907005179"><ele>544.0</ele><time>2026-05-01T16:33:14Z</time></trkpt><trkpt lat="42.53724753560075" lon="12.037423444899588"><ele>544.0</ele><time>2026-05-01T16:33:15Z</time></trkpt><trkpt lat="42.53710161893718" lon="12.037582997771318"><ele>544.0</ele><time>2026-05-01T16:33:16Z</time></trkpt><trkpt lat="42.53697071182944" lon="12.037784091599573"><ele>542.6666666666667</ele><time>2026-05-01T16:33:17Z</time></trkpt><trkpt lat="42.53682321472765" lon="12.037968109179268"><ele>541.3333333333334</ele><time>2026-05-01T16:33:18Z</time></trkpt><trkpt lat="42.536678790736055" lon="12.038157486587819"><ele>540.0</ele><time>2026-05-01T16:33:19Z</time></trkpt><trkpt lat="42.53653476182483" lon="12.038352776094293"><ele>540.0</ele><time>2026-05-01T16:33:20Z</time></trkpt><trkpt lat="42.53638560213472" lon="12.038549112279751"><ele>540.0</ele><time>2026-05-01T16:33:21Z</time></trkpt><trkpt lat="42.536227386878664" lon="12.038749716019327"><ele>540.0</ele><time>2026-05-01T16:33:22Z</time></trkpt><trkpt lat="42.53606209065311" lon="12.038945611571778"><ele>538.0</ele><time>2026-05-01T16:33:23Z</time></trkpt><trkpt lat="42.53589231650923" lon="12.03914387531356"><ele>536.0</ele><time>2026-05-01T16:33:24Z</time></trkpt><trkpt lat="42.53571951764178" lon="12.039356138947387"><ele>536.0</ele><time>2026-05-01T16:33:25Z</time></trkpt><trkpt lat="42.535551367883414" lon="12.03955496829939"><ele>536.0</ele><time>2026-05-01T16:33:26Z</time></trkpt><trkpt lat="42.535393447166946" lon="12.039758165078355"><ele>536.0</ele><time>2026-05-01T16:33:27Z</time></trkpt><trkpt lat="42.53523445721541" lon="12.039955312310669"><ele>534.0</ele><time>2026-05-01T16:33:28Z</time></trkpt><trkpt lat="42.53508621534681" lon="12.040153793675245"><ele>532.0</ele><time>2026-05-01T16:33:29Z</time></trkpt><trkpt lat="42.53494341295289" lon="12.040351233790654"><ele>530.0</ele><time>2026-05-01T16:33:30Z</time></trkpt><trkpt lat="42.53481515816455" lon="12.040542812126352"><ele>530.0</ele><time>2026-05-01T16:33:31Z</time></trkpt><trkpt lat="42.53469350721925" lon="12.04073234040167"><ele>530.0</ele><time>2026-05-01T16:33:32Z</time></trkpt><trkpt lat="42.53458276758507" lon="12.040917605566724"><ele>530.0</ele><time>2026-05-01T16:33:33Z</time></trkpt><trkpt lat="42.53448505691504" lon="12.041090271008901"><ele>528.0</ele><time>2026-05-01T16:33:34Z</time></trkpt><trkpt lat="42.53439384274985" lon="12.041267393630493"><ele>526.0</ele><time>2026-05-01T16:33:35Z</time></trkpt><trkpt lat="42.53430956397831" lon="12.041440933104962"><ele>524.0</ele><time>2026-05-01T16:33:36Z</time></trkpt><trkpt lat="42.53423219914256" lon="12.041598833490163"><ele>522.75</ele><time>2026-05-01T16:33:37Z</time></trkpt><trkpt lat="42.53415888643842" lon="12.041759958609255"><ele>521.5</ele><time>2026-05-01T16:33:38.001Z</time></trkpt><trkpt lat="42.53408227765952" lon="12.041932687553263"><ele>520.25</ele><time>2026-05-01T16:33:39.001Z</time></trkpt><trkpt lat="42.53399486563576" lon="12.042108233144779"><ele>519.0</ele><time>2026-05-01T16:33:40.001Z</time></trkpt><trkpt lat="42.53390821519815" lon="12.042273333346307"><ele>519.0</ele><time>2026-05-01T16:33:41.001Z</time></trkpt><trkpt lat="42.53382313490287" lon="12.042433903105344"><ele>519.0</ele><time>2026-05-01T16:33:42.001Z</time></trkpt><trkpt lat="42.53373665032566" lon="12.042588368333535"><ele>519.0</ele><time>2026-05-01T16:33:43.001Z</time></trkpt><trkpt lat="42.53365151737608" lon="12.042741930443839"><ele>519.0</ele><time>2026-05-01T16:33:44.001Z</time></trkpt><trkpt lat="42.53355542849146" lon="12.042899176774878"><ele>516.3333333333334</ele><time>2026-05-01T16:33:45.001Z</time></trkpt><trkpt lat="42.53345269633669" lon="12.043083299134704"><ele>513.6666666666667</ele><time>2026-05-01T16:33:46.001Z</time></trkpt><trkpt lat="42.53334700542787" lon="12.04329446195206"><ele>511.0</ele><time>2026-05-01T16:33:47.001Z</time></trkpt><trkpt lat="42.5332175580127" lon="12.043496687727599"><ele>511.0</ele><time>2026-05-01T16:33:48.001Z</time></trkpt><trkpt lat="42.5331001802232" lon="12.043724846543787"><ele>511.0</ele><time>2026-05-01T16:33:49.001Z</time></trkpt><trkpt lat="42.53295960366907" lon="12.043935402030094"><ele>511.0</ele><time>2026-05-01T16:33:50.001Z</time></trkpt><trkpt lat="42.53283157342716" lon="12.044133284986172"><ele>508.0</ele><time>2026-05-01T16:33:51.001Z</time></trkpt><trkpt lat="42.53271442041945" lon="12.044331817238211"><ele>505.0</ele><time>2026-05-01T16:33:52.001Z</time></trkpt><trkpt lat="42.53261583123448" lon="12.04453877191101"><ele>502.0</ele><time>2026-05-01T16:33:53.001Z</time></trkpt><trkpt lat="42.532540600711215" lon="12.044751978631616"><ele>501.6666666666667</ele><time>2026-05-01T16:33:54.001Z</time></trkpt><trkpt lat="42.53248722534496" lon="12.044974126617566"><ele>501.33333333333337</ele><time>2026-05-01T16:33:55.001Z</time></trkpt><trkpt lat="42.53244607960019" lon="12.045200855842058"><ele>501.0</ele><time>2026-05-01T16:33:56.001Z</time></trkpt><trkpt lat="42.532404429267174" lon="12.045415972869764"><ele>501.0</ele><time>2026-05-01T16:33:57.001Z</time></trkpt><trkpt lat="42.53236202705661" lon="12.045622261588923"><ele>501.0</ele><time>2026-05-01T16:33:58.001Z</time></trkpt><trkpt lat="42.532324503509315" lon="12.045830731344038"><ele>501.0</ele><time>2026-05-01T16:33:59.001Z</time></trkpt><trkpt lat="42.532286503862736" lon="12.046027866668485"><ele>500.0</ele><time>2026-05-01T16:34:00.001Z</time></trkpt><trkpt lat="42.53225079869659" lon="12.046218955762807"><ele>499.0</ele><time>2026-05-01T16:34:01.001Z</time></trkpt><trkpt lat="42.53221562093494" lon="12.046381682008457"><ele>498.0</ele><time>2026-05-01T16:34:02.001Z</time></trkpt><trkpt lat="42.53218269332436" lon="12.046533451840732"><ele>497.0</ele><time>2026-05-01T16:34:03.001Z</time></trkpt><trkpt lat="42.53215431522003" lon="12.046680596615928"><ele>496.0</ele><time>2026-05-01T16:34:04.001Z</time></trkpt><trkpt lat="42.53212831419963" lon="12.046819261954765"><ele>495.00000000000006</ele><time>2026-05-01T16:34:05.001Z</time></trkpt><trkpt lat="42.532097756849566" lon="12.04695920901943"><ele>494.00000000000006</ele><time>2026-05-01T16:34:06.001Z</time></trkpt><trkpt lat="42.532061584269634" lon="12.047097371843767"><ele>493.0</ele><time>2026-05-01T16:34:07.001Z</time></trkpt><trkpt lat="42.53202193186201" lon="12.047224429025187"><ele>492.0</ele><time>2026-05-01T16:34:08.001Z</time></trkpt><trkpt lat="42.531972351823775" lon="12.047352619058575"><ele>491.0</ele><time>2026-05-01T16:34:09.001Z</time></trkpt><trkpt lat="42.531924482851494" lon="12.0474848304206"><ele>490.00000000000006</ele><time>2026-05-01T16:34:10.001Z</time></trkpt><trkpt lat="42.531877002891214" lon="12.047619229012971"><ele>489.00000000000006</ele><time>2026-05-01T16:34:11.001Z</time></trkpt><trkpt lat="42.53183167751405" lon="12.047758490731352"><ele>488.0</ele><time>2026-05-01T16:34:12.001Z</time></trkpt><trkpt lat="42.53178914074043" lon="12.047904588518795"><ele>487.0</ele><time>2026-05-01T16:34:13.001Z</time></trkpt><trkpt lat="42.53174986186442" lon="12.048038875113496"><ele>487.0</ele><time>2026-05-01T16:34:14.001Z</time></trkpt><trkpt lat="42.53171776054696" lon="12.048170940532199"><ele>487.0</ele><time>2026-05-01T16:34:15.001Z</time></trkpt><trkpt lat="42.5316859427803" lon="12.048323560890736"><ele>487.0</ele><time>2026-05-01T16:34:16.001Z</time></trkpt><trkpt lat="42.53166027433996" lon="12.048489513400549"><ele>487.0</ele><time>2026-05-01T16:34:17.001Z</time></trkpt><trkpt lat="42.531631335371955" lon="12.04864927709659"><ele>487.25</ele><time>2026-05-01T16:34:18.001Z</time></trkpt><trkpt lat="42.53159558967353" lon="12.048808981434213"><ele>487.5</ele><time>2026-05-01T16:34:19.001Z</time></trkpt><trkpt lat="42.53155936398525" lon="12.048961558168937"><ele>487.75</ele><time>2026-05-01T16:34:20.001Z</time></trkpt><trkpt lat="42.53152924609858" lon="12.049102831275404"><ele>488.0</ele><time>2026-05-01T16:34:21.001Z</time></trkpt><trkpt lat="42.53150213968919" lon="12.049236571898088"><ele>487.2</ele><time>2026-05-01T16:34:22.001Z</time></trkpt><trkpt lat="42.53147602327883" lon="12.049371101986308"><ele>486.4</ele><time>2026-05-01T16:34:23.001Z</time></trkpt><trkpt lat="42.531450151424366" lon="12.049510373649463"><ele>485.59999999999997</ele><time>2026-05-01T16:34:24.001Z</time></trkpt><trkpt lat="42.53141753775461" lon="12.049654736299917"><ele>484.79999999999995</ele><time>2026-05-01T16:34:25.001Z</time></trkpt><trkpt lat="42.53138285155349" lon="12.049810812764726"><ele>484.0</ele><time>2026-05-01T16:34:26.001Z</time></trkpt><trkpt lat="42.53135011768155" lon="12.049968754904128"><ele>483.4</ele><time>2026-05-01T16:34:27.001Z</time></trkpt><trkpt lat="42.531316587685666" lon="12.050127097548604"><ele>482.79999999999995</ele><time>2026-05-01T16:34:28.001Z</time></trkpt><trkpt lat="42.531290591983" lon="12.050278668137237"><ele>482.20000000000005</ele><time>2026-05-01T16:34:29.001Z</time></trkpt><trkpt lat="42.53126264859801" lon="12.05040476517296"><ele>481.6</ele><time>2026-05-01T16:34:30.001Z</time></trkpt><trkpt lat="42.53124003647072" lon="12.05052689474649"><ele>481.0</ele><time>2026-05-01T16:34:31.001Z</time></trkpt><trkpt lat="42.5312145369537" lon="12.05064251745434"><ele>481.0</ele><time>2026-05-01T16:34:32.001Z</time></trkpt><trkpt lat="42.53119267854846" lon="12.050763607344436"><ele>481.0</ele><time>2026-05-01T16:34:33.001Z</time></trkpt><trkpt lat="42.5311701956238" lon="12.050880093884045"><ele>481.0</ele><time>2026-05-01T16:34:34.001Z</time></trkpt><trkpt lat="42.531145834962444" lon="12.051003219051214"><ele>481.0</ele><time>2026-05-01T16:34:35.001Z</time></trkpt><trkpt lat="42.53112319660571" lon="12.05112381608361"><ele>481.0</ele><time>2026-05-01T16:34:36.001Z</time></trkpt><trkpt lat="42.53109729138291" lon="12.051259484677457"><ele>480.4</ele><time>2026-05-01T16:34:37.001Z</time></trkpt><trkpt lat="42.531070330089115" lon="12.051399521267912"><ele>479.8</ele><time>2026-05-01T16:34:38.001Z</time></trkpt><trkpt lat="42.53104289300854" lon="12.051540427348273"><ele>479.19999999999993</ele><time>2026-05-01T16:34:39.001Z</time></trkpt><trkpt lat="42.53101716126033" lon="12.051678793400646"><ele>478.59999999999997</ele><time>2026-05-01T16:34:40.001Z</time></trkpt><trkpt lat="42.530991032959065" lon="12.051815148310203"><ele>478.0</ele><time>2026-05-01T16:34:41.001Z</time></trkpt><trkpt lat="42.530964113099415" lon="12.051952719401834"><ele>476.79999999999995</ele><time>2026-05-01T16:34:42.001Z</time></trkpt><trkpt lat="42.53093815191412" lon="12.052079726827113"><ele>475.59999999999997</ele><time>2026-05-01T16:34:43.001Z</time></trkpt><trkpt lat="42.530916792210874" lon="12.052208702748551"><ele>474.40000000000003</ele><time>2026-05-01T16:34:44.001Z</time></trkpt><trkpt lat="42.53089180181549" lon="12.052333528317913"><ele>473.20000000000005</ele><time>2026-05-01T16:34:45.001Z</time></trkpt><trkpt lat="42.530868930151584" lon="12.05246724661342"><ele>472.0</ele><time>2026-05-01T16:34:46.001Z</time></trkpt><trkpt lat="42.53084459759738" lon="12.05261034908685"><ele>471.6</ele><time>2026-05-01T16:34:47.001Z</time></trkpt><trkpt lat="42.53081533166413" lon="12.052753531512472"><ele>471.20000000000005</ele><time>2026-05-01T16:34:48.001Z</time></trkpt><trkpt lat="42.53078659555972" lon="12.052895334836524"><ele>470.8</ele><time>2026-05-01T16:34:49.001Z</time></trkpt><trkpt lat="42.53075213535652" lon="12.053037026087617"><ele>470.4</ele><time>2026-05-01T16:34:50.001Z</time></trkpt><trkpt lat="42.530698348551496" lon="12.053167591109414"><ele>470.0</ele><time>2026-05-01T16:34:51.001Z</time></trkpt><trkpt lat="42.53062853387341" lon="12.053286762523586"><ele>470.25</ele><time>2026-05-01T16:34:52.001Z</time></trkpt><trkpt lat="42.53052518364017" lon="12.05337404195189"><ele>470.5</ele><time>2026-05-01T16:34:53.001Z</time></trkpt><trkpt lat="42.53040308396549" lon="12.053425075677831"><ele>470.75</ele><time>2026-05-01T16:34:54.001Z</time></trkpt><trkpt lat="42.53027850604034" lon="12.053465631562126"><ele>471.0</ele><time>2026-05-01T16:34:55.001Z</time></trkpt><trkpt lat="42.53015684748541" lon="12.053489912509363"><ele>470.0</ele><time>2026-05-01T16:34:56.001Z</time></trkpt><trkpt lat="42.53004596529512" lon="12.053507707400712"><ele>469.0</ele><time>2026-05-01T16:34:57.001Z</time></trkpt><trkpt lat="42.529944608504756" lon="12.053531988632086"><ele>468.0</ele><time>2026-05-01T16:34:58Z</time></trkpt><trkpt lat="42.529852838687745" lon="12.053561097506792"><ele>467.0</ele><time>2026-05-01T16:34:59Z</time></trkpt><trkpt lat="42.529760667767206" lon="12.05358006510655"><ele>466.0</ele><time>2026-05-01T16:35:00Z</time></trkpt><trkpt lat="42.52967549650932" lon="12.053598166444763"><ele>466.00000000000006</ele><time>2026-05-01T16:35:01Z</time></trkpt><trkpt lat="42.52959453904823" lon="12.053619589501364"><ele>466.0</ele><time>2026-05-01T16:35:02Z</time></trkpt><trkpt lat="42.52951956807566" lon="12.05363802455965"><ele>466.0</ele><time>2026-05-01T16:35:03Z</time></trkpt><trkpt lat="42.529446439896596" lon="12.053653452429657"><ele>466.0</ele><time>2026-05-01T16:35:04Z</time></trkpt><trkpt lat="42.52937683861524" lon="12.053670504497026"><ele>466.00000000000006</ele><time>2026-05-01T16:35:05Z</time></trkpt><trkpt lat="42.52930454581283" lon="12.053686860722959"><ele>466.0</ele><time>2026-05-01T16:35:06Z</time></trkpt><trkpt lat="42.52922900220462" lon="12.053708379046126"><ele>465.33333333333337</ele><time>2026-05-01T16:35:07Z</time></trkpt><trkpt lat="42.52915446643214" lon="12.05373125037629"><ele>464.6666666666667</ele><time>2026-05-01T16:35:08Z</time></trkpt><trkpt lat="42.52908062182591" lon="12.053749387928468"><ele>464.0</ele><time>2026-05-01T16:35:09Z</time></trkpt><trkpt lat="42.52900782493274" lon="12.053762918935782"><ele>463.33333333333337</ele><time>2026-05-01T16:35:10Z</time></trkpt><trkpt lat="42.52893390953433" lon="12.053776511833503"><ele>462.6666666666667</ele><time>2026-05-01T16:35:11Z</time></trkpt><trkpt lat="42.528859771013636" lon="12.05379581909229"><ele>462.0</ele><time>2026-05-01T16:35:12Z</time></trkpt><trkpt lat="42.528785013117854" lon="12.053813878964373"><ele>460.8</ele><time>2026-05-01T16:35:13Z</time></trkpt><trkpt lat="42.52869802476114" lon="12.053824979155408"><ele>459.6</ele><time>2026-05-01T16:35:14Z</time></trkpt><trkpt lat="42.5286036823497" lon="12.053837482180546"><ele>458.40000000000003</ele><time>2026-05-01T16:35:15Z</time></trkpt><trkpt lat="42.52850527486255" lon="12.053844353630447"><ele>457.20000000000005</ele><time>2026-05-01T16:35:16Z</time></trkpt><trkpt lat="42.52839460197107" lon="12.053830538533022"><ele>456.0</ele><time>2026-05-01T16:35:17Z</time></trkpt><trkpt lat="42.52826766915152" lon="12.053793953698593"><ele>456.0</ele><time>2026-05-01T16:35:18Z</time></trkpt><trkpt lat="42.52814385173876" lon="12.05375069874561"><ele>456.0</ele><time>2026-05-01T16:35:19Z</time></trkpt><trkpt lat="42.52802218007301" lon="12.053709721875762"><ele>456.0</ele><time>2026-05-01T16:35:20Z</time></trkpt><trkpt lat="42.527904630694195" lon="12.053668354989608"><ele>456.0</ele><time>2026-05-01T16:35:21Z</time></trkpt><trkpt lat="42.52779222874685" lon="12.053630248354574"><ele>455.4</ele><time>2026-05-01T16:35:22Z</time></trkpt><trkpt lat="42.52768545941795" lon="12.053587044565763"><ele>454.8</ele><time>2026-05-01T16:35:23Z</time></trkpt><trkpt lat="42.52757538972304" lon="12.053561425859527"><ele>454.19999999999993</ele><time>2026-05-01T16:35:24Z</time></trkpt><trkpt lat="42.52747179858796" lon="12.053542112648982"><ele>453.59999999999997</ele><time>2026-05-01T16:35:25Z</time></trkpt><trkpt lat="42.52737569097156" lon="12.053533084453536"><ele>453.0</ele><time>2026-05-01T16:35:26Z</time></trkpt><trkpt lat="42.52727448474494" lon="12.053518389904148"><ele>453.0</ele><time>2026-05-01T16:35:27Z</time></trkpt><trkpt lat="42.52717511801692" lon="12.053501708777137"><ele>452.99999999999994</ele><time>2026-05-01T16:35:28Z</time></trkpt><trkpt lat="42.527076942651" lon="12.053497219679667"><ele>452.99999999999994</ele><time>2026-05-01T16:35:29Z</time></trkpt><trkpt lat="42.526984608456516" lon="12.053499281818409"><ele>453.0</ele><time>2026-05-01T16:35:30Z</time></trkpt><trkpt lat="42.52690039568461" lon="12.053484574678542"><ele>453.0</ele><time>2026-05-01T16:35:31Z</time></trkpt><trkpt lat="42.526822030562855" lon="12.053487324923696"><ele>452.1666666666667</ele><time>2026-05-01T16:35:32Z</time></trkpt><trkpt lat="42.52674050212306" lon="12.0534743686644"><ele>451.33333333333337</ele><time>2026-05-01T16:35:33Z</time></trkpt><trkpt lat="42.5266584818043" lon="12.053458101695998"><ele>450.5</ele><time>2026-05-01T16:35:34Z</time></trkpt><trkpt lat="42.52658150109408" lon="12.053456058202558"><ele>449.6666666666667</ele><time>2026-05-01T16:35:35Z</time></trkpt><trkpt lat="42.52650244814169" lon="12.053458497494386"><ele>448.83333333333337</ele><time>2026-05-01T16:35:36Z</time></trkpt><trkpt lat="42.52642439777256" lon="12.053465407665247"><ele>448.0</ele><time>2026-05-01T16:35:37Z</time></trkpt><trkpt lat="42.52635245220735" lon="12.053457371088912"><ele>448.0</ele><time>2026-05-01T16:35:38Z</time></trkpt><trkpt lat="42.526273398035244" lon="12.053463028594951"><ele>447.99999999999994</ele><time>2026-05-01T16:35:39Z</time></trkpt><trkpt lat="42.526177669736725" lon="12.053465574355723"><ele>447.99999999999994</ele><time>2026-05-01T16:35:40Z</time></trkpt><trkpt lat="42.52608428901186" lon="12.053457569764815"><ele>448.0</ele><time>2026-05-01T16:35:41Z</time></trkpt><trkpt lat="42.5259775444081" lon="12.053456678720481"><ele>448.0</ele><time>2026-05-01T16:35:42Z</time></trkpt><trkpt lat="42.52586591200218" lon="12.05345473592384"><ele>447.4</ele><time>2026-05-01T16:35:43Z</time></trkpt><trkpt lat="42.52575328398291" lon="12.053454594737222"><ele>446.79999999999995</ele><time>2026-05-01T16:35:44Z</time></trkpt><trkpt lat="42.52564154813068" lon="12.053450378602642"><ele>446.2</ele><time>2026-05-01T16:35:45Z</time></trkpt><trkpt lat="42.52553217101702" lon="12.053415616536368"><ele>445.6</ele><time>2026-05-01T16:35:46Z</time></trkpt><trkpt lat="42.525425856235714" lon="12.05339330325402"><ele>445.0</ele><time>2026-05-01T16:35:47Z</time></trkpt><trkpt lat="42.52530942127462" lon="12.053381274082964"><ele>444.0</ele><time>2026-05-01T16:35:48Z</time></trkpt><trkpt lat="42.52520097411987" lon="12.053342337562524"><ele>443.0</ele><time>2026-05-01T16:35:49.001Z</time></trkpt><trkpt lat="42.525098939583685" lon="12.053303679360218"><ele>442.0</ele><time>2026-05-01T16:35:50.001Z</time></trkpt><trkpt lat="42.52498966813499" lon="12.053264302388031"><ele>441.0</ele><time>2026-05-01T16:35:51.001Z</time></trkpt><trkpt lat="42.52488000966426" lon="12.053218507294227"><ele>440.0</ele><time>2026-05-01T16:35:52.001Z</time></trkpt><trkpt lat="42.52477593457299" lon="12.053146494796552"><ele>440.0</ele><time>2026-05-01T16:35:53.001Z</time></trkpt><trkpt lat="42.52468305566139" lon="12.053055426853332"><ele>440.0</ele><time>2026-05-01T16:35:54.001Z</time></trkpt><trkpt lat="42.52461491294286" lon="12.052939993957148"><ele>440.0</ele><time>2026-05-01T16:35:55.001Z</time></trkpt><trkpt lat="42.52455324327288" lon="12.052840499215774"><ele>440.0</ele><time>2026-05-01T16:35:56.001Z</time></trkpt><trkpt lat="42.524491814873386" lon="12.052734634506075"><ele>440.0</ele><time>2026-05-01T16:35:57.001Z</time></trkpt><trkpt lat="42.524431911594405" lon="12.052625200181039"><ele>439.0</ele><time>2026-05-01T16:35:58.001Z</time></trkpt><trkpt lat="42.524368908630024" lon="12.052510626887328"><ele>438.0</ele><time>2026-05-01T16:35:59.001Z</time></trkpt><trkpt lat="42.52429662437488" lon="12.05237937907697"><ele>437.0</ele><time>2026-05-01T16:36:00.001Z</time></trkpt><trkpt lat="42.524217333978456" lon="12.052235409866803"><ele>436.0</ele><time>2026-05-01T16:36:01.001Z</time></trkpt><trkpt lat="42.52412913137436" lon="12.05207525780504"><ele>435.5</ele><time>2026-05-01T16:36:02.001Z</time></trkpt><trkpt lat="42.524040329420984" lon="12.051911105259672"><ele>435.0</ele><time>2026-05-01T16:36:03.001Z</time></trkpt><trkpt lat="42.523952341346224" lon="12.05177089831778"><ele>434.5</ele><time>2026-05-01T16:36:04.001Z</time></trkpt><trkpt lat="42.52388468980228" lon="12.051634178625301"><ele>434.0</ele><time>2026-05-01T16:36:05.001Z</time></trkpt><trkpt lat="42.52381561353427" lon="12.051513670184725"><ele>433.0</ele><time>2026-05-01T16:36:06.001Z</time></trkpt><trkpt lat="42.523747682855095" lon="12.051394876294367"><ele>432.0</ele><time>2026-05-01T16:36:07.001Z</time></trkpt><trkpt lat="42.52368629712644" lon="12.051277812219762"><ele>431.0</ele><time>2026-05-01T16:36:08.001Z</time></trkpt><trkpt lat="42.52362693750517" lon="12.051164452517604"><ele>430.0</ele><time>2026-05-01T16:36:09.001Z</time></trkpt><trkpt lat="42.52356735074885" lon="12.051053394032637"><ele>429.0</ele><time>2026-05-01T16:36:10.001Z</time></trkpt><trkpt lat="42.52350528181625" lon="12.0509404703127"><ele>429.0</ele><time>2026-05-01T16:36:11.001Z</time></trkpt><trkpt lat="42.523440393437" lon="12.050822636892597"><ele>429.0</ele><time>2026-05-01T16:36:12.001Z</time></trkpt><trkpt lat="42.52337003620683" lon="12.050697984343909"><ele>429.0</ele><time>2026-05-01T16:36:13.001Z</time></trkpt><trkpt lat="42.523295034697256" lon="12.050558691007913"><ele>429.0</ele><time>2026-05-01T16:36:14.001Z</time></trkpt><trkpt lat="42.52321324397724" lon="12.05040597555508"><ele>427.75</ele><time>2026-05-01T16:36:15.001Z</time></trkpt><trkpt lat="42.52312413412454" lon="12.050245123353564"><ele>426.5</ele><time>2026-05-01T16:36:16.001Z</time></trkpt><trkpt lat="42.52303814476931" lon="12.05009162591193"><ele>425.25</ele><time>2026-05-01T16:36:17.001Z</time></trkpt><trkpt lat="42.522950124784145" lon="12.0499387120238"><ele>424.0</ele><time>2026-05-01T16:36:18.001Z</time></trkpt><trkpt lat="42.52286124289019" lon="12.049755361892451"><ele>422.33333333333337</ele><time>2026-05-01T16:36:19.001Z</time></trkpt><trkpt lat="42.52274870281321" lon="12.04955833276181"><ele>420.66666666666663</ele><time>2026-05-01T16:36:20.001Z</time></trkpt><trkpt lat="42.52260983888836" lon="12.049352570333578"><ele>419.0</ele><time>2026-05-01T16:36:21.001Z</time></trkpt><trkpt lat="42.52247934015642" lon="12.049140219933125"><ele>415.5</ele><time>2026-05-01T16:36:22.001Z</time></trkpt><trkpt lat="42.522315259416146" lon="12.048931218381743"><ele>412.0</ele><time>2026-05-01T16:36:23.001Z</time></trkpt><trkpt lat="42.52211445990815" lon="12.04872412379905"><ele>410.5</ele><time>2026-05-01T16:36:24.001Z</time></trkpt><trkpt lat="42.521907318105804" lon="12.048530124429305"><ele>409.0</ele><time>2026-05-01T16:36:25.001Z</time></trkpt><trkpt lat="42.52169735699819" lon="12.048374037337302"><ele>407.5</ele><time>2026-05-01T16:36:26.001Z</time></trkpt><trkpt lat="42.52148415533659" lon="12.048244958829667"><ele>406.0</ele><time>2026-05-01T16:36:27.001Z</time></trkpt><trkpt lat="42.52127137279351" lon="12.048145419862818"><ele>406.0</ele><time>2026-05-01T16:36:28.001Z</time></trkpt><trkpt lat="42.52106175663373" lon="12.048064169275023"><ele>406.0</ele><time>2026-05-01T16:36:29.001Z</time></trkpt><trkpt lat="42.520858219585854" lon="12.048007512696254"><ele>406.0</ele><time>2026-05-01T16:36:30.001Z</time></trkpt><trkpt lat="42.52066429710651" lon="12.047971370130492"><ele>406.0</ele><time>2026-05-01T16:36:31.001Z</time></trkpt><trkpt lat="42.52047711289632" lon="12.047954542884513"><ele>406.0</ele><time>2026-05-01T16:36:32.001Z</time></trkpt><trkpt lat="42.5202985042893" lon="12.047956131362284"><ele>406.0</ele><time>2026-05-01T16:36:33.001Z</time></trkpt><trkpt lat="42.52012545156691" lon="12.04797133696801"><ele>406.33333333333337</ele><time>2026-05-01T16:36:34.001Z</time></trkpt><trkpt lat="42.51996046981369" lon="12.047998028405674"><ele>406.66666666666663</ele><time>2026-05-01T16:36:35.001Z</time></trkpt><trkpt lat="42.51980800561076" lon="12.048039989596955"><ele>407.0</ele><time>2026-05-01T16:36:36.001Z</time></trkpt><trkpt lat="42.51966262096268" lon="12.048093650796003"><ele>408.25</ele><time>2026-05-01T16:36:37.001Z</time></trkpt><trkpt lat="42.51952592158216" lon="12.04815333477745"><ele>409.5</ele><time>2026-05-01T16:36:38.001Z</time></trkpt><trkpt lat="42.519396176359805" lon="12.048211964257272"><ele>410.75</ele><time>2026-05-01T16:36:39.001Z</time></trkpt><trkpt lat="42.51926265578511" lon="12.04827612029389"><ele>412.0</ele><time>2026-05-01T16:36:40.001Z</time></trkpt><trkpt lat="42.51913546341018" lon="12.048354139869542"><ele>412.0</ele><time>2026-05-01T16:36:41.001Z</time></trkpt><trkpt lat="42.51901361737214" lon="12.048442179296021"><ele>412.0</ele><time>2026-05-01T16:36:42.001Z</time></trkpt><trkpt lat="42.51889606723603" lon="12.048532696746863"><ele>412.0</ele><time>2026-05-01T16:36:43.001Z</time></trkpt><trkpt lat="42.51878043270119" lon="12.048630009359469"><ele>412.0</ele><time>2026-05-01T16:36:44.001Z</time></trkpt><trkpt lat="42.51866459701782" lon="12.048737303903758"><ele>414.0</ele><time>2026-05-01T16:36:45.001Z</time></trkpt><trkpt lat="42.518550228006255" lon="12.04885964825699"><ele>416.0</ele><time>2026-05-01T16:36:46.001Z</time></trkpt><trkpt lat="42.518431284649566" lon="12.048984697953149"><ele>418.0</ele><time>2026-05-01T16:36:47.001Z</time></trkpt><trkpt lat="42.51830595907934" lon="12.049120548362792"><ele>416.0</ele><time>2026-05-01T16:36:48.001Z</time></trkpt><trkpt lat="42.51817560268496" lon="12.049287084938356"><ele>414.0</ele><time>2026-05-01T16:36:49.001Z</time></trkpt><trkpt lat="42.51801371477782" lon="12.049482269189728"><ele>412.0</ele><time>2026-05-01T16:36:50.001Z</time></trkpt><trkpt lat="42.517820905564605" lon="12.049681970434513"><ele>410.5</ele><time>2026-05-01T16:36:51.001Z</time></trkpt><trkpt lat="42.51762928427982" lon="12.049905858826182"><ele>409.0</ele><time>2026-05-01T16:36:52.001Z</time></trkpt><trkpt lat="42.51743774830817" lon="12.050129901282148"><ele>406.0</ele><time>2026-05-01T16:36:53.001Z</time></trkpt><trkpt lat="42.517241211726805" lon="12.050345473238972"><ele>403.0</ele><time>2026-05-01T16:36:54.001Z</time></trkpt><trkpt lat="42.517047595611295" lon="12.05056343783164"><ele>402.0</ele><time>2026-05-01T16:36:55.001Z</time></trkpt><trkpt lat="42.516856020590986" lon="12.050787171857337"><ele>401.0</ele><time>2026-05-01T16:36:56.001Z</time></trkpt><trkpt lat="42.516666516377725" lon="12.05100553036926"><ele>398.5</ele><time>2026-05-01T16:36:57.001Z</time></trkpt><trkpt lat="42.51647923103065" lon="12.051216156422432"><ele>396.0</ele><time>2026-05-01T16:36:58.001Z</time></trkpt><trkpt lat="42.51629504570556" lon="12.051417197966323"><ele>393.5</ele><time>2026-05-01T16:36:59.001Z</time></trkpt><trkpt lat="42.51611610575072" lon="12.05160892724745"><ele>391.0</ele><time>2026-05-01T16:37:00.001Z</time></trkpt><trkpt lat="42.51592756305069" lon="12.051800341059376"><ele>390.5</ele><time>2026-05-01T16:37:01.001Z</time></trkpt><trkpt lat="42.51572578890974" lon="12.05198482680973"><ele>390.0</ele><time>2026-05-01T16:37:02.001Z</time></trkpt><trkpt lat="42.515507722412195" lon="12.052165995155772"><ele>388.5</ele><time>2026-05-01T16:37:03.001Z</time></trkpt><trkpt lat="42.515275727343315" lon="12.052318412647667"><ele>387.0</ele><time>2026-05-01T16:37:04Z</time></trkpt><trkpt lat="42.51504079425995" lon="12.052469284961486"><ele>387.0</ele><time>2026-05-01T16:37:05Z</time></trkpt><trkpt lat="42.5148233705019" lon="12.052609990513023"><ele>387.0</ele><time>2026-05-01T16:37:06Z</time></trkpt><trkpt lat="42.51461171704565" lon="12.052745234442572"><ele>384.0</ele><time>2026-05-01T16:37:07Z</time></trkpt><trkpt lat="42.51440703221859" lon="12.052883683909771"><ele>381.0</ele><time>2026-05-01T16:37:08Z</time></trkpt><trkpt lat="42.51419931628196" lon="12.053024993052592"><ele>381.0</ele><time>2026-05-01T16:37:09Z</time></trkpt><trkpt lat="42.514000919399734" lon="12.053161516187682"><ele>381.0</ele><time>2026-05-01T16:37:10Z</time></trkpt><trkpt lat="42.513813986546786" lon="12.053289449624238"><ele>381.0</ele><time>2026-05-01T16:37:11Z</time></trkpt><trkpt lat="42.51362596027272" lon="12.0534202435897"><ele>380.0</ele><time>2026-05-01T16:37:12Z</time></trkpt><trkpt lat="42.513431636401826" lon="12.053543616596782"><ele>379.0</ele><time>2026-05-01T16:37:13Z</time></trkpt><trkpt lat="42.51324561095447" lon="12.053663795421674"><ele>378.0</ele><time>2026-05-01T16:37:14Z</time></trkpt><trkpt lat="42.513065830116524" lon="12.053781453310602"><ele>376.6666666666667</ele><time>2026-05-01T16:37:15Z</time></trkpt><trkpt lat="42.51289018284487" lon="12.053903608614176"><ele>375.33333333333337</ele><time>2026-05-01T16:37:16Z</time></trkpt><trkpt lat="42.512710839526086" lon="12.054027469459129"><ele>374.0</ele><time>2026-05-01T16:37:17Z</time></trkpt><trkpt lat="42.51252641477997" lon="12.054158125871815"><ele>373.33333333333337</ele><time>2026-05-01T16:37:18Z</time></trkpt><trkpt lat="42.51233569216979" lon="12.054292353107614"><ele>372.6666666666667</ele><time>2026-05-01T16:37:19Z</time></trkpt><trkpt lat="42.51213951215254" lon="12.054428998942837"><ele>372.0</ele><time>2026-05-01T16:37:20Z</time></trkpt><trkpt lat="42.51193796618565" lon="12.054569144279071"><ele>369.5</ele><time>2026-05-01T16:37:21Z</time></trkpt><trkpt lat="42.5117429016475" lon="12.054719703389468"><ele>367.0</ele><time>2026-05-01T16:37:22Z</time></trkpt><trkpt lat="42.511544599010996" lon="12.054874605670056"><ele>366.5</ele><time>2026-05-01T16:37:23Z</time></trkpt><trkpt lat="42.5113436886483" lon="12.055023085753662"><ele>366.0</ele><time>2026-05-01T16:37:24Z</time></trkpt><trkpt lat="42.511135089081726" lon="12.055165312474466"><ele>364.0</ele><time>2026-05-01T16:37:25Z</time></trkpt><trkpt lat="42.510928008818915" lon="12.055312901164482"><ele>362.0</ele><time>2026-05-01T16:37:26Z</time></trkpt><trkpt lat="42.51072518142775" lon="12.055470929972055"><ele>362.0</ele><time>2026-05-01T16:37:27Z</time></trkpt><trkpt lat="42.51051858092131" lon="12.055628089201912"><ele>362.0</ele><time>2026-05-01T16:37:28Z</time></trkpt><trkpt lat="42.51031213858981" lon="12.055781981268261"><ele>359.5</ele><time>2026-05-01T16:37:29Z</time></trkpt><trkpt lat="42.510110259442854" lon="12.055935513933521"><ele>357.0</ele><time>2026-05-01T16:37:30Z</time></trkpt><trkpt lat="42.50991316090473" lon="12.056080408569612"><ele>357.0</ele><time>2026-05-01T16:37:31Z</time></trkpt><trkpt lat="42.50971662183546" lon="12.056218672395385"><ele>357.0</ele><time>2026-05-01T16:37:32Z</time></trkpt><trkpt lat="42.50952301285362" lon="12.056365517331695"><ele>357.0</ele><time>2026-05-01T16:37:33Z</time></trkpt><trkpt lat="42.509331396262205" lon="12.056516485610068"><ele>355.5</ele><time>2026-05-01T16:37:34Z</time></trkpt><trkpt lat="42.509133245793066" lon="12.056672679806269"><ele>354.0</ele><time>2026-05-01T16:37:35Z</time></trkpt><trkpt lat="42.50892647028924" lon="12.05681907575054"><ele>353.6666666666667</ele><time>2026-05-01T16:37:36Z</time></trkpt><trkpt lat="42.50872306411649" lon="12.056947934792522"><ele>353.33333333333337</ele><time>2026-05-01T16:37:37Z</time></trkpt><trkpt lat="42.508531448978424" lon="12.057064905968765"><ele>353.0</ele><time>2026-05-01T16:37:38Z</time></trkpt><trkpt lat="42.50834737707805" lon="12.0571758810708"><ele>353.0</ele><time>2026-05-01T16:37:39Z</time></trkpt><trkpt lat="42.50817442607102" lon="12.057282503924878"><ele>353.0</ele><time>2026-05-01T16:37:40Z</time></trkpt><trkpt lat="42.50801344503248" lon="12.057386739577849"><ele>353.0</ele><time>2026-05-01T16:37:41Z</time></trkpt><trkpt lat="42.50785257792269" lon="12.057495310102086"><ele>352.0</ele><time>2026-05-01T16:37:42Z</time></trkpt><trkpt lat="42.50769042995715" lon="12.05759898346857"><ele>351.0</ele><time>2026-05-01T16:37:43Z</time></trkpt><trkpt lat="42.507528165205215" lon="12.057693097898033"><ele>350.0</ele><time>2026-05-01T16:37:44Z</time></trkpt><trkpt lat="42.50736685142649" lon="12.057779148324714"><ele>350.0</ele><time>2026-05-01T16:37:45Z</time></trkpt><trkpt lat="42.50720792579614" lon="12.057856883205092"><ele>350.0</ele><time>2026-05-01T16:37:46Z</time></trkpt><trkpt lat="42.50705091098474" lon="12.057925199918515"><ele>350.0</ele><time>2026-05-01T16:37:47Z</time></trkpt><trkpt lat="42.5068965475666" lon="12.057999902227904"><ele>348.6666666666667</ele><time>2026-05-01T16:37:48Z</time></trkpt><trkpt lat="42.5067411617939" lon="12.058073712902523"><ele>347.3333333333333</ele><time>2026-05-01T16:37:49Z</time></trkpt><trkpt lat="42.506584019722006" lon="12.058140273992466"><ele>346.0</ele><time>2026-05-01T16:37:50Z</time></trkpt><trkpt lat="42.506430749371255" lon="12.058203796669233"><ele>346.0</ele><time>2026-05-01T16:37:51Z</time></trkpt><trkpt lat="42.50627574702795" lon="12.058265428166253"><ele>346.0</ele><time>2026-05-01T16:37:52Z</time></trkpt><trkpt lat="42.50612099667722" lon="12.058325883094517"><ele>346.0</ele><time>2026-05-01T16:37:53Z</time></trkpt><trkpt lat="42.50595897744786" lon="12.058399665213896"><ele>346.0</ele><time>2026-05-01T16:37:54Z</time></trkpt><trkpt lat="42.505782999059235" lon="12.058503129612271"><ele>346.0</ele><time>2026-05-01T16:37:55Z</time></trkpt><trkpt lat="42.50557993698782" lon="12.058632234598981"><ele>346.0</ele><time>2026-05-01T16:37:56Z</time></trkpt><trkpt lat="42.50536683710242" lon="12.058775669276573"><ele>346.0</ele><time>2026-05-01T16:37:57Z</time></trkpt><trkpt lat="42.505153961096234" lon="12.058936497120177"><ele>346.0</ele><time>2026-05-01T16:37:58Z</time></trkpt><trkpt lat="42.50494315625078" lon="12.059118051386138"><ele>345.5</ele><time>2026-05-01T16:37:59Z</time></trkpt><trkpt lat="42.50471960716478" lon="12.059314962092978"><ele>345.0</ele><time>2026-05-01T16:38:00Z</time></trkpt><trkpt lat="42.50448463729698" lon="12.059510717698263"><ele>344.5</ele><time>2026-05-01T16:38:01Z</time></trkpt><trkpt lat="42.50423178782659" lon="12.059684941528321"><ele>344.0</ele><time>2026-05-01T16:38:02Z</time></trkpt><trkpt lat="42.50396970638967" lon="12.059842189743309"><ele>344.0</ele><time>2026-05-01T16:38:03Z</time></trkpt><trkpt lat="42.503702167049354" lon="12.059994185550053"><ele>344.0</ele><time>2026-05-01T16:38:04Z</time></trkpt><trkpt lat="42.50342829740359" lon="12.060142383647714"><ele>344.0</ele><time>2026-05-01T16:38:05Z</time></trkpt><trkpt lat="42.50313128014539" lon="12.060283863117993"><ele>344.0</ele><time>2026-05-01T16:38:06Z</time></trkpt><trkpt lat="42.50280814295205" lon="12.060423720952606"><ele>344.0</ele><time>2026-05-01T16:38:07Z</time></trkpt><trkpt lat="42.50246406845932" lon="12.060554069806587"><ele>344.0</ele><time>2026-05-01T16:38:08Z</time></trkpt><trkpt lat="42.502126299171344" lon="12.060687560512731"><ele>342.5</ele><time>2026-05-01T16:38:09Z</time></trkpt><trkpt lat="42.50179384729751" lon="12.060824000729749"><ele>341.0</ele><time>2026-05-01T16:38:10Z</time></trkpt><trkpt lat="42.50145994521251" lon="12.060957797875158"><ele>339.0</ele><time>2026-05-01T16:38:11Z</time></trkpt><trkpt lat="42.501127992258894" lon="12.06108281055296"><ele>337.0</ele><time>2026-05-01T16:38:12Z</time></trkpt><trkpt lat="42.500800102837594" lon="12.061201795440324"><ele>337.0</ele><time>2026-05-01T16:38:13Z</time></trkpt><trkpt lat="42.500473936812035" lon="12.0613204807497"><ele>337.0</ele><time>2026-05-01T16:38:14Z</time></trkpt><trkpt lat="42.50014524822861" lon="12.061439370270527"><ele>332.5</ele><time>2026-05-01T16:38:15Z</time></trkpt><trkpt lat="42.4998189749458" lon="12.061558934877594"><ele>328.0</ele><time>2026-05-01T16:38:16Z</time></trkpt><trkpt lat="42.49949137406193" lon="12.061674639779932"><ele>326.0</ele><time>2026-05-01T16:38:17Z</time></trkpt><trkpt lat="42.49916564041658" lon="12.061795572517577"><ele>324.0</ele><time>2026-05-01T16:38:18Z</time></trkpt><trkpt lat="42.49884024020783" lon="12.061916948032025"><ele>321.0</ele><time>2026-05-01T16:38:19Z</time></trkpt><trkpt lat="42.49851693476855" lon="12.062036775004245"><ele>318.0</ele><time>2026-05-01T16:38:20Z</time></trkpt><trkpt lat="42.49819407954379" lon="12.06215947065723"><ele>318.0</ele><time>2026-05-01T16:38:21Z</time></trkpt><trkpt lat="42.49787324741914" lon="12.062281350510673"><ele>318.0</ele><time>2026-05-01T16:38:22Z</time></trkpt><trkpt lat="42.49755051580329" lon="12.062405864363832"><ele>317.0</ele><time>2026-05-01T16:38:23Z</time></trkpt><trkpt lat="42.49723068415955" lon="12.06253301185778"><ele>316.0</ele><time>2026-05-01T16:38:24Z</time></trkpt><trkpt lat="42.49691183830137" lon="12.06265795574654"><ele>316.0</ele><time>2026-05-01T16:38:25Z</time></trkpt><trkpt lat="42.49659510230094" lon="12.062783056291348"><ele>316.0</ele><time>2026-05-01T16:38:26Z</time></trkpt><trkpt lat="42.49628089616884" lon="12.062903980125405"><ele>315.0</ele><time>2026-05-01T16:38:27Z</time></trkpt><trkpt lat="42.49596926320531" lon="12.063025524017439"><ele>314.0</ele><time>2026-05-01T16:38:28Z</time></trkpt><trkpt lat="42.495661388675366" lon="12.063145011725698"><ele>313.0</ele><time>2026-05-01T16:38:29Z</time></trkpt><trkpt lat="42.49536296005752" lon="12.063256807508928"><ele>312.0</ele><time>2026-05-01T16:38:30Z</time></trkpt><trkpt lat="42.49507626664725" lon="12.063360595033606"><ele>312.0</ele><time>2026-05-01T16:38:31Z</time></trkpt><trkpt lat="42.494796435377395" lon="12.063456610536031"><ele>312.0</ele><time>2026-05-01T16:38:32Z</time></trkpt><trkpt lat="42.49452356043984" lon="12.063535023568383"><ele>311.5</ele><time>2026-05-01T16:38:33.001Z</time></trkpt><trkpt lat="42.49425801359984" lon="12.063588619414073"><ele>311.0</ele><time>2026-05-01T16:38:34.001Z</time></trkpt><trkpt lat="42.4940020514084" lon="12.063622204106547"><ele>311.0</ele><time>2026-05-01T16:38:35.001Z</time></trkpt><trkpt lat="42.49374735766966" lon="12.063643019767472"><ele>311.0</ele><time>2026-05-01T16:38:36.001Z</time></trkpt><trkpt lat="42.4935030428215" lon="12.063669770539068"><ele>311.0</ele><time>2026-05-01T16:38:37.001Z</time></trkpt><trkpt lat="42.49326385316408" lon="12.06370984178237"><ele>311.0</ele><time>2026-05-01T16:38:38.001Z</time></trkpt><trkpt lat="42.493033836963356" lon="12.063771441674817"><ele>312.6666666666667</ele><time>2026-05-01T16:38:39.001Z</time></trkpt><trkpt lat="42.49281650701476" lon="12.063845855664946"><ele>314.3333333333333</ele><time>2026-05-01T16:38:40.001Z</time></trkpt><trkpt lat="42.492614944620016" lon="12.063952889150274"><ele>316.0</ele><time>2026-05-01T16:38:41.001Z</time></trkpt><trkpt lat="42.49241073999696" lon="12.06407705618292"><ele>316.0</ele><time>2026-05-01T16:38:42.001Z</time></trkpt><trkpt lat="42.492203280266565" lon="12.064228762291785"><ele>316.0</ele><time>2026-05-01T16:38:43.001Z</time></trkpt><trkpt lat="42.49197036231146" lon="12.064396601786049"><ele>316.0</ele><time>2026-05-01T16:38:44.001Z</time></trkpt><trkpt lat="42.49171719843683" lon="12.064563349319236"><ele>316.0</ele><time>2026-05-01T16:38:45.001Z</time></trkpt><trkpt lat="42.491454189904424" lon="12.064747132045984"><ele>316.5</ele><time>2026-05-01T16:38:46.001Z</time></trkpt><trkpt lat="42.49119107107904" lon="12.064957727020271"><ele>317.0</ele><time>2026-05-01T16:38:47.001Z</time></trkpt><trkpt lat="42.49094129672432" lon="12.065170827757907"><ele>317.0</ele><time>2026-05-01T16:38:48.001Z</time></trkpt><trkpt lat="42.49069687301375" lon="12.065379470072706"><ele>317.0</ele><time>2026-05-01T16:38:49.001Z</time></trkpt><trkpt lat="42.49046494894054" lon="12.065576161519505"><ele>318.0</ele><time>2026-05-01T16:38:50.001Z</time></trkpt><trkpt lat="42.490251661398425" lon="12.065764589702281"><ele>319.0</ele><time>2026-05-01T16:38:51.001Z</time></trkpt><trkpt lat="42.49004550676107" lon="12.065952770091341"><ele>319.0</ele><time>2026-05-01T16:38:52.001Z</time></trkpt><trkpt lat="42.48983898086935" lon="12.066128822711734"><ele>319.0</ele><time>2026-05-01T16:38:53.001Z</time></trkpt><trkpt lat="42.489633819214866" lon="12.066289462963747"><ele>321.5</ele><time>2026-05-01T16:38:54.001Z</time></trkpt><trkpt lat="42.489430445966256" lon="12.06643172436204"><ele>324.0</ele><time>2026-05-01T16:38:55.001Z</time></trkpt><trkpt lat="42.48922229517771" lon="12.06656029831096"><ele>323.5</ele><time>2026-05-01T16:38:56.001Z</time></trkpt><trkpt lat="42.48900745641412" lon="12.066680964155875"><ele>323.0</ele><time>2026-05-01T16:38:57.001Z</time></trkpt><trkpt lat="42.48879092054722" lon="12.066792005925947"><ele>324.0</ele><time>2026-05-01T16:38:58.001Z</time></trkpt><trkpt lat="42.48857143451392" lon="12.06689956113586"><ele>325.0</ele><time>2026-05-01T16:38:59.001Z</time></trkpt><trkpt lat="42.48834189541137" lon="12.067007506348117"><ele>325.0</ele><time>2026-05-01T16:39:00.001Z</time></trkpt><trkpt lat="42.48810284945923" lon="12.06711771252644"><ele>325.0</ele><time>2026-05-01T16:39:01.001Z</time></trkpt><trkpt lat="42.48786025597915" lon="12.067221279055083"><ele>323.5</ele><time>2026-05-01T16:39:02.001Z</time></trkpt><trkpt lat="42.48761088461113" lon="12.067313202784858"><ele>322.0</ele><time>2026-05-01T16:39:03.001Z</time></trkpt><trkpt lat="42.48735602802963" lon="12.067405501681714"><ele>320.5</ele><time>2026-05-01T16:39:04.001Z</time></trkpt><trkpt lat="42.48709628955205" lon="12.067498970652572"><ele>319.0</ele><time>2026-05-01T16:39:05.001Z</time></trkpt><trkpt lat="42.48683667546345" lon="12.067583862581547"><ele>319.0</ele><time>2026-05-01T16:39:06.001Z</time></trkpt><trkpt lat="42.48659327431969" lon="12.06766292962417"><ele>319.0</ele><time>2026-05-01T16:39:07.001Z</time></trkpt><trkpt lat="42.48636365416662" lon="12.06774002723748"><ele>319.3333333333333</ele><time>2026-05-01T16:39:08.001Z</time></trkpt><trkpt lat="42.486144726409286" lon="12.067813198361938"><ele>319.6666666666667</ele><time>2026-05-01T16:39:09.001Z</time></trkpt><trkpt lat="42.485938297634696" lon="12.067880794339176"><ele>320.0</ele><time>2026-05-01T16:39:10Z</time></trkpt><trkpt lat="42.48575561724389" lon="12.067940681480662"><ele>320.0</ele><time>2026-05-01T16:39:11Z</time></trkpt><trkpt lat="42.48558118481705" lon="12.06799381693716"><ele>320.0</ele><time>2026-05-01T16:39:12Z</time></trkpt><trkpt lat="42.48542007899804" lon="12.068048227119943"><ele>320.0</ele><time>2026-05-01T16:39:13Z</time></trkpt><trkpt lat="42.48527581071452" lon="12.068096285301591"><ele>319.6</ele><time>2026-05-01T16:39:14Z</time></trkpt><trkpt lat="42.48515203684669" lon="12.068136795039123"><ele>319.2</ele><time>2026-05-01T16:39:15Z</time></trkpt><trkpt lat="42.48505020282776" lon="12.068164612329964"><ele>318.8</ele><time>2026-05-01T16:39:16Z</time></trkpt><trkpt lat="42.484963097899254" lon="12.068201920759796"><ele>318.4</ele><time>2026-05-01T16:39:17Z</time></trkpt><trkpt lat="42.484867667896175" lon="12.068237220764377"><ele>318.0</ele><time>2026-05-01T16:39:19Z</time></trkpt><trkpt lat="42.4849039941727" lon="12.068431411531654"><ele>317.8</ele><time>2026-05-01T16:39:21Z</time></trkpt><trkpt lat="42.48493624901155" lon="12.068559488857293"><ele>317.6</ele><time>2026-05-01T16:39:24Z</time></trkpt><trkpt lat="42.48495862604131" lon="12.068668594528773"><ele>317.4</ele><time>2026-05-01T16:39:26Z</time></trkpt><trkpt lat="42.48499666756304" lon="12.068837702625673"><ele>317.2</ele><time>2026-05-01T16:39:28Z</time></trkpt><trkpt lat="42.48503311723724" lon="12.068949600839016"><ele>317.0</ele><time>2026-05-01T16:39:29Z</time></trkpt><trkpt lat="42.48507433815945" lon="12.069049981765078"><ele>317.1666666666667</ele><time>2026-05-01T16:39:30Z</time></trkpt><trkpt lat="42.48511589309661" lon="12.069139444756006"><ele>317.33333333333337</ele><time>2026-05-01T16:39:31Z</time></trkpt><trkpt lat="42.48515461828439" lon="12.06922544720958"><ele>317.5</ele><time>2026-05-01T16:39:32Z</time></trkpt><trkpt lat="42.4851902261773" lon="12.069311701829557"><ele>317.6666666666667</ele><time>2026-05-01T16:39:33Z</time></trkpt><trkpt lat="42.48522037777029" lon="12.069399267533528"><ele>317.8333333333333</ele><time>2026-05-01T16:39:34Z</time></trkpt><trkpt lat="42.48524424203641" lon="12.06948098373084"><ele>318.0</ele><time>2026-05-01T16:39:35Z</time></trkpt><trkpt lat="42.485278487864086" lon="12.069616911647575"><ele>318.0</ele><time>2026-05-01T16:39:37Z</time></trkpt><trkpt lat="42.48531939394153" lon="12.06972681904984"><ele>318.0</ele><time>2026-05-01T16:39:39Z</time></trkpt><trkpt lat="42.48532136375238" lon="12.06983674455642"><ele>318.0</ele><time>2026-05-01T16:39:41Z</time></trkpt><trkpt lat="42.48533565515643" lon="12.069942543370951"><ele>318.0</ele><time>2026-05-01T16:39:43Z</time></trkpt><trkpt lat="42.48535113635538" lon="12.070087443318597"><ele>318.0</ele><time>2026-05-01T16:39:45Z</time></trkpt><trkpt lat="42.48536018691955" lon="12.070172154915564"><ele>318.0</ele><time>2026-05-01T16:39:46Z</time></trkpt><trkpt lat="42.485365548647756" lon="12.07026309666569"><ele>317.6</ele><time>2026-05-01T16:39:47Z</time></trkpt><trkpt lat="42.48538699197206" lon="12.070355072584894"><ele>317.20000000000005</ele><time>2026-05-01T16:39:48Z</time></trkpt><trkpt lat="42.485376118913905" lon="12.070442330102596"><ele>316.8</ele><time>2026-05-01T16:39:49Z</time></trkpt><trkpt lat="42.485381992579974" lon="12.070604716214808"><ele>316.40000000000003</ele><time>2026-05-01T16:39:51Z</time></trkpt><trkpt lat="42.485446298182374" lon="12.07073809790759"><ele>316.0</ele><time>2026-05-01T16:39:53Z</time></trkpt><trkpt lat="42.48553676837793" lon="12.070769104848868"><ele>316.40000000000003</ele><time>2026-05-01T16:39:55Z</time></trkpt><trkpt lat="42.4853892647441" lon="12.070834830166481"><ele>316.8</ele><time>2026-05-01T16:39:57Z</time></trkpt><trkpt lat="42.485408973388665" lon="12.070999110934691"><ele>317.20000000000005</ele><time>2026-05-01T16:39:59Z</time></trkpt><trkpt lat="42.48542384537803" lon="12.071084941614766"><ele>317.6</ele><time>2026-05-01T16:40:00Z</time></trkpt><trkpt lat="42.485448526927236" lon="12.071211236445851"><ele>318.0</ele><time>2026-05-01T16:40:02Z</time></trkpt><trkpt lat="42.48546957749741" lon="12.07131537472295"><ele>318.0</ele><time>2026-05-01T16:40:04Z</time></trkpt><trkpt lat="42.485498245634446" lon="12.071457197520198"><ele>318.0</ele><time>2026-05-01T16:40:08Z</time></trkpt><trkpt lat="42.48584301034762" lon="12.071260539779045"><ele>318.0</ele><time>2026-05-01T16:40:13Z</time></trkpt><trkpt lat="42.48580115614503" lon="12.071125126138789"><ele>318.0</ele><time>2026-05-01T16:40:15Z</time></trkpt><trkpt lat="42.4857679070255" lon="12.07100321806649"><ele>318.0</ele><time>2026-05-01T16:40:17Z</time></trkpt><trkpt lat="42.48569264846017" lon="12.07093119732816"><ele>318.0</ele><time>2026-05-01T16:40:19Z</time></trkpt><trkpt lat="42.485637240413936" lon="12.070803434700807"><ele>318.0</ele><time>2026-05-01T16:40:21Z</time></trkpt><trkpt lat="42.485537863496575" lon="12.07072757880118"><ele>318.4</ele><time>2026-05-01T16:40:23Z</time></trkpt><trkpt lat="42.485440945416734" lon="12.070672074713546"><ele>318.8</ele><time>2026-05-01T16:40:25Z</time></trkpt><trkpt lat="42.48540283108757" lon="12.070532338741673"><ele>319.2</ele><time>2026-05-01T16:40:27Z</time></trkpt><trkpt lat="42.48540402712331" lon="12.070373591516704"><ele>319.6</ele><time>2026-05-01T16:40:29Z</time></trkpt><trkpt lat="42.48539460048524" lon="12.070282313236715"><ele>320.0</ele><time>2026-05-01T16:40:30Z</time></trkpt><trkpt lat="42.4853856425021" lon="12.070194344491675"><ele>319.7142857142857</ele><time>2026-05-01T16:40:31Z</time></trkpt><trkpt lat="42.485367160880884" lon="12.07010845415739"><ele>319.42857142857144</ele><time>2026-05-01T16:40:32Z</time></trkpt><trkpt lat="42.48535688331234" lon="12.070018725868499"><ele>319.1428571428571</ele><time>2026-05-01T16:40:33Z</time></trkpt><trkpt lat="42.48534850180034" lon="12.069927147195333"><ele>318.8571428571429</ele><time>2026-05-01T16:40:34.001Z</time></trkpt><trkpt lat="42.48533224533076" lon="12.06983800413637"><ele>318.5714285714286</ele><time>2026-05-01T16:40:35.001Z</time></trkpt><trkpt lat="42.485315429873076" lon="12.069748483539287"><ele>318.2857142857143</ele><time>2026-05-01T16:40:36.001Z</time></trkpt><trkpt lat="42.48529703192018" lon="12.069658865410393"><ele>318.0</ele><time>2026-05-01T16:40:37.001Z</time></trkpt><trkpt lat="42.48527465298087" lon="12.06957271061588"><ele>318.0</ele><time>2026-05-01T16:40:38.001Z</time></trkpt><trkpt lat="42.48525208231485" lon="12.069489769925081"><ele>318.0</ele><time>2026-05-01T16:40:39.001Z</time></trkpt><trkpt lat="42.4852300353977" lon="12.069408756022831"><ele>318.0</ele><time>2026-05-01T16:40:40.001Z</time></trkpt><trkpt lat="42.48520056649485" lon="12.069323935862537"><ele>318.0</ele><time>2026-05-01T16:40:41.001Z</time></trkpt><trkpt lat="42.48516806232018" lon="12.069244610648509"><ele>318.0</ele><time>2026-05-01T16:40:42.001Z</time></trkpt><trkpt lat="42.48512774517637" lon="12.069166044355539"><ele>318.0</ele><time>2026-05-01T16:40:43.001Z</time></trkpt><trkpt lat="42.48509091308448" lon="12.069087262007825"><ele>318.0</ele><time>2026-05-01T16:40:44.001Z</time></trkpt><trkpt lat="42.48505707900215" lon="12.0690090483094"><ele>317.8333333333333</ele><time>2026-05-01T16:40:45.001Z</time></trkpt><trkpt lat="42.4850281224946" lon="12.068929861030426"><ele>317.6666666666667</ele><time>2026-05-01T16:40:46.001Z</time></trkpt><trkpt lat="42.485002215008684" lon="12.068849715588117"><ele>317.5</ele><time>2026-05-01T16:40:47.001Z</time></trkpt><trkpt lat="42.48497913044989" lon="12.068760031151804"><ele>317.33333333333337</ele><time>2026-05-01T16:40:48.001Z</time></trkpt><trkpt lat="42.484963283929616" lon="12.06867465722261"><ele>317.1666666666667</ele><time>2026-05-01T16:40:49.001Z</time></trkpt><trkpt lat="42.48493880693411" lon="12.06852223726236"><ele>317.0</ele><time>2026-05-01T16:40:51.001Z</time></trkpt><trkpt lat="42.48492808211146" lon="12.068383226576909"><ele>317.0</ele><time>2026-05-01T16:40:53.001Z</time></trkpt><trkpt lat="42.484928875796804" lon="12.068290951280954"><ele>317.0</ele><time>2026-05-01T16:40:55.001Z</time></trkpt><trkpt lat="42.48501986997379" lon="12.068232323625274"><ele>317.0</ele><time>2026-05-01T16:40:57.001Z</time></trkpt><trkpt lat="42.48510559615263" lon="12.06818734625875"><ele>317.0</ele><time>2026-05-01T16:40:58.001Z</time></trkpt><trkpt lat="42.4852174841127" lon="12.068151655967347"><ele>317.0</ele><time>2026-05-01T16:40:59.001Z</time></trkpt><trkpt lat="42.48535566124985" lon="12.068104879183505"><ele>318.0</ele><time>2026-05-01T16:41:00.001Z</time></trkpt><trkpt lat="42.48550476277" lon="12.06806319338271"><ele>319.0</ele><time>2026-05-01T16:41:01.001Z</time></trkpt><trkpt lat="42.4856764892587" lon="12.068004536310076"><ele>320.0</ele><time>2026-05-01T16:41:02.001Z</time></trkpt><trkpt lat="42.48587011238426" lon="12.067931257383782"><ele>320.0</ele><time>2026-05-01T16:41:03.001Z</time></trkpt><trkpt lat="42.48610683625284" lon="12.067844851758242"><ele>320.0</ele><time>2026-05-01T16:41:04.001Z</time></trkpt><trkpt lat="42.48638766795124" lon="12.067754619262038"><ele>319.5</ele><time>2026-05-01T16:41:05.001Z</time></trkpt><trkpt lat="42.48669545716643" lon="12.067656089837717"><ele>319.0</ele><time>2026-05-01T16:41:06.001Z</time></trkpt><trkpt lat="42.48701651781473" lon="12.06756108813495"><ele>319.0</ele><time>2026-05-01T16:41:07.001Z</time></trkpt><trkpt lat="42.48733002457282" lon="12.067459669920837"><ele>319.0</ele><time>2026-05-01T16:41:08.001Z</time></trkpt><trkpt lat="42.48761049042262" lon="12.06735587963317"><ele>320.5</ele><time>2026-05-01T16:41:09.001Z</time></trkpt><trkpt lat="42.48788603624538" lon="12.067246625553738"><ele>322.0</ele><time>2026-05-01T16:41:10.001Z</time></trkpt><trkpt lat="42.48815844729334" lon="12.067131763499471"><ele>323.5</ele><time>2026-05-01T16:41:11.001Z</time></trkpt><trkpt lat="42.48842462210274" lon="12.067013291521134"><ele>325.0</ele><time>2026-05-01T16:41:12.001Z</time></trkpt><trkpt lat="42.48868636478783" lon="12.066886553722002"><ele>324.0</ele><time>2026-05-01T16:41:13.001Z</time></trkpt><trkpt lat="42.48894326688379" lon="12.066752882230734"><ele>323.0</ele><time>2026-05-01T16:41:14.001Z</time></trkpt><trkpt lat="42.489199957309076" lon="12.066631883232796"><ele>323.5</ele><time>2026-05-01T16:41:15.001Z</time></trkpt><trkpt lat="42.48943511534655" lon="12.066463550292603"><ele>324.0</ele><time>2026-05-01T16:41:16Z</time></trkpt><trkpt lat="42.48967176704696" lon="12.06629287936959"><ele>321.5</ele><time>2026-05-01T16:41:17Z</time></trkpt><trkpt lat="42.48990477143679" lon="12.066093910307451"><ele>319.0</ele><time>2026-05-01T16:41:18Z</time></trkpt><trkpt lat="42.49014614488219" lon="12.065912540194674"><ele>320.0</ele><time>2026-05-01T16:41:19Z</time></trkpt><trkpt lat="42.490366632669215" lon="12.065688317540099"><ele>321.0</ele><time>2026-05-01T16:41:20Z</time></trkpt><trkpt lat="42.4905923886415" lon="12.065489953557002"><ele>319.0</ele><time>2026-05-01T16:41:21Z</time></trkpt><trkpt lat="42.49081451754287" lon="12.065292731374232"><ele>317.0</ele><time>2026-05-01T16:41:22Z</time></trkpt><trkpt lat="42.49103457631002" lon="12.065132820512554"><ele>317.0</ele><time>2026-05-01T16:41:23Z</time></trkpt><trkpt lat="42.491234769019954" lon="12.064969165075173"><ele>317.0</ele><time>2026-05-01T16:41:24Z</time></trkpt><trkpt lat="42.49142564876611" lon="12.06481327595809"><ele>316.6666666666667</ele><time>2026-05-01T16:41:25Z</time></trkpt><trkpt lat="42.491615235386234" lon="12.0646665846645"><ele>316.3333333333333</ele><time>2026-05-01T16:41:26Z</time></trkpt><trkpt lat="42.49181280604715" lon="12.064523578552464"><ele>316.0</ele><time>2026-05-01T16:41:27Z</time></trkpt><trkpt lat="42.49201108646945" lon="12.06438269939848"><ele>316.0</ele><time>2026-05-01T16:41:28Z</time></trkpt><trkpt lat="42.49220672123344" lon="12.064245168382712"><ele>316.0</ele><time>2026-05-01T16:41:29Z</time></trkpt><trkpt lat="42.49238352876579" lon="12.06410497178089"><ele>316.0</ele><time>2026-05-01T16:41:30Z</time></trkpt><trkpt lat="42.49256003733873" lon="12.063997311404377"><ele>316.0</ele><time>2026-05-01T16:41:31Z</time></trkpt><trkpt lat="42.49273451069893" lon="12.063912089635267"><ele>316.0</ele><time>2026-05-01T16:41:32Z</time></trkpt><trkpt lat="42.492909826123196" lon="12.063843624020365"><ele>316.0</ele><time>2026-05-01T16:41:33Z</time></trkpt><trkpt lat="42.493072202817196" lon="12.063790480975655"><ele>314.3333333333333</ele><time>2026-05-01T16:41:34Z</time></trkpt><trkpt lat="42.49322372514513" lon="12.06374828039324"><ele>312.6666666666667</ele><time>2026-05-01T16:41:35Z</time></trkpt><trkpt lat="42.49338258801494" lon="12.063735618467742"><ele>311.0</ele><time>2026-05-01T16:41:36Z</time></trkpt><trkpt lat="42.49355949891603" lon="12.063710434488993"><ele>311.0</ele><time>2026-05-01T16:41:37Z</time></trkpt><trkpt lat="42.493753094244745" lon="12.063691032700694"><ele>311.0</ele><time>2026-05-01T16:41:38Z</time></trkpt><trkpt lat="42.49393333051479" lon="12.063673369677336"><ele>311.0</ele><time>2026-05-01T16:41:39Z</time></trkpt><trkpt lat="42.49410818983059" lon="12.063637496976657"><ele>311.0</ele><time>2026-05-01T16:41:40Z</time></trkpt><trkpt lat="42.49427995590704" lon="12.063617144939009"><ele>311.0</ele><time>2026-05-01T16:41:41Z</time></trkpt><trkpt lat="42.49445565813617" lon="12.063575986258714"><ele>311.0</ele><time>2026-05-01T16:41:42Z</time></trkpt><trkpt lat="42.49463460825432" lon="12.063549657791132"><ele>311.33333333333337</ele><time>2026-05-01T16:41:43Z</time></trkpt><trkpt lat="42.49480573856056" lon="12.06350117054907"><ele>311.6666666666667</ele><time>2026-05-01T16:41:44Z</time></trkpt><trkpt lat="42.494964935570955" lon="12.063449018448983"><ele>312.0</ele><time>2026-05-01T16:41:45Z</time></trkpt><trkpt lat="42.495119441055714" lon="12.063394005387805"><ele>312.0</ele><time>2026-05-01T16:41:46Z</time></trkpt><trkpt lat="42.49527741807364" lon="12.063335196375725"><ele>312.0</ele><time>2026-05-01T16:41:47Z</time></trkpt><trkpt lat="42.49543822134963" lon="12.063274412404466"><ele>312.0</ele><time>2026-05-01T16:41:48Z</time></trkpt><trkpt lat="42.49559379521327" lon="12.063215605170404"><ele>312.6666666666667</ele><time>2026-05-01T16:41:49Z</time></trkpt><trkpt lat="42.495749059576596" lon="12.063156914883022"><ele>313.33333333333337</ele><time>2026-05-01T16:41:50Z</time></trkpt><trkpt lat="42.49589962188035" lon="12.063078889016754"><ele>314.0</ele><time>2026-05-01T16:41:51Z</time></trkpt><trkpt lat="42.496061839659376" lon="12.06301793262321"><ele>314.0</ele><time>2026-05-01T16:41:52Z</time></trkpt><trkpt lat="42.496246498825144" lon="12.062948589490409"><ele>314.0</ele><time>2026-05-01T16:41:53Z</time></trkpt><trkpt lat="42.49645177812892" lon="12.062855416196953"><ele>314.0</ele><time>2026-05-01T16:41:54Z</time></trkpt><trkpt lat="42.49668536076179" lon="12.062754981657037"><ele>315.0</ele><time>2026-05-01T16:41:55Z</time></trkpt><trkpt lat="42.4969447672576" lon="12.062671058962264"><ele>316.0</ele><time>2026-05-01T16:41:56Z</time></trkpt><trkpt lat="42.497215474517944" lon="12.062579983569458"><ele>316.0</ele><time>2026-05-01T16:41:57Z</time></trkpt><trkpt lat="42.497489501304905" lon="12.062474562661667"><ele>316.0</ele><time>2026-05-01T16:41:58Z</time></trkpt><trkpt lat="42.497764144586135" lon="12.062372052870224"><ele>317.0</ele><time>2026-05-01T16:41:59Z</time></trkpt><trkpt lat="42.49802976710031" lon="12.062269795228966"><ele>318.0</ele><time>2026-05-01T16:42:00Z</time></trkpt><trkpt lat="42.49828764087024" lon="12.062172546455184"><ele>318.0</ele><time>2026-05-01T16:42:01Z</time></trkpt><trkpt lat="42.49852764054966" lon="12.062080737053176"><ele>318.0</ele><time>2026-05-01T16:42:02Z</time></trkpt><trkpt lat="42.49875275102463" lon="12.061998241765522"><ele>320.0</ele><time>2026-05-01T16:42:03Z</time></trkpt><trkpt lat="42.49896478473284" lon="12.06192037097599"><ele>322.0</ele><time>2026-05-01T16:42:04Z</time></trkpt><trkpt lat="42.499174580586555" lon="12.061836990924647"><ele>324.0</ele><time>2026-05-01T16:42:05Z</time></trkpt><trkpt lat="42.49938492803667" lon="12.061752539110158"><ele>325.0</ele><time>2026-05-01T16:42:06Z</time></trkpt><trkpt lat="42.49959681415886" lon="12.061672377941713"><ele>326.0</ele><time>2026-05-01T16:42:07Z</time></trkpt><trkpt lat="42.49980988789723" lon="12.061589244379016"><ele>327.0</ele><time>2026-05-01T16:42:08Z</time></trkpt><trkpt lat="42.500031045970964" lon="12.061492541040447"><ele>327.5</ele><time>2026-05-01T16:42:09Z</time></trkpt><trkpt lat="42.50026101821236" lon="12.061390599225026"><ele>328.0</ele><time>2026-05-01T16:42:10Z</time></trkpt><trkpt lat="42.50049733092231" lon="12.061294204631752"><ele>332.5</ele><time>2026-05-01T16:42:11Z</time></trkpt><trkpt lat="42.50073881082317" lon="12.061209540594456"><ele>337.0</ele><time>2026-05-01T16:42:12Z</time></trkpt><trkpt lat="42.50097942747298" lon="12.061129881757825"><ele>337.0</ele><time>2026-05-01T16:42:13Z</time></trkpt><trkpt lat="42.501214680193975" lon="12.06104852077831"><ele>337.0</ele><time>2026-05-01T16:42:14Z</time></trkpt><trkpt lat="42.501440157876914" lon="12.060966345023727"><ele>338.3333333333333</ele><time>2026-05-01T16:42:15Z</time></trkpt><trkpt lat="42.501655101795265" lon="12.06088934172299"><ele>339.6666666666667</ele><time>2026-05-01T16:42:16Z</time></trkpt><trkpt lat="42.50185696531339" lon="12.060816633032756"><ele>341.0</ele><time>2026-05-01T16:42:17Z</time></trkpt><trkpt lat="42.50203969873733" lon="12.060745662514586"><ele>342.0</ele><time>2026-05-01T16:42:18Z</time></trkpt><trkpt lat="42.50220706541494" lon="12.060677328210684"><ele>343.0</ele><time>2026-05-01T16:42:19Z</time></trkpt><trkpt lat="42.50236134791838" lon="12.060612833792684"><ele>344.0</ele><time>2026-05-01T16:42:20Z</time></trkpt><trkpt lat="42.50250482870455" lon="12.060552379041354"><ele>344.0</ele><time>2026-05-01T16:42:21Z</time></trkpt><trkpt lat="42.50263973278552" lon="12.060497044986842"><ele>344.0</ele><time>2026-05-01T16:42:22Z</time></trkpt><trkpt lat="42.50276806435558" lon="12.060448594248108"><ele>344.0</ele><time>2026-05-01T16:42:23Z</time></trkpt><trkpt lat="42.502908402451396" lon="12.060397578649932"><ele>344.0</ele><time>2026-05-01T16:42:24Z</time></trkpt><trkpt lat="42.503046959135794" lon="12.060343180900068"><ele>344.0</ele><time>2026-05-01T16:42:25Z</time></trkpt><trkpt lat="42.50317362866515" lon="12.06029301412255"><ele>344.0</ele><time>2026-05-01T16:42:26Z</time></trkpt><trkpt lat="42.503301591515125" lon="12.06023442908392"><ele>344.0</ele><time>2026-05-01T16:42:27Z</time></trkpt><trkpt lat="42.50343068457338" lon="12.060172555551528"><ele>344.0</ele><time>2026-05-01T16:42:28Z</time></trkpt><trkpt lat="42.50356287126341" lon="12.060099603754264"><ele>344.0</ele><time>2026-05-01T16:42:29Z</time></trkpt><trkpt lat="42.50369769329194" lon="12.060022156667939"><ele>344.0</ele><time>2026-05-01T16:42:30Z</time></trkpt><trkpt lat="42.50383682260349" lon="12.05994319041371"><ele>344.0</ele><time>2026-05-01T16:42:31Z</time></trkpt><trkpt lat="42.50397046196235" lon="12.059871721746791"><ele>344.0</ele><time>2026-05-01T16:42:32Z</time></trkpt><trkpt lat="42.504095962370705" lon="12.059800827687372"><ele>344.0</ele><time>2026-05-01T16:42:33Z</time></trkpt><trkpt lat="42.50421861916471" lon="12.05972087503429"><ele>344.0</ele><time>2026-05-01T16:42:34Z</time></trkpt><trkpt lat="42.504343267359694" lon="12.059631794021096"><ele>344.0</ele><time>2026-05-01T16:42:35Z</time></trkpt><trkpt lat="42.504459891591495" lon="12.059541562581911"><ele>344.0</ele><time>2026-05-01T16:42:36Z</time></trkpt><trkpt lat="42.504572180144976" lon="12.0594520190327"><ele>344.25</ele><time>2026-05-01T16:42:37Z</time></trkpt><trkpt lat="42.50468771170471" lon="12.059349172247735"><ele>344.5</ele><time>2026-05-01T16:42:38Z</time></trkpt><trkpt lat="42.50480592975857" lon="12.059242207034329"><ele>344.75</ele><time>2026-05-01T16:42:39Z</time></trkpt><trkpt lat="42.504929213652694" lon="12.059140615957777"><ele>345.0</ele><time>2026-05-01T16:42:40Z</time></trkpt><trkpt lat="42.50505785410306" lon="12.059038637990506"><ele>345.3333333333333</ele><time>2026-05-01T16:42:41Z</time></trkpt><trkpt lat="42.50518964451712" lon="12.05893691316118"><ele>345.66666666666663</ele><time>2026-05-01T16:42:42Z</time></trkpt><trkpt lat="42.50531963733245" lon="12.058832390162227"><ele>346.0</ele><time>2026-05-01T16:42:43Z</time></trkpt><trkpt lat="42.50545499029593" lon="12.0587230616558"><ele>346.3333333333333</ele><time>2026-05-01T16:42:44Z</time></trkpt><trkpt lat="42.505590678128534" lon="12.058626325781873"><ele>346.6666666666667</ele><time>2026-05-01T16:42:45Z</time></trkpt><trkpt lat="42.50573478390021" lon="12.058534870198587"><ele>347.0</ele><time>2026-05-01T16:42:46Z</time></trkpt><trkpt lat="42.50587837766634" lon="12.05845203884865"><ele>347.0</ele><time>2026-05-01T16:42:47Z</time></trkpt><trkpt lat="42.506030752679834" lon="12.058373370823736"><ele>347.0</ele><time>2026-05-01T16:42:48.001Z</time></trkpt><trkpt lat="42.506216704509725" lon="12.058292446785808"><ele>347.0</ele><time>2026-05-01T16:42:49.001Z</time></trkpt><trkpt lat="42.506427500748394" lon="12.058218275839577"><ele>346.6666666666667</ele><time>2026-05-01T16:42:50.001Z</time></trkpt><trkpt lat="42.50663828755094" lon="12.058144871989644"><ele>346.3333333333333</ele><time>2026-05-01T16:42:51.001Z</time></trkpt><trkpt lat="42.506857498749376" lon="12.058050254907375"><ele>346.0</ele><time>2026-05-01T16:42:52.001Z</time></trkpt><trkpt lat="42.507066005826886" lon="12.057950368694225"><ele>347.3333333333333</ele><time>2026-05-01T16:42:53.001Z</time></trkpt><trkpt lat="42.507274643157004" lon="12.057839614694483"><ele>348.6666666666667</ele><time>2026-05-01T16:42:54.001Z</time></trkpt><trkpt lat="42.50747858059371" lon="12.057731211491337"><ele>350.0</ele><time>2026-05-01T16:42:55.001Z</time></trkpt><trkpt lat="42.50766868453255" lon="12.057621851568172"><ele>350.0</ele><time>2026-05-01T16:42:56.001Z</time></trkpt><trkpt lat="42.5078533898694" lon="12.05753333143716"><ele>350.0</ele><time>2026-05-01T16:42:57.001Z</time></trkpt><trkpt lat="42.508021375686646" lon="12.057403894890014"><ele>350.0</ele><time>2026-05-01T16:42:58.001Z</time></trkpt><trkpt lat="42.50820157864303" lon="12.057311819950714"><ele>351.0</ele><time>2026-05-01T16:42:59.001Z</time></trkpt><trkpt lat="42.508385715896644" lon="12.05719601487866"><ele>352.0</ele><time>2026-05-01T16:43:00.001Z</time></trkpt><trkpt lat="42.50858696899387" lon="12.057069445546976"><ele>353.0</ele><time>2026-05-01T16:43:01.001Z</time></trkpt><trkpt lat="42.508787697197945" lon="12.056937549242635"><ele>353.33333333333337</ele><time>2026-05-01T16:43:02.001Z</time></trkpt><trkpt lat="42.50898167797363" lon="12.056807476859955"><ele>353.6666666666667</ele><time>2026-05-01T16:43:03.001Z</time></trkpt><trkpt lat="42.509155901280266" lon="12.056684040888763"><ele>354.0</ele><time>2026-05-01T16:43:04.001Z</time></trkpt><trkpt lat="42.509299030899186" lon="12.056554456460427"><ele>354.0</ele><time>2026-05-01T16:43:05.001Z</time></trkpt><trkpt lat="42.509439917651015" lon="12.056450502501127"><ele>354.0</ele><time>2026-05-01T16:43:06.001Z</time></trkpt><trkpt lat="42.50957169051763" lon="12.056354978139971"><ele>354.0</ele><time>2026-05-01T16:43:07.001Z</time></trkpt><trkpt lat="42.509708518800906" lon="12.056254360393915"><ele>355.0</ele><time>2026-05-01T16:43:08.001Z</time></trkpt><trkpt lat="42.5098476448428" lon="12.05615253156865"><ele>356.0</ele><time>2026-05-01T16:43:09.001Z</time></trkpt><trkpt lat="42.50998985519172" lon="12.056043599661713"><ele>357.0</ele><time>2026-05-01T16:43:10.001Z</time></trkpt><trkpt lat="42.51016901295533" lon="12.055930796508411"><ele>357.0</ele><time>2026-05-01T16:43:11.001Z</time></trkpt><trkpt lat="42.51036012192995" lon="12.055788070671195"><ele>357.0</ele><time>2026-05-01T16:43:12.001Z</time></trkpt><trkpt lat="42.510546512629816" lon="12.055628968195728"><ele>357.0</ele><time>2026-05-01T16:43:13.001Z</time></trkpt><trkpt lat="42.51074137325005" lon="12.055493865506062"><ele>358.6666666666667</ele><time>2026-05-01T16:43:14.001Z</time></trkpt><trkpt lat="42.51092721544613" lon="12.055352924611368"><ele>360.33333333333337</ele><time>2026-05-01T16:43:15.001Z</time></trkpt><trkpt lat="42.511105891858996" lon="12.055217535362097"><ele>362.0</ele><time>2026-05-01T16:43:16.001Z</time></trkpt><trkpt lat="42.511282010664424" lon="12.055085705677971"><ele>363.33333333333337</ele><time>2026-05-01T16:43:17.001Z</time></trkpt><trkpt lat="42.51145675729852" lon="12.054956618229369"><ele>364.6666666666667</ele><time>2026-05-01T16:43:18.001Z</time></trkpt><trkpt lat="42.511629543694916" lon="12.054825066454116"><ele>366.0</ele><time>2026-05-01T16:43:19.001Z</time></trkpt><trkpt lat="42.51179547395827" lon="12.054697549111525"><ele>366.3333333333333</ele><time>2026-05-01T16:43:20.001Z</time></trkpt><trkpt lat="42.51195496864544" lon="12.054576358486024"><ele>366.66666666666663</ele><time>2026-05-01T16:43:21.001Z</time></trkpt><trkpt lat="42.51210750999385" lon="12.054463216061677"><ele>367.0</ele><time>2026-05-01T16:43:22Z</time></trkpt><trkpt lat="42.5122656321514" lon="12.054375298944613"><ele>368.66666666666663</ele><time>2026-05-01T16:43:23Z</time></trkpt><trkpt lat="42.512408851301764" lon="12.05427392751534"><ele>370.3333333333333</ele><time>2026-05-01T16:43:24Z</time></trkpt><trkpt lat="42.512550315760144" lon="12.054177340010558"><ele>372.0</ele><time>2026-05-01T16:43:25Z</time></trkpt><trkpt lat="42.51269441090663" lon="12.05408092826979"><ele>372.6666666666667</ele><time>2026-05-01T16:43:26Z</time></trkpt><trkpt lat="42.51284038225511" lon="12.053985254981722"><ele>373.33333333333337</ele><time>2026-05-01T16:43:27Z</time></trkpt><trkpt lat="42.51299497393906" lon="12.05388389020712"><ele>374.0</ele><time>2026-05-01T16:43:28Z</time></trkpt><trkpt lat="42.513155445360944" lon="12.053778906747306"><ele>375.33333333333337</ele><time>2026-05-01T16:43:29Z</time></trkpt><trkpt lat="42.51331154780833" lon="12.053653442884654"><ele>376.6666666666667</ele><time>2026-05-01T16:43:30Z</time></trkpt><trkpt lat="42.51346833984748" lon="12.05355748172307"><ele>378.0</ele><time>2026-05-01T16:43:31Z</time></trkpt><trkpt lat="42.51361588638353" lon="12.053468899002613"><ele>378.6666666666667</ele><time>2026-05-01T16:43:32Z</time></trkpt><trkpt lat="42.513755099517965" lon="12.053379789742271"><ele>379.33333333333337</ele><time>2026-05-01T16:43:33Z</time></trkpt><trkpt lat="42.51389061151394" lon="12.053285867116875"><ele>380.0</ele><time>2026-05-01T16:43:34Z</time></trkpt><trkpt lat="42.51401966601469" lon="12.053195013269699"><ele>380.33333333333337</ele><time>2026-05-01T16:43:35Z</time></trkpt><trkpt lat="42.5141550436208" lon="12.053097374252859"><ele>380.6666666666667</ele><time>2026-05-01T16:43:36Z</time></trkpt><trkpt lat="42.514320308187564" lon="12.053011280376316"><ele>381.0</ele><time>2026-05-01T16:43:37Z</time></trkpt><trkpt lat="42.51450516574021" lon="12.052890220201704"><ele>384.0</ele><time>2026-05-01T16:43:38Z</time></trkpt><trkpt lat="42.51470455992255" lon="12.052759640228402"><ele>387.0</ele><time>2026-05-01T16:43:39Z</time></trkpt><trkpt lat="42.514909744588806" lon="12.05260260266229"><ele>386.5</ele><time>2026-05-01T16:43:40Z</time></trkpt><trkpt lat="42.5151391359193" lon="12.05245156123046"><ele>386.0</ele><time>2026-05-01T16:43:41Z</time></trkpt><trkpt lat="42.51537930552448" lon="12.052269657784043"><ele>388.0</ele><time>2026-05-01T16:43:42Z</time></trkpt><trkpt lat="42.51564612659054" lon="12.052077725581073"><ele>390.0</ele><time>2026-05-01T16:43:43Z</time></trkpt><trkpt lat="42.515909548787484" lon="12.051851062886106"><ele>390.5</ele><time>2026-05-01T16:43:44Z</time></trkpt><trkpt lat="42.51618319803625" lon="12.05160763299482"><ele>391.0</ele><time>2026-05-01T16:43:45Z</time></trkpt><trkpt lat="42.516433784080924" lon="12.051332693053038"><ele>393.5</ele><time>2026-05-01T16:43:46Z</time></trkpt><trkpt lat="42.51665632844586" lon="12.05108453469488"><ele>396.0</ele><time>2026-05-01T16:43:47Z</time></trkpt><trkpt lat="42.51687452674924" lon="12.050840028426167"><ele>399.5</ele><time>2026-05-01T16:43:48Z</time></trkpt><trkpt lat="42.51708138671304" lon="12.050575363891584"><ele>403.0</ele><time>2026-05-01T16:43:49Z</time></trkpt><trkpt lat="42.51729254597229" lon="12.050335922737998"><ele>403.0</ele><time>2026-05-01T16:43:50Z</time></trkpt><trkpt lat="42.51750252024591" lon="12.050107034953948"><ele>403.0</ele><time>2026-05-01T16:43:51Z</time></trkpt><trkpt lat="42.51770325257432" lon="12.049880533245808"><ele>406.0</ele><time>2026-05-01T16:43:52Z</time></trkpt><trkpt lat="42.51789964197208" lon="12.049658604385598"><ele>409.0</ele><time>2026-05-01T16:43:53Z</time></trkpt><trkpt lat="42.51808259005656" lon="12.049448608363"><ele>410.0</ele><time>2026-05-01T16:43:54Z</time></trkpt><trkpt lat="42.51825303574547" lon="12.049254279287302"><ele>411.0</ele><time>2026-05-01T16:43:55Z</time></trkpt><trkpt lat="42.51841357020974" lon="12.049079423288676"><ele>412.0</ele><time>2026-05-01T16:43:56Z</time></trkpt><trkpt lat="42.518566841649076" lon="12.04892520465873"><ele>412.0</ele><time>2026-05-01T16:43:57Z</time></trkpt><trkpt lat="42.518725374248866" lon="12.04876299551892"><ele>412.0</ele><time>2026-05-01T16:43:58Z</time></trkpt><trkpt lat="42.51889661854697" lon="12.048595492671708"><ele>412.0</ele><time>2026-05-01T16:43:59Z</time></trkpt><trkpt lat="42.51908697020318" lon="12.048449696503667"><ele>412.0</ele><time>2026-05-01T16:44:00Z</time></trkpt><trkpt lat="42.51928860020855" lon="12.0483165664588"><ele>412.0</ele><time>2026-05-01T16:44:01Z</time></trkpt><trkpt lat="42.519498176585735" lon="12.048195053265102"><ele>409.5</ele><time>2026-05-01T16:44:02Z</time></trkpt><trkpt lat="42.51971601678553" lon="12.048102539350763"><ele>407.0</ele><time>2026-05-01T16:44:03Z</time></trkpt><trkpt lat="42.51993980734486" lon="12.0480398308149"><ele>407.0</ele><time>2026-05-01T16:44:04Z</time></trkpt><trkpt lat="42.520168328229616" lon="12.048006981708108"><ele>407.0</ele><time>2026-05-01T16:44:05Z</time></trkpt><trkpt lat="42.52039809462735" lon="12.047993758679882"><ele>406.5</ele><time>2026-05-01T16:44:06Z</time></trkpt><trkpt lat="42.52062457183321" lon="12.048006197011118"><ele>406.0</ele><time>2026-05-01T16:44:07Z</time></trkpt><trkpt lat="42.52085026704389" lon="12.048046328767894"><ele>406.0</ele><time>2026-05-01T16:44:08Z</time></trkpt><trkpt lat="42.52107341159328" lon="12.048096911965311"><ele>406.0</ele><time>2026-05-01T16:44:09Z</time></trkpt><trkpt lat="42.521292419984576" lon="12.04818675754"><ele>407.5</ele><time>2026-05-01T16:44:10Z</time></trkpt><trkpt lat="42.521506203350526" lon="12.04830069597265"><ele>409.0</ele><time>2026-05-01T16:44:11Z</time></trkpt><trkpt lat="42.52171306311605" lon="12.048430504482207"><ele>409.0</ele><time>2026-05-01T16:44:12Z</time></trkpt><trkpt lat="42.52190983869014" lon="12.048582708808523"><ele>409.0</ele><time>2026-05-01T16:44:13Z</time></trkpt><trkpt lat="42.522098239326695" lon="12.048751068501545"><ele>410.0</ele><time>2026-05-01T16:44:14Z</time></trkpt><trkpt lat="42.52227339855269" lon="12.048935250846057"><ele>411.0</ele><time>2026-05-01T16:44:15Z</time></trkpt><trkpt lat="42.52243012787487" lon="12.049134871800883"><ele>412.0</ele><time>2026-05-01T16:44:16Z</time></trkpt><trkpt lat="42.52257583881942" lon="12.049343488153415"><ele>414.33333333333337</ele><time>2026-05-01T16:44:17Z</time></trkpt><trkpt lat="42.522709308345455" lon="12.049560120619583"><ele>416.66666666666663</ele><time>2026-05-01T16:44:18Z</time></trkpt><trkpt lat="42.52283475267486" lon="12.049778131648912"><ele>419.0</ele><time>2026-05-01T16:44:19Z</time></trkpt><trkpt lat="42.52295837176647" lon="12.050011146032567"><ele>420.66666666666663</ele><time>2026-05-01T16:44:20Z</time></trkpt><trkpt lat="42.52308289019983" lon="12.050239538529793"><ele>422.33333333333337</ele><time>2026-05-01T16:44:21Z</time></trkpt><trkpt lat="42.52320635125835" lon="12.050461420678877"><ele>424.0</ele><time>2026-05-01T16:44:22Z</time></trkpt><trkpt lat="42.52332276483151" lon="12.050669929031088"><ele>425.6666666666667</ele><time>2026-05-01T16:44:23Z</time></trkpt><trkpt lat="42.52342468273533" lon="12.050855628440312"><ele>427.33333333333337</ele><time>2026-05-01T16:44:24Z</time></trkpt><trkpt lat="42.52351264777568" lon="12.051022382518491"><ele>429.0</ele><time>2026-05-01T16:44:25Z</time></trkpt><trkpt lat="42.52359611015705" lon="12.051181141230591"><ele>429.0</ele><time>2026-05-01T16:44:26Z</time></trkpt><trkpt lat="42.52367882146894" lon="12.051351041518565"><ele>429.0</ele><time>2026-05-01T16:44:27Z</time></trkpt><trkpt lat="42.52376371413826" lon="12.051533851250799"><ele>429.0</ele><time>2026-05-01T16:44:28Z</time></trkpt><trkpt lat="42.52386226165574" lon="12.051724530840305"><ele>430.66666666666663</ele><time>2026-05-01T16:44:29Z</time></trkpt><trkpt lat="42.52397290402161" lon="12.051918900216634"><ele>432.3333333333333</ele><time>2026-05-01T16:44:30Z</time></trkpt><trkpt lat="42.52408410974574" lon="12.0521211452888"><ele>434.0</ele><time>2026-05-01T16:44:31Z</time></trkpt><trkpt lat="42.52419526397559" lon="12.052326648123017"><ele>434.66666666666663</ele><time>2026-05-01T16:44:32Z</time></trkpt><trkpt lat="42.52430954018712" lon="12.05252200813802"><ele>435.33333333333337</ele><time>2026-05-01T16:44:33Z</time></trkpt><trkpt lat="42.5244122768817" lon="12.052706909803698"><ele>436.0</ele><time>2026-05-01T16:44:34Z</time></trkpt><trkpt lat="42.5245088281215" lon="12.052875789509292"><ele>437.0</ele><time>2026-05-01T16:44:35Z</time></trkpt><trkpt lat="42.524604244422775" lon="12.053022498518574"><ele>438.0</ele><time>2026-05-01T16:44:36Z</time></trkpt><trkpt lat="42.5247117450305" lon="12.053141688108058"><ele>439.0</ele><time>2026-05-01T16:44:37Z</time></trkpt><trkpt lat="42.524848670289934" lon="12.053235579243527"><ele>440.0</ele><time>2026-05-01T16:44:38Z</time></trkpt><trkpt lat="42.52499689594375" lon="12.05331011265217"><ele>440.0</ele><time>2026-05-01T16:44:39Z</time></trkpt><trkpt lat="42.52514842074738" lon="12.053367660625453"><ele>440.0</ele><time>2026-05-01T16:44:40Z</time></trkpt><trkpt lat="42.525296122627516" lon="12.053408382479908"><ele>440.0</ele><time>2026-05-01T16:44:41Z</time></trkpt><trkpt lat="42.52543728971518" lon="12.053439474528947"><ele>441.25</ele><time>2026-05-01T16:44:42.001Z</time></trkpt><trkpt lat="42.52557104441221" lon="12.053455396180812"><ele>442.5</ele><time>2026-05-01T16:44:43.001Z</time></trkpt><trkpt lat="42.52569328557811" lon="12.053482467178647"><ele>443.75</ele><time>2026-05-01T16:44:44.001Z</time></trkpt><trkpt lat="42.52580144078746" lon="12.053490846124776"><ele>445.0</ele><time>2026-05-01T16:44:45.001Z</time></trkpt><trkpt lat="42.52589853160692" lon="12.053496573443946"><ele>445.0</ele><time>2026-05-01T16:44:46.001Z</time></trkpt><trkpt lat="42.52599572684035" lon="12.05350131294704"><ele>445.0</ele><time>2026-05-01T16:44:47.001Z</time></trkpt><trkpt lat="42.526093566830134" lon="12.053506083888623"><ele>445.0</ele><time>2026-05-01T16:44:48.001Z</time></trkpt><trkpt lat="42.52620215544103" lon="12.05350957931144"><ele>445.0</ele><time>2026-05-01T16:44:49.001Z</time></trkpt><trkpt lat="42.5263040577852" lon="12.05351139778624"><ele>445.0</ele><time>2026-05-01T16:44:50.001Z</time></trkpt><trkpt lat="42.526404068085995" lon="12.053513617839185"><ele>445.6</ele><time>2026-05-01T16:44:51.001Z</time></trkpt><trkpt lat="42.526504132118184" lon="12.053493896359079"><ele>446.2</ele><time>2026-05-01T16:44:52.001Z</time></trkpt><trkpt lat="42.526599901900454" lon="12.053499626645305"><ele>446.79999999999995</ele><time>2026-05-01T16:44:53.001Z</time></trkpt><trkpt lat="42.52669953589105" lon="12.053501640277748"><ele>447.4</ele><time>2026-05-01T16:44:54.001Z</time></trkpt><trkpt lat="42.52680097056862" lon="12.053506294709052"><ele>448.0</ele><time>2026-05-01T16:44:55.001Z</time></trkpt><trkpt lat="42.526904474665365" lon="12.053509168402774"><ele>448.0</ele><time>2026-05-01T16:44:56.001Z</time></trkpt><trkpt lat="42.52700319665172" lon="12.053538559947205"><ele>447.99999999999994</ele><time>2026-05-01T16:44:57.001Z</time></trkpt><trkpt lat="42.52709442573677" lon="12.053544203898618"><ele>447.99999999999994</ele><time>2026-05-01T16:44:58.001Z</time></trkpt><trkpt lat="42.52718347358428" lon="12.053536153716035"><ele>448.0</ele><time>2026-05-01T16:44:59.001Z</time></trkpt><trkpt lat="42.527274565065895" lon="12.0535480220936"><ele>448.0</ele><time>2026-05-01T16:45:00.001Z</time></trkpt><trkpt lat="42.527368843149745" lon="12.053557838000076"><ele>449.0</ele><time>2026-05-01T16:45:01.001Z</time></trkpt><trkpt lat="42.52746153810982" lon="12.053571300482583"><ele>449.99999999999994</ele><time>2026-05-01T16:45:02.001Z</time></trkpt><trkpt lat="42.527554853673045" lon="12.05358824665183"><ele>450.99999999999994</ele><time>2026-05-01T16:45:03.001Z</time></trkpt><trkpt lat="42.52764934642184" lon="12.053608448502569"><ele>452.0</ele><time>2026-05-01T16:45:04.001Z</time></trkpt><trkpt lat="42.52774668688192" lon="12.05363569655925"><ele>453.0</ele><time>2026-05-01T16:45:05.001Z</time></trkpt><trkpt lat="42.52784664507649" lon="12.053667730048783"><ele>453.59999999999997</ele><time>2026-05-01T16:45:06.001Z</time></trkpt><trkpt lat="42.52794543713054" lon="12.053714541451885"><ele>454.19999999999993</ele><time>2026-05-01T16:45:07.001Z</time></trkpt><trkpt lat="42.52805310335255" lon="12.053754194917639"><ele>454.8</ele><time>2026-05-01T16:45:08.001Z</time></trkpt><trkpt lat="42.528168325631924" lon="12.053779884645792"><ele>455.4</ele><time>2026-05-01T16:45:09.001Z</time></trkpt><trkpt lat="42.5282760242508" lon="12.05382822628272"><ele>456.0</ele><time>2026-05-01T16:45:10.001Z</time></trkpt><trkpt lat="42.528371460211645" lon="12.053860952963186"><ele>456.0</ele><time>2026-05-01T16:45:11.001Z</time></trkpt><trkpt lat="42.52846677174165" lon="12.053879092659804"><ele>456.0</ele><time>2026-05-01T16:45:12.001Z</time></trkpt><trkpt lat="42.52858564686942" lon="12.053898214035524"><ele>456.0</ele><time>2026-05-01T16:45:13.001Z</time></trkpt><trkpt lat="42.52872561640174" lon="12.053881294673898"><ele>456.0</ele><time>2026-05-01T16:45:14.001Z</time></trkpt><trkpt lat="42.528871019293426" lon="12.053837223249976"><ele>457.5</ele><time>2026-05-01T16:45:15.001Z</time></trkpt><trkpt lat="42.52900924598481" lon="12.053811020112338"><ele>459.0</ele><time>2026-05-01T16:45:16.001Z</time></trkpt><trkpt lat="42.52914395060192" lon="12.053768366504046"><ele>460.5</ele><time>2026-05-01T16:45:17.001Z</time></trkpt><trkpt lat="42.52926727318324" lon="12.053732855045071"><ele>462.0</ele><time>2026-05-01T16:45:18.001Z</time></trkpt><trkpt lat="42.52938979595788" lon="12.053700132799417"><ele>462.0</ele><time>2026-05-01T16:45:19.001Z</time></trkpt><trkpt lat="42.529510024713574" lon="12.053677352658818"><ele>462.0</ele><time>2026-05-01T16:45:20.001Z</time></trkpt><trkpt lat="42.52961696950312" lon="12.053645196299737"><ele>462.0</ele><time>2026-05-01T16:45:21.001Z</time></trkpt><trkpt lat="42.52973047242606" lon="12.053619722028659"><ele>462.0</ele><time>2026-05-01T16:45:22.001Z</time></trkpt><trkpt lat="42.52984283193889" lon="12.053594746961307"><ele>463.0</ele><time>2026-05-01T16:45:23.001Z</time></trkpt><trkpt lat="42.529954625151824" lon="12.05356653696705"><ele>464.0</ele><time>2026-05-01T16:45:24.001Z</time></trkpt><trkpt lat="42.53007151246027" lon="12.05354058159947"><ele>465.0</ele><time>2026-05-01T16:45:25.001Z</time></trkpt><trkpt lat="42.53018817216134" lon="12.05351859408904"><ele>466.0</ele><time>2026-05-01T16:45:26.001Z</time></trkpt><trkpt lat="42.530306303450864" lon="12.053492863698931"><ele>467.0</ele><time>2026-05-01T16:45:27.001Z</time></trkpt><trkpt lat="42.53042255843634" lon="12.05345592564038"><ele>468.0</ele><time>2026-05-01T16:45:28Z</time></trkpt><trkpt lat="42.53052991648139" lon="12.053397786185744"><ele>469.0</ele><time>2026-05-01T16:45:29Z</time></trkpt><trkpt lat="42.53062948516651" lon="12.053321197550428"><ele>470.0</ele><time>2026-05-01T16:45:30Z</time></trkpt><trkpt lat="42.53071583228623" lon="12.053217452011681"><ele>470.0</ele><time>2026-05-01T16:45:31Z</time></trkpt><trkpt lat="42.53076867609552" lon="12.053075924733694"><ele>470.0</ele><time>2026-05-01T16:45:32Z</time></trkpt><trkpt lat="42.530823602669635" lon="12.052917143231726"><ele>470.0</ele><time>2026-05-01T16:45:33Z</time></trkpt><trkpt lat="42.530864935325084" lon="12.052702288820528"><ele>470.0</ele><time>2026-05-01T16:45:34Z</time></trkpt><trkpt lat="42.53091456594464" lon="12.052439285514424"><ele>470.66666666666663</ele><time>2026-05-01T16:45:35Z</time></trkpt><trkpt lat="42.53096369218313" lon="12.05217831897774"><ele>471.33333333333337</ele><time>2026-05-01T16:45:36Z</time></trkpt><trkpt lat="42.53101174988095" lon="12.051921990968198"><ele>472.0</ele><time>2026-05-01T16:45:37Z</time></trkpt><trkpt lat="42.5310648360936" lon="12.05164294285756"><ele>474.0</ele><time>2026-05-01T16:45:38Z</time></trkpt><trkpt lat="42.531103381878005" lon="12.051357063087035"><ele>476.0</ele><time>2026-05-01T16:45:39Z</time></trkpt><trkpt lat="42.53115736805318" lon="12.051080651058815"><ele>478.0</ele><time>2026-05-01T16:45:40Z</time></trkpt><trkpt lat="42.53121110557617" lon="12.050809194638655"><ele>478.33333333333337</ele><time>2026-05-01T16:45:41Z</time></trkpt><trkpt lat="42.5312644031876" lon="12.050541157053868"><ele>478.66666666666663</ele><time>2026-05-01T16:45:42Z</time></trkpt><trkpt lat="42.531316747737165" lon="12.05027536694043"><ele>479.0</ele><time>2026-05-01T16:45:43Z</time></trkpt><trkpt lat="42.53136996379624" lon="12.050015744925874"><ele>480.66666666666663</ele><time>2026-05-01T16:45:44Z</time></trkpt><trkpt lat="42.531422527250484" lon="12.049756112797969"><ele>482.33333333333337</ele><time>2026-05-01T16:45:45Z</time></trkpt><trkpt lat="42.53147471816732" lon="12.049482593498073"><ele>484.0</ele><time>2026-05-01T16:45:46Z</time></trkpt><trkpt lat="42.53152563359179" lon="12.04921352417075"><ele>485.33333333333337</ele><time>2026-05-01T16:45:47Z</time></trkpt><trkpt lat="42.53159503861725" lon="12.048946774656402"><ele>486.66666666666663</ele><time>2026-05-01T16:45:48Z</time></trkpt><trkpt lat="42.53165046097328" lon="12.048681183105915"><ele>488.0</ele><time>2026-05-01T16:45:49Z</time></trkpt><trkpt lat="42.53169103043107" lon="12.04840852377163"><ele>487.66666666666663</ele><time>2026-05-01T16:45:50Z</time></trkpt><trkpt lat="42.53175072700942" lon="12.048142930410512"><ele>487.33333333333337</ele><time>2026-05-01T16:45:51Z</time></trkpt><trkpt lat="42.53181784860138" lon="12.047883042607893"><ele>487.0</ele><time>2026-05-01T16:45:52Z</time></trkpt><trkpt lat="42.531910371058686" lon="12.047639607457082"><ele>486.0</ele><time>2026-05-01T16:45:53Z</time></trkpt><trkpt lat="42.5319996935569" lon="12.047385022788058"><ele>485.0</ele><time>2026-05-01T16:45:54Z</time></trkpt><trkpt lat="42.53208409614869" lon="12.047121511141585"><ele>484.0</ele><time>2026-05-01T16:45:55Z</time></trkpt><trkpt lat="42.532139024097496" lon="12.04683296241395"><ele>488.33333333333337</ele><time>2026-05-01T16:45:56Z</time></trkpt><trkpt lat="42.532202446472965" lon="12.046546322269187"><ele>492.66666666666663</ele><time>2026-05-01T16:45:57Z</time></trkpt><trkpt lat="42.53226206062467" lon="12.046257560779258"><ele>497.0</ele><time>2026-05-01T16:45:58Z</time></trkpt><trkpt lat="42.53231896784378" lon="12.045970754250053"><ele>498.3333333333333</ele><time>2026-05-01T16:45:59Z</time></trkpt><trkpt lat="42.53237720200474" lon="12.045695852700888"><ele>499.66666666666663</ele><time>2026-05-01T16:46:00Z</time></trkpt><trkpt lat="42.53243392519332" lon="12.045426559676288"><ele>501.0</ele><time>2026-05-01T16:46:01Z</time></trkpt><trkpt lat="42.53249146196088" lon="12.045164959742877"><ele>501.33333333333337</ele><time>2026-05-01T16:46:02Z</time></trkpt><trkpt lat="42.532550941250896" lon="12.04491012365891"><ele>501.6666666666667</ele><time>2026-05-01T16:46:03Z</time></trkpt><trkpt lat="42.532619199648565" lon="12.044662816214446"><ele>502.0</ele><time>2026-05-01T16:46:04Z</time></trkpt><trkpt lat="42.532708417051595" lon="12.044430110303438"><ele>502.0</ele><time>2026-05-01T16:46:05Z</time></trkpt><trkpt lat="42.53282135801164" lon="12.044205601812351"><ele>502.0</ele><time>2026-05-01T16:46:06Z</time></trkpt><trkpt lat="42.53295260466723" lon="12.04398977930155"><ele>502.0</ele><time>2026-05-01T16:46:07Z</time></trkpt><trkpt lat="42.53309739841066" lon="12.043775299466015"><ele>504.33333333333337</ele><time>2026-05-01T16:46:08Z</time></trkpt><trkpt lat="42.53323524527132" lon="12.043550481621711"><ele>506.66666666666663</ele><time>2026-05-01T16:46:09Z</time></trkpt><trkpt lat="42.53337065753829" lon="12.04331617583703"><ele>509.0</ele><time>2026-05-01T16:46:10Z</time></trkpt><trkpt lat="42.53350577873706" lon="12.04308859801255"><ele>509.0</ele><time>2026-05-01T16:46:11Z</time></trkpt><trkpt lat="42.53363610677178" lon="12.042856617674579"><ele>509.0</ele><time>2026-05-01T16:46:12Z</time></trkpt><trkpt lat="42.53376147686162" lon="12.042620985041264"><ele>509.0</ele><time>2026-05-01T16:46:13Z</time></trkpt><trkpt lat="42.533884577576345" lon="12.042385193571318"><ele>512.3333333333333</ele><time>2026-05-01T16:46:14Z</time></trkpt><trkpt lat="42.53400537406001" lon="12.042144525896326"><ele>515.6666666666666</ele><time>2026-05-01T16:46:15Z</time></trkpt><trkpt lat="42.5341246219092" lon="12.041896063544769"><ele>519.0</ele><time>2026-05-01T16:46:16Z</time></trkpt><trkpt lat="42.534239951405326" lon="12.04164562116989"><ele>520.3333333333334</ele><time>2026-05-01T16:46:17Z</time></trkpt><trkpt lat="42.53435880952087" lon="12.041400088227308"><ele>521.6666666666667</ele><time>2026-05-01T16:46:18Z</time></trkpt><trkpt lat="42.53448470664402" lon="12.04116267562899"><ele>523.0</ele><time>2026-05-01T16:46:19Z</time></trkpt><trkpt lat="42.534616194103926" lon="12.040928343108279"><ele>525.3333333333334</ele><time>2026-05-01T16:46:20Z</time></trkpt><trkpt lat="42.534755829415985" lon="12.04070146367548"><ele>527.6666666666666</ele><time>2026-05-01T16:46:21Z</time></trkpt><trkpt lat="42.53489979678268" lon="12.0404766344146"><ele>530.0</ele><time>2026-05-01T16:46:22Z</time></trkpt><trkpt lat="42.535052511962796" lon="12.040260534422098"><ele>530.0</ele><time>2026-05-01T16:46:23Z</time></trkpt><trkpt lat="42.53520471178819" lon="12.040048681148221"><ele>530.0</ele><time>2026-05-01T16:46:24Z</time></trkpt><trkpt lat="42.53536012570557" lon="12.039851005159818"><ele>530.0</ele><time>2026-05-01T16:46:25Z</time></trkpt><trkpt lat="42.53552116229425" lon="12.039656519556367"><ele>532.0</ele><time>2026-05-01T16:46:26Z</time></trkpt><trkpt lat="42.53568624178229" lon="12.039460464624046"><ele>534.0</ele><time>2026-05-01T16:46:27Z</time></trkpt><trkpt lat="42.53584833109564" lon="12.039265679104952"><ele>536.0</ele><time>2026-05-01T16:46:28Z</time></trkpt><trkpt lat="42.53600706587273" lon="12.039068055563128"><ele>537.3333333333333</ele><time>2026-05-01T16:46:29Z</time></trkpt><trkpt lat="42.53616278935373" lon="12.038871134795247"><ele>538.6666666666666</ele><time>2026-05-01T16:46:30Z</time></trkpt><trkpt lat="42.536316690217085" lon="12.038682485901653"><ele>540.0</ele><time>2026-05-01T16:46:31Z</time></trkpt><trkpt lat="42.536465204568714" lon="12.03850085438642"><ele>540.0</ele><time>2026-05-01T16:46:32Z</time></trkpt><trkpt lat="42.53660519243141" lon="12.038313927606183"><ele>540.0</ele><time>2026-05-01T16:46:33Z</time></trkpt><trkpt lat="42.536737275295835" lon="12.038128686445178"><ele>540.0</ele><time>2026-05-01T16:46:34Z</time></trkpt><trkpt lat="42.536865980330106" lon="12.037946851667582"><ele>539.6666666666666</ele><time>2026-05-01T16:46:35Z</time></trkpt><trkpt lat="42.53700052222208" lon="12.03776130736753"><ele>539.3333333333333</ele><time>2026-05-01T16:46:36Z</time></trkpt><trkpt lat="42.53712859856266" lon="12.0375818906137"><ele>539.0</ele><time>2026-05-01T16:46:37Z</time></trkpt><trkpt lat="42.537248110793826" lon="12.037422658674584"><ele>540.25</ele><time>2026-05-01T16:46:38Z</time></trkpt><trkpt lat="42.537359311717225" lon="12.037273360446543"><ele>541.5</ele><time>2026-05-01T16:46:39Z</time></trkpt><trkpt lat="42.537464609062205" lon="12.037135488037352"><ele>542.75</ele><time>2026-05-01T16:46:40Z</time></trkpt><trkpt lat="42.53756357933268" lon="12.036995840356896"><ele>544.0</ele><time>2026-05-01T16:46:41Z</time></trkpt><trkpt lat="42.53766347461553" lon="12.036851007181166"><ele>544.0</ele><time>2026-05-01T16:46:42Z</time></trkpt><trkpt lat="42.53777451484836" lon="12.036727014419352"><ele>544.0</ele><time>2026-05-01T16:46:43Z</time></trkpt><trkpt lat="42.53785848748956" lon="12.036581520037231"><ele>544.0</ele><time>2026-05-01T16:46:44Z</time></trkpt><trkpt lat="42.53794158946244" lon="12.036470242122322"><ele>544.0</ele><time>2026-05-01T16:46:45Z</time></trkpt><trkpt lat="42.53801897672209" lon="12.036370261074522"><ele>544.5</ele><time>2026-05-01T16:46:46Z</time></trkpt><trkpt lat="42.53808582215396" lon="12.036281688660786"><ele>545.0</ele><time>2026-05-01T16:46:47Z</time></trkpt><trkpt lat="42.538142335097554" lon="12.036208102338048"><ele>545.5</ele><time>2026-05-01T16:46:48Z</time></trkpt><trkpt lat="42.53819281057623" lon="12.036137413891943"><ele>546.0</ele><time>2026-05-01T16:46:49Z</time></trkpt><trkpt lat="42.53823407889213" lon="12.03607205718943"><ele>546.5</ele><time>2026-05-01T16:46:50Z</time></trkpt><trkpt lat="42.53828766623295" lon="12.036001757879847"><ele>547.0</ele><time>2026-05-01T16:46:51Z</time></trkpt><trkpt lat="42.538353978477204" lon="12.035914833237637"><ele>547.0</ele><time>2026-05-01T16:46:52Z</time></trkpt><trkpt lat="42.538423175973506" lon="12.035817022083938"><ele>547.0</ele><time>2026-05-01T16:46:53Z</time></trkpt><trkpt lat="42.53848391005152" lon="12.03572754639489"><ele>547.0</ele><time>2026-05-01T16:46:54Z</time></trkpt><trkpt lat="42.53854720445877" lon="12.03564198567327"><ele>547.0</ele><time>2026-05-01T16:46:55Z</time></trkpt><trkpt lat="42.538608454152026" lon="12.035553467999852"><ele>547.0</ele><time>2026-05-01T16:46:56Z</time></trkpt><trkpt lat="42.53867974204149" lon="12.035476248226225"><ele>549.2</ele><time>2026-05-01T16:46:57Z</time></trkpt><trkpt lat="42.5387605738304" lon="12.035425768245192"><ele>551.4000000000001</ele><time>2026-05-01T16:46:58Z</time></trkpt><trkpt lat="42.53884777104578" lon="12.035414056755446"><ele>553.5999999999999</ele><time>2026-05-01T16:46:59.001Z</time></trkpt><trkpt lat="42.538944175618205" lon="12.035434144798591"><ele>555.8</ele><time>2026-05-01T16:47:00.001Z</time></trkpt><trkpt lat="42.53903770277195" lon="12.035474465547038"><ele>558.0</ele><time>2026-05-01T16:47:01.001Z</time></trkpt><trkpt lat="42.53912463338249" lon="12.03551102051377"><ele>558.0</ele><time>2026-05-01T16:47:02.001Z</time></trkpt><trkpt lat="42.53921251975187" lon="12.035547995591287"><ele>558.0</ele><time>2026-05-01T16:47:03.001Z</time></trkpt><trkpt lat="42.53929727547747" lon="12.035577113383836"><ele>558.0</ele><time>2026-05-01T16:47:04.001Z</time></trkpt><trkpt lat="42.539376854331785" lon="12.035599359128936"><ele>558.0</ele><time>2026-05-01T16:47:05.001Z</time></trkpt><trkpt lat="42.53945211605507" lon="12.035623877791778"><ele>558.0</ele><time>2026-05-01T16:47:06.001Z</time></trkpt><trkpt lat="42.539523000249936" lon="12.035652197388467"><ele>558.0</ele><time>2026-05-01T16:47:07.001Z</time></trkpt><trkpt lat="42.53959745911018" lon="12.035668013874385"><ele>558.5</ele><time>2026-05-01T16:47:08.001Z</time></trkpt><trkpt lat="42.53967047404217" lon="12.035693167086222"><ele>559.0</ele><time>2026-05-01T16:47:09.001Z</time></trkpt><trkpt lat="42.539743462358075" lon="12.035728433495823"><ele>559.5</ele><time>2026-05-01T16:47:10.001Z</time></trkpt><trkpt lat="42.53982163306854" lon="12.03575639940813"><ele>560.0</ele><time>2026-05-01T16:47:11.001Z</time></trkpt><trkpt lat="42.539903296528024" lon="12.035778133929355"><ele>560.5</ele><time>2026-05-01T16:47:12.001Z</time></trkpt><trkpt lat="42.53998282860632" lon="12.035794360633432"><ele>561.0</ele><time>2026-05-01T16:47:13.001Z</time></trkpt><trkpt lat="42.54005711815944" lon="12.035802151065813"><ele>561.0</ele><time>2026-05-01T16:47:14.001Z</time></trkpt><trkpt lat="42.540130895000146" lon="12.03580291442801"><ele>561.0</ele><time>2026-05-01T16:47:15.001Z</time></trkpt><trkpt lat="42.540213290499715" lon="12.035808406410496"><ele>561.0</ele><time>2026-05-01T16:47:16.001Z</time></trkpt><trkpt lat="42.54031555459525" lon="12.03581596290141"><ele>561.0</ele><time>2026-05-01T16:47:17.001Z</time></trkpt><trkpt lat="42.54043772345742" lon="12.035841678648374"><ele>561.0</ele><time>2026-05-01T16:47:18.001Z</time></trkpt><trkpt lat="42.540557795388196" lon="12.035867777263073"><ele>559.6</ele><time>2026-05-01T16:47:19.001Z</time></trkpt><trkpt lat="42.54067503213521" lon="12.035887160155083"><ele>558.2</ele><time>2026-05-01T16:47:20.001Z</time></trkpt><trkpt lat="42.54078265991839" lon="12.035900609241624"><ele>556.8</ele><time>2026-05-01T16:47:21.001Z</time></trkpt><trkpt lat="42.54088855826032" lon="12.035914761693114"><ele>555.4</ele><time>2026-05-01T16:47:22.001Z</time></trkpt><trkpt lat="42.54098730482244" lon="12.035919544746966"><ele>554.0</ele><time>2026-05-01T16:47:23.001Z</time></trkpt><trkpt lat="42.54107381969291" lon="12.035933189016369"><ele>554.0</ele><time>2026-05-01T16:47:24.001Z</time></trkpt><trkpt lat="42.54117958077164" lon="12.035949347159331"><ele>554.0</ele><time>2026-05-01T16:47:26.001Z</time></trkpt><trkpt lat="42.54124468983433" lon="12.03597906140557"><ele>554.0</ele><time>2026-05-01T16:47:27.001Z</time></trkpt><trkpt lat="42.54130835944724" lon="12.036004606037778"><ele>554.0</ele><time>2026-05-01T16:47:28.001Z</time></trkpt><trkpt lat="42.541372998245365" lon="12.036027986601244"><ele>554.0</ele><time>2026-05-01T16:47:29.001Z</time></trkpt><trkpt lat="42.541440934622656" lon="12.036052086579305"><ele>554.0</ele><time>2026-05-01T16:47:30.001Z</time></trkpt><trkpt lat="42.541517890025204" lon="12.03607976228273"><ele>551.6</ele><time>2026-05-01T16:47:31.001Z</time></trkpt><trkpt lat="42.541595084658724" lon="12.036102064125801"><ele>549.2</ele><time>2026-05-01T16:47:32.001Z</time></trkpt><trkpt lat="42.541673111036566" lon="12.036129377627516"><ele>546.8000000000001</ele><time>2026-05-01T16:47:33.001Z</time></trkpt><trkpt lat="42.54175561468464" lon="12.036160036617904"><ele>544.4</ele><time>2026-05-01T16:47:34Z</time></trkpt><trkpt lat="42.541854658599604" lon="12.03619784389422"><ele>542.0</ele><time>2026-05-01T16:47:35Z</time></trkpt><trkpt lat="42.54196186435867" lon="12.036258755950637"><ele>540.75</ele><time>2026-05-01T16:47:36Z</time></trkpt><trkpt lat="42.542066605316144" lon="12.036325460831772"><ele>539.5</ele><time>2026-05-01T16:47:37Z</time></trkpt><trkpt lat="42.54216930350556" lon="12.036380471924929"><ele>538.25</ele><time>2026-05-01T16:47:38Z</time></trkpt><trkpt lat="42.54227665056106" lon="12.0364514641058"><ele>537.0</ele><time>2026-05-01T16:47:39Z</time></trkpt><trkpt lat="42.54239022722176" lon="12.036519060699392"><ele>537.0</ele><time>2026-05-01T16:47:40Z</time></trkpt><trkpt lat="42.54249929644605" lon="12.036596214431588"><ele>537.0</ele><time>2026-05-01T16:47:41Z</time></trkpt><trkpt lat="42.54260179961561" lon="12.036684014758432"><ele>537.0</ele><time>2026-05-01T16:47:42Z</time></trkpt><trkpt lat="42.54269919296521" lon="12.036783551709869"><ele>537.0</ele><time>2026-05-01T16:47:43Z</time></trkpt><trkpt lat="42.54278604109814" lon="12.036909331351138"><ele>537.0</ele><time>2026-05-01T16:47:44Z</time></trkpt><trkpt lat="42.54285802207622" lon="12.037053025728232"><ele>537.0</ele><time>2026-05-01T16:47:45Z</time></trkpt><trkpt lat="42.54291598455116" lon="12.037206458551408"><ele>537.0</ele><time>2026-05-01T16:47:46Z</time></trkpt><trkpt lat="42.54296087903974" lon="12.037372523280565"><ele>537.0</ele><time>2026-05-01T16:47:47Z</time></trkpt><trkpt lat="42.54302753596146" lon="12.03754862998194"><ele>536.25</ele><time>2026-05-01T16:47:48Z</time></trkpt><trkpt lat="42.54310293027423" lon="12.037702459449507"><ele>535.5</ele><time>2026-05-01T16:47:49Z</time></trkpt><trkpt lat="42.543206089861684" lon="12.037832981128101"><ele>534.75</ele><time>2026-05-01T16:47:50Z</time></trkpt><trkpt lat="42.54333103389544" lon="12.037930308305299"><ele>534.0</ele><time>2026-05-01T16:47:51Z</time></trkpt><trkpt lat="42.543466124310434" lon="12.038002401062858"><ele>534.0</ele><time>2026-05-01T16:47:52Z</time></trkpt><trkpt lat="42.54361179133409" lon="12.03804937561471"><ele>534.0</ele><time>2026-05-01T16:47:53Z</time></trkpt><trkpt lat="42.54376016320484" lon="12.038086630930572"><ele>534.0</ele><time>2026-05-01T16:47:54Z</time></trkpt><trkpt lat="42.54390952616185" lon="12.03812797632368"><ele>533.75</ele><time>2026-05-01T16:47:55Z</time></trkpt><trkpt lat="42.54405095462348" lon="12.038179441836224"><ele>533.5</ele><time>2026-05-01T16:47:56Z</time></trkpt><trkpt lat="42.54418664529417" lon="12.038242899921135"><ele>533.25</ele><time>2026-05-01T16:47:57Z</time></trkpt><trkpt lat="42.54431218773312" lon="12.038332492914039"><ele>533.0</ele><time>2026-05-01T16:47:58Z</time></trkpt><trkpt lat="42.544425428111246" lon="12.0384585412251"><ele>533.25</ele><time>2026-05-01T16:47:59Z</time></trkpt><trkpt lat="42.54452634076342" lon="12.038598370360248"><ele>533.5</ele><time>2026-05-01T16:48:00Z</time></trkpt><trkpt lat="42.544622629185355" lon="12.038726667138253"><ele>533.75</ele><time>2026-05-01T16:48:01Z</time></trkpt><trkpt lat="42.54470390548506" lon="12.038835433033956"><ele>534.0</ele><time>2026-05-01T16:48:02Z</time></trkpt><trkpt lat="42.54476226472913" lon="12.038936266092577"><ele>534.0</ele><time>2026-05-01T16:48:03Z</time></trkpt><trkpt lat="42.54479743147285" lon="12.039029765634659"><ele>534.0</ele><time>2026-05-01T16:48:04Z</time></trkpt><trkpt lat="42.544830341932865" lon="12.039117116230507"><ele>534.0</ele><time>2026-05-01T16:48:05Z</time></trkpt><trkpt lat="42.54485534203667" lon="12.039284429760588"><ele>534.0</ele><time>2026-05-01T16:48:07Z</time></trkpt><trkpt lat="42.544864851286576" lon="12.03939725344305"><ele>534.0</ele><time>2026-05-01T16:48:08Z</time></trkpt><trkpt lat="42.54487447572572" lon="12.03951863449908"><ele>534.0</ele><time>2026-05-01T16:48:09Z</time></trkpt><trkpt lat="42.54488316978988" lon="12.039640572962671"><ele>528.0</ele><time>2026-05-01T16:48:10Z</time></trkpt><trkpt lat="42.544891335552684" lon="12.039755976089928"><ele>528.0</ele><time>2026-05-01T16:48:11Z</time></trkpt><trkpt lat="42.54490163589543" lon="12.039853878095334"><ele>528.0</ele><time>2026-05-01T16:48:12Z</time></trkpt><trkpt lat="42.54491013342566" lon="12.039966866979423"><ele>530.0</ele><time>2026-05-01T16:48:14Z</time></trkpt><trkpt lat="42.54492668227214" lon="12.040049711533657"><ele>530.0</ele><time>2026-05-01T16:48:17Z</time></trkpt></trkseg></trk></gpx>